<?xml version="1.0" encoding="UTF-8" standalone="no" ?>
<gpx xmlns="http://www.topografix.com/GPX/1/1" xmlns:xsi="http://www.w3.org/2001/XMLSchema-instance" xsi:schemaLocation="http://www.topografix.com/GPX/1/1 http://www.topografix.com/GPX/1/1/gpx.xsd" version="1.1" creator="VisuGPX - https://www.visugpx.com">
  <metadata>
    <name>Kimm 2010 - Jour 1</name>
    <desc><![CDATA[1er jour de la Kimm 2010.
Équipe : Martin Bainier & Thomas BALAY
http://www.adorr.fr/francais/kimm_francais.htm]]></desc>
  </metadata>
  <trk>
    <name><![CDATA[57]]></name>
    <trkseg>
      <trkpt lat="46.25781" lon="6.53229">
        <ele>905</ele>
        <time>2010-09-11T08:30:13Z</time>
      </trkpt>
      <trkpt lat="46.25775" lon="6.53226">
        <ele>904</ele>
        <time>2010-09-11T08:30:22Z</time>
      </trkpt>
      <trkpt lat="46.2577" lon="6.53221">
        <ele>905</ele>
        <time>2010-09-11T08:30:29Z</time>
      </trkpt>
      <trkpt lat="46.2577" lon="6.53222">
        <ele>904</ele>
        <time>2010-09-11T08:30:33Z</time>
      </trkpt>
      <trkpt lat="46.2577" lon="6.53222">
        <ele>904</ele>
        <time>2010-09-11T08:30:49Z</time>
      </trkpt>
      <trkpt lat="46.2577" lon="6.53222">
        <ele>904</ele>
        <time>2010-09-11T08:31:05Z</time>
      </trkpt>
      <trkpt lat="46.25769" lon="6.53223">
        <ele>904</ele>
        <time>2010-09-11T08:31:23Z</time>
      </trkpt>
      <trkpt lat="46.25771" lon="6.53223">
        <ele>904</ele>
        <time>2010-09-11T08:33:23Z</time>
      </trkpt>
      <trkpt lat="46.2577" lon="6.53223">
        <ele>904</ele>
        <time>2010-09-11T08:33:34Z</time>
      </trkpt>
      <trkpt lat="46.25765" lon="6.5322">
        <ele>904</ele>
        <time>2010-09-11T08:34:16Z</time>
      </trkpt>
      <trkpt lat="46.2577" lon="6.5322">
        <ele>905</ele>
        <time>2010-09-11T08:34:54Z</time>
      </trkpt>
      <trkpt lat="46.25771" lon="6.53221">
        <ele>905</ele>
        <time>2010-09-11T08:35:33Z</time>
      </trkpt>
      <trkpt lat="46.25771" lon="6.53222">
        <ele>904</ele>
        <time>2010-09-11T08:35:37Z</time>
      </trkpt>
      <trkpt lat="46.25772" lon="6.53221">
        <ele>905</ele>
        <time>2010-09-11T08:35:45Z</time>
      </trkpt>
      <trkpt lat="46.25775" lon="6.5322">
        <ele>905</ele>
        <time>2010-09-11T08:35:49Z</time>
      </trkpt>
      <trkpt lat="46.25772" lon="6.53222">
        <ele>905</ele>
        <time>2010-09-11T08:35:54Z</time>
      </trkpt>
      <trkpt lat="46.25771" lon="6.53226">
        <ele>904</ele>
        <time>2010-09-11T08:36:01Z</time>
      </trkpt>
      <trkpt lat="46.25773" lon="6.53221">
        <ele>905</ele>
        <time>2010-09-11T08:36:17Z</time>
      </trkpt>
      <trkpt lat="46.2577" lon="6.53222">
        <ele>905</ele>
        <time>2010-09-11T08:36:20Z</time>
      </trkpt>
      <trkpt lat="46.25768" lon="6.5322">
        <ele>904</ele>
        <time>2010-09-11T08:36:26Z</time>
      </trkpt>
      <trkpt lat="46.25766" lon="6.53221">
        <ele>904</ele>
        <time>2010-09-11T08:36:30Z</time>
      </trkpt>
      <trkpt lat="46.25763" lon="6.53219">
        <ele>904</ele>
        <time>2010-09-11T08:36:32Z</time>
      </trkpt>
      <trkpt lat="46.25757" lon="6.53207">
        <ele>905</ele>
        <time>2010-09-11T08:36:39Z</time>
      </trkpt>
      <trkpt lat="46.25749" lon="6.53208">
        <ele>900</ele>
        <time>2010-09-11T08:36:46Z</time>
      </trkpt>
      <trkpt lat="46.25746" lon="6.5321">
        <ele>900</ele>
        <time>2010-09-11T08:36:48Z</time>
      </trkpt>
      <trkpt lat="46.25738" lon="6.53218">
        <ele>900</ele>
        <time>2010-09-11T08:36:53Z</time>
      </trkpt>
      <trkpt lat="46.25733" lon="6.53217">
        <ele>900</ele>
        <time>2010-09-11T08:36:56Z</time>
      </trkpt>
      <trkpt lat="46.25721" lon="6.53205">
        <ele>901</ele>
        <time>2010-09-11T08:37:05Z</time>
      </trkpt>
      <trkpt lat="46.25718" lon="6.53201">
        <ele>901</ele>
        <time>2010-09-11T08:37:08Z</time>
      </trkpt>
      <trkpt lat="46.25712" lon="6.53206">
        <ele>901</ele>
        <time>2010-09-11T08:37:14Z</time>
      </trkpt>
      <trkpt lat="46.25716" lon="6.53216">
        <ele>900</ele>
        <time>2010-09-11T08:37:18Z</time>
      </trkpt>
      <trkpt lat="46.25717" lon="6.53225">
        <ele>900</ele>
        <time>2010-09-11T08:37:21Z</time>
      </trkpt>
      <trkpt lat="46.25712" lon="6.53234">
        <ele>899</ele>
        <time>2010-09-11T08:37:24Z</time>
      </trkpt>
      <trkpt lat="46.25705" lon="6.53242">
        <ele>899</ele>
        <time>2010-09-11T08:37:27Z</time>
      </trkpt>
      <trkpt lat="46.25688" lon="6.5325">
        <ele>899</ele>
        <time>2010-09-11T08:37:33Z</time>
      </trkpt>
      <trkpt lat="46.25679" lon="6.53263">
        <ele>892</ele>
        <time>2010-09-11T08:37:38Z</time>
      </trkpt>
      <trkpt lat="46.2567" lon="6.53274">
        <ele>891</ele>
        <time>2010-09-11T08:37:43Z</time>
      </trkpt>
      <trkpt lat="46.25661" lon="6.53277">
        <ele>886</ele>
        <time>2010-09-11T08:37:47Z</time>
      </trkpt>
      <trkpt lat="46.2565" lon="6.53284">
        <ele>884</ele>
        <time>2010-09-11T08:37:53Z</time>
      </trkpt>
      <trkpt lat="46.25639" lon="6.53296">
        <ele>881</ele>
        <time>2010-09-11T08:37:59Z</time>
      </trkpt>
      <trkpt lat="46.25625" lon="6.53306">
        <ele>880</ele>
        <time>2010-09-11T08:38:04Z</time>
      </trkpt>
      <trkpt lat="46.25607" lon="6.53321">
        <ele>876</ele>
        <time>2010-09-11T08:38:11Z</time>
      </trkpt>
      <trkpt lat="46.256" lon="6.53324">
        <ele>875</ele>
        <time>2010-09-11T08:38:16Z</time>
      </trkpt>
      <trkpt lat="46.2559" lon="6.53327">
        <ele>872</ele>
        <time>2010-09-11T08:38:21Z</time>
      </trkpt>
      <trkpt lat="46.25583" lon="6.53327">
        <ele>871</ele>
        <time>2010-09-11T08:38:24Z</time>
      </trkpt>
      <trkpt lat="46.25576" lon="6.53325">
        <ele>872</ele>
        <time>2010-09-11T08:38:28Z</time>
      </trkpt>
      <trkpt lat="46.25562" lon="6.53343">
        <ele>874</ele>
        <time>2010-09-11T08:38:35Z</time>
      </trkpt>
      <trkpt lat="46.25549" lon="6.53352">
        <ele>876</ele>
        <time>2010-09-11T08:38:40Z</time>
      </trkpt>
      <trkpt lat="46.25539" lon="6.53356">
        <ele>877</ele>
        <time>2010-09-11T08:38:44Z</time>
      </trkpt>
      <trkpt lat="46.25536" lon="6.53359">
        <ele>878</ele>
        <time>2010-09-11T08:38:46Z</time>
      </trkpt>
      <trkpt lat="46.25537" lon="6.53353">
        <ele>877</ele>
        <time>2010-09-11T08:38:52Z</time>
      </trkpt>
      <trkpt lat="46.25532" lon="6.53359">
        <ele>878</ele>
        <time>2010-09-11T08:38:54Z</time>
      </trkpt>
      <trkpt lat="46.25518" lon="6.53371">
        <ele>880</ele>
        <time>2010-09-11T08:38:59Z</time>
      </trkpt>
      <trkpt lat="46.25517" lon="6.53368">
        <ele>880</ele>
        <time>2010-09-11T08:39:02Z</time>
      </trkpt>
      <trkpt lat="46.25514" lon="6.53358">
        <ele>880</ele>
        <time>2010-09-11T08:39:09Z</time>
      </trkpt>
      <trkpt lat="46.25509" lon="6.53351">
        <ele>880</ele>
        <time>2010-09-11T08:39:14Z</time>
      </trkpt>
      <trkpt lat="46.25505" lon="6.53346">
        <ele>881</ele>
        <time>2010-09-11T08:39:18Z</time>
      </trkpt>
      <trkpt lat="46.25494" lon="6.53331">
        <ele>885</ele>
        <time>2010-09-11T08:39:27Z</time>
      </trkpt>
      <trkpt lat="46.25488" lon="6.53327">
        <ele>886</ele>
        <time>2010-09-11T08:39:32Z</time>
      </trkpt>
      <trkpt lat="46.25488" lon="6.53327">
        <ele>886</ele>
        <time>2010-09-11T08:39:44Z</time>
      </trkpt>
      <trkpt lat="46.25479" lon="6.53313">
        <ele>888</ele>
        <time>2010-09-11T08:39:50Z</time>
      </trkpt>
      <trkpt lat="46.25471" lon="6.53293">
        <ele>888</ele>
        <time>2010-09-11T08:39:55Z</time>
      </trkpt>
      <trkpt lat="46.25461" lon="6.53276">
        <ele>889</ele>
        <time>2010-09-11T08:39:59Z</time>
      </trkpt>
      <trkpt lat="46.25453" lon="6.53262">
        <ele>889</ele>
        <time>2010-09-11T08:40:03Z</time>
      </trkpt>
      <trkpt lat="46.25449" lon="6.53253">
        <ele>890</ele>
        <time>2010-09-11T08:40:07Z</time>
      </trkpt>
      <trkpt lat="46.25445" lon="6.53237">
        <ele>886</ele>
        <time>2010-09-11T08:40:12Z</time>
      </trkpt>
      <trkpt lat="46.25442" lon="6.53225">
        <ele>886</ele>
        <time>2010-09-11T08:40:16Z</time>
      </trkpt>
      <trkpt lat="46.25439" lon="6.53215">
        <ele>885</ele>
        <time>2010-09-11T08:40:19Z</time>
      </trkpt>
      <trkpt lat="46.25433" lon="6.532">
        <ele>885</ele>
        <time>2010-09-11T08:40:25Z</time>
      </trkpt>
      <trkpt lat="46.25429" lon="6.53192">
        <ele>884</ele>
        <time>2010-09-11T08:40:29Z</time>
      </trkpt>
      <trkpt lat="46.25424" lon="6.53184">
        <ele>884</ele>
        <time>2010-09-11T08:40:34Z</time>
      </trkpt>
      <trkpt lat="46.25412" lon="6.53174">
        <ele>886</ele>
        <time>2010-09-11T08:40:39Z</time>
      </trkpt>
      <trkpt lat="46.25409" lon="6.53172">
        <ele>886</ele>
        <time>2010-09-11T08:40:40Z</time>
      </trkpt>
      <trkpt lat="46.254" lon="6.53165">
        <ele>883</ele>
        <time>2010-09-11T08:40:44Z</time>
      </trkpt>
      <trkpt lat="46.2538" lon="6.53159">
        <ele>884</ele>
        <time>2010-09-11T08:40:50Z</time>
      </trkpt>
      <trkpt lat="46.25368" lon="6.5316">
        <ele>884</ele>
        <time>2010-09-11T08:40:54Z</time>
      </trkpt>
      <trkpt lat="46.25359" lon="6.53165">
        <ele>884</ele>
        <time>2010-09-11T08:40:58Z</time>
      </trkpt>
      <trkpt lat="46.25351" lon="6.53169">
        <ele>889</ele>
        <time>2010-09-11T08:41:02Z</time>
      </trkpt>
      <trkpt lat="46.25349" lon="6.5317">
        <ele>889</ele>
        <time>2010-09-11T08:41:03Z</time>
      </trkpt>
      <trkpt lat="46.25333" lon="6.53171">
        <ele>888</ele>
        <time>2010-09-11T08:41:09Z</time>
      </trkpt>
      <trkpt lat="46.25321" lon="6.53177">
        <ele>891</ele>
        <time>2010-09-11T08:41:14Z</time>
      </trkpt>
      <trkpt lat="46.25318" lon="6.53178">
        <ele>892</ele>
        <time>2010-09-11T08:41:15Z</time>
      </trkpt>
      <trkpt lat="46.25305" lon="6.53176">
        <ele>893</ele>
        <time>2010-09-11T08:41:21Z</time>
      </trkpt>
      <trkpt lat="46.25303" lon="6.53178">
        <ele>893</ele>
        <time>2010-09-11T08:41:24Z</time>
      </trkpt>
      <trkpt lat="46.25291" lon="6.53186">
        <ele>894</ele>
        <time>2010-09-11T08:41:29Z</time>
      </trkpt>
      <trkpt lat="46.25279" lon="6.53191">
        <ele>894</ele>
        <time>2010-09-11T08:41:33Z</time>
      </trkpt>
      <trkpt lat="46.2527" lon="6.53188">
        <ele>893</ele>
        <time>2010-09-11T08:41:37Z</time>
      </trkpt>
      <trkpt lat="46.25257" lon="6.53181">
        <ele>892</ele>
        <time>2010-09-11T08:41:42Z</time>
      </trkpt>
      <trkpt lat="46.25251" lon="6.53179">
        <ele>891</ele>
        <time>2010-09-11T08:41:44Z</time>
      </trkpt>
      <trkpt lat="46.25235" lon="6.53175">
        <ele>893</ele>
        <time>2010-09-11T08:41:49Z</time>
      </trkpt>
      <trkpt lat="46.25226" lon="6.53174">
        <ele>895</ele>
        <time>2010-09-11T08:41:53Z</time>
      </trkpt>
      <trkpt lat="46.25216" lon="6.53172">
        <ele>895</ele>
        <time>2010-09-11T08:41:57Z</time>
      </trkpt>
      <trkpt lat="46.25215" lon="6.53171">
        <ele>895</ele>
        <time>2010-09-11T08:41:58Z</time>
      </trkpt>
      <trkpt lat="46.25206" lon="6.53164">
        <ele>886</ele>
        <time>2010-09-11T08:42:03Z</time>
      </trkpt>
      <trkpt lat="46.25202" lon="6.53151">
        <ele>886</ele>
        <time>2010-09-11T08:42:09Z</time>
      </trkpt>
      <trkpt lat="46.25198" lon="6.53144">
        <ele>886</ele>
        <time>2010-09-11T08:42:14Z</time>
      </trkpt>
      <trkpt lat="46.25192" lon="6.53157">
        <ele>886</ele>
        <time>2010-09-11T08:42:21Z</time>
      </trkpt>
      <trkpt lat="46.25191" lon="6.53161">
        <ele>886</ele>
        <time>2010-09-11T08:42:22Z</time>
      </trkpt>
      <trkpt lat="46.25185" lon="6.53167">
        <ele>893</ele>
        <time>2010-09-11T08:42:26Z</time>
      </trkpt>
      <trkpt lat="46.25181" lon="6.5317">
        <ele>893</ele>
        <time>2010-09-11T08:42:28Z</time>
      </trkpt>
      <trkpt lat="46.25174" lon="6.53184">
        <ele>895</ele>
        <time>2010-09-11T08:42:33Z</time>
      </trkpt>
      <trkpt lat="46.25167" lon="6.53196">
        <ele>898</ele>
        <time>2010-09-11T08:42:38Z</time>
      </trkpt>
      <trkpt lat="46.25162" lon="6.53198">
        <ele>906</ele>
        <time>2010-09-11T08:42:43Z</time>
      </trkpt>
      <trkpt lat="46.25157" lon="6.53194">
        <ele>905</ele>
        <time>2010-09-11T08:42:48Z</time>
      </trkpt>
      <trkpt lat="46.25153" lon="6.5319">
        <ele>904</ele>
        <time>2010-09-11T08:42:52Z</time>
      </trkpt>
      <trkpt lat="46.25152" lon="6.53184">
        <ele>902</ele>
        <time>2010-09-11T08:42:56Z</time>
      </trkpt>
      <trkpt lat="46.25154" lon="6.53182">
        <ele>901</ele>
        <time>2010-09-11T08:43:01Z</time>
      </trkpt>
      <trkpt lat="46.25157" lon="6.53188">
        <ele>903</ele>
        <time>2010-09-11T08:43:04Z</time>
      </trkpt>
      <trkpt lat="46.25163" lon="6.53194">
        <ele>904</ele>
        <time>2010-09-11T08:43:09Z</time>
      </trkpt>
      <trkpt lat="46.25167" lon="6.53182">
        <ele>894</ele>
        <time>2010-09-11T08:43:15Z</time>
      </trkpt>
      <trkpt lat="46.25165" lon="6.53175">
        <ele>894</ele>
        <time>2010-09-11T08:43:22Z</time>
      </trkpt>
      <trkpt lat="46.2516" lon="6.53169">
        <ele>893</ele>
        <time>2010-09-11T08:43:28Z</time>
      </trkpt>
      <trkpt lat="46.25151" lon="6.53166">
        <ele>888</ele>
        <time>2010-09-11T08:43:31Z</time>
      </trkpt>
      <trkpt lat="46.25137" lon="6.53163">
        <ele>889</ele>
        <time>2010-09-11T08:43:36Z</time>
      </trkpt>
      <trkpt lat="46.25126" lon="6.53159">
        <ele>890</ele>
        <time>2010-09-11T08:43:40Z</time>
      </trkpt>
      <trkpt lat="46.25116" lon="6.53157">
        <ele>892</ele>
        <time>2010-09-11T08:43:44Z</time>
      </trkpt>
      <trkpt lat="46.25102" lon="6.53153">
        <ele>894</ele>
        <time>2010-09-11T08:43:49Z</time>
      </trkpt>
      <trkpt lat="46.25089" lon="6.53153">
        <ele>896</ele>
        <time>2010-09-11T08:43:53Z</time>
      </trkpt>
      <trkpt lat="46.25074" lon="6.53148">
        <ele>898</ele>
        <time>2010-09-11T08:43:58Z</time>
      </trkpt>
      <trkpt lat="46.25073" lon="6.53147">
        <ele>898</ele>
        <time>2010-09-11T08:43:59Z</time>
      </trkpt>
      <trkpt lat="46.25066" lon="6.53149">
        <ele>898</ele>
        <time>2010-09-11T08:44:03Z</time>
      </trkpt>
      <trkpt lat="46.25054" lon="6.53146">
        <ele>897</ele>
        <time>2010-09-11T08:44:09Z</time>
      </trkpt>
      <trkpt lat="46.25039" lon="6.53145">
        <ele>898</ele>
        <time>2010-09-11T08:44:15Z</time>
      </trkpt>
      <trkpt lat="46.25036" lon="6.53145">
        <ele>898</ele>
        <time>2010-09-11T08:44:16Z</time>
      </trkpt>
      <trkpt lat="46.25023" lon="6.53147">
        <ele>899</ele>
        <time>2010-09-11T08:44:20Z</time>
      </trkpt>
      <trkpt lat="46.25011" lon="6.53147">
        <ele>901</ele>
        <time>2010-09-11T08:44:25Z</time>
      </trkpt>
      <trkpt lat="46.25" lon="6.53146">
        <ele>904</ele>
        <time>2010-09-11T08:44:29Z</time>
      </trkpt>
      <trkpt lat="46.24994" lon="6.53144">
        <ele>903</ele>
        <time>2010-09-11T08:44:31Z</time>
      </trkpt>
      <trkpt lat="46.2498" lon="6.53145">
        <ele>903</ele>
        <time>2010-09-11T08:44:36Z</time>
      </trkpt>
      <trkpt lat="46.24974" lon="6.53145">
        <ele>903</ele>
        <time>2010-09-11T08:44:39Z</time>
      </trkpt>
      <trkpt lat="46.24978" lon="6.53153">
        <ele>904</ele>
        <time>2010-09-11T08:44:43Z</time>
      </trkpt>
      <trkpt lat="46.24981" lon="6.53153">
        <ele>904</ele>
        <time>2010-09-11T08:44:45Z</time>
      </trkpt>
      <trkpt lat="46.24991" lon="6.53159">
        <ele>906</ele>
        <time>2010-09-11T08:44:52Z</time>
      </trkpt>
      <trkpt lat="46.24999" lon="6.53164">
        <ele>909</ele>
        <time>2010-09-11T08:44:58Z</time>
      </trkpt>
      <trkpt lat="46.25" lon="6.53164">
        <ele>908</ele>
        <time>2010-09-11T08:45:02Z</time>
      </trkpt>
      <trkpt lat="46.25003" lon="6.53167">
        <ele>911</ele>
        <time>2010-09-11T08:45:12Z</time>
      </trkpt>
      <trkpt lat="46.25005" lon="6.53171">
        <ele>912</ele>
        <time>2010-09-11T08:45:15Z</time>
      </trkpt>
      <trkpt lat="46.25003" lon="6.53178">
        <ele>914</ele>
        <time>2010-09-11T08:45:20Z</time>
      </trkpt>
      <trkpt lat="46.25001" lon="6.53179">
        <ele>914</ele>
        <time>2010-09-11T08:45:22Z</time>
      </trkpt>
      <trkpt lat="46.24997" lon="6.53186">
        <ele>916</ele>
        <time>2010-09-11T08:45:27Z</time>
      </trkpt>
      <trkpt lat="46.24995" lon="6.53191">
        <ele>917</ele>
        <time>2010-09-11T08:45:31Z</time>
      </trkpt>
      <trkpt lat="46.24997" lon="6.53199">
        <ele>919</ele>
        <time>2010-09-11T08:45:40Z</time>
      </trkpt>
      <trkpt lat="46.25001" lon="6.53205">
        <ele>920</ele>
        <time>2010-09-11T08:45:45Z</time>
      </trkpt>
      <trkpt lat="46.25005" lon="6.53206">
        <ele>920</ele>
        <time>2010-09-11T08:45:50Z</time>
      </trkpt>
      <trkpt lat="46.25008" lon="6.53208">
        <ele>921</ele>
        <time>2010-09-11T08:45:54Z</time>
      </trkpt>
      <trkpt lat="46.25009" lon="6.53207">
        <ele>920</ele>
        <time>2010-09-11T08:45:58Z</time>
      </trkpt>
      <trkpt lat="46.25011" lon="6.53206">
        <ele>920</ele>
        <time>2010-09-11T08:46:02Z</time>
      </trkpt>
      <trkpt lat="46.25015" lon="6.53203">
        <ele>920</ele>
        <time>2010-09-11T08:46:06Z</time>
      </trkpt>
      <trkpt lat="46.25019" lon="6.53203">
        <ele>920</ele>
        <time>2010-09-11T08:46:10Z</time>
      </trkpt>
      <trkpt lat="46.25027" lon="6.53205">
        <ele>920</ele>
        <time>2010-09-11T08:46:16Z</time>
      </trkpt>
      <trkpt lat="46.25029" lon="6.53209">
        <ele>921</ele>
        <time>2010-09-11T08:46:20Z</time>
      </trkpt>
      <trkpt lat="46.25027" lon="6.53217">
        <ele>922</ele>
        <time>2010-09-11T08:46:27Z</time>
      </trkpt>
      <trkpt lat="46.25029" lon="6.53222">
        <ele>923</ele>
        <time>2010-09-11T08:46:30Z</time>
      </trkpt>
      <trkpt lat="46.25035" lon="6.53231">
        <ele>924</ele>
        <time>2010-09-11T08:46:37Z</time>
      </trkpt>
      <trkpt lat="46.25037" lon="6.53238">
        <ele>925</ele>
        <time>2010-09-11T08:46:41Z</time>
      </trkpt>
      <trkpt lat="46.25034" lon="6.53252">
        <ele>942</ele>
        <time>2010-09-11T08:46:49Z</time>
      </trkpt>
      <trkpt lat="46.25029" lon="6.53263">
        <ele>943</ele>
        <time>2010-09-11T08:46:55Z</time>
      </trkpt>
      <trkpt lat="46.2503" lon="6.53273">
        <ele>944</ele>
        <time>2010-09-11T08:47:00Z</time>
      </trkpt>
      <trkpt lat="46.2503" lon="6.53284">
        <ele>946</ele>
        <time>2010-09-11T08:47:06Z</time>
      </trkpt>
      <trkpt lat="46.25033" lon="6.53288">
        <ele>947</ele>
        <time>2010-09-11T08:47:10Z</time>
      </trkpt>
      <trkpt lat="46.25036" lon="6.53291">
        <ele>947</ele>
        <time>2010-09-11T08:47:13Z</time>
      </trkpt>
      <trkpt lat="46.25038" lon="6.53291">
        <ele>947</ele>
        <time>2010-09-11T08:47:15Z</time>
      </trkpt>
      <trkpt lat="46.25041" lon="6.53296">
        <ele>948</ele>
        <time>2010-09-11T08:47:20Z</time>
      </trkpt>
      <trkpt lat="46.25034" lon="6.53306">
        <ele>950</ele>
        <time>2010-09-11T08:47:27Z</time>
      </trkpt>
      <trkpt lat="46.25032" lon="6.53309">
        <ele>950</ele>
        <time>2010-09-11T08:47:30Z</time>
      </trkpt>
      <trkpt lat="46.25028" lon="6.53314">
        <ele>951</ele>
        <time>2010-09-11T08:47:33Z</time>
      </trkpt>
      <trkpt lat="46.25028" lon="6.53314">
        <ele>951</ele>
        <time>2010-09-11T08:47:35Z</time>
      </trkpt>
      <trkpt lat="46.25034" lon="6.53316">
        <ele>951</ele>
        <time>2010-09-11T08:47:40Z</time>
      </trkpt>
      <trkpt lat="46.25036" lon="6.5332">
        <ele>951</ele>
        <time>2010-09-11T08:47:44Z</time>
      </trkpt>
      <trkpt lat="46.25038" lon="6.53319">
        <ele>951</ele>
        <time>2010-09-11T08:47:45Z</time>
      </trkpt>
      <trkpt lat="46.25041" lon="6.53317">
        <ele>951</ele>
        <time>2010-09-11T08:47:51Z</time>
      </trkpt>
      <trkpt lat="46.25043" lon="6.53314">
        <ele>951</ele>
        <time>2010-09-11T08:47:55Z</time>
      </trkpt>
      <trkpt lat="46.25047" lon="6.53311">
        <ele>951</ele>
        <time>2010-09-11T08:47:59Z</time>
      </trkpt>
      <trkpt lat="46.25058" lon="6.53314">
        <ele>952</ele>
        <time>2010-09-11T08:48:05Z</time>
      </trkpt>
      <trkpt lat="46.2506" lon="6.53314">
        <ele>953</ele>
        <time>2010-09-11T08:48:06Z</time>
      </trkpt>
      <trkpt lat="46.25075" lon="6.53309">
        <ele>953</ele>
        <time>2010-09-11T08:48:10Z</time>
      </trkpt>
      <trkpt lat="46.25091" lon="6.53308">
        <ele>952</ele>
        <time>2010-09-11T08:48:16Z</time>
      </trkpt>
      <trkpt lat="46.25092" lon="6.53309">
        <ele>952</ele>
        <time>2010-09-11T08:48:17Z</time>
      </trkpt>
      <trkpt lat="46.25096" lon="6.53319">
        <ele>954</ele>
        <time>2010-09-11T08:48:22Z</time>
      </trkpt>
      <trkpt lat="46.25096" lon="6.53331">
        <ele>957</ele>
        <time>2010-09-11T08:48:28Z</time>
      </trkpt>
      <trkpt lat="46.25091" lon="6.53339">
        <ele>966</ele>
        <time>2010-09-11T08:48:34Z</time>
      </trkpt>
      <trkpt lat="46.25091" lon="6.53342">
        <ele>967</ele>
        <time>2010-09-11T08:48:36Z</time>
      </trkpt>
      <trkpt lat="46.25083" lon="6.53355">
        <ele>968</ele>
        <time>2010-09-11T08:48:42Z</time>
      </trkpt>
      <trkpt lat="46.25078" lon="6.53366">
        <ele>970</ele>
        <time>2010-09-11T08:48:48Z</time>
      </trkpt>
      <trkpt lat="46.25072" lon="6.53373">
        <ele>971</ele>
        <time>2010-09-11T08:48:53Z</time>
      </trkpt>
      <trkpt lat="46.25069" lon="6.53382">
        <ele>973</ele>
        <time>2010-09-11T08:48:59Z</time>
      </trkpt>
      <trkpt lat="46.25063" lon="6.53389">
        <ele>973</ele>
        <time>2010-09-11T08:49:06Z</time>
      </trkpt>
      <trkpt lat="46.25057" lon="6.53396">
        <ele>974</ele>
        <time>2010-09-11T08:49:12Z</time>
      </trkpt>
      <trkpt lat="46.25053" lon="6.534">
        <ele>974</ele>
        <time>2010-09-11T08:49:17Z</time>
      </trkpt>
      <trkpt lat="46.2505" lon="6.53403">
        <ele>975</ele>
        <time>2010-09-11T08:49:21Z</time>
      </trkpt>
      <trkpt lat="46.25046" lon="6.53409">
        <ele>975</ele>
        <time>2010-09-11T08:49:26Z</time>
      </trkpt>
      <trkpt lat="46.25042" lon="6.53412">
        <ele>975</ele>
        <time>2010-09-11T08:49:30Z</time>
      </trkpt>
      <trkpt lat="46.25038" lon="6.53418">
        <ele>987</ele>
        <time>2010-09-11T08:49:34Z</time>
      </trkpt>
      <trkpt lat="46.25036" lon="6.5342">
        <ele>988</ele>
        <time>2010-09-11T08:49:35Z</time>
      </trkpt>
      <trkpt lat="46.2503" lon="6.53428">
        <ele>988</ele>
        <time>2010-09-11T08:49:40Z</time>
      </trkpt>
      <trkpt lat="46.25028" lon="6.5343">
        <ele>988</ele>
        <time>2010-09-11T08:49:43Z</time>
      </trkpt>
      <trkpt lat="46.25023" lon="6.53432">
        <ele>988</ele>
        <time>2010-09-11T08:49:47Z</time>
      </trkpt>
      <trkpt lat="46.25022" lon="6.53436">
        <ele>988</ele>
        <time>2010-09-11T08:49:51Z</time>
      </trkpt>
      <trkpt lat="46.25022" lon="6.5344">
        <ele>989</ele>
        <time>2010-09-11T08:49:55Z</time>
      </trkpt>
      <trkpt lat="46.25022" lon="6.53446">
        <ele>989</ele>
        <time>2010-09-11T08:49:59Z</time>
      </trkpt>
      <trkpt lat="46.25024" lon="6.53448">
        <ele>990</ele>
        <time>2010-09-11T08:50:04Z</time>
      </trkpt>
      <trkpt lat="46.25028" lon="6.53447">
        <ele>990</ele>
        <time>2010-09-11T08:50:08Z</time>
      </trkpt>
      <trkpt lat="46.2503" lon="6.53446">
        <ele>990</ele>
        <time>2010-09-11T08:50:11Z</time>
      </trkpt>
      <trkpt lat="46.25042" lon="6.53441">
        <ele>989</ele>
        <time>2010-09-11T08:50:17Z</time>
      </trkpt>
      <trkpt lat="46.25047" lon="6.53445">
        <ele>989</ele>
        <time>2010-09-11T08:50:22Z</time>
      </trkpt>
      <trkpt lat="46.25041" lon="6.53457">
        <ele>991</ele>
        <time>2010-09-11T08:50:27Z</time>
      </trkpt>
      <trkpt lat="46.25035" lon="6.53463">
        <ele>991</ele>
        <time>2010-09-11T08:50:31Z</time>
      </trkpt>
      <trkpt lat="46.25028" lon="6.5347">
        <ele>992</ele>
        <time>2010-09-11T08:50:36Z</time>
      </trkpt>
      <trkpt lat="46.25027" lon="6.5347">
        <ele>992</ele>
        <time>2010-09-11T08:50:37Z</time>
      </trkpt>
      <trkpt lat="46.25027" lon="6.53475">
        <ele>993</ele>
        <time>2010-09-11T08:50:39Z</time>
      </trkpt>
      <trkpt lat="46.2503" lon="6.53484">
        <ele>994</ele>
        <time>2010-09-11T08:50:45Z</time>
      </trkpt>
      <trkpt lat="46.25031" lon="6.53487">
        <ele>994</ele>
        <time>2010-09-11T08:50:47Z</time>
      </trkpt>
      <trkpt lat="46.25031" lon="6.53494">
        <ele>994</ele>
        <time>2010-09-11T08:50:52Z</time>
      </trkpt>
      <trkpt lat="46.25033" lon="6.53498">
        <ele>994</ele>
        <time>2010-09-11T08:50:55Z</time>
      </trkpt>
      <trkpt lat="46.25028" lon="6.53517">
        <ele>1003</ele>
        <time>2010-09-11T08:51:02Z</time>
      </trkpt>
      <trkpt lat="46.25018" lon="6.53533">
        <ele>1004</ele>
        <time>2010-09-11T08:51:06Z</time>
      </trkpt>
      <trkpt lat="46.25007" lon="6.53539">
        <ele>1005</ele>
        <time>2010-09-11T08:51:10Z</time>
      </trkpt>
      <trkpt lat="46.25" lon="6.53546">
        <ele>1005</ele>
        <time>2010-09-11T08:51:13Z</time>
      </trkpt>
      <trkpt lat="46.24995" lon="6.5356">
        <ele>1006</ele>
        <time>2010-09-11T08:51:16Z</time>
      </trkpt>
      <trkpt lat="46.24992" lon="6.5356">
        <ele>1006</ele>
        <time>2010-09-11T08:51:17Z</time>
      </trkpt>
      <trkpt lat="46.24972" lon="6.53553">
        <ele>1004</ele>
        <time>2010-09-11T08:51:24Z</time>
      </trkpt>
      <trkpt lat="46.24958" lon="6.53555">
        <ele>1004</ele>
        <time>2010-09-11T08:51:28Z</time>
      </trkpt>
      <trkpt lat="46.24943" lon="6.53566">
        <ele>1004</ele>
        <time>2010-09-11T08:51:34Z</time>
      </trkpt>
      <trkpt lat="46.24933" lon="6.53573">
        <ele>1005</ele>
        <time>2010-09-11T08:51:38Z</time>
      </trkpt>
      <trkpt lat="46.24923" lon="6.53582">
        <ele>1006</ele>
        <time>2010-09-11T08:51:42Z</time>
      </trkpt>
      <trkpt lat="46.24914" lon="6.53586">
        <ele>1007</ele>
        <time>2010-09-11T08:51:46Z</time>
      </trkpt>
      <trkpt lat="46.24904" lon="6.53591">
        <ele>1008</ele>
        <time>2010-09-11T08:51:50Z</time>
      </trkpt>
      <trkpt lat="46.2489" lon="6.53593">
        <ele>1009</ele>
        <time>2010-09-11T08:51:55Z</time>
      </trkpt>
      <trkpt lat="46.2488" lon="6.53597">
        <ele>1009</ele>
        <time>2010-09-11T08:51:59Z</time>
      </trkpt>
      <trkpt lat="46.24867" lon="6.53595">
        <ele>1008</ele>
        <time>2010-09-11T08:52:03Z</time>
      </trkpt>
      <trkpt lat="46.24854" lon="6.53594">
        <ele>1008</ele>
        <time>2010-09-11T08:52:07Z</time>
      </trkpt>
      <trkpt lat="46.24847" lon="6.53589">
        <ele>1007</ele>
        <time>2010-09-11T08:52:10Z</time>
      </trkpt>
      <trkpt lat="46.24835" lon="6.53584">
        <ele>1005</ele>
        <time>2010-09-11T08:52:15Z</time>
      </trkpt>
      <trkpt lat="46.24828" lon="6.53577">
        <ele>1002</ele>
        <time>2010-09-11T08:52:18Z</time>
      </trkpt>
      <trkpt lat="46.24827" lon="6.53575">
        <ele>1002</ele>
        <time>2010-09-11T08:52:19Z</time>
      </trkpt>
      <trkpt lat="46.24818" lon="6.53565">
        <ele>999</ele>
        <time>2010-09-11T08:52:24Z</time>
      </trkpt>
      <trkpt lat="46.24809" lon="6.5356">
        <ele>998</ele>
        <time>2010-09-11T08:52:28Z</time>
      </trkpt>
      <trkpt lat="46.24803" lon="6.5356">
        <ele>997</ele>
        <time>2010-09-11T08:52:30Z</time>
      </trkpt>
      <trkpt lat="46.24787" lon="6.53561">
        <ele>997</ele>
        <time>2010-09-11T08:52:36Z</time>
      </trkpt>
      <trkpt lat="46.24768" lon="6.53565">
        <ele>997</ele>
        <time>2010-09-11T08:52:43Z</time>
      </trkpt>
      <trkpt lat="46.24755" lon="6.53567">
        <ele>998</ele>
        <time>2010-09-11T08:52:47Z</time>
      </trkpt>
      <trkpt lat="46.24739" lon="6.53571">
        <ele>995</ele>
        <time>2010-09-11T08:52:52Z</time>
      </trkpt>
      <trkpt lat="46.24722" lon="6.53579">
        <ele>993</ele>
        <time>2010-09-11T08:52:57Z</time>
      </trkpt>
      <trkpt lat="46.24711" lon="6.53586">
        <ele>1001</ele>
        <time>2010-09-11T08:53:01Z</time>
      </trkpt>
      <trkpt lat="46.24697" lon="6.53593">
        <ele>999</ele>
        <time>2010-09-11T08:53:06Z</time>
      </trkpt>
      <trkpt lat="46.24683" lon="6.536">
        <ele>998</ele>
        <time>2010-09-11T08:53:11Z</time>
      </trkpt>
      <trkpt lat="46.2467" lon="6.53604">
        <ele>998</ele>
        <time>2010-09-11T08:53:17Z</time>
      </trkpt>
      <trkpt lat="46.24656" lon="6.53607">
        <ele>994</ele>
        <time>2010-09-11T08:53:22Z</time>
      </trkpt>
      <trkpt lat="46.24646" lon="6.53607">
        <ele>994</ele>
        <time>2010-09-11T08:53:25Z</time>
      </trkpt>
      <trkpt lat="46.24629" lon="6.53606">
        <ele>994</ele>
        <time>2010-09-11T08:53:30Z</time>
      </trkpt>
      <trkpt lat="46.24613" lon="6.53602">
        <ele>993</ele>
        <time>2010-09-11T08:53:35Z</time>
      </trkpt>
      <trkpt lat="46.246" lon="6.53601">
        <ele>992</ele>
        <time>2010-09-11T08:53:39Z</time>
      </trkpt>
      <trkpt lat="46.24587" lon="6.53598">
        <ele>991</ele>
        <time>2010-09-11T08:53:43Z</time>
      </trkpt>
      <trkpt lat="46.24575" lon="6.53596">
        <ele>990</ele>
        <time>2010-09-11T08:53:47Z</time>
      </trkpt>
      <trkpt lat="46.24562" lon="6.53593">
        <ele>991</ele>
        <time>2010-09-11T08:53:51Z</time>
      </trkpt>
      <trkpt lat="46.24543" lon="6.53593">
        <ele>992</ele>
        <time>2010-09-11T08:53:57Z</time>
      </trkpt>
      <trkpt lat="46.2453" lon="6.5359">
        <ele>992</ele>
        <time>2010-09-11T08:54:01Z</time>
      </trkpt>
      <trkpt lat="46.24518" lon="6.53588">
        <ele>990</ele>
        <time>2010-09-11T08:54:05Z</time>
      </trkpt>
      <trkpt lat="46.24506" lon="6.53585">
        <ele>988</ele>
        <time>2010-09-11T08:54:09Z</time>
      </trkpt>
      <trkpt lat="46.24494" lon="6.53583">
        <ele>985</ele>
        <time>2010-09-11T08:54:13Z</time>
      </trkpt>
      <trkpt lat="46.24482" lon="6.53584">
        <ele>990</ele>
        <time>2010-09-11T08:54:17Z</time>
      </trkpt>
      <trkpt lat="46.24472" lon="6.5359">
        <ele>992</ele>
        <time>2010-09-11T08:54:21Z</time>
      </trkpt>
      <trkpt lat="46.24467" lon="6.53579">
        <ele>983</ele>
        <time>2010-09-11T08:54:25Z</time>
      </trkpt>
      <trkpt lat="46.24464" lon="6.53564">
        <ele>983</ele>
        <time>2010-09-11T08:54:29Z</time>
      </trkpt>
      <trkpt lat="46.24455" lon="6.53551">
        <ele>983</ele>
        <time>2010-09-11T08:54:35Z</time>
      </trkpt>
      <trkpt lat="46.24455" lon="6.53549">
        <ele>983</ele>
        <time>2010-09-11T08:54:36Z</time>
      </trkpt>
      <trkpt lat="46.24454" lon="6.53547">
        <ele>983</ele>
        <time>2010-09-11T08:54:41Z</time>
      </trkpt>
      <trkpt lat="46.24457" lon="6.53546">
        <ele>983</ele>
        <time>2010-09-11T08:54:49Z</time>
      </trkpt>
      <trkpt lat="46.24465" lon="6.53553">
        <ele>983</ele>
        <time>2010-09-11T08:54:53Z</time>
      </trkpt>
      <trkpt lat="46.24465" lon="6.53577">
        <ele>983</ele>
        <time>2010-09-11T08:54:58Z</time>
      </trkpt>
      <trkpt lat="46.24451" lon="6.53586">
        <ele>991</ele>
        <time>2010-09-11T08:55:02Z</time>
      </trkpt>
      <trkpt lat="46.24441" lon="6.5359">
        <ele>990</ele>
        <time>2010-09-11T08:55:06Z</time>
      </trkpt>
      <trkpt lat="46.24429" lon="6.53594">
        <ele>989</ele>
        <time>2010-09-11T08:55:11Z</time>
      </trkpt>
      <trkpt lat="46.24422" lon="6.5359">
        <ele>986</ele>
        <time>2010-09-11T08:55:14Z</time>
      </trkpt>
      <trkpt lat="46.24404" lon="6.5358">
        <ele>982</ele>
        <time>2010-09-11T08:55:22Z</time>
      </trkpt>
      <trkpt lat="46.24393" lon="6.53575">
        <ele>982</ele>
        <time>2010-09-11T08:55:26Z</time>
      </trkpt>
      <trkpt lat="46.24384" lon="6.53566">
        <ele>982</ele>
        <time>2010-09-11T08:55:30Z</time>
      </trkpt>
      <trkpt lat="46.24367" lon="6.53557">
        <ele>983</ele>
        <time>2010-09-11T08:55:37Z</time>
      </trkpt>
      <trkpt lat="46.24355" lon="6.53551">
        <ele>983</ele>
        <time>2010-09-11T08:55:42Z</time>
      </trkpt>
      <trkpt lat="46.24343" lon="6.53543">
        <ele>982</ele>
        <time>2010-09-11T08:55:48Z</time>
      </trkpt>
      <trkpt lat="46.2433" lon="6.53537">
        <ele>986</ele>
        <time>2010-09-11T08:55:56Z</time>
      </trkpt>
      <trkpt lat="46.2432" lon="6.53527">
        <ele>985</ele>
        <time>2010-09-11T08:56:00Z</time>
      </trkpt>
      <trkpt lat="46.24309" lon="6.53516">
        <ele>985</ele>
        <time>2010-09-11T08:56:05Z</time>
      </trkpt>
      <trkpt lat="46.24294" lon="6.535">
        <ele>980</ele>
        <time>2010-09-11T08:56:12Z</time>
      </trkpt>
      <trkpt lat="46.24284" lon="6.53482">
        <ele>980</ele>
        <time>2010-09-11T08:56:18Z</time>
      </trkpt>
      <trkpt lat="46.24278" lon="6.53469">
        <ele>980</ele>
        <time>2010-09-11T08:56:22Z</time>
      </trkpt>
      <trkpt lat="46.24273" lon="6.53462">
        <ele>980</ele>
        <time>2010-09-11T08:56:24Z</time>
      </trkpt>
      <trkpt lat="46.24262" lon="6.5345">
        <ele>979</ele>
        <time>2010-09-11T08:56:29Z</time>
      </trkpt>
      <trkpt lat="46.24255" lon="6.53439">
        <ele>979</ele>
        <time>2010-09-11T08:56:33Z</time>
      </trkpt>
      <trkpt lat="46.2425" lon="6.53435">
        <ele>981</ele>
        <time>2010-09-11T08:56:35Z</time>
      </trkpt>
      <trkpt lat="46.24237" lon="6.53427">
        <ele>981</ele>
        <time>2010-09-11T08:56:39Z</time>
      </trkpt>
      <trkpt lat="46.24223" lon="6.53418">
        <ele>982</ele>
        <time>2010-09-11T08:56:44Z</time>
      </trkpt>
      <trkpt lat="46.24213" lon="6.5341">
        <ele>978</ele>
        <time>2010-09-11T08:56:48Z</time>
      </trkpt>
      <trkpt lat="46.24203" lon="6.53405">
        <ele>979</ele>
        <time>2010-09-11T08:56:52Z</time>
      </trkpt>
      <trkpt lat="46.24201" lon="6.53404">
        <ele>979</ele>
        <time>2010-09-11T08:56:53Z</time>
      </trkpt>
      <trkpt lat="46.24193" lon="6.53402">
        <ele>980</ele>
        <time>2010-09-11T08:57:00Z</time>
      </trkpt>
      <trkpt lat="46.24184" lon="6.53396">
        <ele>980</ele>
        <time>2010-09-11T08:57:07Z</time>
      </trkpt>
      <trkpt lat="46.24171" lon="6.53389">
        <ele>980</ele>
        <time>2010-09-11T08:57:16Z</time>
      </trkpt>
      <trkpt lat="46.24152" lon="6.53377">
        <ele>980</ele>
        <time>2010-09-11T08:57:29Z</time>
      </trkpt>
      <trkpt lat="46.24141" lon="6.5337">
        <ele>980</ele>
        <time>2010-09-11T08:57:37Z</time>
      </trkpt>
      <trkpt lat="46.24128" lon="6.53363">
        <ele>980</ele>
        <time>2010-09-11T08:57:44Z</time>
      </trkpt>
      <trkpt lat="46.24119" lon="6.53359">
        <ele>980</ele>
        <time>2010-09-11T08:57:51Z</time>
      </trkpt>
      <trkpt lat="46.24108" lon="6.53355">
        <ele>979</ele>
        <time>2010-09-11T08:57:59Z</time>
      </trkpt>
      <trkpt lat="46.241" lon="6.53351">
        <ele>979</ele>
        <time>2010-09-11T08:58:05Z</time>
      </trkpt>
      <trkpt lat="46.24088" lon="6.53344">
        <ele>979</ele>
        <time>2010-09-11T08:58:13Z</time>
      </trkpt>
      <trkpt lat="46.24078" lon="6.53343">
        <ele>983</ele>
        <time>2010-09-11T08:58:19Z</time>
      </trkpt>
      <trkpt lat="46.24076" lon="6.53343">
        <ele>984</ele>
        <time>2010-09-11T08:58:20Z</time>
      </trkpt>
      <trkpt lat="46.2407" lon="6.53341">
        <ele>985</ele>
        <time>2010-09-11T08:58:24Z</time>
      </trkpt>
      <trkpt lat="46.24058" lon="6.53334">
        <ele>988</ele>
        <time>2010-09-11T08:58:30Z</time>
      </trkpt>
      <trkpt lat="46.24051" lon="6.5333">
        <ele>987</ele>
        <time>2010-09-11T08:58:36Z</time>
      </trkpt>
      <trkpt lat="46.24041" lon="6.53316">
        <ele>989</ele>
        <time>2010-09-11T08:58:45Z</time>
      </trkpt>
      <trkpt lat="46.24039" lon="6.53308">
        <ele>989</ele>
        <time>2010-09-11T08:58:49Z</time>
      </trkpt>
      <trkpt lat="46.24036" lon="6.533">
        <ele>989</ele>
        <time>2010-09-11T08:58:54Z</time>
      </trkpt>
      <trkpt lat="46.24036" lon="6.53299">
        <ele>989</ele>
        <time>2010-09-11T08:59:02Z</time>
      </trkpt>
      <trkpt lat="46.24033" lon="6.53297">
        <ele>990</ele>
        <time>2010-09-11T08:59:07Z</time>
      </trkpt>
      <trkpt lat="46.24028" lon="6.53291">
        <ele>990</ele>
        <time>2010-09-11T08:59:11Z</time>
      </trkpt>
      <trkpt lat="46.24021" lon="6.53278">
        <ele>990</ele>
        <time>2010-09-11T08:59:18Z</time>
      </trkpt>
      <trkpt lat="46.24021" lon="6.53277">
        <ele>990</ele>
        <time>2010-09-11T08:59:19Z</time>
      </trkpt>
      <trkpt lat="46.24017" lon="6.53272">
        <ele>990</ele>
        <time>2010-09-11T08:59:23Z</time>
      </trkpt>
      <trkpt lat="46.24016" lon="6.5327">
        <ele>991</ele>
        <time>2010-09-11T08:59:24Z</time>
      </trkpt>
      <trkpt lat="46.24014" lon="6.53266">
        <ele>991</ele>
        <time>2010-09-11T08:59:26Z</time>
      </trkpt>
      <trkpt lat="46.24012" lon="6.53254">
        <ele>991</ele>
        <time>2010-09-11T08:59:32Z</time>
      </trkpt>
      <trkpt lat="46.24012" lon="6.53252">
        <ele>991</ele>
        <time>2010-09-11T08:59:33Z</time>
      </trkpt>
      <trkpt lat="46.24011" lon="6.53247">
        <ele>991</ele>
        <time>2010-09-11T08:59:36Z</time>
      </trkpt>
      <trkpt lat="46.24008" lon="6.53238">
        <ele>991</ele>
        <time>2010-09-11T08:59:41Z</time>
      </trkpt>
      <trkpt lat="46.24002" lon="6.53232">
        <ele>991</ele>
        <time>2010-09-11T08:59:46Z</time>
      </trkpt>
      <trkpt lat="46.23997" lon="6.53222">
        <ele>995</ele>
        <time>2010-09-11T08:59:53Z</time>
      </trkpt>
      <trkpt lat="46.23992" lon="6.53211">
        <ele>995</ele>
        <time>2010-09-11T08:59:59Z</time>
      </trkpt>
      <trkpt lat="46.23986" lon="6.532">
        <ele>995</ele>
        <time>2010-09-11T09:00:05Z</time>
      </trkpt>
      <trkpt lat="46.23985" lon="6.53198">
        <ele>995</ele>
        <time>2010-09-11T09:00:06Z</time>
      </trkpt>
      <trkpt lat="46.23979" lon="6.53185">
        <ele>994</ele>
        <time>2010-09-11T09:00:13Z</time>
      </trkpt>
      <trkpt lat="46.23976" lon="6.53179">
        <ele>994</ele>
        <time>2010-09-11T09:00:17Z</time>
      </trkpt>
      <trkpt lat="46.23973" lon="6.53174">
        <ele>994</ele>
        <time>2010-09-11T09:00:21Z</time>
      </trkpt>
      <trkpt lat="46.23963" lon="6.5317">
        <ele>995</ele>
        <time>2010-09-11T09:00:29Z</time>
      </trkpt>
      <trkpt lat="46.23959" lon="6.53168">
        <ele>995</ele>
        <time>2010-09-11T09:00:32Z</time>
      </trkpt>
      <trkpt lat="46.23952" lon="6.53167">
        <ele>995</ele>
        <time>2010-09-11T09:00:37Z</time>
      </trkpt>
      <trkpt lat="46.23944" lon="6.53167">
        <ele>987</ele>
        <time>2010-09-11T09:00:42Z</time>
      </trkpt>
      <trkpt lat="46.23933" lon="6.53164">
        <ele>988</ele>
        <time>2010-09-11T09:00:50Z</time>
      </trkpt>
      <trkpt lat="46.23923" lon="6.53164">
        <ele>990</ele>
        <time>2010-09-11T09:00:55Z</time>
      </trkpt>
      <trkpt lat="46.23914" lon="6.53163">
        <ele>990</ele>
        <time>2010-09-11T09:01:01Z</time>
      </trkpt>
      <trkpt lat="46.239" lon="6.53162">
        <ele>985</ele>
        <time>2010-09-11T09:01:10Z</time>
      </trkpt>
      <trkpt lat="46.23887" lon="6.53161">
        <ele>983</ele>
        <time>2010-09-11T09:01:19Z</time>
      </trkpt>
      <trkpt lat="46.23879" lon="6.53163">
        <ele>982</ele>
        <time>2010-09-11T09:01:24Z</time>
      </trkpt>
      <trkpt lat="46.23875" lon="6.53164">
        <ele>982</ele>
        <time>2010-09-11T09:01:27Z</time>
      </trkpt>
      <trkpt lat="46.23865" lon="6.53169">
        <ele>994</ele>
        <time>2010-09-11T09:01:33Z</time>
      </trkpt>
      <trkpt lat="46.2385" lon="6.53171">
        <ele>992</ele>
        <time>2010-09-11T09:01:38Z</time>
      </trkpt>
      <trkpt lat="46.2384" lon="6.53176">
        <ele>991</ele>
        <time>2010-09-11T09:01:41Z</time>
      </trkpt>
      <trkpt lat="46.23836" lon="6.53177">
        <ele>990</ele>
        <time>2010-09-11T09:01:43Z</time>
      </trkpt>
      <trkpt lat="46.23821" lon="6.5318">
        <ele>987</ele>
        <time>2010-09-11T09:01:51Z</time>
      </trkpt>
      <trkpt lat="46.23803" lon="6.53191">
        <ele>986</ele>
        <time>2010-09-11T09:01:56Z</time>
      </trkpt>
      <trkpt lat="46.23795" lon="6.53193">
        <ele>986</ele>
        <time>2010-09-11T09:01:59Z</time>
      </trkpt>
      <trkpt lat="46.23786" lon="6.53197">
        <ele>985</ele>
        <time>2010-09-11T09:02:02Z</time>
      </trkpt>
      <trkpt lat="46.23779" lon="6.53198">
        <ele>984</ele>
        <time>2010-09-11T09:02:04Z</time>
      </trkpt>
      <trkpt lat="46.23761" lon="6.53203">
        <ele>983</ele>
        <time>2010-09-11T09:02:10Z</time>
      </trkpt>
      <trkpt lat="46.23754" lon="6.53213">
        <ele>984</ele>
        <time>2010-09-11T09:02:14Z</time>
      </trkpt>
      <trkpt lat="46.23748" lon="6.53226">
        <ele>977</ele>
        <time>2010-09-11T09:02:18Z</time>
      </trkpt>
      <trkpt lat="46.23746" lon="6.53233">
        <ele>978</ele>
        <time>2010-09-11T09:02:20Z</time>
      </trkpt>
      <trkpt lat="46.23736" lon="6.53241">
        <ele>979</ele>
        <time>2010-09-11T09:02:24Z</time>
      </trkpt>
      <trkpt lat="46.23727" lon="6.5325">
        <ele>977</ele>
        <time>2010-09-11T09:02:27Z</time>
      </trkpt>
      <trkpt lat="46.23716" lon="6.53255">
        <ele>987</ele>
        <time>2010-09-11T09:02:30Z</time>
      </trkpt>
      <trkpt lat="46.23709" lon="6.5326">
        <ele>987</ele>
        <time>2010-09-11T09:02:32Z</time>
      </trkpt>
      <trkpt lat="46.23702" lon="6.53265">
        <ele>987</ele>
        <time>2010-09-11T09:02:34Z</time>
      </trkpt>
      <trkpt lat="46.23689" lon="6.5327">
        <ele>986</ele>
        <time>2010-09-11T09:02:38Z</time>
      </trkpt>
      <trkpt lat="46.23674" lon="6.53272">
        <ele>985</ele>
        <time>2010-09-11T09:02:42Z</time>
      </trkpt>
      <trkpt lat="46.23661" lon="6.5327">
        <ele>983</ele>
        <time>2010-09-11T09:02:46Z</time>
      </trkpt>
      <trkpt lat="46.23647" lon="6.53269">
        <ele>984</ele>
        <time>2010-09-11T09:02:50Z</time>
      </trkpt>
      <trkpt lat="46.2363" lon="6.53268">
        <ele>985</ele>
        <time>2010-09-11T09:02:55Z</time>
      </trkpt>
      <trkpt lat="46.23626" lon="6.53267">
        <ele>985</ele>
        <time>2010-09-11T09:02:56Z</time>
      </trkpt>
      <trkpt lat="46.23614" lon="6.53262">
        <ele>984</ele>
        <time>2010-09-11T09:03:02Z</time>
      </trkpt>
      <trkpt lat="46.236" lon="6.53259">
        <ele>981</ele>
        <time>2010-09-11T09:03:10Z</time>
      </trkpt>
      <trkpt lat="46.23588" lon="6.53258">
        <ele>977</ele>
        <time>2010-09-11T09:03:14Z</time>
      </trkpt>
      <trkpt lat="46.2358" lon="6.53257">
        <ele>976</ele>
        <time>2010-09-11T09:03:17Z</time>
      </trkpt>
      <trkpt lat="46.23577" lon="6.53252">
        <ele>975</ele>
        <time>2010-09-11T09:03:22Z</time>
      </trkpt>
      <trkpt lat="46.23566" lon="6.53243">
        <ele>968</ele>
        <time>2010-09-11T09:03:27Z</time>
      </trkpt>
      <trkpt lat="46.23563" lon="6.53241">
        <ele>968</ele>
        <time>2010-09-11T09:03:31Z</time>
      </trkpt>
      <trkpt lat="46.23572" lon="6.53243">
        <ele>969</ele>
        <time>2010-09-11T09:03:43Z</time>
      </trkpt>
      <trkpt lat="46.23572" lon="6.53241">
        <ele>969</ele>
        <time>2010-09-11T09:03:45Z</time>
      </trkpt>
      <trkpt lat="46.23577" lon="6.53242">
        <ele>969</ele>
        <time>2010-09-11T09:03:51Z</time>
      </trkpt>
      <trkpt lat="46.23581" lon="6.53238">
        <ele>969</ele>
        <time>2010-09-11T09:03:55Z</time>
      </trkpt>
      <trkpt lat="46.23583" lon="6.53241">
        <ele>969</ele>
        <time>2010-09-11T09:04:00Z</time>
      </trkpt>
      <trkpt lat="46.23586" lon="6.53244">
        <ele>970</ele>
        <time>2010-09-11T09:04:03Z</time>
      </trkpt>
      <trkpt lat="46.23576" lon="6.53248">
        <ele>970</ele>
        <time>2010-09-11T09:04:07Z</time>
      </trkpt>
      <trkpt lat="46.23571" lon="6.53246">
        <ele>969</ele>
        <time>2010-09-11T09:04:08Z</time>
      </trkpt>
      <trkpt lat="46.23549" lon="6.53244">
        <ele>967</ele>
        <time>2010-09-11T09:04:14Z</time>
      </trkpt>
      <trkpt lat="46.23535" lon="6.53242">
        <ele>967</ele>
        <time>2010-09-11T09:04:18Z</time>
      </trkpt>
      <trkpt lat="46.23533" lon="6.53242">
        <ele>967</ele>
        <time>2010-09-11T09:04:19Z</time>
      </trkpt>
      <trkpt lat="46.23531" lon="6.53241">
        <ele>967</ele>
        <time>2010-09-11T09:04:21Z</time>
      </trkpt>
      <trkpt lat="46.23532" lon="6.53233">
        <ele>967</ele>
        <time>2010-09-11T09:04:26Z</time>
      </trkpt>
      <trkpt lat="46.23536" lon="6.53227">
        <ele>966</ele>
        <time>2010-09-11T09:04:35Z</time>
      </trkpt>
      <trkpt lat="46.23538" lon="6.53231">
        <ele>967</ele>
        <time>2010-09-11T09:04:50Z</time>
      </trkpt>
      <trkpt lat="46.23536" lon="6.53235">
        <ele>967</ele>
        <time>2010-09-11T09:04:53Z</time>
      </trkpt>
      <trkpt lat="46.23523" lon="6.53239">
        <ele>967</ele>
        <time>2010-09-11T09:04:58Z</time>
      </trkpt>
      <trkpt lat="46.2351" lon="6.53236">
        <ele>968</ele>
        <time>2010-09-11T09:05:02Z</time>
      </trkpt>
      <trkpt lat="46.23506" lon="6.53236">
        <ele>968</ele>
        <time>2010-09-11T09:05:03Z</time>
      </trkpt>
      <trkpt lat="46.2349" lon="6.53241">
        <ele>967</ele>
        <time>2010-09-11T09:05:08Z</time>
      </trkpt>
      <trkpt lat="46.23474" lon="6.53235">
        <ele>965</ele>
        <time>2010-09-11T09:05:13Z</time>
      </trkpt>
      <trkpt lat="46.23459" lon="6.53236">
        <ele>965</ele>
        <time>2010-09-11T09:05:18Z</time>
      </trkpt>
      <trkpt lat="46.23439" lon="6.53234">
        <ele>964</ele>
        <time>2010-09-11T09:05:24Z</time>
      </trkpt>
      <trkpt lat="46.23426" lon="6.53232">
        <ele>965</ele>
        <time>2010-09-11T09:05:28Z</time>
      </trkpt>
      <trkpt lat="46.23416" lon="6.53232">
        <ele>964</ele>
        <time>2010-09-11T09:05:31Z</time>
      </trkpt>
      <trkpt lat="46.23399" lon="6.53236">
        <ele>964</ele>
        <time>2010-09-11T09:05:36Z</time>
      </trkpt>
      <trkpt lat="46.23383" lon="6.53244">
        <ele>964</ele>
        <time>2010-09-11T09:05:40Z</time>
      </trkpt>
      <trkpt lat="46.2338" lon="6.53246">
        <ele>964</ele>
        <time>2010-09-11T09:05:41Z</time>
      </trkpt>
      <trkpt lat="46.2337" lon="6.53241">
        <ele>964</ele>
        <time>2010-09-11T09:05:44Z</time>
      </trkpt>
      <trkpt lat="46.23365" lon="6.53243">
        <ele>965</ele>
        <time>2010-09-11T09:05:46Z</time>
      </trkpt>
      <trkpt lat="46.23351" lon="6.53243">
        <ele>966</ele>
        <time>2010-09-11T09:05:51Z</time>
      </trkpt>
      <trkpt lat="46.23336" lon="6.53242">
        <ele>968</ele>
        <time>2010-09-11T09:05:56Z</time>
      </trkpt>
      <trkpt lat="46.23322" lon="6.5324">
        <ele>968</ele>
        <time>2010-09-11T09:06:00Z</time>
      </trkpt>
      <trkpt lat="46.23307" lon="6.53237">
        <ele>967</ele>
        <time>2010-09-11T09:06:05Z</time>
      </trkpt>
      <trkpt lat="46.23292" lon="6.53239">
        <ele>967</ele>
        <time>2010-09-11T09:06:10Z</time>
      </trkpt>
      <trkpt lat="46.23278" lon="6.5324">
        <ele>968</ele>
        <time>2010-09-11T09:06:14Z</time>
      </trkpt>
      <trkpt lat="46.23269" lon="6.53244">
        <ele>970</ele>
        <time>2010-09-11T09:06:17Z</time>
      </trkpt>
      <trkpt lat="46.23252" lon="6.5325">
        <ele>974</ele>
        <time>2010-09-11T09:06:22Z</time>
      </trkpt>
      <trkpt lat="46.23235" lon="6.53254">
        <ele>979</ele>
        <time>2010-09-11T09:06:27Z</time>
      </trkpt>
      <trkpt lat="46.23225" lon="6.53256">
        <ele>980</ele>
        <time>2010-09-11T09:06:33Z</time>
      </trkpt>
      <trkpt lat="46.23219" lon="6.53257">
        <ele>980</ele>
        <time>2010-09-11T09:06:36Z</time>
      </trkpt>
      <trkpt lat="46.23211" lon="6.53259">
        <ele>980</ele>
        <time>2010-09-11T09:06:40Z</time>
      </trkpt>
      <trkpt lat="46.232" lon="6.53258">
        <ele>979</ele>
        <time>2010-09-11T09:06:45Z</time>
      </trkpt>
      <trkpt lat="46.23202" lon="6.53255">
        <ele>979</ele>
        <time>2010-09-11T09:06:49Z</time>
      </trkpt>
      <trkpt lat="46.23212" lon="6.53251">
        <ele>979</ele>
        <time>2010-09-11T09:06:55Z</time>
      </trkpt>
      <trkpt lat="46.23211" lon="6.53232">
        <ele>967</ele>
        <time>2010-09-11T09:07:00Z</time>
      </trkpt>
      <trkpt lat="46.23208" lon="6.53223">
        <ele>966</ele>
        <time>2010-09-11T09:07:03Z</time>
      </trkpt>
      <trkpt lat="46.23198" lon="6.53215">
        <ele>966</ele>
        <time>2010-09-11T09:07:06Z</time>
      </trkpt>
      <trkpt lat="46.23187" lon="6.53209">
        <ele>965</ele>
        <time>2010-09-11T09:07:09Z</time>
      </trkpt>
      <trkpt lat="46.23177" lon="6.53199">
        <ele>964</ele>
        <time>2010-09-11T09:07:13Z</time>
      </trkpt>
      <trkpt lat="46.23173" lon="6.53196">
        <ele>963</ele>
        <time>2010-09-11T09:07:17Z</time>
      </trkpt>
      <trkpt lat="46.23158" lon="6.53188">
        <ele>961</ele>
        <time>2010-09-11T09:07:21Z</time>
      </trkpt>
      <trkpt lat="46.23143" lon="6.53175">
        <ele>961</ele>
        <time>2010-09-11T09:07:25Z</time>
      </trkpt>
      <trkpt lat="46.2314" lon="6.53173">
        <ele>961</ele>
        <time>2010-09-11T09:07:26Z</time>
      </trkpt>
      <trkpt lat="46.23125" lon="6.53172">
        <ele>961</ele>
        <time>2010-09-11T09:07:31Z</time>
      </trkpt>
      <trkpt lat="46.23113" lon="6.53166">
        <ele>959</ele>
        <time>2010-09-11T09:07:35Z</time>
      </trkpt>
      <trkpt lat="46.23098" lon="6.53162">
        <ele>959</ele>
        <time>2010-09-11T09:07:41Z</time>
      </trkpt>
      <trkpt lat="46.23088" lon="6.5316">
        <ele>959</ele>
        <time>2010-09-11T09:07:45Z</time>
      </trkpt>
      <trkpt lat="46.23084" lon="6.5316">
        <ele>959</ele>
        <time>2010-09-11T09:07:47Z</time>
      </trkpt>
      <trkpt lat="46.23083" lon="6.53148">
        <ele>959</ele>
        <time>2010-09-11T09:07:51Z</time>
      </trkpt>
      <trkpt lat="46.23085" lon="6.53144">
        <ele>959</ele>
        <time>2010-09-11T09:07:53Z</time>
      </trkpt>
      <trkpt lat="46.2309" lon="6.5313">
        <ele>959</ele>
        <time>2010-09-11T09:07:59Z</time>
      </trkpt>
      <trkpt lat="46.23094" lon="6.53115">
        <ele>960</ele>
        <time>2010-09-11T09:08:04Z</time>
      </trkpt>
      <trkpt lat="46.23093" lon="6.53094">
        <ele>960</ele>
        <time>2010-09-11T09:08:10Z</time>
      </trkpt>
      <trkpt lat="46.23095" lon="6.53076">
        <ele>963</ele>
        <time>2010-09-11T09:08:14Z</time>
      </trkpt>
      <trkpt lat="46.23099" lon="6.53066">
        <ele>963</ele>
        <time>2010-09-11T09:08:17Z</time>
      </trkpt>
      <trkpt lat="46.23101" lon="6.53058">
        <ele>964</ele>
        <time>2010-09-11T09:08:22Z</time>
      </trkpt>
      <trkpt lat="46.23103" lon="6.53059">
        <ele>964</ele>
        <time>2010-09-11T09:08:23Z</time>
      </trkpt>
      <trkpt lat="46.2311" lon="6.53061">
        <ele>964</ele>
        <time>2010-09-11T09:08:27Z</time>
      </trkpt>
      <trkpt lat="46.23115" lon="6.53059">
        <ele>964</ele>
        <time>2010-09-11T09:08:31Z</time>
      </trkpt>
      <trkpt lat="46.23125" lon="6.53055">
        <ele>964</ele>
        <time>2010-09-11T09:08:38Z</time>
      </trkpt>
      <trkpt lat="46.23137" lon="6.5305">
        <ele>964</ele>
        <time>2010-09-11T09:08:43Z</time>
      </trkpt>
      <trkpt lat="46.23149" lon="6.5304">
        <ele>964</ele>
        <time>2010-09-11T09:08:47Z</time>
      </trkpt>
      <trkpt lat="46.23156" lon="6.53036">
        <ele>964</ele>
        <time>2010-09-11T09:08:49Z</time>
      </trkpt>
      <trkpt lat="46.23173" lon="6.53029">
        <ele>963</ele>
        <time>2010-09-11T09:08:55Z</time>
      </trkpt>
      <trkpt lat="46.23182" lon="6.53022">
        <ele>963</ele>
        <time>2010-09-11T09:08:58Z</time>
      </trkpt>
      <trkpt lat="46.23178" lon="6.53011">
        <ele>964</ele>
        <time>2010-09-11T09:09:03Z</time>
      </trkpt>
      <trkpt lat="46.23176" lon="6.53005">
        <ele>965</ele>
        <time>2010-09-11T09:09:07Z</time>
      </trkpt>
      <trkpt lat="46.23178" lon="6.53002">
        <ele>965</ele>
        <time>2010-09-11T09:09:09Z</time>
      </trkpt>
      <trkpt lat="46.23175" lon="6.52995">
        <ele>968</ele>
        <time>2010-09-11T09:09:14Z</time>
      </trkpt>
      <trkpt lat="46.23176" lon="6.52981">
        <ele>970</ele>
        <time>2010-09-11T09:09:21Z</time>
      </trkpt>
      <trkpt lat="46.23174" lon="6.5297">
        <ele>971</ele>
        <time>2010-09-11T09:09:27Z</time>
      </trkpt>
      <trkpt lat="46.23173" lon="6.52967">
        <ele>972</ele>
        <time>2010-09-11T09:09:29Z</time>
      </trkpt>
      <trkpt lat="46.23172" lon="6.52963">
        <ele>972</ele>
        <time>2010-09-11T09:09:32Z</time>
      </trkpt>
      <trkpt lat="46.23171" lon="6.52958">
        <ele>973</ele>
        <time>2010-09-11T09:09:38Z</time>
      </trkpt>
      <trkpt lat="46.2317" lon="6.52957">
        <ele>973</ele>
        <time>2010-09-11T09:09:39Z</time>
      </trkpt>
      <trkpt lat="46.23166" lon="6.52951">
        <ele>979</ele>
        <time>2010-09-11T09:09:44Z</time>
      </trkpt>
      <trkpt lat="46.2316" lon="6.52946">
        <ele>980</ele>
        <time>2010-09-11T09:09:49Z</time>
      </trkpt>
      <trkpt lat="46.23156" lon="6.52943">
        <ele>980</ele>
        <time>2010-09-11T09:09:52Z</time>
      </trkpt>
      <trkpt lat="46.23148" lon="6.52937">
        <ele>981</ele>
        <time>2010-09-11T09:09:56Z</time>
      </trkpt>
      <trkpt lat="46.23141" lon="6.52929">
        <ele>982</ele>
        <time>2010-09-11T09:10:00Z</time>
      </trkpt>
      <trkpt lat="46.23139" lon="6.52928">
        <ele>982</ele>
        <time>2010-09-11T09:10:01Z</time>
      </trkpt>
      <trkpt lat="46.23137" lon="6.52924">
        <ele>982</ele>
        <time>2010-09-11T09:10:05Z</time>
      </trkpt>
      <trkpt lat="46.23133" lon="6.52921">
        <ele>983</ele>
        <time>2010-09-11T09:10:08Z</time>
      </trkpt>
      <trkpt lat="46.23123" lon="6.52921">
        <ele>985</ele>
        <time>2010-09-11T09:10:13Z</time>
      </trkpt>
      <trkpt lat="46.23117" lon="6.52925">
        <ele>986</ele>
        <time>2010-09-11T09:10:17Z</time>
      </trkpt>
      <trkpt lat="46.23116" lon="6.52923">
        <ele>986</ele>
        <time>2010-09-11T09:10:21Z</time>
      </trkpt>
      <trkpt lat="46.23112" lon="6.52923">
        <ele>987</ele>
        <time>2010-09-11T09:10:25Z</time>
      </trkpt>
      <trkpt lat="46.23111" lon="6.5292">
        <ele>987</ele>
        <time>2010-09-11T09:10:29Z</time>
      </trkpt>
      <trkpt lat="46.23114" lon="6.52915">
        <ele>1002</ele>
        <time>2010-09-11T09:10:40Z</time>
      </trkpt>
      <trkpt lat="46.23113" lon="6.52933">
        <ele>985</ele>
        <time>2010-09-11T09:10:45Z</time>
      </trkpt>
      <trkpt lat="46.23106" lon="6.52941">
        <ele>985</ele>
        <time>2010-09-11T09:10:48Z</time>
      </trkpt>
      <trkpt lat="46.23102" lon="6.52943">
        <ele>985</ele>
        <time>2010-09-11T09:10:50Z</time>
      </trkpt>
      <trkpt lat="46.23093" lon="6.52947">
        <ele>985</ele>
        <time>2010-09-11T09:10:54Z</time>
      </trkpt>
      <trkpt lat="46.23082" lon="6.52959">
        <ele>991</ele>
        <time>2010-09-11T09:10:58Z</time>
      </trkpt>
      <trkpt lat="46.23073" lon="6.52968">
        <ele>989</ele>
        <time>2010-09-11T09:11:01Z</time>
      </trkpt>
      <trkpt lat="46.23061" lon="6.5298">
        <ele>987</ele>
        <time>2010-09-11T09:11:06Z</time>
      </trkpt>
      <trkpt lat="46.23058" lon="6.52985">
        <ele>987</ele>
        <time>2010-09-11T09:11:09Z</time>
      </trkpt>
      <trkpt lat="46.23055" lon="6.52985">
        <ele>987</ele>
        <time>2010-09-11T09:11:11Z</time>
      </trkpt>
      <trkpt lat="46.23054" lon="6.52982">
        <ele>988</ele>
        <time>2010-09-11T09:11:16Z</time>
      </trkpt>
      <trkpt lat="46.23052" lon="6.5298">
        <ele>988</ele>
        <time>2010-09-11T09:11:22Z</time>
      </trkpt>
      <trkpt lat="46.2305" lon="6.5298">
        <ele>988</ele>
        <time>2010-09-11T09:11:25Z</time>
      </trkpt>
      <trkpt lat="46.23049" lon="6.5298">
        <ele>989</ele>
        <time>2010-09-11T09:11:28Z</time>
      </trkpt>
      <trkpt lat="46.23038" lon="6.52984">
        <ele>989</ele>
        <time>2010-09-11T09:11:32Z</time>
      </trkpt>
      <trkpt lat="46.23023" lon="6.52989">
        <ele>989</ele>
        <time>2010-09-11T09:11:37Z</time>
      </trkpt>
      <trkpt lat="46.23015" lon="6.52995">
        <ele>987</ele>
        <time>2010-09-11T09:11:40Z</time>
      </trkpt>
      <trkpt lat="46.23007" lon="6.53">
        <ele>985</ele>
        <time>2010-09-11T09:11:43Z</time>
      </trkpt>
      <trkpt lat="46.23001" lon="6.53001">
        <ele>982</ele>
        <time>2010-09-11T09:11:46Z</time>
      </trkpt>
      <trkpt lat="46.22994" lon="6.52998">
        <ele>989</ele>
        <time>2010-09-11T09:11:52Z</time>
      </trkpt>
      <trkpt lat="46.22992" lon="6.5301">
        <ele>984</ele>
        <time>2010-09-11T09:11:55Z</time>
      </trkpt>
      <trkpt lat="46.22994" lon="6.53023">
        <ele>983</ele>
        <time>2010-09-11T09:11:59Z</time>
      </trkpt>
      <trkpt lat="46.22992" lon="6.53032">
        <ele>983</ele>
        <time>2010-09-11T09:12:04Z</time>
      </trkpt>
      <trkpt lat="46.22991" lon="6.53035">
        <ele>982</ele>
        <time>2010-09-11T09:12:06Z</time>
      </trkpt>
      <trkpt lat="46.22987" lon="6.53043">
        <ele>981</ele>
        <time>2010-09-11T09:12:09Z</time>
      </trkpt>
      <trkpt lat="46.22983" lon="6.53047">
        <ele>981</ele>
        <time>2010-09-11T09:12:11Z</time>
      </trkpt>
      <trkpt lat="46.22978" lon="6.53071">
        <ele>978</ele>
        <time>2010-09-11T09:12:18Z</time>
      </trkpt>
      <trkpt lat="46.22974" lon="6.53066">
        <ele>979</ele>
        <time>2010-09-11T09:12:34Z</time>
      </trkpt>
      <trkpt lat="46.22961" lon="6.53084">
        <ele>971</ele>
        <time>2010-09-11T09:12:39Z</time>
      </trkpt>
      <trkpt lat="46.22953" lon="6.53102">
        <ele>972</ele>
        <time>2010-09-11T09:12:43Z</time>
      </trkpt>
      <trkpt lat="46.22945" lon="6.53123">
        <ele>971</ele>
        <time>2010-09-11T09:12:47Z</time>
      </trkpt>
      <trkpt lat="46.22934" lon="6.53138">
        <ele>971</ele>
        <time>2010-09-11T09:12:51Z</time>
      </trkpt>
      <trkpt lat="46.22925" lon="6.53155">
        <ele>970</ele>
        <time>2010-09-11T09:12:54Z</time>
      </trkpt>
      <trkpt lat="46.22923" lon="6.53159">
        <ele>970</ele>
        <time>2010-09-11T09:12:55Z</time>
      </trkpt>
      <trkpt lat="46.22918" lon="6.53179">
        <ele>968</ele>
        <time>2010-09-11T09:13:00Z</time>
      </trkpt>
      <trkpt lat="46.22909" lon="6.53186">
        <ele>974</ele>
        <time>2010-09-11T09:13:03Z</time>
      </trkpt>
      <trkpt lat="46.22902" lon="6.53195">
        <ele>975</ele>
        <time>2010-09-11T09:13:08Z</time>
      </trkpt>
      <trkpt lat="46.22899" lon="6.53196">
        <ele>976</ele>
        <time>2010-09-11T09:13:11Z</time>
      </trkpt>
      <trkpt lat="46.22898" lon="6.53197">
        <ele>976</ele>
        <time>2010-09-11T09:13:13Z</time>
      </trkpt>
      <trkpt lat="46.22887" lon="6.53207">
        <ele>977</ele>
        <time>2010-09-11T09:13:18Z</time>
      </trkpt>
      <trkpt lat="46.22879" lon="6.53212">
        <ele>977</ele>
        <time>2010-09-11T09:13:21Z</time>
      </trkpt>
      <trkpt lat="46.22873" lon="6.53213">
        <ele>978</ele>
        <time>2010-09-11T09:13:23Z</time>
      </trkpt>
      <trkpt lat="46.2287" lon="6.53219">
        <ele>978</ele>
        <time>2010-09-11T09:13:28Z</time>
      </trkpt>
      <trkpt lat="46.22868" lon="6.53232">
        <ele>978</ele>
        <time>2010-09-11T09:13:32Z</time>
      </trkpt>
      <trkpt lat="46.22866" lon="6.53253">
        <ele>974</ele>
        <time>2010-09-11T09:13:37Z</time>
      </trkpt>
      <trkpt lat="46.22866" lon="6.53265">
        <ele>974</ele>
        <time>2010-09-11T09:13:42Z</time>
      </trkpt>
      <trkpt lat="46.22865" lon="6.5327">
        <ele>974</ele>
        <time>2010-09-11T09:13:48Z</time>
      </trkpt>
      <trkpt lat="46.22835" lon="6.53297">
        <ele>974</ele>
        <time>2010-09-11T09:13:55Z</time>
      </trkpt>
      <trkpt lat="46.22838" lon="6.53304">
        <ele>973</ele>
        <time>2010-09-11T09:13:58Z</time>
      </trkpt>
      <trkpt lat="46.22829" lon="6.53327">
        <ele>979</ele>
        <time>2010-09-11T09:14:04Z</time>
      </trkpt>
      <trkpt lat="46.22824" lon="6.53333">
        <ele>981</ele>
        <time>2010-09-11T09:14:08Z</time>
      </trkpt>
      <trkpt lat="46.22813" lon="6.53347">
        <ele>981</ele>
        <time>2010-09-11T09:14:14Z</time>
      </trkpt>
      <trkpt lat="46.22805" lon="6.53356">
        <ele>983</ele>
        <time>2010-09-11T09:14:20Z</time>
      </trkpt>
      <trkpt lat="46.22812" lon="6.53382">
        <ele>982</ele>
        <time>2010-09-11T09:14:25Z</time>
      </trkpt>
      <trkpt lat="46.22808" lon="6.53409">
        <ele>980</ele>
        <time>2010-09-11T09:14:31Z</time>
      </trkpt>
      <trkpt lat="46.22784" lon="6.53409">
        <ele>985</ele>
        <time>2010-09-11T09:14:37Z</time>
      </trkpt>
      <trkpt lat="46.22784" lon="6.53426">
        <ele>979</ele>
        <time>2010-09-11T09:14:42Z</time>
      </trkpt>
      <trkpt lat="46.22775" lon="6.53446">
        <ele>978</ele>
        <time>2010-09-11T09:14:46Z</time>
      </trkpt>
      <trkpt lat="46.22767" lon="6.53453">
        <ele>978</ele>
        <time>2010-09-11T09:14:49Z</time>
      </trkpt>
      <trkpt lat="46.22765" lon="6.53456">
        <ele>978</ele>
        <time>2010-09-11T09:14:50Z</time>
      </trkpt>
      <trkpt lat="46.22757" lon="6.53469">
        <ele>976</ele>
        <time>2010-09-11T09:14:54Z</time>
      </trkpt>
      <trkpt lat="46.22756" lon="6.53475">
        <ele>976</ele>
        <time>2010-09-11T09:14:58Z</time>
      </trkpt>
      <trkpt lat="46.22748" lon="6.53485">
        <ele>979</ele>
        <time>2010-09-11T09:15:02Z</time>
      </trkpt>
      <trkpt lat="46.22744" lon="6.53489">
        <ele>978</ele>
        <time>2010-09-11T09:15:05Z</time>
      </trkpt>
      <trkpt lat="46.22738" lon="6.53497">
        <ele>978</ele>
        <time>2010-09-11T09:15:12Z</time>
      </trkpt>
      <trkpt lat="46.22729" lon="6.53505">
        <ele>973</ele>
        <time>2010-09-11T09:15:18Z</time>
      </trkpt>
      <trkpt lat="46.22718" lon="6.53513">
        <ele>974</ele>
        <time>2010-09-11T09:15:24Z</time>
      </trkpt>
      <trkpt lat="46.22716" lon="6.53515">
        <ele>974</ele>
        <time>2010-09-11T09:15:25Z</time>
      </trkpt>
      <trkpt lat="46.2271" lon="6.53518">
        <ele>975</ele>
        <time>2010-09-11T09:15:28Z</time>
      </trkpt>
      <trkpt lat="46.22696" lon="6.53522">
        <ele>976</ele>
        <time>2010-09-11T09:15:33Z</time>
      </trkpt>
      <trkpt lat="46.22685" lon="6.53529">
        <ele>976</ele>
        <time>2010-09-11T09:15:37Z</time>
      </trkpt>
      <trkpt lat="46.22677" lon="6.53533">
        <ele>976</ele>
        <time>2010-09-11T09:15:40Z</time>
      </trkpt>
      <trkpt lat="46.22668" lon="6.53543">
        <ele>975</ele>
        <time>2010-09-11T09:15:43Z</time>
      </trkpt>
      <trkpt lat="46.22666" lon="6.53544">
        <ele>980</ele>
        <time>2010-09-11T09:15:44Z</time>
      </trkpt>
      <trkpt lat="46.22652" lon="6.53555">
        <ele>979</ele>
        <time>2010-09-11T09:15:49Z</time>
      </trkpt>
      <trkpt lat="46.22639" lon="6.53561">
        <ele>980</ele>
        <time>2010-09-11T09:15:54Z</time>
      </trkpt>
      <trkpt lat="46.22633" lon="6.53563">
        <ele>980</ele>
        <time>2010-09-11T09:15:57Z</time>
      </trkpt>
      <trkpt lat="46.22626" lon="6.5357">
        <ele>980</ele>
        <time>2010-09-11T09:16:00Z</time>
      </trkpt>
      <trkpt lat="46.22614" lon="6.53573">
        <ele>980</ele>
        <time>2010-09-11T09:16:04Z</time>
      </trkpt>
      <trkpt lat="46.2261" lon="6.53575">
        <ele>979</ele>
        <time>2010-09-11T09:16:06Z</time>
      </trkpt>
      <trkpt lat="46.226" lon="6.53578">
        <ele>979</ele>
        <time>2010-09-11T09:16:10Z</time>
      </trkpt>
      <trkpt lat="46.2259" lon="6.53585">
        <ele>974</ele>
        <time>2010-09-11T09:16:14Z</time>
      </trkpt>
      <trkpt lat="46.22588" lon="6.53587">
        <ele>974</ele>
        <time>2010-09-11T09:16:15Z</time>
      </trkpt>
      <trkpt lat="46.22579" lon="6.53608">
        <ele>977</ele>
        <time>2010-09-11T09:16:20Z</time>
      </trkpt>
      <trkpt lat="46.22578" lon="6.53612">
        <ele>977</ele>
        <time>2010-09-11T09:16:21Z</time>
      </trkpt>
      <trkpt lat="46.22567" lon="6.53614">
        <ele>977</ele>
        <time>2010-09-11T09:16:27Z</time>
      </trkpt>
      <trkpt lat="46.22568" lon="6.5362">
        <ele>977</ele>
        <time>2010-09-11T09:16:34Z</time>
      </trkpt>
      <trkpt lat="46.22562" lon="6.53628">
        <ele>977</ele>
        <time>2010-09-11T09:16:38Z</time>
      </trkpt>
      <trkpt lat="46.22556" lon="6.53642">
        <ele>977</ele>
        <time>2010-09-11T09:16:42Z</time>
      </trkpt>
      <trkpt lat="46.22551" lon="6.53657">
        <ele>976</ele>
        <time>2010-09-11T09:16:46Z</time>
      </trkpt>
      <trkpt lat="46.22545" lon="6.53669">
        <ele>975</ele>
        <time>2010-09-11T09:16:50Z</time>
      </trkpt>
      <trkpt lat="46.22538" lon="6.53679">
        <ele>975</ele>
        <time>2010-09-11T09:16:54Z</time>
      </trkpt>
      <trkpt lat="46.22535" lon="6.53686">
        <ele>975</ele>
        <time>2010-09-11T09:16:56Z</time>
      </trkpt>
      <trkpt lat="46.22525" lon="6.53698">
        <ele>975</ele>
        <time>2010-09-11T09:17:01Z</time>
      </trkpt>
      <trkpt lat="46.22523" lon="6.53701">
        <ele>975</ele>
        <time>2010-09-11T09:17:02Z</time>
      </trkpt>
      <trkpt lat="46.22518" lon="6.53708">
        <ele>975</ele>
        <time>2010-09-11T09:17:07Z</time>
      </trkpt>
      <trkpt lat="46.22508" lon="6.53721">
        <ele>975</ele>
        <time>2010-09-11T09:17:12Z</time>
      </trkpt>
      <trkpt lat="46.22495" lon="6.53733">
        <ele>978</ele>
        <time>2010-09-11T09:17:17Z</time>
      </trkpt>
      <trkpt lat="46.22481" lon="6.53742">
        <ele>979</ele>
        <time>2010-09-11T09:17:22Z</time>
      </trkpt>
      <trkpt lat="46.2247" lon="6.53748">
        <ele>980</ele>
        <time>2010-09-11T09:17:27Z</time>
      </trkpt>
      <trkpt lat="46.22461" lon="6.53754">
        <ele>979</ele>
        <time>2010-09-11T09:17:31Z</time>
      </trkpt>
      <trkpt lat="46.22449" lon="6.53763">
        <ele>980</ele>
        <time>2010-09-11T09:17:36Z</time>
      </trkpt>
      <trkpt lat="46.22439" lon="6.5377">
        <ele>980</ele>
        <time>2010-09-11T09:17:40Z</time>
      </trkpt>
      <trkpt lat="46.22431" lon="6.53781">
        <ele>980</ele>
        <time>2010-09-11T09:17:44Z</time>
      </trkpt>
      <trkpt lat="46.22424" lon="6.53794">
        <ele>980</ele>
        <time>2010-09-11T09:17:49Z</time>
      </trkpt>
      <trkpt lat="46.22415" lon="6.53808">
        <ele>987</ele>
        <time>2010-09-11T09:17:55Z</time>
      </trkpt>
      <trkpt lat="46.2241" lon="6.53818">
        <ele>986</ele>
        <time>2010-09-11T09:18:00Z</time>
      </trkpt>
      <trkpt lat="46.22403" lon="6.53825">
        <ele>986</ele>
        <time>2010-09-11T09:18:04Z</time>
      </trkpt>
      <trkpt lat="46.22397" lon="6.53831">
        <ele>987</ele>
        <time>2010-09-11T09:18:09Z</time>
      </trkpt>
      <trkpt lat="46.22395" lon="6.53837">
        <ele>990</ele>
        <time>2010-09-11T09:18:12Z</time>
      </trkpt>
      <trkpt lat="46.22394" lon="6.53846">
        <ele>991</ele>
        <time>2010-09-11T09:18:16Z</time>
      </trkpt>
      <trkpt lat="46.22394" lon="6.53864">
        <ele>993</ele>
        <time>2010-09-11T09:18:21Z</time>
      </trkpt>
      <trkpt lat="46.22391" lon="6.53873">
        <ele>995</ele>
        <time>2010-09-11T09:18:24Z</time>
      </trkpt>
      <trkpt lat="46.22391" lon="6.5388">
        <ele>995</ele>
        <time>2010-09-11T09:18:27Z</time>
      </trkpt>
      <trkpt lat="46.22387" lon="6.53894">
        <ele>996</ele>
        <time>2010-09-11T09:18:31Z</time>
      </trkpt>
      <trkpt lat="46.22381" lon="6.53907">
        <ele>998</ele>
        <time>2010-09-11T09:18:34Z</time>
      </trkpt>
      <trkpt lat="46.22379" lon="6.53919">
        <ele>1004</ele>
        <time>2010-09-11T09:18:37Z</time>
      </trkpt>
      <trkpt lat="46.22381" lon="6.53924">
        <ele>1003</ele>
        <time>2010-09-11T09:18:38Z</time>
      </trkpt>
      <trkpt lat="46.22387" lon="6.53944">
        <ele>1003</ele>
        <time>2010-09-11T09:18:43Z</time>
      </trkpt>
      <trkpt lat="46.22387" lon="6.5395">
        <ele>1003</ele>
        <time>2010-09-11T09:18:45Z</time>
      </trkpt>
      <trkpt lat="46.22384" lon="6.53958">
        <ele>1004</ele>
        <time>2010-09-11T09:18:48Z</time>
      </trkpt>
      <trkpt lat="46.22381" lon="6.53972">
        <ele>1005</ele>
        <time>2010-09-11T09:18:53Z</time>
      </trkpt>
      <trkpt lat="46.22376" lon="6.53989">
        <ele>1007</ele>
        <time>2010-09-11T09:18:58Z</time>
      </trkpt>
      <trkpt lat="46.22376" lon="6.53993">
        <ele>1007</ele>
        <time>2010-09-11T09:18:59Z</time>
      </trkpt>
      <trkpt lat="46.22371" lon="6.54007">
        <ele>1011</ele>
        <time>2010-09-11T09:19:05Z</time>
      </trkpt>
      <trkpt lat="46.22366" lon="6.54004">
        <ele>1012</ele>
        <time>2010-09-11T09:19:17Z</time>
      </trkpt>
      <trkpt lat="46.22363" lon="6.54">
        <ele>1010</ele>
        <time>2010-09-11T09:19:28Z</time>
      </trkpt>
      <trkpt lat="46.22372" lon="6.53981">
        <ele>1007</ele>
        <time>2010-09-11T09:19:33Z</time>
      </trkpt>
      <trkpt lat="46.22373" lon="6.53972">
        <ele>1007</ele>
        <time>2010-09-11T09:19:35Z</time>
      </trkpt>
      <trkpt lat="46.22358" lon="6.53956">
        <ele>1009</ele>
        <time>2010-09-11T09:19:44Z</time>
      </trkpt>
      <trkpt lat="46.22353" lon="6.53943">
        <ele>1010</ele>
        <time>2010-09-11T09:19:51Z</time>
      </trkpt>
      <trkpt lat="46.22354" lon="6.53937">
        <ele>1010</ele>
        <time>2010-09-11T09:19:54Z</time>
      </trkpt>
      <trkpt lat="46.22352" lon="6.53926">
        <ele>1012</ele>
        <time>2010-09-11T09:20:00Z</time>
      </trkpt>
      <trkpt lat="46.2235" lon="6.53918">
        <ele>1013</ele>
        <time>2010-09-11T09:20:04Z</time>
      </trkpt>
      <trkpt lat="46.22351" lon="6.53906">
        <ele>1007</ele>
        <time>2010-09-11T09:20:11Z</time>
      </trkpt>
      <trkpt lat="46.22352" lon="6.53894">
        <ele>1004</ele>
        <time>2010-09-11T09:20:17Z</time>
      </trkpt>
      <trkpt lat="46.22351" lon="6.53886">
        <ele>1003</ele>
        <time>2010-09-11T09:20:22Z</time>
      </trkpt>
      <trkpt lat="46.22345" lon="6.53879">
        <ele>1003</ele>
        <time>2010-09-11T09:20:27Z</time>
      </trkpt>
      <trkpt lat="46.2234" lon="6.53866">
        <ele>1002</ele>
        <time>2010-09-11T09:20:35Z</time>
      </trkpt>
      <trkpt lat="46.22335" lon="6.53856">
        <ele>1002</ele>
        <time>2010-09-11T09:20:41Z</time>
      </trkpt>
      <trkpt lat="46.22329" lon="6.53844">
        <ele>1015</ele>
        <time>2010-09-11T09:20:48Z</time>
      </trkpt>
      <trkpt lat="46.22327" lon="6.53841">
        <ele>1013</ele>
        <time>2010-09-11T09:20:50Z</time>
      </trkpt>
      <trkpt lat="46.22322" lon="6.53831">
        <ele>1012</ele>
        <time>2010-09-11T09:20:55Z</time>
      </trkpt>
      <trkpt lat="46.22321" lon="6.5383">
        <ele>1012</ele>
        <time>2010-09-11T09:20:56Z</time>
      </trkpt>
      <trkpt lat="46.2232" lon="6.53825">
        <ele>1013</ele>
        <time>2010-09-11T09:21:00Z</time>
      </trkpt>
      <trkpt lat="46.22318" lon="6.53821">
        <ele>1015</ele>
        <time>2010-09-11T09:21:04Z</time>
      </trkpt>
      <trkpt lat="46.22315" lon="6.53818">
        <ele>1016</ele>
        <time>2010-09-11T09:21:09Z</time>
      </trkpt>
      <trkpt lat="46.22313" lon="6.53818">
        <ele>1016</ele>
        <time>2010-09-11T09:21:11Z</time>
      </trkpt>
      <trkpt lat="46.22304" lon="6.53818">
        <ele>1019</ele>
        <time>2010-09-11T09:21:15Z</time>
      </trkpt>
      <trkpt lat="46.22298" lon="6.53819">
        <ele>1021</ele>
        <time>2010-09-11T09:21:20Z</time>
      </trkpt>
      <trkpt lat="46.22303" lon="6.5381">
        <ele>1020</ele>
        <time>2010-09-11T09:21:26Z</time>
      </trkpt>
      <trkpt lat="46.22306" lon="6.53797">
        <ele>1019</ele>
        <time>2010-09-11T09:21:35Z</time>
      </trkpt>
      <trkpt lat="46.22304" lon="6.53792">
        <ele>1019</ele>
        <time>2010-09-11T09:21:42Z</time>
      </trkpt>
      <trkpt lat="46.22299" lon="6.53788">
        <ele>1020</ele>
        <time>2010-09-11T09:21:47Z</time>
      </trkpt>
      <trkpt lat="46.22297" lon="6.53786">
        <ele>1021</ele>
        <time>2010-09-11T09:21:49Z</time>
      </trkpt>
      <trkpt lat="46.22294" lon="6.53777">
        <ele>1021</ele>
        <time>2010-09-11T09:21:53Z</time>
      </trkpt>
      <trkpt lat="46.22288" lon="6.53771">
        <ele>1023</ele>
        <time>2010-09-11T09:21:58Z</time>
      </trkpt>
      <trkpt lat="46.22288" lon="6.53768">
        <ele>1022</ele>
        <time>2010-09-11T09:22:00Z</time>
      </trkpt>
      <trkpt lat="46.22288" lon="6.53758">
        <ele>1023</ele>
        <time>2010-09-11T09:22:06Z</time>
      </trkpt>
      <trkpt lat="46.22288" lon="6.53754">
        <ele>1023</ele>
        <time>2010-09-11T09:22:10Z</time>
      </trkpt>
      <trkpt lat="46.22287" lon="6.53748">
        <ele>1024</ele>
        <time>2010-09-11T09:22:14Z</time>
      </trkpt>
      <trkpt lat="46.22286" lon="6.53747">
        <ele>1024</ele>
        <time>2010-09-11T09:22:15Z</time>
      </trkpt>
      <trkpt lat="46.22282" lon="6.53743">
        <ele>1025</ele>
        <time>2010-09-11T09:22:19Z</time>
      </trkpt>
      <trkpt lat="46.22284" lon="6.53737">
        <ele>1025</ele>
        <time>2010-09-11T09:22:24Z</time>
      </trkpt>
      <trkpt lat="46.22284" lon="6.53734">
        <ele>1025</ele>
        <time>2010-09-11T09:22:26Z</time>
      </trkpt>
      <trkpt lat="46.22284" lon="6.53732">
        <ele>1025</ele>
        <time>2010-09-11T09:22:28Z</time>
      </trkpt>
      <trkpt lat="46.22278" lon="6.53727">
        <ele>1026</ele>
        <time>2010-09-11T09:22:34Z</time>
      </trkpt>
      <trkpt lat="46.22271" lon="6.53722">
        <ele>1027</ele>
        <time>2010-09-11T09:22:38Z</time>
      </trkpt>
      <trkpt lat="46.22267" lon="6.53717">
        <ele>1027</ele>
        <time>2010-09-11T09:22:42Z</time>
      </trkpt>
      <trkpt lat="46.22266" lon="6.53715">
        <ele>1028</ele>
        <time>2010-09-11T09:22:44Z</time>
      </trkpt>
      <trkpt lat="46.2226" lon="6.53711">
        <ele>1028</ele>
        <time>2010-09-11T09:22:51Z</time>
      </trkpt>
      <trkpt lat="46.22254" lon="6.53712">
        <ele>1029</ele>
        <time>2010-09-11T09:22:56Z</time>
      </trkpt>
      <trkpt lat="46.2225" lon="6.53708">
        <ele>1029</ele>
        <time>2010-09-11T09:23:02Z</time>
      </trkpt>
      <trkpt lat="46.2225" lon="6.53708">
        <ele>1029</ele>
        <time>2010-09-11T09:23:06Z</time>
      </trkpt>
      <trkpt lat="46.22248" lon="6.53707">
        <ele>1047</ele>
        <time>2010-09-11T09:23:12Z</time>
      </trkpt>
      <trkpt lat="46.22248" lon="6.53707">
        <ele>1047</ele>
        <time>2010-09-11T09:23:18Z</time>
      </trkpt>
      <trkpt lat="46.22246" lon="6.53708">
        <ele>1047</ele>
        <time>2010-09-11T09:23:22Z</time>
      </trkpt>
      <trkpt lat="46.22242" lon="6.53708">
        <ele>1047</ele>
        <time>2010-09-11T09:23:29Z</time>
      </trkpt>
      <trkpt lat="46.22239" lon="6.53709">
        <ele>1048</ele>
        <time>2010-09-11T09:23:33Z</time>
      </trkpt>
      <trkpt lat="46.22235" lon="6.53712">
        <ele>1048</ele>
        <time>2010-09-11T09:23:39Z</time>
      </trkpt>
      <trkpt lat="46.22226" lon="6.5371">
        <ele>1049</ele>
        <time>2010-09-11T09:23:50Z</time>
      </trkpt>
      <trkpt lat="46.22225" lon="6.5371">
        <ele>1049</ele>
        <time>2010-09-11T09:23:53Z</time>
      </trkpt>
      <trkpt lat="46.22221" lon="6.53709">
        <ele>1050</ele>
        <time>2010-09-11T09:23:56Z</time>
      </trkpt>
      <trkpt lat="46.22213" lon="6.53709">
        <ele>1051</ele>
        <time>2010-09-11T09:24:02Z</time>
      </trkpt>
      <trkpt lat="46.22208" lon="6.53708">
        <ele>1052</ele>
        <time>2010-09-11T09:24:07Z</time>
      </trkpt>
      <trkpt lat="46.22206" lon="6.53707">
        <ele>1052</ele>
        <time>2010-09-11T09:24:09Z</time>
      </trkpt>
      <trkpt lat="46.22201" lon="6.53706">
        <ele>1053</ele>
        <time>2010-09-11T09:24:14Z</time>
      </trkpt>
      <trkpt lat="46.22199" lon="6.53705">
        <ele>1053</ele>
        <time>2010-09-11T09:24:16Z</time>
      </trkpt>
      <trkpt lat="46.22193" lon="6.53704">
        <ele>1054</ele>
        <time>2010-09-11T09:24:24Z</time>
      </trkpt>
      <trkpt lat="46.22191" lon="6.53706">
        <ele>1055</ele>
        <time>2010-09-11T09:24:29Z</time>
      </trkpt>
      <trkpt lat="46.22188" lon="6.53705">
        <ele>1055</ele>
        <time>2010-09-11T09:24:31Z</time>
      </trkpt>
      <trkpt lat="46.22182" lon="6.53696">
        <ele>1055</ele>
        <time>2010-09-11T09:24:36Z</time>
      </trkpt>
      <trkpt lat="46.2218" lon="6.53691">
        <ele>1055</ele>
        <time>2010-09-11T09:24:41Z</time>
      </trkpt>
      <trkpt lat="46.22175" lon="6.53687">
        <ele>1056</ele>
        <time>2010-09-11T09:24:44Z</time>
      </trkpt>
      <trkpt lat="46.22169" lon="6.53681">
        <ele>1056</ele>
        <time>2010-09-11T09:24:50Z</time>
      </trkpt>
      <trkpt lat="46.22162" lon="6.53677">
        <ele>1066</ele>
        <time>2010-09-11T09:24:55Z</time>
      </trkpt>
      <trkpt lat="46.22161" lon="6.53676">
        <ele>1066</ele>
        <time>2010-09-11T09:24:56Z</time>
      </trkpt>
      <trkpt lat="46.22157" lon="6.53673">
        <ele>1066</ele>
        <time>2010-09-11T09:25:00Z</time>
      </trkpt>
      <trkpt lat="46.22148" lon="6.53667">
        <ele>1070</ele>
        <time>2010-09-11T09:25:09Z</time>
      </trkpt>
      <trkpt lat="46.22148" lon="6.53662">
        <ele>1066</ele>
        <time>2010-09-11T09:25:12Z</time>
      </trkpt>
      <trkpt lat="46.22149" lon="6.53658">
        <ele>1066</ele>
        <time>2010-09-11T09:25:15Z</time>
      </trkpt>
      <trkpt lat="46.22149" lon="6.53653">
        <ele>1067</ele>
        <time>2010-09-11T09:25:20Z</time>
      </trkpt>
      <trkpt lat="46.22148" lon="6.53651">
        <ele>1068</ele>
        <time>2010-09-11T09:25:24Z</time>
      </trkpt>
      <trkpt lat="46.22144" lon="6.53647">
        <ele>1069</ele>
        <time>2010-09-11T09:25:29Z</time>
      </trkpt>
      <trkpt lat="46.22143" lon="6.5365">
        <ele>1069</ele>
        <time>2010-09-11T09:25:44Z</time>
      </trkpt>
      <trkpt lat="46.22141" lon="6.5365">
        <ele>1069</ele>
        <time>2010-09-11T09:25:51Z</time>
      </trkpt>
      <trkpt lat="46.22139" lon="6.53648">
        <ele>1070</ele>
        <time>2010-09-11T09:25:55Z</time>
      </trkpt>
      <trkpt lat="46.22136" lon="6.53645">
        <ele>1071</ele>
        <time>2010-09-11T09:25:59Z</time>
      </trkpt>
      <trkpt lat="46.22132" lon="6.53644">
        <ele>1071</ele>
        <time>2010-09-11T09:26:04Z</time>
      </trkpt>
      <trkpt lat="46.2213" lon="6.53643">
        <ele>1072</ele>
        <time>2010-09-11T09:26:08Z</time>
      </trkpt>
      <trkpt lat="46.22125" lon="6.53638">
        <ele>1073</ele>
        <time>2010-09-11T09:26:12Z</time>
      </trkpt>
      <trkpt lat="46.22121" lon="6.53633">
        <ele>1073</ele>
        <time>2010-09-11T09:26:18Z</time>
      </trkpt>
      <trkpt lat="46.22117" lon="6.53631">
        <ele>1074</ele>
        <time>2010-09-11T09:26:25Z</time>
      </trkpt>
      <trkpt lat="46.22112" lon="6.53631">
        <ele>1075</ele>
        <time>2010-09-11T09:26:30Z</time>
      </trkpt>
      <trkpt lat="46.22109" lon="6.53626">
        <ele>1075</ele>
        <time>2010-09-11T09:26:35Z</time>
      </trkpt>
      <trkpt lat="46.22106" lon="6.53621">
        <ele>1076</ele>
        <time>2010-09-11T09:26:44Z</time>
      </trkpt>
      <trkpt lat="46.22102" lon="6.53617">
        <ele>1076</ele>
        <time>2010-09-11T09:26:49Z</time>
      </trkpt>
      <trkpt lat="46.22098" lon="6.53614">
        <ele>1077</ele>
        <time>2010-09-11T09:26:55Z</time>
      </trkpt>
      <trkpt lat="46.22093" lon="6.5361">
        <ele>1078</ele>
        <time>2010-09-11T09:26:58Z</time>
      </trkpt>
      <trkpt lat="46.22088" lon="6.53609">
        <ele>1078</ele>
        <time>2010-09-11T09:27:03Z</time>
      </trkpt>
      <trkpt lat="46.22085" lon="6.53609">
        <ele>1078</ele>
        <time>2010-09-11T09:27:06Z</time>
      </trkpt>
      <trkpt lat="46.22082" lon="6.53609">
        <ele>1092</ele>
        <time>2010-09-11T09:27:08Z</time>
      </trkpt>
      <trkpt lat="46.22073" lon="6.53612">
        <ele>1093</ele>
        <time>2010-09-11T09:27:15Z</time>
      </trkpt>
      <trkpt lat="46.22068" lon="6.53613">
        <ele>1094</ele>
        <time>2010-09-11T09:27:21Z</time>
      </trkpt>
      <trkpt lat="46.22064" lon="6.53614">
        <ele>1094</ele>
        <time>2010-09-11T09:27:27Z</time>
      </trkpt>
      <trkpt lat="46.22056" lon="6.53617">
        <ele>1096</ele>
        <time>2010-09-11T09:27:33Z</time>
      </trkpt>
      <trkpt lat="46.2205" lon="6.53621">
        <ele>1097</ele>
        <time>2010-09-11T09:27:39Z</time>
      </trkpt>
      <trkpt lat="46.22048" lon="6.53621">
        <ele>1097</ele>
        <time>2010-09-11T09:27:42Z</time>
      </trkpt>
      <trkpt lat="46.22044" lon="6.53623">
        <ele>1098</ele>
        <time>2010-09-11T09:27:45Z</time>
      </trkpt>
      <trkpt lat="46.22038" lon="6.53624">
        <ele>1099</ele>
        <time>2010-09-11T09:27:50Z</time>
      </trkpt>
      <trkpt lat="46.22032" lon="6.53624">
        <ele>1099</ele>
        <time>2010-09-11T09:27:56Z</time>
      </trkpt>
      <trkpt lat="46.2203" lon="6.53625">
        <ele>1100</ele>
        <time>2010-09-11T09:28:02Z</time>
      </trkpt>
      <trkpt lat="46.22024" lon="6.53629">
        <ele>1101</ele>
        <time>2010-09-11T09:28:08Z</time>
      </trkpt>
      <trkpt lat="46.22023" lon="6.53631">
        <ele>1101</ele>
        <time>2010-09-11T09:28:13Z</time>
      </trkpt>
      <trkpt lat="46.22021" lon="6.53635">
        <ele>1101</ele>
        <time>2010-09-11T09:28:17Z</time>
      </trkpt>
      <trkpt lat="46.22025" lon="6.53636">
        <ele>1101</ele>
        <time>2010-09-11T09:28:24Z</time>
      </trkpt>
      <trkpt lat="46.22022" lon="6.53634">
        <ele>1101</ele>
        <time>2010-09-11T09:28:28Z</time>
      </trkpt>
      <trkpt lat="46.22022" lon="6.53634">
        <ele>1101</ele>
        <time>2010-09-11T09:28:34Z</time>
      </trkpt>
      <trkpt lat="46.22023" lon="6.53635">
        <ele>1101</ele>
        <time>2010-09-11T09:28:37Z</time>
      </trkpt>
      <trkpt lat="46.2202" lon="6.53636">
        <ele>1102</ele>
        <time>2010-09-11T09:28:39Z</time>
      </trkpt>
      <trkpt lat="46.22019" lon="6.53636">
        <ele>1102</ele>
        <time>2010-09-11T09:28:45Z</time>
      </trkpt>
      <trkpt lat="46.22017" lon="6.53635">
        <ele>1102</ele>
        <time>2010-09-11T09:28:51Z</time>
      </trkpt>
      <trkpt lat="46.22018" lon="6.53634">
        <ele>1102</ele>
        <time>2010-09-11T09:28:53Z</time>
      </trkpt>
      <trkpt lat="46.22018" lon="6.53628">
        <ele>1101</ele>
        <time>2010-09-11T09:28:57Z</time>
      </trkpt>
      <trkpt lat="46.22016" lon="6.53622">
        <ele>1102</ele>
        <time>2010-09-11T09:29:02Z</time>
      </trkpt>
      <trkpt lat="46.22022" lon="6.53617">
        <ele>1101</ele>
        <time>2010-09-11T09:29:07Z</time>
      </trkpt>
      <trkpt lat="46.22023" lon="6.53616">
        <ele>1101</ele>
        <time>2010-09-11T09:29:08Z</time>
      </trkpt>
      <trkpt lat="46.22024" lon="6.53614">
        <ele>1101</ele>
        <time>2010-09-11T09:29:14Z</time>
      </trkpt>
      <trkpt lat="46.22021" lon="6.53615">
        <ele>1101</ele>
        <time>2010-09-11T09:29:19Z</time>
      </trkpt>
      <trkpt lat="46.22018" lon="6.53617">
        <ele>1101</ele>
        <time>2010-09-11T09:29:23Z</time>
      </trkpt>
      <trkpt lat="46.22015" lon="6.53617">
        <ele>1102</ele>
        <time>2010-09-11T09:29:27Z</time>
      </trkpt>
      <trkpt lat="46.22011" lon="6.53616">
        <ele>1102</ele>
        <time>2010-09-11T09:29:32Z</time>
      </trkpt>
      <trkpt lat="46.22007" lon="6.53617">
        <ele>1103</ele>
        <time>2010-09-11T09:29:36Z</time>
      </trkpt>
      <trkpt lat="46.22004" lon="6.53618">
        <ele>1103</ele>
        <time>2010-09-11T09:29:40Z</time>
      </trkpt>
      <trkpt lat="46.21999" lon="6.53623">
        <ele>1120</ele>
        <time>2010-09-11T09:29:44Z</time>
      </trkpt>
      <trkpt lat="46.21996" lon="6.53625">
        <ele>1120</ele>
        <time>2010-09-11T09:29:47Z</time>
      </trkpt>
      <trkpt lat="46.21992" lon="6.53626">
        <ele>1120</ele>
        <time>2010-09-11T09:29:50Z</time>
      </trkpt>
      <trkpt lat="46.21989" lon="6.53627">
        <ele>1121</ele>
        <time>2010-09-11T09:29:52Z</time>
      </trkpt>
      <trkpt lat="46.21982" lon="6.53624">
        <ele>1121</ele>
        <time>2010-09-11T09:29:57Z</time>
      </trkpt>
      <trkpt lat="46.21977" lon="6.53621">
        <ele>1122</ele>
        <time>2010-09-11T09:30:02Z</time>
      </trkpt>
      <trkpt lat="46.21977" lon="6.53621">
        <ele>1122</ele>
        <time>2010-09-11T09:30:03Z</time>
      </trkpt>
      <trkpt lat="46.21973" lon="6.53621">
        <ele>1123</ele>
        <time>2010-09-11T09:30:06Z</time>
      </trkpt>
      <trkpt lat="46.21966" lon="6.53625">
        <ele>1124</ele>
        <time>2010-09-11T09:30:11Z</time>
      </trkpt>
      <trkpt lat="46.21959" lon="6.5363">
        <ele>1125</ele>
        <time>2010-09-11T09:30:17Z</time>
      </trkpt>
      <trkpt lat="46.21954" lon="6.53628">
        <ele>1126</ele>
        <time>2010-09-11T09:30:21Z</time>
      </trkpt>
      <trkpt lat="46.2195" lon="6.53626">
        <ele>1127</ele>
        <time>2010-09-11T09:30:24Z</time>
      </trkpt>
      <trkpt lat="46.21946" lon="6.53626">
        <ele>1127</ele>
        <time>2010-09-11T09:30:28Z</time>
      </trkpt>
      <trkpt lat="46.21944" lon="6.53622">
        <ele>1128</ele>
        <time>2010-09-11T09:30:30Z</time>
      </trkpt>
      <trkpt lat="46.21935" lon="6.53619">
        <ele>1129</ele>
        <time>2010-09-11T09:30:33Z</time>
      </trkpt>
      <trkpt lat="46.21929" lon="6.53618">
        <ele>1130</ele>
        <time>2010-09-11T09:30:39Z</time>
      </trkpt>
      <trkpt lat="46.21928" lon="6.53617">
        <ele>1130</ele>
        <time>2010-09-11T09:30:40Z</time>
      </trkpt>
      <trkpt lat="46.21919" lon="6.53615">
        <ele>1131</ele>
        <time>2010-09-11T09:30:46Z</time>
      </trkpt>
      <trkpt lat="46.21915" lon="6.53614">
        <ele>1150</ele>
        <time>2010-09-11T09:30:51Z</time>
      </trkpt>
      <trkpt lat="46.21913" lon="6.53612">
        <ele>1150</ele>
        <time>2010-09-11T09:30:54Z</time>
      </trkpt>
      <trkpt lat="46.21909" lon="6.53608">
        <ele>1150</ele>
        <time>2010-09-11T09:31:01Z</time>
      </trkpt>
      <trkpt lat="46.21907" lon="6.53608">
        <ele>1150</ele>
        <time>2010-09-11T09:31:06Z</time>
      </trkpt>
      <trkpt lat="46.21906" lon="6.53608">
        <ele>1150</ele>
        <time>2010-09-11T09:31:10Z</time>
      </trkpt>
      <trkpt lat="46.21902" lon="6.5361">
        <ele>1151</ele>
        <time>2010-09-11T09:31:16Z</time>
      </trkpt>
      <trkpt lat="46.21897" lon="6.53612">
        <ele>1152</ele>
        <time>2010-09-11T09:31:21Z</time>
      </trkpt>
      <trkpt lat="46.21894" lon="6.53615">
        <ele>1152</ele>
        <time>2010-09-11T09:31:25Z</time>
      </trkpt>
      <trkpt lat="46.21894" lon="6.53614">
        <ele>1152</ele>
        <time>2010-09-11T09:31:30Z</time>
      </trkpt>
      <trkpt lat="46.21891" lon="6.53615">
        <ele>1153</ele>
        <time>2010-09-11T09:31:36Z</time>
      </trkpt>
      <trkpt lat="46.21887" lon="6.53614">
        <ele>1154</ele>
        <time>2010-09-11T09:31:40Z</time>
      </trkpt>
      <trkpt lat="46.21884" lon="6.53613">
        <ele>1154</ele>
        <time>2010-09-11T09:31:44Z</time>
      </trkpt>
      <trkpt lat="46.2188" lon="6.53612">
        <ele>1155</ele>
        <time>2010-09-11T09:31:49Z</time>
      </trkpt>
      <trkpt lat="46.21877" lon="6.53609">
        <ele>1156</ele>
        <time>2010-09-11T09:31:55Z</time>
      </trkpt>
      <trkpt lat="46.21873" lon="6.53608">
        <ele>1156</ele>
        <time>2010-09-11T09:32:01Z</time>
      </trkpt>
      <trkpt lat="46.2187" lon="6.53606">
        <ele>1157</ele>
        <time>2010-09-11T09:32:07Z</time>
      </trkpt>
      <trkpt lat="46.21864" lon="6.53602">
        <ele>1158</ele>
        <time>2010-09-11T09:32:14Z</time>
      </trkpt>
      <trkpt lat="46.21861" lon="6.536">
        <ele>1159</ele>
        <time>2010-09-11T09:32:19Z</time>
      </trkpt>
      <trkpt lat="46.21856" lon="6.53597">
        <ele>1160</ele>
        <time>2010-09-11T09:32:25Z</time>
      </trkpt>
      <trkpt lat="46.21854" lon="6.53595">
        <ele>1161</ele>
        <time>2010-09-11T09:32:30Z</time>
      </trkpt>
      <trkpt lat="46.21851" lon="6.53593">
        <ele>1162</ele>
        <time>2010-09-11T09:32:36Z</time>
      </trkpt>
      <trkpt lat="46.21845" lon="6.53594">
        <ele>1163</ele>
        <time>2010-09-11T09:32:43Z</time>
      </trkpt>
      <trkpt lat="46.21841" lon="6.53594">
        <ele>1164</ele>
        <time>2010-09-11T09:32:48Z</time>
      </trkpt>
      <trkpt lat="46.21838" lon="6.53592">
        <ele>1165</ele>
        <time>2010-09-11T09:32:53Z</time>
      </trkpt>
      <trkpt lat="46.21835" lon="6.53588">
        <ele>1167</ele>
        <time>2010-09-11T09:32:58Z</time>
      </trkpt>
      <trkpt lat="46.21833" lon="6.53588">
        <ele>1172</ele>
        <time>2010-09-11T09:33:05Z</time>
      </trkpt>
      <trkpt lat="46.21831" lon="6.53586">
        <ele>1171</ele>
        <time>2010-09-11T09:33:14Z</time>
      </trkpt>
      <trkpt lat="46.2183" lon="6.53578">
        <ele>1173</ele>
        <time>2010-09-11T09:33:20Z</time>
      </trkpt>
      <trkpt lat="46.21833" lon="6.53572">
        <ele>1176</ele>
        <time>2010-09-11T09:33:24Z</time>
      </trkpt>
      <trkpt lat="46.21833" lon="6.53564">
        <ele>1168</ele>
        <time>2010-09-11T09:33:33Z</time>
      </trkpt>
      <trkpt lat="46.21834" lon="6.5356">
        <ele>1169</ele>
        <time>2010-09-11T09:33:38Z</time>
      </trkpt>
      <trkpt lat="46.21835" lon="6.53557">
        <ele>1169</ele>
        <time>2010-09-11T09:33:45Z</time>
      </trkpt>
      <trkpt lat="46.21837" lon="6.5355">
        <ele>1169</ele>
        <time>2010-09-11T09:33:51Z</time>
      </trkpt>
      <trkpt lat="46.21837" lon="6.53548">
        <ele>1170</ele>
        <time>2010-09-11T09:33:56Z</time>
      </trkpt>
      <trkpt lat="46.21846" lon="6.53546">
        <ele>1169</ele>
        <time>2010-09-11T09:34:09Z</time>
      </trkpt>
      <trkpt lat="46.21848" lon="6.53541">
        <ele>1170</ele>
        <time>2010-09-11T09:34:15Z</time>
      </trkpt>
      <trkpt lat="46.21848" lon="6.53538">
        <ele>1170</ele>
        <time>2010-09-11T09:34:19Z</time>
      </trkpt>
      <trkpt lat="46.21849" lon="6.53538">
        <ele>1170</ele>
        <time>2010-09-11T09:34:24Z</time>
      </trkpt>
      <trkpt lat="46.21849" lon="6.53543">
        <ele>1170</ele>
        <time>2010-09-11T09:34:30Z</time>
      </trkpt>
      <trkpt lat="46.21847" lon="6.53546">
        <ele>1169</ele>
        <time>2010-09-11T09:34:38Z</time>
      </trkpt>
      <trkpt lat="46.21848" lon="6.53535">
        <ele>1171</ele>
        <time>2010-09-11T09:34:45Z</time>
      </trkpt>
      <trkpt lat="46.21849" lon="6.5353">
        <ele>1172</ele>
        <time>2010-09-11T09:34:49Z</time>
      </trkpt>
      <trkpt lat="46.21849" lon="6.53522">
        <ele>1174</ele>
        <time>2010-09-11T09:34:57Z</time>
      </trkpt>
      <trkpt lat="46.21847" lon="6.53517">
        <ele>1175</ele>
        <time>2010-09-11T09:35:02Z</time>
      </trkpt>
      <trkpt lat="46.21847" lon="6.53513">
        <ele>1176</ele>
        <time>2010-09-11T09:35:08Z</time>
      </trkpt>
      <trkpt lat="46.21847" lon="6.53508">
        <ele>1178</ele>
        <time>2010-09-11T09:35:12Z</time>
      </trkpt>
      <trkpt lat="46.21847" lon="6.53501">
        <ele>1179</ele>
        <time>2010-09-11T09:35:17Z</time>
      </trkpt>
      <trkpt lat="46.21847" lon="6.53497">
        <ele>1187</ele>
        <time>2010-09-11T09:35:19Z</time>
      </trkpt>
      <trkpt lat="46.21847" lon="6.53489">
        <ele>1187</ele>
        <time>2010-09-11T09:35:23Z</time>
      </trkpt>
      <trkpt lat="46.2185" lon="6.53479">
        <ele>1187</ele>
        <time>2010-09-11T09:35:29Z</time>
      </trkpt>
      <trkpt lat="46.21853" lon="6.53474">
        <ele>1187</ele>
        <time>2010-09-11T09:35:35Z</time>
      </trkpt>
      <trkpt lat="46.21851" lon="6.53473">
        <ele>1188</ele>
        <time>2010-09-11T09:35:39Z</time>
      </trkpt>
      <trkpt lat="46.21852" lon="6.53474">
        <ele>1187</ele>
        <time>2010-09-11T09:35:44Z</time>
      </trkpt>
      <trkpt lat="46.21848" lon="6.53472">
        <ele>1188</ele>
        <time>2010-09-11T09:35:50Z</time>
      </trkpt>
      <trkpt lat="46.21846" lon="6.53466">
        <ele>1189</ele>
        <time>2010-09-11T09:35:54Z</time>
      </trkpt>
      <trkpt lat="46.21849" lon="6.53453">
        <ele>1190</ele>
        <time>2010-09-11T09:36:01Z</time>
      </trkpt>
      <trkpt lat="46.21853" lon="6.53447">
        <ele>1191</ele>
        <time>2010-09-11T09:36:06Z</time>
      </trkpt>
      <trkpt lat="46.21855" lon="6.53443">
        <ele>1191</ele>
        <time>2010-09-11T09:36:09Z</time>
      </trkpt>
      <trkpt lat="46.21855" lon="6.53439">
        <ele>1192</ele>
        <time>2010-09-11T09:36:13Z</time>
      </trkpt>
      <trkpt lat="46.21861" lon="6.53432">
        <ele>1192</ele>
        <time>2010-09-11T09:36:19Z</time>
      </trkpt>
      <trkpt lat="46.21867" lon="6.53425">
        <ele>1191</ele>
        <time>2010-09-11T09:36:25Z</time>
      </trkpt>
      <trkpt lat="46.21872" lon="6.53422">
        <ele>1190</ele>
        <time>2010-09-11T09:36:28Z</time>
      </trkpt>
      <trkpt lat="46.21875" lon="6.53416">
        <ele>1205</ele>
        <time>2010-09-11T09:36:32Z</time>
      </trkpt>
      <trkpt lat="46.21876" lon="6.53412">
        <ele>1206</ele>
        <time>2010-09-11T09:36:35Z</time>
      </trkpt>
      <trkpt lat="46.21879" lon="6.53404">
        <ele>1206</ele>
        <time>2010-09-11T09:36:41Z</time>
      </trkpt>
      <trkpt lat="46.21882" lon="6.534">
        <ele>1206</ele>
        <time>2010-09-11T09:36:44Z</time>
      </trkpt>
      <trkpt lat="46.21884" lon="6.53395">
        <ele>1206</ele>
        <time>2010-09-11T09:36:47Z</time>
      </trkpt>
      <trkpt lat="46.21884" lon="6.53387">
        <ele>1208</ele>
        <time>2010-09-11T09:36:53Z</time>
      </trkpt>
      <trkpt lat="46.21883" lon="6.5338">
        <ele>1209</ele>
        <time>2010-09-11T09:36:57Z</time>
      </trkpt>
      <trkpt lat="46.21886" lon="6.53373">
        <ele>1210</ele>
        <time>2010-09-11T09:37:05Z</time>
      </trkpt>
      <trkpt lat="46.21887" lon="6.53368">
        <ele>1211</ele>
        <time>2010-09-11T09:37:09Z</time>
      </trkpt>
      <trkpt lat="46.21886" lon="6.53359">
        <ele>1213</ele>
        <time>2010-09-11T09:37:16Z</time>
      </trkpt>
      <trkpt lat="46.21888" lon="6.53353">
        <ele>1213</ele>
        <time>2010-09-11T09:37:22Z</time>
      </trkpt>
      <trkpt lat="46.21887" lon="6.5335">
        <ele>1214</ele>
        <time>2010-09-11T09:37:28Z</time>
      </trkpt>
      <trkpt lat="46.21886" lon="6.53346">
        <ele>1215</ele>
        <time>2010-09-11T09:37:33Z</time>
      </trkpt>
      <trkpt lat="46.21886" lon="6.5334">
        <ele>1215</ele>
        <time>2010-09-11T09:37:38Z</time>
      </trkpt>
      <trkpt lat="46.21888" lon="6.53336">
        <ele>1215</ele>
        <time>2010-09-11T09:37:44Z</time>
      </trkpt>
      <trkpt lat="46.21889" lon="6.53332">
        <ele>1232</ele>
        <time>2010-09-11T09:37:50Z</time>
      </trkpt>
      <trkpt lat="46.21888" lon="6.53333">
        <ele>1233</ele>
        <time>2010-09-11T09:37:53Z</time>
      </trkpt>
      <trkpt lat="46.21884" lon="6.53334">
        <ele>1216</ele>
        <time>2010-09-11T09:38:00Z</time>
      </trkpt>
      <trkpt lat="46.21882" lon="6.53333">
        <ele>1235</ele>
        <time>2010-09-11T09:38:05Z</time>
      </trkpt>
      <trkpt lat="46.21882" lon="6.53332">
        <ele>1235</ele>
        <time>2010-09-11T09:38:12Z</time>
      </trkpt>
      <trkpt lat="46.21878" lon="6.53333">
        <ele>1236</ele>
        <time>2010-09-11T09:38:19Z</time>
      </trkpt>
      <trkpt lat="46.21877" lon="6.53334">
        <ele>1218</ele>
        <time>2010-09-11T09:38:26Z</time>
      </trkpt>
      <trkpt lat="46.21871" lon="6.53332">
        <ele>1238</ele>
        <time>2010-09-11T09:38:32Z</time>
      </trkpt>
      <trkpt lat="46.21868" lon="6.5333">
        <ele>1239</ele>
        <time>2010-09-11T09:38:34Z</time>
      </trkpt>
      <trkpt lat="46.21866" lon="6.53327">
        <ele>1240</ele>
        <time>2010-09-11T09:38:37Z</time>
      </trkpt>
      <trkpt lat="46.21863" lon="6.53322">
        <ele>1241</ele>
        <time>2010-09-11T09:38:44Z</time>
      </trkpt>
      <trkpt lat="46.21861" lon="6.53314">
        <ele>1242</ele>
        <time>2010-09-11T09:38:50Z</time>
      </trkpt>
      <trkpt lat="46.21855" lon="6.5331">
        <ele>1243</ele>
        <time>2010-09-11T09:39:00Z</time>
      </trkpt>
      <trkpt lat="46.21851" lon="6.53308">
        <ele>1243</ele>
        <time>2010-09-11T09:39:06Z</time>
      </trkpt>
      <trkpt lat="46.21848" lon="6.53303">
        <ele>1244</ele>
        <time>2010-09-11T09:39:11Z</time>
      </trkpt>
      <trkpt lat="46.21849" lon="6.53299">
        <ele>1245</ele>
        <time>2010-09-11T09:39:16Z</time>
      </trkpt>
      <trkpt lat="46.21847" lon="6.53295">
        <ele>1246</ele>
        <time>2010-09-11T09:39:21Z</time>
      </trkpt>
      <trkpt lat="46.21848" lon="6.53287">
        <ele>1247</ele>
        <time>2010-09-11T09:39:27Z</time>
      </trkpt>
      <trkpt lat="46.21849" lon="6.5328">
        <ele>1249</ele>
        <time>2010-09-11T09:39:33Z</time>
      </trkpt>
      <trkpt lat="46.21848" lon="6.53273">
        <ele>1251</ele>
        <time>2010-09-11T09:39:39Z</time>
      </trkpt>
      <trkpt lat="46.2185" lon="6.53268">
        <ele>1252</ele>
        <time>2010-09-11T09:39:44Z</time>
      </trkpt>
      <trkpt lat="46.21852" lon="6.53262">
        <ele>1253</ele>
        <time>2010-09-11T09:39:49Z</time>
      </trkpt>
      <trkpt lat="46.21855" lon="6.53256">
        <ele>1254</ele>
        <time>2010-09-11T09:39:55Z</time>
      </trkpt>
      <trkpt lat="46.21855" lon="6.53251">
        <ele>1254</ele>
        <time>2010-09-11T09:40:00Z</time>
      </trkpt>
      <trkpt lat="46.21857" lon="6.53244">
        <ele>1268</ele>
        <time>2010-09-11T09:40:06Z</time>
      </trkpt>
      <trkpt lat="46.21858" lon="6.53237">
        <ele>1269</ele>
        <time>2010-09-11T09:40:12Z</time>
      </trkpt>
      <trkpt lat="46.21858" lon="6.5323">
        <ele>1270</ele>
        <time>2010-09-11T09:40:18Z</time>
      </trkpt>
      <trkpt lat="46.21857" lon="6.53226">
        <ele>1270</ele>
        <time>2010-09-11T09:40:22Z</time>
      </trkpt>
      <trkpt lat="46.21855" lon="6.53225">
        <ele>1270</ele>
        <time>2010-09-11T09:40:28Z</time>
      </trkpt>
      <trkpt lat="46.21853" lon="6.53221">
        <ele>1271</ele>
        <time>2010-09-11T09:40:33Z</time>
      </trkpt>
      <trkpt lat="46.2185" lon="6.53217">
        <ele>1272</ele>
        <time>2010-09-11T09:40:38Z</time>
      </trkpt>
      <trkpt lat="46.2185" lon="6.53213">
        <ele>1273</ele>
        <time>2010-09-11T09:40:43Z</time>
      </trkpt>
      <trkpt lat="46.2185" lon="6.53208">
        <ele>1273</ele>
        <time>2010-09-11T09:40:47Z</time>
      </trkpt>
      <trkpt lat="46.21848" lon="6.53205">
        <ele>1274</ele>
        <time>2010-09-11T09:40:52Z</time>
      </trkpt>
      <trkpt lat="46.21845" lon="6.53203">
        <ele>1275</ele>
        <time>2010-09-11T09:40:56Z</time>
      </trkpt>
      <trkpt lat="46.21841" lon="6.53201">
        <ele>1275</ele>
        <time>2010-09-11T09:41:01Z</time>
      </trkpt>
      <trkpt lat="46.21838" lon="6.53203">
        <ele>1275</ele>
        <time>2010-09-11T09:41:06Z</time>
      </trkpt>
      <trkpt lat="46.21835" lon="6.53204">
        <ele>1275</ele>
        <time>2010-09-11T09:41:11Z</time>
      </trkpt>
      <trkpt lat="46.21835" lon="6.53203">
        <ele>1275</ele>
        <time>2010-09-11T09:41:13Z</time>
      </trkpt>
      <trkpt lat="46.21828" lon="6.53201">
        <ele>1287</ele>
        <time>2010-09-11T09:41:20Z</time>
      </trkpt>
      <trkpt lat="46.21824" lon="6.53199">
        <ele>1288</ele>
        <time>2010-09-11T09:41:25Z</time>
      </trkpt>
      <trkpt lat="46.2182" lon="6.53195">
        <ele>1288</ele>
        <time>2010-09-11T09:41:31Z</time>
      </trkpt>
      <trkpt lat="46.21817" lon="6.53194">
        <ele>1289</ele>
        <time>2010-09-11T09:41:37Z</time>
      </trkpt>
      <trkpt lat="46.21813" lon="6.53195">
        <ele>1289</ele>
        <time>2010-09-11T09:41:44Z</time>
      </trkpt>
      <trkpt lat="46.2181" lon="6.53193">
        <ele>1289</ele>
        <time>2010-09-11T09:41:49Z</time>
      </trkpt>
      <trkpt lat="46.21807" lon="6.53189">
        <ele>1290</ele>
        <time>2010-09-11T09:41:54Z</time>
      </trkpt>
      <trkpt lat="46.21803" lon="6.53184">
        <ele>1291</ele>
        <time>2010-09-11T09:42:00Z</time>
      </trkpt>
      <trkpt lat="46.21802" lon="6.53178">
        <ele>1291</ele>
        <time>2010-09-11T09:42:06Z</time>
      </trkpt>
      <trkpt lat="46.21802" lon="6.53174">
        <ele>1291</ele>
        <time>2010-09-11T09:42:10Z</time>
      </trkpt>
      <trkpt lat="46.218" lon="6.53173">
        <ele>1292</ele>
        <time>2010-09-11T09:42:18Z</time>
      </trkpt>
      <trkpt lat="46.21796" lon="6.5317">
        <ele>1292</ele>
        <time>2010-09-11T09:42:34Z</time>
      </trkpt>
      <trkpt lat="46.21793" lon="6.53169">
        <ele>1293</ele>
        <time>2010-09-11T09:42:39Z</time>
      </trkpt>
      <trkpt lat="46.21791" lon="6.53165">
        <ele>1304</ele>
        <time>2010-09-11T09:42:46Z</time>
      </trkpt>
      <trkpt lat="46.21788" lon="6.53162">
        <ele>1305</ele>
        <time>2010-09-11T09:42:54Z</time>
      </trkpt>
      <trkpt lat="46.21784" lon="6.53159">
        <ele>1305</ele>
        <time>2010-09-11T09:43:01Z</time>
      </trkpt>
      <trkpt lat="46.2178" lon="6.53156">
        <ele>1306</ele>
        <time>2010-09-11T09:43:06Z</time>
      </trkpt>
      <trkpt lat="46.21776" lon="6.53153">
        <ele>1306</ele>
        <time>2010-09-11T09:43:11Z</time>
      </trkpt>
      <trkpt lat="46.21772" lon="6.53146">
        <ele>1307</ele>
        <time>2010-09-11T09:43:18Z</time>
      </trkpt>
      <trkpt lat="46.21769" lon="6.5314">
        <ele>1307</ele>
        <time>2010-09-11T09:43:24Z</time>
      </trkpt>
      <trkpt lat="46.21763" lon="6.53133">
        <ele>1308</ele>
        <time>2010-09-11T09:43:31Z</time>
      </trkpt>
      <trkpt lat="46.21761" lon="6.53132">
        <ele>1308</ele>
        <time>2010-09-11T09:43:33Z</time>
      </trkpt>
      <trkpt lat="46.21756" lon="6.53126">
        <ele>1309</ele>
        <time>2010-09-11T09:43:40Z</time>
      </trkpt>
      <trkpt lat="46.21752" lon="6.53118">
        <ele>1310</ele>
        <time>2010-09-11T09:43:47Z</time>
      </trkpt>
      <trkpt lat="46.21749" lon="6.53109">
        <ele>1321</ele>
        <time>2010-09-11T09:43:54Z</time>
      </trkpt>
      <trkpt lat="46.21743" lon="6.53104">
        <ele>1321</ele>
        <time>2010-09-11T09:43:59Z</time>
      </trkpt>
      <trkpt lat="46.21739" lon="6.53096">
        <ele>1321</ele>
        <time>2010-09-11T09:44:05Z</time>
      </trkpt>
      <trkpt lat="46.21735" lon="6.53088">
        <ele>1321</ele>
        <time>2010-09-11T09:44:11Z</time>
      </trkpt>
      <trkpt lat="46.21733" lon="6.53077">
        <ele>1325</ele>
        <time>2010-09-11T09:44:19Z</time>
      </trkpt>
      <trkpt lat="46.21731" lon="6.53069">
        <ele>1327</ele>
        <time>2010-09-11T09:44:25Z</time>
      </trkpt>
      <trkpt lat="46.2173" lon="6.53061">
        <ele>1328</ele>
        <time>2010-09-11T09:44:30Z</time>
      </trkpt>
      <trkpt lat="46.21729" lon="6.5305">
        <ele>1329</ele>
        <time>2010-09-11T09:44:36Z</time>
      </trkpt>
      <trkpt lat="46.2173" lon="6.53045">
        <ele>1329</ele>
        <time>2010-09-11T09:44:39Z</time>
      </trkpt>
      <trkpt lat="46.21729" lon="6.53039">
        <ele>1330</ele>
        <time>2010-09-11T09:44:43Z</time>
      </trkpt>
      <trkpt lat="46.21728" lon="6.53027">
        <ele>1330</ele>
        <time>2010-09-11T09:44:50Z</time>
      </trkpt>
      <trkpt lat="46.21728" lon="6.53017">
        <ele>1330</ele>
        <time>2010-09-11T09:44:56Z</time>
      </trkpt>
      <trkpt lat="46.21727" lon="6.53003">
        <ele>1330</ele>
        <time>2010-09-11T09:45:03Z</time>
      </trkpt>
      <trkpt lat="46.21727" lon="6.53">
        <ele>1335</ele>
        <time>2010-09-11T09:45:05Z</time>
      </trkpt>
      <trkpt lat="46.21728" lon="6.52991">
        <ele>1336</ele>
        <time>2010-09-11T09:45:10Z</time>
      </trkpt>
      <trkpt lat="46.21728" lon="6.52979">
        <ele>1337</ele>
        <time>2010-09-11T09:45:17Z</time>
      </trkpt>
      <trkpt lat="46.21729" lon="6.52977">
        <ele>1337</ele>
        <time>2010-09-11T09:45:18Z</time>
      </trkpt>
      <trkpt lat="46.21729" lon="6.52965">
        <ele>1339</ele>
        <time>2010-09-11T09:45:25Z</time>
      </trkpt>
      <trkpt lat="46.2173" lon="6.52953">
        <ele>1341</ele>
        <time>2010-09-11T09:45:32Z</time>
      </trkpt>
      <trkpt lat="46.21731" lon="6.5294">
        <ele>1342</ele>
        <time>2010-09-11T09:45:40Z</time>
      </trkpt>
      <trkpt lat="46.21732" lon="6.52929">
        <ele>1343</ele>
        <time>2010-09-11T09:45:47Z</time>
      </trkpt>
      <trkpt lat="46.21733" lon="6.52925">
        <ele>1343</ele>
        <time>2010-09-11T09:45:53Z</time>
      </trkpt>
      <trkpt lat="46.21733" lon="6.52923">
        <ele>1343</ele>
        <time>2010-09-11T09:46:04Z</time>
      </trkpt>
      <trkpt lat="46.21734" lon="6.52916">
        <ele>1350</ele>
        <time>2010-09-11T09:46:11Z</time>
      </trkpt>
      <trkpt lat="46.21734" lon="6.52913">
        <ele>1350</ele>
        <time>2010-09-11T09:46:19Z</time>
      </trkpt>
      <trkpt lat="46.21734" lon="6.52906">
        <ele>1350</ele>
        <time>2010-09-11T09:46:24Z</time>
      </trkpt>
      <trkpt lat="46.21733" lon="6.52899">
        <ele>1351</ele>
        <time>2010-09-11T09:46:29Z</time>
      </trkpt>
      <trkpt lat="46.21733" lon="6.5289">
        <ele>1352</ele>
        <time>2010-09-11T09:46:36Z</time>
      </trkpt>
      <trkpt lat="46.21732" lon="6.52881">
        <ele>1353</ele>
        <time>2010-09-11T09:46:44Z</time>
      </trkpt>
      <trkpt lat="46.21735" lon="6.52876">
        <ele>1354</ele>
        <time>2010-09-11T09:46:48Z</time>
      </trkpt>
      <trkpt lat="46.21736" lon="6.52869">
        <ele>1355</ele>
        <time>2010-09-11T09:46:54Z</time>
      </trkpt>
      <trkpt lat="46.21736" lon="6.52862">
        <ele>1356</ele>
        <time>2010-09-11T09:47:00Z</time>
      </trkpt>
      <trkpt lat="46.21737" lon="6.52858">
        <ele>1356</ele>
        <time>2010-09-11T09:47:04Z</time>
      </trkpt>
      <trkpt lat="46.21737" lon="6.52853">
        <ele>1357</ele>
        <time>2010-09-11T09:47:09Z</time>
      </trkpt>
      <trkpt lat="46.21737" lon="6.52849">
        <ele>1358</ele>
        <time>2010-09-11T09:47:13Z</time>
      </trkpt>
      <trkpt lat="46.21737" lon="6.52846">
        <ele>1358</ele>
        <time>2010-09-11T09:47:17Z</time>
      </trkpt>
      <trkpt lat="46.21738" lon="6.52841">
        <ele>1359</ele>
        <time>2010-09-11T09:47:23Z</time>
      </trkpt>
      <trkpt lat="46.21738" lon="6.52837">
        <ele>1359</ele>
        <time>2010-09-11T09:47:28Z</time>
      </trkpt>
      <trkpt lat="46.21739" lon="6.52833">
        <ele>1360</ele>
        <time>2010-09-11T09:47:32Z</time>
      </trkpt>
      <trkpt lat="46.21739" lon="6.52828">
        <ele>1365</ele>
        <time>2010-09-11T09:47:38Z</time>
      </trkpt>
      <trkpt lat="46.21739" lon="6.52825">
        <ele>1366</ele>
        <time>2010-09-11T09:47:43Z</time>
      </trkpt>
      <trkpt lat="46.21739" lon="6.52821">
        <ele>1366</ele>
        <time>2010-09-11T09:47:47Z</time>
      </trkpt>
      <trkpt lat="46.21738" lon="6.52818">
        <ele>1367</ele>
        <time>2010-09-11T09:47:51Z</time>
      </trkpt>
      <trkpt lat="46.21737" lon="6.52812">
        <ele>1368</ele>
        <time>2010-09-11T09:47:57Z</time>
      </trkpt>
      <trkpt lat="46.21738" lon="6.5281">
        <ele>1368</ele>
        <time>2010-09-11T09:48:00Z</time>
      </trkpt>
      <trkpt lat="46.2174" lon="6.52807">
        <ele>1368</ele>
        <time>2010-09-11T09:48:05Z</time>
      </trkpt>
      <trkpt lat="46.21742" lon="6.52804">
        <ele>1369</ele>
        <time>2010-09-11T09:48:10Z</time>
      </trkpt>
      <trkpt lat="46.21745" lon="6.52802">
        <ele>1369</ele>
        <time>2010-09-11T09:48:14Z</time>
      </trkpt>
      <trkpt lat="46.21748" lon="6.528">
        <ele>1370</ele>
        <time>2010-09-11T09:48:19Z</time>
      </trkpt>
      <trkpt lat="46.21749" lon="6.52798">
        <ele>1370</ele>
        <time>2010-09-11T09:48:23Z</time>
      </trkpt>
      <trkpt lat="46.21749" lon="6.52796">
        <ele>1370</ele>
        <time>2010-09-11T09:48:29Z</time>
      </trkpt>
      <trkpt lat="46.2175" lon="6.52794">
        <ele>1378</ele>
        <time>2010-09-11T09:48:34Z</time>
      </trkpt>
      <trkpt lat="46.21752" lon="6.52792">
        <ele>1379</ele>
        <time>2010-09-11T09:48:38Z</time>
      </trkpt>
      <trkpt lat="46.21753" lon="6.5279">
        <ele>1379</ele>
        <time>2010-09-11T09:48:41Z</time>
      </trkpt>
      <trkpt lat="46.21752" lon="6.52789">
        <ele>1379</ele>
        <time>2010-09-11T09:48:45Z</time>
      </trkpt>
      <trkpt lat="46.2175" lon="6.52788">
        <ele>1372</ele>
        <time>2010-09-11T09:48:48Z</time>
      </trkpt>
      <trkpt lat="46.2174" lon="6.52784">
        <ele>1373</ele>
        <time>2010-09-11T09:48:54Z</time>
      </trkpt>
      <trkpt lat="46.21738" lon="6.52783">
        <ele>1373</ele>
        <time>2010-09-11T09:48:56Z</time>
      </trkpt>
      <trkpt lat="46.21734" lon="6.52783">
        <ele>1372</ele>
        <time>2010-09-11T09:49:09Z</time>
      </trkpt>
      <trkpt lat="46.21735" lon="6.5278">
        <ele>1373</ele>
        <time>2010-09-11T09:49:20Z</time>
      </trkpt>
      <trkpt lat="46.21736" lon="6.52776">
        <ele>1374</ele>
        <time>2010-09-11T09:49:25Z</time>
      </trkpt>
      <trkpt lat="46.21736" lon="6.52772">
        <ele>1375</ele>
        <time>2010-09-11T09:49:29Z</time>
      </trkpt>
      <trkpt lat="46.21735" lon="6.52769">
        <ele>1375</ele>
        <time>2010-09-11T09:49:32Z</time>
      </trkpt>
      <trkpt lat="46.21739" lon="6.52767">
        <ele>1377</ele>
        <time>2010-09-11T09:49:36Z</time>
      </trkpt>
      <trkpt lat="46.21744" lon="6.52764">
        <ele>1379</ele>
        <time>2010-09-11T09:49:41Z</time>
      </trkpt>
      <trkpt lat="46.21747" lon="6.52761">
        <ele>1380</ele>
        <time>2010-09-11T09:49:46Z</time>
      </trkpt>
      <trkpt lat="46.21749" lon="6.52757">
        <ele>1382</ele>
        <time>2010-09-11T09:49:52Z</time>
      </trkpt>
      <trkpt lat="46.21748" lon="6.52753">
        <ele>1384</ele>
        <time>2010-09-11T09:49:57Z</time>
      </trkpt>
      <trkpt lat="46.21748" lon="6.5275">
        <ele>1387</ele>
        <time>2010-09-11T09:50:02Z</time>
      </trkpt>
      <trkpt lat="46.21749" lon="6.52747">
        <ele>1388</ele>
        <time>2010-09-11T09:50:06Z</time>
      </trkpt>
      <trkpt lat="46.21751" lon="6.52745">
        <ele>1390</ele>
        <time>2010-09-11T09:50:11Z</time>
      </trkpt>
      <trkpt lat="46.21754" lon="6.52745">
        <ele>1391</ele>
        <time>2010-09-11T09:50:15Z</time>
      </trkpt>
      <trkpt lat="46.21756" lon="6.52744">
        <ele>1392</ele>
        <time>2010-09-11T09:50:20Z</time>
      </trkpt>
      <trkpt lat="46.21758" lon="6.52743">
        <ele>1392</ele>
        <time>2010-09-11T09:50:25Z</time>
      </trkpt>
      <trkpt lat="46.21759" lon="6.52741">
        <ele>1393</ele>
        <time>2010-09-11T09:50:29Z</time>
      </trkpt>
      <trkpt lat="46.21758" lon="6.52738">
        <ele>1394</ele>
        <time>2010-09-11T09:50:33Z</time>
      </trkpt>
      <trkpt lat="46.21757" lon="6.52733">
        <ele>1395</ele>
        <time>2010-09-11T09:50:38Z</time>
      </trkpt>
      <trkpt lat="46.21759" lon="6.52734">
        <ele>1395</ele>
        <time>2010-09-11T09:50:43Z</time>
      </trkpt>
      <trkpt lat="46.21763" lon="6.52735">
        <ele>1395</ele>
        <time>2010-09-11T09:50:49Z</time>
      </trkpt>
      <trkpt lat="46.21763" lon="6.52735">
        <ele>1396</ele>
        <time>2010-09-11T09:50:54Z</time>
      </trkpt>
      <trkpt lat="46.21766" lon="6.52734">
        <ele>1396</ele>
        <time>2010-09-11T09:50:59Z</time>
      </trkpt>
      <trkpt lat="46.21766" lon="6.52732">
        <ele>1397</ele>
        <time>2010-09-11T09:51:03Z</time>
      </trkpt>
      <trkpt lat="46.21768" lon="6.5273">
        <ele>1397</ele>
        <time>2010-09-11T09:51:08Z</time>
      </trkpt>
      <trkpt lat="46.21771" lon="6.52729">
        <ele>1398</ele>
        <time>2010-09-11T09:51:13Z</time>
      </trkpt>
      <trkpt lat="46.21769" lon="6.52729">
        <ele>1397</ele>
        <time>2010-09-11T09:51:21Z</time>
      </trkpt>
      <trkpt lat="46.21768" lon="6.52729">
        <ele>1398</ele>
        <time>2010-09-11T09:51:26Z</time>
      </trkpt>
      <trkpt lat="46.21769" lon="6.52725">
        <ele>1399</ele>
        <time>2010-09-11T09:51:30Z</time>
      </trkpt>
      <trkpt lat="46.21769" lon="6.5272">
        <ele>1400</ele>
        <time>2010-09-11T09:51:34Z</time>
      </trkpt>
      <trkpt lat="46.21771" lon="6.52718">
        <ele>1400</ele>
        <time>2010-09-11T09:51:39Z</time>
      </trkpt>
      <trkpt lat="46.21772" lon="6.52714">
        <ele>1401</ele>
        <time>2010-09-11T09:51:43Z</time>
      </trkpt>
      <trkpt lat="46.21773" lon="6.52711">
        <ele>1401</ele>
        <time>2010-09-11T09:51:49Z</time>
      </trkpt>
      <trkpt lat="46.21777" lon="6.52714">
        <ele>1401</ele>
        <time>2010-09-11T09:51:55Z</time>
      </trkpt>
      <trkpt lat="46.21779" lon="6.5271">
        <ele>1402</ele>
        <time>2010-09-11T09:52:01Z</time>
      </trkpt>
      <trkpt lat="46.21782" lon="6.5271">
        <ele>1402</ele>
        <time>2010-09-11T09:52:06Z</time>
      </trkpt>
      <trkpt lat="46.21783" lon="6.52708">
        <ele>1402</ele>
        <time>2010-09-11T09:52:10Z</time>
      </trkpt>
      <trkpt lat="46.21783" lon="6.52704">
        <ele>1403</ele>
        <time>2010-09-11T09:52:16Z</time>
      </trkpt>
      <trkpt lat="46.21785" lon="6.527">
        <ele>1403</ele>
        <time>2010-09-11T09:52:22Z</time>
      </trkpt>
      <trkpt lat="46.21786" lon="6.52696">
        <ele>1404</ele>
        <time>2010-09-11T09:52:28Z</time>
      </trkpt>
      <trkpt lat="46.21787" lon="6.52693">
        <ele>1404</ele>
        <time>2010-09-11T09:52:33Z</time>
      </trkpt>
      <trkpt lat="46.21788" lon="6.5269">
        <ele>1405</ele>
        <time>2010-09-11T09:52:38Z</time>
      </trkpt>
      <trkpt lat="46.2179" lon="6.52687">
        <ele>1405</ele>
        <time>2010-09-11T09:52:43Z</time>
      </trkpt>
      <trkpt lat="46.21789" lon="6.52683">
        <ele>1405</ele>
        <time>2010-09-11T09:52:48Z</time>
      </trkpt>
      <trkpt lat="46.2179" lon="6.52679">
        <ele>1406</ele>
        <time>2010-09-11T09:52:56Z</time>
      </trkpt>
      <trkpt lat="46.21792" lon="6.52676">
        <ele>1406</ele>
        <time>2010-09-11T09:53:01Z</time>
      </trkpt>
      <trkpt lat="46.21793" lon="6.52673">
        <ele>1406</ele>
        <time>2010-09-11T09:53:06Z</time>
      </trkpt>
      <trkpt lat="46.21793" lon="6.52672">
        <ele>1406</ele>
        <time>2010-09-11T09:53:12Z</time>
      </trkpt>
      <trkpt lat="46.21794" lon="6.5267">
        <ele>1406</ele>
        <time>2010-09-11T09:53:19Z</time>
      </trkpt>
      <trkpt lat="46.21793" lon="6.52667">
        <ele>1422</ele>
        <time>2010-09-11T09:53:26Z</time>
      </trkpt>
      <trkpt lat="46.21792" lon="6.52663">
        <ele>1423</ele>
        <time>2010-09-11T09:53:33Z</time>
      </trkpt>
      <trkpt lat="46.21792" lon="6.52661">
        <ele>1423</ele>
        <time>2010-09-11T09:53:36Z</time>
      </trkpt>
      <trkpt lat="46.21788" lon="6.52656">
        <ele>1424</ele>
        <time>2010-09-11T09:53:41Z</time>
      </trkpt>
      <trkpt lat="46.21786" lon="6.52652">
        <ele>1424</ele>
        <time>2010-09-11T09:53:48Z</time>
      </trkpt>
      <trkpt lat="46.21784" lon="6.52651">
        <ele>1424</ele>
        <time>2010-09-11T09:53:52Z</time>
      </trkpt>
      <trkpt lat="46.21779" lon="6.52643">
        <ele>1426</ele>
        <time>2010-09-11T09:53:57Z</time>
      </trkpt>
      <trkpt lat="46.21779" lon="6.5264">
        <ele>1426</ele>
        <time>2010-09-11T09:54:01Z</time>
      </trkpt>
      <trkpt lat="46.21777" lon="6.52635">
        <ele>1427</ele>
        <time>2010-09-11T09:54:07Z</time>
      </trkpt>
      <trkpt lat="46.21777" lon="6.52631">
        <ele>1428</ele>
        <time>2010-09-11T09:54:12Z</time>
      </trkpt>
      <trkpt lat="46.21777" lon="6.52628">
        <ele>1429</ele>
        <time>2010-09-11T09:54:18Z</time>
      </trkpt>
      <trkpt lat="46.21775" lon="6.52625">
        <ele>1429</ele>
        <time>2010-09-11T09:54:24Z</time>
      </trkpt>
      <trkpt lat="46.21773" lon="6.52623">
        <ele>1430</ele>
        <time>2010-09-11T09:54:29Z</time>
      </trkpt>
      <trkpt lat="46.21772" lon="6.52618">
        <ele>1432</ele>
        <time>2010-09-11T09:54:34Z</time>
      </trkpt>
      <trkpt lat="46.21773" lon="6.52614">
        <ele>1432</ele>
        <time>2010-09-11T09:54:40Z</time>
      </trkpt>
      <trkpt lat="46.21773" lon="6.52611">
        <ele>1433</ele>
        <time>2010-09-11T09:54:46Z</time>
      </trkpt>
      <trkpt lat="46.21774" lon="6.52608">
        <ele>1434</ele>
        <time>2010-09-11T09:54:50Z</time>
      </trkpt>
      <trkpt lat="46.21774" lon="6.52604">
        <ele>1435</ele>
        <time>2010-09-11T09:54:56Z</time>
      </trkpt>
      <trkpt lat="46.21774" lon="6.52599">
        <ele>1436</ele>
        <time>2010-09-11T09:55:02Z</time>
      </trkpt>
      <trkpt lat="46.21775" lon="6.52596">
        <ele>1436</ele>
        <time>2010-09-11T09:55:10Z</time>
      </trkpt>
      <trkpt lat="46.21774" lon="6.52594">
        <ele>1437</ele>
        <time>2010-09-11T09:55:15Z</time>
      </trkpt>
      <trkpt lat="46.21775" lon="6.52591">
        <ele>1437</ele>
        <time>2010-09-11T09:55:21Z</time>
      </trkpt>
      <trkpt lat="46.21777" lon="6.52588">
        <ele>1437</ele>
        <time>2010-09-11T09:55:26Z</time>
      </trkpt>
      <trkpt lat="46.21778" lon="6.52585">
        <ele>1437</ele>
        <time>2010-09-11T09:55:32Z</time>
      </trkpt>
      <trkpt lat="46.21779" lon="6.52583">
        <ele>1450</ele>
        <time>2010-09-11T09:55:39Z</time>
      </trkpt>
      <trkpt lat="46.21779" lon="6.5258">
        <ele>1450</ele>
        <time>2010-09-11T09:55:44Z</time>
      </trkpt>
      <trkpt lat="46.2178" lon="6.52578">
        <ele>1450</ele>
        <time>2010-09-11T09:55:50Z</time>
      </trkpt>
      <trkpt lat="46.21777" lon="6.52577">
        <ele>1451</ele>
        <time>2010-09-11T09:55:57Z</time>
      </trkpt>
      <trkpt lat="46.21776" lon="6.52574">
        <ele>1451</ele>
        <time>2010-09-11T09:56:03Z</time>
      </trkpt>
      <trkpt lat="46.21775" lon="6.52573">
        <ele>1451</ele>
        <time>2010-09-11T09:56:08Z</time>
      </trkpt>
      <trkpt lat="46.21773" lon="6.52571">
        <ele>1452</ele>
        <time>2010-09-11T09:56:13Z</time>
      </trkpt>
      <trkpt lat="46.2177" lon="6.5257">
        <ele>1452</ele>
        <time>2010-09-11T09:56:17Z</time>
      </trkpt>
      <trkpt lat="46.21768" lon="6.52566">
        <ele>1453</ele>
        <time>2010-09-11T09:56:22Z</time>
      </trkpt>
      <trkpt lat="46.21767" lon="6.52561">
        <ele>1453</ele>
        <time>2010-09-11T09:56:29Z</time>
      </trkpt>
      <trkpt lat="46.21766" lon="6.52558">
        <ele>1453</ele>
        <time>2010-09-11T09:56:34Z</time>
      </trkpt>
      <trkpt lat="46.21767" lon="6.52555">
        <ele>1454</ele>
        <time>2010-09-11T09:56:39Z</time>
      </trkpt>
      <trkpt lat="46.21767" lon="6.52553">
        <ele>1454</ele>
        <time>2010-09-11T09:56:44Z</time>
      </trkpt>
      <trkpt lat="46.21766" lon="6.5255">
        <ele>1454</ele>
        <time>2010-09-11T09:56:49Z</time>
      </trkpt>
      <trkpt lat="46.21766" lon="6.52546">
        <ele>1455</ele>
        <time>2010-09-11T09:56:57Z</time>
      </trkpt>
      <trkpt lat="46.21766" lon="6.52543">
        <ele>1455</ele>
        <time>2010-09-11T09:57:02Z</time>
      </trkpt>
      <trkpt lat="46.21764" lon="6.52539">
        <ele>1456</ele>
        <time>2010-09-11T09:57:09Z</time>
      </trkpt>
      <trkpt lat="46.21761" lon="6.52537">
        <ele>1457</ele>
        <time>2010-09-11T09:57:14Z</time>
      </trkpt>
      <trkpt lat="46.21758" lon="6.52533">
        <ele>1458</ele>
        <time>2010-09-11T09:57:19Z</time>
      </trkpt>
      <trkpt lat="46.21756" lon="6.5253">
        <ele>1459</ele>
        <time>2010-09-11T09:57:23Z</time>
      </trkpt>
      <trkpt lat="46.21755" lon="6.52523">
        <ele>1461</ele>
        <time>2010-09-11T09:57:29Z</time>
      </trkpt>
      <trkpt lat="46.21756" lon="6.52517">
        <ele>1464</ele>
        <time>2010-09-11T09:57:34Z</time>
      </trkpt>
      <trkpt lat="46.21754" lon="6.52513">
        <ele>1467</ele>
        <time>2010-09-11T09:57:39Z</time>
      </trkpt>
      <trkpt lat="46.21752" lon="6.52499">
        <ele>1476</ele>
        <time>2010-09-11T09:57:45Z</time>
      </trkpt>
      <trkpt lat="46.21753" lon="6.52478">
        <ele>1471</ele>
        <time>2010-09-11T09:57:52Z</time>
      </trkpt>
      <trkpt lat="46.21755" lon="6.52457">
        <ele>1470</ele>
        <time>2010-09-11T09:57:57Z</time>
      </trkpt>
      <trkpt lat="46.21756" lon="6.5245">
        <ele>1471</ele>
        <time>2010-09-11T09:57:59Z</time>
      </trkpt>
      <trkpt lat="46.21758" lon="6.52428">
        <ele>1474</ele>
        <time>2010-09-11T09:58:05Z</time>
      </trkpt>
      <trkpt lat="46.21759" lon="6.52411">
        <ele>1478</ele>
        <time>2010-09-11T09:58:10Z</time>
      </trkpt>
      <trkpt lat="46.21758" lon="6.52403">
        <ele>1478</ele>
        <time>2010-09-11T09:58:14Z</time>
      </trkpt>
      <trkpt lat="46.21758" lon="6.52394">
        <ele>1477</ele>
        <time>2010-09-11T09:58:19Z</time>
      </trkpt>
      <trkpt lat="46.21758" lon="6.5239">
        <ele>1477</ele>
        <time>2010-09-11T09:58:22Z</time>
      </trkpt>
      <trkpt lat="46.21757" lon="6.5238">
        <ele>1477</ele>
        <time>2010-09-11T09:58:28Z</time>
      </trkpt>
      <trkpt lat="46.21759" lon="6.52372">
        <ele>1477</ele>
        <time>2010-09-11T09:58:33Z</time>
      </trkpt>
      <trkpt lat="46.2176" lon="6.5237">
        <ele>1477</ele>
        <time>2010-09-11T09:58:34Z</time>
      </trkpt>
      <trkpt lat="46.21765" lon="6.52358">
        <ele>1478</ele>
        <time>2010-09-11T09:58:42Z</time>
      </trkpt>
      <trkpt lat="46.21768" lon="6.52348">
        <ele>1479</ele>
        <time>2010-09-11T09:58:48Z</time>
      </trkpt>
      <trkpt lat="46.21771" lon="6.52338">
        <ele>1479</ele>
        <time>2010-09-11T09:58:54Z</time>
      </trkpt>
      <trkpt lat="46.21772" lon="6.52329">
        <ele>1482</ele>
        <time>2010-09-11T09:58:59Z</time>
      </trkpt>
      <trkpt lat="46.21774" lon="6.52316">
        <ele>1482</ele>
        <time>2010-09-11T09:59:06Z</time>
      </trkpt>
      <trkpt lat="46.21774" lon="6.52314">
        <ele>1482</ele>
        <time>2010-09-11T09:59:07Z</time>
      </trkpt>
      <trkpt lat="46.21777" lon="6.52306">
        <ele>1482</ele>
        <time>2010-09-11T09:59:13Z</time>
      </trkpt>
      <trkpt lat="46.21778" lon="6.52302">
        <ele>1482</ele>
        <time>2010-09-11T09:59:16Z</time>
      </trkpt>
      <trkpt lat="46.2178" lon="6.52287">
        <ele>1482</ele>
        <time>2010-09-11T09:59:22Z</time>
      </trkpt>
      <trkpt lat="46.21782" lon="6.52276">
        <ele>1482</ele>
        <time>2010-09-11T09:59:26Z</time>
      </trkpt>
      <trkpt lat="46.21787" lon="6.52259">
        <ele>1482</ele>
        <time>2010-09-11T09:59:33Z</time>
      </trkpt>
      <trkpt lat="46.21787" lon="6.52257">
        <ele>1482</ele>
        <time>2010-09-11T09:59:34Z</time>
      </trkpt>
      <trkpt lat="46.21791" lon="6.52251">
        <ele>1482</ele>
        <time>2010-09-11T09:59:41Z</time>
      </trkpt>
      <trkpt lat="46.21789" lon="6.52255">
        <ele>1482</ele>
        <time>2010-09-11T09:59:50Z</time>
      </trkpt>
      <trkpt lat="46.21782" lon="6.52271">
        <ele>1482</ele>
        <time>2010-09-11T09:59:56Z</time>
      </trkpt>
      <trkpt lat="46.21775" lon="6.52291">
        <ele>1482</ele>
        <time>2010-09-11T10:00:02Z</time>
      </trkpt>
      <trkpt lat="46.21774" lon="6.52296">
        <ele>1482</ele>
        <time>2010-09-11T10:00:04Z</time>
      </trkpt>
      <trkpt lat="46.21765" lon="6.52306">
        <ele>1483</ele>
        <time>2010-09-11T10:00:10Z</time>
      </trkpt>
      <trkpt lat="46.21761" lon="6.52322">
        <ele>1483</ele>
        <time>2010-09-11T10:00:15Z</time>
      </trkpt>
      <trkpt lat="46.21759" lon="6.52342">
        <ele>1481</ele>
        <time>2010-09-11T10:00:21Z</time>
      </trkpt>
      <trkpt lat="46.21757" lon="6.52364">
        <ele>1478</ele>
        <time>2010-09-11T10:00:27Z</time>
      </trkpt>
      <trkpt lat="46.21755" lon="6.52384">
        <ele>1477</ele>
        <time>2010-09-11T10:00:32Z</time>
      </trkpt>
      <trkpt lat="46.21749" lon="6.52403">
        <ele>1478</ele>
        <time>2010-09-11T10:00:37Z</time>
      </trkpt>
      <trkpt lat="46.21742" lon="6.52419">
        <ele>1478</ele>
        <time>2010-09-11T10:00:42Z</time>
      </trkpt>
      <trkpt lat="46.21738" lon="6.52427">
        <ele>1476</ele>
        <time>2010-09-11T10:00:47Z</time>
      </trkpt>
      <trkpt lat="46.21733" lon="6.52439">
        <ele>1475</ele>
        <time>2010-09-11T10:00:53Z</time>
      </trkpt>
      <trkpt lat="46.2173" lon="6.52447">
        <ele>1474</ele>
        <time>2010-09-11T10:00:59Z</time>
      </trkpt>
      <trkpt lat="46.21729" lon="6.52449">
        <ele>1474</ele>
        <time>2010-09-11T10:01:01Z</time>
      </trkpt>
      <trkpt lat="46.21723" lon="6.52459">
        <ele>1473</ele>
        <time>2010-09-11T10:01:08Z</time>
      </trkpt>
      <trkpt lat="46.21722" lon="6.5246">
        <ele>1473</ele>
        <time>2010-09-11T10:01:09Z</time>
      </trkpt>
      <trkpt lat="46.21719" lon="6.52465">
        <ele>1473</ele>
        <time>2010-09-11T10:01:13Z</time>
      </trkpt>
      <trkpt lat="46.21713" lon="6.52474">
        <ele>1472</ele>
        <time>2010-09-11T10:01:20Z</time>
      </trkpt>
      <trkpt lat="46.2171" lon="6.52477">
        <ele>1472</ele>
        <time>2010-09-11T10:01:28Z</time>
      </trkpt>
      <trkpt lat="46.21702" lon="6.52488">
        <ele>1471</ele>
        <time>2010-09-11T10:01:34Z</time>
      </trkpt>
      <trkpt lat="46.21698" lon="6.52494">
        <ele>1471</ele>
        <time>2010-09-11T10:01:37Z</time>
      </trkpt>
      <trkpt lat="46.21684" lon="6.52507">
        <ele>1464</ele>
        <time>2010-09-11T10:01:43Z</time>
      </trkpt>
      <trkpt lat="46.21671" lon="6.52517">
        <ele>1464</ele>
        <time>2010-09-11T10:01:48Z</time>
      </trkpt>
      <trkpt lat="46.21659" lon="6.52525">
        <ele>1460</ele>
        <time>2010-09-11T10:01:53Z</time>
      </trkpt>
      <trkpt lat="46.21644" lon="6.52533">
        <ele>1459</ele>
        <time>2010-09-11T10:01:59Z</time>
      </trkpt>
      <trkpt lat="46.21637" lon="6.52539">
        <ele>1458</ele>
        <time>2010-09-11T10:02:02Z</time>
      </trkpt>
      <trkpt lat="46.21619" lon="6.52546">
        <ele>1458</ele>
        <time>2010-09-11T10:02:09Z</time>
      </trkpt>
      <trkpt lat="46.21604" lon="6.52548">
        <ele>1458</ele>
        <time>2010-09-11T10:02:15Z</time>
      </trkpt>
      <trkpt lat="46.21589" lon="6.52551">
        <ele>1458</ele>
        <time>2010-09-11T10:02:21Z</time>
      </trkpt>
      <trkpt lat="46.21575" lon="6.52556">
        <ele>1464</ele>
        <time>2010-09-11T10:02:27Z</time>
      </trkpt>
      <trkpt lat="46.21564" lon="6.52561">
        <ele>1464</ele>
        <time>2010-09-11T10:02:32Z</time>
      </trkpt>
      <trkpt lat="46.21555" lon="6.52567">
        <ele>1465</ele>
        <time>2010-09-11T10:02:36Z</time>
      </trkpt>
      <trkpt lat="46.21548" lon="6.52574">
        <ele>1467</ele>
        <time>2010-09-11T10:02:42Z</time>
      </trkpt>
      <trkpt lat="46.21544" lon="6.52576">
        <ele>1468</ele>
        <time>2010-09-11T10:02:46Z</time>
      </trkpt>
      <trkpt lat="46.21538" lon="6.52578">
        <ele>1469</ele>
        <time>2010-09-11T10:02:52Z</time>
      </trkpt>
      <trkpt lat="46.21535" lon="6.52579">
        <ele>1470</ele>
        <time>2010-09-11T10:02:56Z</time>
      </trkpt>
      <trkpt lat="46.21531" lon="6.52583">
        <ele>1471</ele>
        <time>2010-09-11T10:03:01Z</time>
      </trkpt>
      <trkpt lat="46.21527" lon="6.52585">
        <ele>1469</ele>
        <time>2010-09-11T10:03:04Z</time>
      </trkpt>
      <trkpt lat="46.2152" lon="6.52593">
        <ele>1471</ele>
        <time>2010-09-11T10:03:12Z</time>
      </trkpt>
      <trkpt lat="46.21516" lon="6.52599">
        <ele>1471</ele>
        <time>2010-09-11T10:03:18Z</time>
      </trkpt>
      <trkpt lat="46.21511" lon="6.52601">
        <ele>1472</ele>
        <time>2010-09-11T10:03:24Z</time>
      </trkpt>
      <trkpt lat="46.21508" lon="6.52604">
        <ele>1472</ele>
        <time>2010-09-11T10:03:29Z</time>
      </trkpt>
      <trkpt lat="46.21504" lon="6.52605">
        <ele>1472</ele>
        <time>2010-09-11T10:03:35Z</time>
      </trkpt>
      <trkpt lat="46.21502" lon="6.52608">
        <ele>1471</ele>
        <time>2010-09-11T10:03:40Z</time>
      </trkpt>
      <trkpt lat="46.21499" lon="6.52611">
        <ele>1489</ele>
        <time>2010-09-11T10:03:45Z</time>
      </trkpt>
      <trkpt lat="46.21498" lon="6.52614">
        <ele>1489</ele>
        <time>2010-09-11T10:03:49Z</time>
      </trkpt>
      <trkpt lat="46.21496" lon="6.52615">
        <ele>1489</ele>
        <time>2010-09-11T10:03:54Z</time>
      </trkpt>
      <trkpt lat="46.21492" lon="6.52614">
        <ele>1489</ele>
        <time>2010-09-11T10:03:59Z</time>
      </trkpt>
      <trkpt lat="46.21488" lon="6.52614">
        <ele>1490</ele>
        <time>2010-09-11T10:04:05Z</time>
      </trkpt>
      <trkpt lat="46.21485" lon="6.52614">
        <ele>1490</ele>
        <time>2010-09-11T10:04:11Z</time>
      </trkpt>
      <trkpt lat="46.21483" lon="6.52613">
        <ele>1490</ele>
        <time>2010-09-11T10:04:16Z</time>
      </trkpt>
      <trkpt lat="46.21482" lon="6.52617">
        <ele>1490</ele>
        <time>2010-09-11T10:04:22Z</time>
      </trkpt>
      <trkpt lat="46.2148" lon="6.52616">
        <ele>1491</ele>
        <time>2010-09-11T10:04:28Z</time>
      </trkpt>
      <trkpt lat="46.21476" lon="6.52615">
        <ele>1491</ele>
        <time>2010-09-11T10:04:34Z</time>
      </trkpt>
      <trkpt lat="46.21474" lon="6.52616">
        <ele>1491</ele>
        <time>2010-09-11T10:04:40Z</time>
      </trkpt>
      <trkpt lat="46.21474" lon="6.52621">
        <ele>1492</ele>
        <time>2010-09-11T10:04:45Z</time>
      </trkpt>
      <trkpt lat="46.21471" lon="6.52626">
        <ele>1492</ele>
        <time>2010-09-11T10:04:50Z</time>
      </trkpt>
      <trkpt lat="46.21469" lon="6.52634">
        <ele>1492</ele>
        <time>2010-09-11T10:04:55Z</time>
      </trkpt>
      <trkpt lat="46.21466" lon="6.52643">
        <ele>1493</ele>
        <time>2010-09-11T10:05:01Z</time>
      </trkpt>
      <trkpt lat="46.21463" lon="6.5265">
        <ele>1494</ele>
        <time>2010-09-11T10:05:06Z</time>
      </trkpt>
      <trkpt lat="46.21463" lon="6.52652">
        <ele>1494</ele>
        <time>2010-09-11T10:05:07Z</time>
      </trkpt>
      <trkpt lat="46.21459" lon="6.52659">
        <ele>1495</ele>
        <time>2010-09-11T10:05:14Z</time>
      </trkpt>
      <trkpt lat="46.21458" lon="6.52663">
        <ele>1495</ele>
        <time>2010-09-11T10:05:19Z</time>
      </trkpt>
      <trkpt lat="46.21457" lon="6.52667">
        <ele>1495</ele>
        <time>2010-09-11T10:05:24Z</time>
      </trkpt>
      <trkpt lat="46.21455" lon="6.52669">
        <ele>1496</ele>
        <time>2010-09-11T10:05:28Z</time>
      </trkpt>
      <trkpt lat="46.21451" lon="6.52669">
        <ele>1498</ele>
        <time>2010-09-11T10:05:33Z</time>
      </trkpt>
      <trkpt lat="46.21448" lon="6.52673">
        <ele>1499</ele>
        <time>2010-09-11T10:05:39Z</time>
      </trkpt>
      <trkpt lat="46.21444" lon="6.52674">
        <ele>1501</ele>
        <time>2010-09-11T10:05:44Z</time>
      </trkpt>
      <trkpt lat="46.21441" lon="6.52675">
        <ele>1502</ele>
        <time>2010-09-11T10:05:48Z</time>
      </trkpt>
      <trkpt lat="46.21437" lon="6.52676">
        <ele>1504</ele>
        <time>2010-09-11T10:05:53Z</time>
      </trkpt>
      <trkpt lat="46.21433" lon="6.52677">
        <ele>1505</ele>
        <time>2010-09-11T10:06:00Z</time>
      </trkpt>
      <trkpt lat="46.21431" lon="6.52679">
        <ele>1506</ele>
        <time>2010-09-11T10:06:06Z</time>
      </trkpt>
      <trkpt lat="46.21432" lon="6.52684">
        <ele>1504</ele>
        <time>2010-09-11T10:06:11Z</time>
      </trkpt>
      <trkpt lat="46.21431" lon="6.52689">
        <ele>1503</ele>
        <time>2010-09-11T10:06:16Z</time>
      </trkpt>
      <trkpt lat="46.21431" lon="6.52692">
        <ele>1503</ele>
        <time>2010-09-11T10:06:20Z</time>
      </trkpt>
      <trkpt lat="46.2143" lon="6.52695">
        <ele>1502</ele>
        <time>2010-09-11T10:06:24Z</time>
      </trkpt>
      <trkpt lat="46.21427" lon="6.52698">
        <ele>1503</ele>
        <time>2010-09-11T10:06:30Z</time>
      </trkpt>
      <trkpt lat="46.21426" lon="6.52701">
        <ele>1502</ele>
        <time>2010-09-11T10:06:35Z</time>
      </trkpt>
      <trkpt lat="46.21423" lon="6.52702">
        <ele>1503</ele>
        <time>2010-09-11T10:06:39Z</time>
      </trkpt>
      <trkpt lat="46.21419" lon="6.52705">
        <ele>1503</ele>
        <time>2010-09-11T10:06:45Z</time>
      </trkpt>
      <trkpt lat="46.21417" lon="6.52708">
        <ele>1503</ele>
        <time>2010-09-11T10:06:51Z</time>
      </trkpt>
      <trkpt lat="46.21415" lon="6.52709">
        <ele>1518</ele>
        <time>2010-09-11T10:06:58Z</time>
      </trkpt>
      <trkpt lat="46.21414" lon="6.52716">
        <ele>1518</ele>
        <time>2010-09-11T10:07:03Z</time>
      </trkpt>
      <trkpt lat="46.21415" lon="6.52723">
        <ele>1518</ele>
        <time>2010-09-11T10:07:08Z</time>
      </trkpt>
      <trkpt lat="46.21414" lon="6.52727">
        <ele>1518</ele>
        <time>2010-09-11T10:07:12Z</time>
      </trkpt>
      <trkpt lat="46.21411" lon="6.52731">
        <ele>1519</ele>
        <time>2010-09-11T10:07:16Z</time>
      </trkpt>
      <trkpt lat="46.21406" lon="6.52735">
        <ele>1519</ele>
        <time>2010-09-11T10:07:21Z</time>
      </trkpt>
      <trkpt lat="46.21405" lon="6.52738">
        <ele>1519</ele>
        <time>2010-09-11T10:07:23Z</time>
      </trkpt>
      <trkpt lat="46.21402" lon="6.52747">
        <ele>1519</ele>
        <time>2010-09-11T10:07:30Z</time>
      </trkpt>
      <trkpt lat="46.21401" lon="6.52754">
        <ele>1517</ele>
        <time>2010-09-11T10:07:35Z</time>
      </trkpt>
      <trkpt lat="46.21401" lon="6.52757">
        <ele>1517</ele>
        <time>2010-09-11T10:07:37Z</time>
      </trkpt>
      <trkpt lat="46.214" lon="6.5276">
        <ele>1517</ele>
        <time>2010-09-11T10:07:42Z</time>
      </trkpt>
      <trkpt lat="46.21398" lon="6.52763">
        <ele>1516</ele>
        <time>2010-09-11T10:07:51Z</time>
      </trkpt>
      <trkpt lat="46.21394" lon="6.52767">
        <ele>1516</ele>
        <time>2010-09-11T10:07:56Z</time>
      </trkpt>
      <trkpt lat="46.21392" lon="6.5277">
        <ele>1516</ele>
        <time>2010-09-11T10:08:01Z</time>
      </trkpt>
      <trkpt lat="46.21391" lon="6.5277">
        <ele>1516</ele>
        <time>2010-09-11T10:08:09Z</time>
      </trkpt>
      <trkpt lat="46.2138" lon="6.52781">
        <ele>1515</ele>
        <time>2010-09-11T10:08:15Z</time>
      </trkpt>
      <trkpt lat="46.21375" lon="6.52792">
        <ele>1514</ele>
        <time>2010-09-11T10:08:19Z</time>
      </trkpt>
      <trkpt lat="46.21374" lon="6.52793">
        <ele>1514</ele>
        <time>2010-09-11T10:08:22Z</time>
      </trkpt>
      <trkpt lat="46.21367" lon="6.52809">
        <ele>1514</ele>
        <time>2010-09-11T10:08:27Z</time>
      </trkpt>
      <trkpt lat="46.21358" lon="6.52823">
        <ele>1515</ele>
        <time>2010-09-11T10:08:32Z</time>
      </trkpt>
      <trkpt lat="46.21351" lon="6.52835">
        <ele>1505</ele>
        <time>2010-09-11T10:08:38Z</time>
      </trkpt>
      <trkpt lat="46.21346" lon="6.52844">
        <ele>1506</ele>
        <time>2010-09-11T10:08:42Z</time>
      </trkpt>
      <trkpt lat="46.21342" lon="6.5285">
        <ele>1504</ele>
        <time>2010-09-11T10:08:44Z</time>
      </trkpt>
      <trkpt lat="46.21332" lon="6.52866">
        <ele>1503</ele>
        <time>2010-09-11T10:08:50Z</time>
      </trkpt>
      <trkpt lat="46.21329" lon="6.52871">
        <ele>1502</ele>
        <time>2010-09-11T10:08:52Z</time>
      </trkpt>
      <trkpt lat="46.21323" lon="6.52889">
        <ele>1497</ele>
        <time>2010-09-11T10:08:58Z</time>
      </trkpt>
      <trkpt lat="46.21316" lon="6.52895">
        <ele>1497</ele>
        <time>2010-09-11T10:09:01Z</time>
      </trkpt>
      <trkpt lat="46.21303" lon="6.52908">
        <ele>1495</ele>
        <time>2010-09-11T10:09:08Z</time>
      </trkpt>
      <trkpt lat="46.2129" lon="6.52914">
        <ele>1495</ele>
        <time>2010-09-11T10:09:13Z</time>
      </trkpt>
      <trkpt lat="46.21276" lon="6.52921">
        <ele>1480</ele>
        <time>2010-09-11T10:09:19Z</time>
      </trkpt>
      <trkpt lat="46.21265" lon="6.52928">
        <ele>1481</ele>
        <time>2010-09-11T10:09:24Z</time>
      </trkpt>
      <trkpt lat="46.21257" lon="6.52937">
        <ele>1479</ele>
        <time>2010-09-11T10:09:27Z</time>
      </trkpt>
      <trkpt lat="46.21253" lon="6.52943">
        <ele>1477</ele>
        <time>2010-09-11T10:09:29Z</time>
      </trkpt>
      <trkpt lat="46.21249" lon="6.52948">
        <ele>1472</ele>
        <time>2010-09-11T10:09:34Z</time>
      </trkpt>
      <trkpt lat="46.21246" lon="6.52951">
        <ele>1471</ele>
        <time>2010-09-11T10:09:38Z</time>
      </trkpt>
      <trkpt lat="46.21242" lon="6.52957">
        <ele>1469</ele>
        <time>2010-09-11T10:09:42Z</time>
      </trkpt>
      <trkpt lat="46.21236" lon="6.52962">
        <ele>1467</ele>
        <time>2010-09-11T10:09:46Z</time>
      </trkpt>
      <trkpt lat="46.21226" lon="6.52969">
        <ele>1465</ele>
        <time>2010-09-11T10:09:52Z</time>
      </trkpt>
      <trkpt lat="46.21224" lon="6.52972">
        <ele>1465</ele>
        <time>2010-09-11T10:09:55Z</time>
      </trkpt>
      <trkpt lat="46.21224" lon="6.52979">
        <ele>1463</ele>
        <time>2010-09-11T10:10:00Z</time>
      </trkpt>
      <trkpt lat="46.21227" lon="6.52985">
        <ele>1462</ele>
        <time>2010-09-11T10:10:05Z</time>
      </trkpt>
      <trkpt lat="46.21225" lon="6.52989">
        <ele>1462</ele>
        <time>2010-09-11T10:10:08Z</time>
      </trkpt>
      <trkpt lat="46.21225" lon="6.5299">
        <ele>1462</ele>
        <time>2010-09-11T10:10:09Z</time>
      </trkpt>
      <trkpt lat="46.21222" lon="6.52993">
        <ele>1462</ele>
        <time>2010-09-11T10:10:15Z</time>
      </trkpt>
      <trkpt lat="46.21221" lon="6.52993">
        <ele>1462</ele>
        <time>2010-09-11T10:10:20Z</time>
      </trkpt>
      <trkpt lat="46.2122" lon="6.52997">
        <ele>1461</ele>
        <time>2010-09-11T10:10:31Z</time>
      </trkpt>
      <trkpt lat="46.21218" lon="6.53003">
        <ele>1445</ele>
        <time>2010-09-11T10:10:35Z</time>
      </trkpt>
      <trkpt lat="46.2122" lon="6.53009">
        <ele>1445</ele>
        <time>2010-09-11T10:10:39Z</time>
      </trkpt>
      <trkpt lat="46.21219" lon="6.53014">
        <ele>1444</ele>
        <time>2010-09-11T10:10:43Z</time>
      </trkpt>
      <trkpt lat="46.21215" lon="6.53024">
        <ele>1442</ele>
        <time>2010-09-11T10:10:48Z</time>
      </trkpt>
      <trkpt lat="46.21212" lon="6.53029">
        <ele>1441</ele>
        <time>2010-09-11T10:10:52Z</time>
      </trkpt>
      <trkpt lat="46.21214" lon="6.53032">
        <ele>1441</ele>
        <time>2010-09-11T10:10:55Z</time>
      </trkpt>
      <trkpt lat="46.21215" lon="6.5304">
        <ele>1440</ele>
        <time>2010-09-11T10:11:00Z</time>
      </trkpt>
      <trkpt lat="46.21216" lon="6.53049">
        <ele>1438</ele>
        <time>2010-09-11T10:11:03Z</time>
      </trkpt>
      <trkpt lat="46.21213" lon="6.53057">
        <ele>1437</ele>
        <time>2010-09-11T10:11:06Z</time>
      </trkpt>
      <trkpt lat="46.2121" lon="6.53064">
        <ele>1436</ele>
        <time>2010-09-11T10:11:08Z</time>
      </trkpt>
      <trkpt lat="46.21205" lon="6.5308">
        <ele>1434</ele>
        <time>2010-09-11T10:11:13Z</time>
      </trkpt>
      <trkpt lat="46.21199" lon="6.531">
        <ele>1422</ele>
        <time>2010-09-11T10:11:19Z</time>
      </trkpt>
      <trkpt lat="46.21195" lon="6.53117">
        <ele>1422</ele>
        <time>2010-09-11T10:11:23Z</time>
      </trkpt>
      <trkpt lat="46.21189" lon="6.53129">
        <ele>1421</ele>
        <time>2010-09-11T10:11:27Z</time>
      </trkpt>
      <trkpt lat="46.21178" lon="6.53148">
        <ele>1421</ele>
        <time>2010-09-11T10:11:34Z</time>
      </trkpt>
      <trkpt lat="46.21174" lon="6.53157">
        <ele>1421</ele>
        <time>2010-09-11T10:11:40Z</time>
      </trkpt>
      <trkpt lat="46.21169" lon="6.53166">
        <ele>1421</ele>
        <time>2010-09-11T10:11:47Z</time>
      </trkpt>
      <trkpt lat="46.21168" lon="6.53171">
        <ele>1418</ele>
        <time>2010-09-11T10:11:54Z</time>
      </trkpt>
      <trkpt lat="46.21167" lon="6.53174">
        <ele>1419</ele>
        <time>2010-09-11T10:12:05Z</time>
      </trkpt>
      <trkpt lat="46.21158" lon="6.53184">
        <ele>1417</ele>
        <time>2010-09-11T10:12:13Z</time>
      </trkpt>
      <trkpt lat="46.21152" lon="6.5319">
        <ele>1416</ele>
        <time>2010-09-11T10:12:19Z</time>
      </trkpt>
      <trkpt lat="46.21145" lon="6.53197">
        <ele>1416</ele>
        <time>2010-09-11T10:12:25Z</time>
      </trkpt>
      <trkpt lat="46.21136" lon="6.53207">
        <ele>1415</ele>
        <time>2010-09-11T10:12:32Z</time>
      </trkpt>
      <trkpt lat="46.21125" lon="6.53218">
        <ele>1414</ele>
        <time>2010-09-11T10:12:37Z</time>
      </trkpt>
      <trkpt lat="46.21114" lon="6.53224">
        <ele>1414</ele>
        <time>2010-09-11T10:12:42Z</time>
      </trkpt>
      <trkpt lat="46.21102" lon="6.53231">
        <ele>1414</ele>
        <time>2010-09-11T10:12:47Z</time>
      </trkpt>
      <trkpt lat="46.21091" lon="6.53241">
        <ele>1414</ele>
        <time>2010-09-11T10:12:52Z</time>
      </trkpt>
      <trkpt lat="46.21077" lon="6.53256">
        <ele>1413</ele>
        <time>2010-09-11T10:12:58Z</time>
      </trkpt>
      <trkpt lat="46.21067" lon="6.53266">
        <ele>1411</ele>
        <time>2010-09-11T10:13:03Z</time>
      </trkpt>
      <trkpt lat="46.21051" lon="6.53275">
        <ele>1410</ele>
        <time>2010-09-11T10:13:10Z</time>
      </trkpt>
      <trkpt lat="46.2104" lon="6.53279">
        <ele>1409</ele>
        <time>2010-09-11T10:13:15Z</time>
      </trkpt>
      <trkpt lat="46.21034" lon="6.5329">
        <ele>1410</ele>
        <time>2010-09-11T10:13:21Z</time>
      </trkpt>
      <trkpt lat="46.21031" lon="6.53301">
        <ele>1410</ele>
        <time>2010-09-11T10:13:27Z</time>
      </trkpt>
      <trkpt lat="46.21029" lon="6.53306">
        <ele>1411</ele>
        <time>2010-09-11T10:13:32Z</time>
      </trkpt>
      <trkpt lat="46.21027" lon="6.5331">
        <ele>1411</ele>
        <time>2010-09-11T10:13:37Z</time>
      </trkpt>
      <trkpt lat="46.21028" lon="6.53312">
        <ele>1411</ele>
        <time>2010-09-11T10:13:45Z</time>
      </trkpt>
      <trkpt lat="46.21027" lon="6.53316">
        <ele>1411</ele>
        <time>2010-09-11T10:13:52Z</time>
      </trkpt>
      <trkpt lat="46.21024" lon="6.53321">
        <ele>1412</ele>
        <time>2010-09-11T10:13:57Z</time>
      </trkpt>
      <trkpt lat="46.21022" lon="6.53325">
        <ele>1412</ele>
        <time>2010-09-11T10:14:04Z</time>
      </trkpt>
      <trkpt lat="46.2102" lon="6.53328">
        <ele>1412</ele>
        <time>2010-09-11T10:14:09Z</time>
      </trkpt>
      <trkpt lat="46.21018" lon="6.53331">
        <ele>1413</ele>
        <time>2010-09-11T10:14:15Z</time>
      </trkpt>
      <trkpt lat="46.21016" lon="6.53334">
        <ele>1418</ele>
        <time>2010-09-11T10:14:20Z</time>
      </trkpt>
      <trkpt lat="46.21015" lon="6.53338">
        <ele>1418</ele>
        <time>2010-09-11T10:14:26Z</time>
      </trkpt>
      <trkpt lat="46.21016" lon="6.53341">
        <ele>1418</ele>
        <time>2010-09-11T10:14:31Z</time>
      </trkpt>
      <trkpt lat="46.21014" lon="6.53344">
        <ele>1419</ele>
        <time>2010-09-11T10:14:36Z</time>
      </trkpt>
      <trkpt lat="46.21013" lon="6.53347">
        <ele>1419</ele>
        <time>2010-09-11T10:14:42Z</time>
      </trkpt>
      <trkpt lat="46.21012" lon="6.53351">
        <ele>1419</ele>
        <time>2010-09-11T10:14:46Z</time>
      </trkpt>
      <trkpt lat="46.21014" lon="6.53356">
        <ele>1420</ele>
        <time>2010-09-11T10:14:52Z</time>
      </trkpt>
      <trkpt lat="46.21016" lon="6.53364">
        <ele>1421</ele>
        <time>2010-09-11T10:14:58Z</time>
      </trkpt>
      <trkpt lat="46.21017" lon="6.5337">
        <ele>1421</ele>
        <time>2010-09-11T10:15:02Z</time>
      </trkpt>
      <trkpt lat="46.2102" lon="6.53379">
        <ele>1422</ele>
        <time>2010-09-11T10:15:08Z</time>
      </trkpt>
      <trkpt lat="46.21022" lon="6.53385">
        <ele>1423</ele>
        <time>2010-09-11T10:15:13Z</time>
      </trkpt>
      <trkpt lat="46.21023" lon="6.53386">
        <ele>1423</ele>
        <time>2010-09-11T10:15:14Z</time>
      </trkpt>
      <trkpt lat="46.21026" lon="6.53392">
        <ele>1424</ele>
        <time>2010-09-11T10:15:19Z</time>
      </trkpt>
      <trkpt lat="46.21031" lon="6.53399">
        <ele>1424</ele>
        <time>2010-09-11T10:15:25Z</time>
      </trkpt>
      <trkpt lat="46.21037" lon="6.53409">
        <ele>1424</ele>
        <time>2010-09-11T10:15:33Z</time>
      </trkpt>
      <trkpt lat="46.21038" lon="6.53411">
        <ele>1424</ele>
        <time>2010-09-11T10:15:35Z</time>
      </trkpt>
      <trkpt lat="46.21037" lon="6.53413">
        <ele>1424</ele>
        <time>2010-09-11T10:15:44Z</time>
      </trkpt>
      <trkpt lat="46.21035" lon="6.53415">
        <ele>1424</ele>
        <time>2010-09-11T10:15:46Z</time>
      </trkpt>
      <trkpt lat="46.21021" lon="6.53421">
        <ele>1429</ele>
        <time>2010-09-11T10:15:53Z</time>
      </trkpt>
      <trkpt lat="46.21005" lon="6.53428">
        <ele>1430</ele>
        <time>2010-09-11T10:15:59Z</time>
      </trkpt>
      <trkpt lat="46.21001" lon="6.5343">
        <ele>1430</ele>
        <time>2010-09-11T10:16:01Z</time>
      </trkpt>
      <trkpt lat="46.20985" lon="6.53435">
        <ele>1430</ele>
        <time>2010-09-11T10:16:06Z</time>
      </trkpt>
      <trkpt lat="46.20975" lon="6.5344">
        <ele>1429</ele>
        <time>2010-09-11T10:16:10Z</time>
      </trkpt>
      <trkpt lat="46.2096" lon="6.53446">
        <ele>1428</ele>
        <time>2010-09-11T10:16:16Z</time>
      </trkpt>
      <trkpt lat="46.20947" lon="6.53449">
        <ele>1428</ele>
        <time>2010-09-11T10:16:21Z</time>
      </trkpt>
      <trkpt lat="46.2093" lon="6.53454">
        <ele>1427</ele>
        <time>2010-09-11T10:16:27Z</time>
      </trkpt>
      <trkpt lat="46.20919" lon="6.53459">
        <ele>1427</ele>
        <time>2010-09-11T10:16:32Z</time>
      </trkpt>
      <trkpt lat="46.20902" lon="6.53467">
        <ele>1426</ele>
        <time>2010-09-11T10:16:39Z</time>
      </trkpt>
      <trkpt lat="46.20892" lon="6.53475">
        <ele>1426</ele>
        <time>2010-09-11T10:16:44Z</time>
      </trkpt>
      <trkpt lat="46.20878" lon="6.53482">
        <ele>1427</ele>
        <time>2010-09-11T10:16:50Z</time>
      </trkpt>
      <trkpt lat="46.20876" lon="6.53484">
        <ele>1427</ele>
        <time>2010-09-11T10:16:51Z</time>
      </trkpt>
      <trkpt lat="46.20861" lon="6.53489">
        <ele>1427</ele>
        <time>2010-09-11T10:16:58Z</time>
      </trkpt>
      <trkpt lat="46.20848" lon="6.5349">
        <ele>1428</ele>
        <time>2010-09-11T10:17:04Z</time>
      </trkpt>
      <trkpt lat="46.20834" lon="6.5349">
        <ele>1428</ele>
        <time>2010-09-11T10:17:10Z</time>
      </trkpt>
      <trkpt lat="46.20825" lon="6.53489">
        <ele>1430</ele>
        <time>2010-09-11T10:17:14Z</time>
      </trkpt>
      <trkpt lat="46.20811" lon="6.53489">
        <ele>1431</ele>
        <time>2010-09-11T10:17:20Z</time>
      </trkpt>
      <trkpt lat="46.20809" lon="6.53489">
        <ele>1432</ele>
        <time>2010-09-11T10:17:21Z</time>
      </trkpt>
      <trkpt lat="46.20792" lon="6.53492">
        <ele>1433</ele>
        <time>2010-09-11T10:17:28Z</time>
      </trkpt>
      <trkpt lat="46.2078" lon="6.53493">
        <ele>1434</ele>
        <time>2010-09-11T10:17:33Z</time>
      </trkpt>
      <trkpt lat="46.20766" lon="6.53493">
        <ele>1436</ele>
        <time>2010-09-11T10:17:39Z</time>
      </trkpt>
      <trkpt lat="46.20752" lon="6.53493">
        <ele>1437</ele>
        <time>2010-09-11T10:17:45Z</time>
      </trkpt>
      <trkpt lat="46.20741" lon="6.53491">
        <ele>1439</ele>
        <time>2010-09-11T10:17:50Z</time>
      </trkpt>
      <trkpt lat="46.20727" lon="6.53492">
        <ele>1439</ele>
        <time>2010-09-11T10:17:57Z</time>
      </trkpt>
      <trkpt lat="46.20721" lon="6.53497">
        <ele>1439</ele>
        <time>2010-09-11T10:18:02Z</time>
      </trkpt>
      <trkpt lat="46.20715" lon="6.53505">
        <ele>1441</ele>
        <time>2010-09-11T10:18:08Z</time>
      </trkpt>
      <trkpt lat="46.20708" lon="6.53511">
        <ele>1441</ele>
        <time>2010-09-11T10:18:14Z</time>
      </trkpt>
      <trkpt lat="46.207" lon="6.53519">
        <ele>1441</ele>
        <time>2010-09-11T10:18:22Z</time>
      </trkpt>
      <trkpt lat="46.20694" lon="6.53524">
        <ele>1441</ele>
        <time>2010-09-11T10:18:28Z</time>
      </trkpt>
      <trkpt lat="46.20687" lon="6.5353">
        <ele>1441</ele>
        <time>2010-09-11T10:18:34Z</time>
      </trkpt>
      <trkpt lat="46.20681" lon="6.53536">
        <ele>1442</ele>
        <time>2010-09-11T10:18:40Z</time>
      </trkpt>
      <trkpt lat="46.20675" lon="6.5354">
        <ele>1442</ele>
        <time>2010-09-11T10:18:46Z</time>
      </trkpt>
      <trkpt lat="46.20667" lon="6.53545">
        <ele>1442</ele>
        <time>2010-09-11T10:18:52Z</time>
      </trkpt>
      <trkpt lat="46.20666" lon="6.53547">
        <ele>1443</ele>
        <time>2010-09-11T10:18:54Z</time>
      </trkpt>
      <trkpt lat="46.20662" lon="6.53549">
        <ele>1443</ele>
        <time>2010-09-11T10:19:01Z</time>
      </trkpt>
      <trkpt lat="46.20662" lon="6.53549">
        <ele>1443</ele>
        <time>2010-09-11T10:19:12Z</time>
      </trkpt>
      <trkpt lat="46.20662" lon="6.53549">
        <ele>1443</ele>
        <time>2010-09-11T10:19:19Z</time>
      </trkpt>
      <trkpt lat="46.20661" lon="6.5355">
        <ele>1443</ele>
        <time>2010-09-11T10:19:33Z</time>
      </trkpt>
      <trkpt lat="46.20655" lon="6.53553">
        <ele>1444</ele>
        <time>2010-09-11T10:19:40Z</time>
      </trkpt>
      <trkpt lat="46.20651" lon="6.53558">
        <ele>1444</ele>
        <time>2010-09-11T10:19:46Z</time>
      </trkpt>
      <trkpt lat="46.20647" lon="6.53564">
        <ele>1444</ele>
        <time>2010-09-11T10:19:53Z</time>
      </trkpt>
      <trkpt lat="46.20646" lon="6.53568">
        <ele>1444</ele>
        <time>2010-09-11T10:19:58Z</time>
      </trkpt>
      <trkpt lat="46.20646" lon="6.53578">
        <ele>1444</ele>
        <time>2010-09-11T10:20:05Z</time>
      </trkpt>
      <trkpt lat="46.20644" lon="6.53593">
        <ele>1445</ele>
        <time>2010-09-11T10:20:13Z</time>
      </trkpt>
      <trkpt lat="46.20638" lon="6.53612">
        <ele>1446</ele>
        <time>2010-09-11T10:20:20Z</time>
      </trkpt>
      <trkpt lat="46.20632" lon="6.53626">
        <ele>1446</ele>
        <time>2010-09-11T10:20:24Z</time>
      </trkpt>
      <trkpt lat="46.20626" lon="6.53639">
        <ele>1446</ele>
        <time>2010-09-11T10:20:28Z</time>
      </trkpt>
      <trkpt lat="46.20621" lon="6.53651">
        <ele>1446</ele>
        <time>2010-09-11T10:20:32Z</time>
      </trkpt>
      <trkpt lat="46.20612" lon="6.53663">
        <ele>1447</ele>
        <time>2010-09-11T10:20:37Z</time>
      </trkpt>
      <trkpt lat="46.20601" lon="6.53666">
        <ele>1448</ele>
        <time>2010-09-11T10:20:42Z</time>
      </trkpt>
      <trkpt lat="46.20589" lon="6.53664">
        <ele>1449</ele>
        <time>2010-09-11T10:20:47Z</time>
      </trkpt>
      <trkpt lat="46.20583" lon="6.53669">
        <ele>1451</ele>
        <time>2010-09-11T10:20:51Z</time>
      </trkpt>
      <trkpt lat="46.20575" lon="6.53681">
        <ele>1453</ele>
        <time>2010-09-11T10:20:56Z</time>
      </trkpt>
      <trkpt lat="46.20565" lon="6.53691">
        <ele>1454</ele>
        <time>2010-09-11T10:21:01Z</time>
      </trkpt>
      <trkpt lat="46.20556" lon="6.53702">
        <ele>1455</ele>
        <time>2010-09-11T10:21:06Z</time>
      </trkpt>
      <trkpt lat="46.20555" lon="6.53704">
        <ele>1455</ele>
        <time>2010-09-11T10:21:07Z</time>
      </trkpt>
      <trkpt lat="46.20551" lon="6.53712">
        <ele>1455</ele>
        <time>2010-09-11T10:21:13Z</time>
      </trkpt>
      <trkpt lat="46.20546" lon="6.53723">
        <ele>1456</ele>
        <time>2010-09-11T10:21:20Z</time>
      </trkpt>
      <trkpt lat="46.20545" lon="6.53728">
        <ele>1456</ele>
        <time>2010-09-11T10:21:23Z</time>
      </trkpt>
      <trkpt lat="46.20544" lon="6.53735">
        <ele>1456</ele>
        <time>2010-09-11T10:21:29Z</time>
      </trkpt>
      <trkpt lat="46.20545" lon="6.53736">
        <ele>1456</ele>
        <time>2010-09-11T10:21:37Z</time>
      </trkpt>
      <trkpt lat="46.20541" lon="6.53741">
        <ele>1457</ele>
        <time>2010-09-11T10:21:43Z</time>
      </trkpt>
      <trkpt lat="46.20535" lon="6.53747">
        <ele>1458</ele>
        <time>2010-09-11T10:21:51Z</time>
      </trkpt>
      <trkpt lat="46.20532" lon="6.53751">
        <ele>1465</ele>
        <time>2010-09-11T10:21:56Z</time>
      </trkpt>
      <trkpt lat="46.20529" lon="6.53756">
        <ele>1466</ele>
        <time>2010-09-11T10:22:02Z</time>
      </trkpt>
      <trkpt lat="46.20526" lon="6.53759">
        <ele>1466</ele>
        <time>2010-09-11T10:22:07Z</time>
      </trkpt>
      <trkpt lat="46.20521" lon="6.53762">
        <ele>1467</ele>
        <time>2010-09-11T10:22:13Z</time>
      </trkpt>
      <trkpt lat="46.20516" lon="6.53762">
        <ele>1467</ele>
        <time>2010-09-11T10:22:19Z</time>
      </trkpt>
      <trkpt lat="46.20513" lon="6.53766">
        <ele>1468</ele>
        <time>2010-09-11T10:22:24Z</time>
      </trkpt>
      <trkpt lat="46.20508" lon="6.53764">
        <ele>1468</ele>
        <time>2010-09-11T10:22:30Z</time>
      </trkpt>
      <trkpt lat="46.20505" lon="6.53763">
        <ele>1468</ele>
        <time>2010-09-11T10:22:35Z</time>
      </trkpt>
      <trkpt lat="46.20502" lon="6.53761">
        <ele>1468</ele>
        <time>2010-09-11T10:22:39Z</time>
      </trkpt>
      <trkpt lat="46.20498" lon="6.5376">
        <ele>1480</ele>
        <time>2010-09-11T10:22:46Z</time>
      </trkpt>
      <trkpt lat="46.20496" lon="6.53765">
        <ele>1484</ele>
        <time>2010-09-11T10:22:53Z</time>
      </trkpt>
      <trkpt lat="46.20496" lon="6.53771">
        <ele>1488</ele>
        <time>2010-09-11T10:22:58Z</time>
      </trkpt>
      <trkpt lat="46.20494" lon="6.53772">
        <ele>1490</ele>
        <time>2010-09-11T10:23:03Z</time>
      </trkpt>
      <trkpt lat="46.2049" lon="6.53772">
        <ele>1490</ele>
        <time>2010-09-11T10:23:08Z</time>
      </trkpt>
      <trkpt lat="46.20487" lon="6.53772">
        <ele>1491</ele>
        <time>2010-09-11T10:23:13Z</time>
      </trkpt>
      <trkpt lat="46.20484" lon="6.53771">
        <ele>1492</ele>
        <time>2010-09-11T10:23:19Z</time>
      </trkpt>
      <trkpt lat="46.20481" lon="6.5377">
        <ele>1493</ele>
        <time>2010-09-11T10:23:23Z</time>
      </trkpt>
      <trkpt lat="46.20478" lon="6.53766">
        <ele>1493</ele>
        <time>2010-09-11T10:23:29Z</time>
      </trkpt>
      <trkpt lat="46.20475" lon="6.53765">
        <ele>1494</ele>
        <time>2010-09-11T10:23:36Z</time>
      </trkpt>
      <trkpt lat="46.20472" lon="6.53766">
        <ele>1495</ele>
        <time>2010-09-11T10:23:42Z</time>
      </trkpt>
      <trkpt lat="46.2047" lon="6.53767">
        <ele>1497</ele>
        <time>2010-09-11T10:23:52Z</time>
      </trkpt>
      <trkpt lat="46.20473" lon="6.53769">
        <ele>1496</ele>
        <time>2010-09-11T10:23:55Z</time>
      </trkpt>
      <trkpt lat="46.20471" lon="6.53769">
        <ele>1497</ele>
        <time>2010-09-11T10:24:02Z</time>
      </trkpt>
      <trkpt lat="46.20471" lon="6.53775">
        <ele>1499</ele>
        <time>2010-09-11T10:24:11Z</time>
      </trkpt>
      <trkpt lat="46.20471" lon="6.53782">
        <ele>1500</ele>
        <time>2010-09-11T10:24:15Z</time>
      </trkpt>
      <trkpt lat="46.20474" lon="6.53794">
        <ele>1502</ele>
        <time>2010-09-11T10:24:22Z</time>
      </trkpt>
      <trkpt lat="46.20475" lon="6.53795">
        <ele>1502</ele>
        <time>2010-09-11T10:24:23Z</time>
      </trkpt>
      <trkpt lat="46.20475" lon="6.53799">
        <ele>1503</ele>
        <time>2010-09-11T10:24:26Z</time>
      </trkpt>
      <trkpt lat="46.20476" lon="6.53809">
        <ele>1504</ele>
        <time>2010-09-11T10:24:32Z</time>
      </trkpt>
      <trkpt lat="46.2048" lon="6.53818">
        <ele>1503</ele>
        <time>2010-09-11T10:24:38Z</time>
      </trkpt>
      <trkpt lat="46.20484" lon="6.53823">
        <ele>1501</ele>
        <time>2010-09-11T10:24:42Z</time>
      </trkpt>
      <trkpt lat="46.20485" lon="6.53826">
        <ele>1500</ele>
        <time>2010-09-11T10:24:44Z</time>
      </trkpt>
      <trkpt lat="46.2049" lon="6.53835">
        <ele>1508</ele>
        <time>2010-09-11T10:24:49Z</time>
      </trkpt>
      <trkpt lat="46.20493" lon="6.53846">
        <ele>1514</ele>
        <time>2010-09-11T10:24:54Z</time>
      </trkpt>
      <trkpt lat="46.20495" lon="6.53854">
        <ele>1519</ele>
        <time>2010-09-11T10:24:59Z</time>
      </trkpt>
      <trkpt lat="46.20501" lon="6.53864">
        <ele>1492</ele>
        <time>2010-09-11T10:25:05Z</time>
      </trkpt>
      <trkpt lat="46.20505" lon="6.53872">
        <ele>1493</ele>
        <time>2010-09-11T10:25:11Z</time>
      </trkpt>
      <trkpt lat="46.20509" lon="6.5388">
        <ele>1495</ele>
        <time>2010-09-11T10:25:17Z</time>
      </trkpt>
      <trkpt lat="46.2051" lon="6.53887">
        <ele>1497</ele>
        <time>2010-09-11T10:25:20Z</time>
      </trkpt>
      <trkpt lat="46.20511" lon="6.53891">
        <ele>1498</ele>
        <time>2010-09-11T10:25:23Z</time>
      </trkpt>
      <trkpt lat="46.20517" lon="6.53899">
        <ele>1499</ele>
        <time>2010-09-11T10:25:29Z</time>
      </trkpt>
      <trkpt lat="46.20519" lon="6.53901">
        <ele>1499</ele>
        <time>2010-09-11T10:25:31Z</time>
      </trkpt>
      <trkpt lat="46.20521" lon="6.53908">
        <ele>1500</ele>
        <time>2010-09-11T10:25:35Z</time>
      </trkpt>
      <trkpt lat="46.2052" lon="6.53914">
        <ele>1502</ele>
        <time>2010-09-11T10:25:38Z</time>
      </trkpt>
      <trkpt lat="46.2052" lon="6.5393">
        <ele>1511</ele>
        <time>2010-09-11T10:25:45Z</time>
      </trkpt>
      <trkpt lat="46.20521" lon="6.53939">
        <ele>1510</ele>
        <time>2010-09-11T10:25:50Z</time>
      </trkpt>
      <trkpt lat="46.20522" lon="6.53944">
        <ele>1510</ele>
        <time>2010-09-11T10:25:53Z</time>
      </trkpt>
      <trkpt lat="46.20526" lon="6.5395">
        <ele>1509</ele>
        <time>2010-09-11T10:25:58Z</time>
      </trkpt>
      <trkpt lat="46.20527" lon="6.53951">
        <ele>1508</ele>
        <time>2010-09-11T10:25:59Z</time>
      </trkpt>
      <trkpt lat="46.20531" lon="6.53961">
        <ele>1508</ele>
        <time>2010-09-11T10:26:05Z</time>
      </trkpt>
      <trkpt lat="46.20533" lon="6.53972">
        <ele>1509</ele>
        <time>2010-09-11T10:26:10Z</time>
      </trkpt>
      <trkpt lat="46.20536" lon="6.53979">
        <ele>1508</ele>
        <time>2010-09-11T10:26:14Z</time>
      </trkpt>
      <trkpt lat="46.20538" lon="6.53988">
        <ele>1508</ele>
        <time>2010-09-11T10:26:19Z</time>
      </trkpt>
      <trkpt lat="46.2054" lon="6.53998">
        <ele>1507</ele>
        <time>2010-09-11T10:26:25Z</time>
      </trkpt>
      <trkpt lat="46.20544" lon="6.54007">
        <ele>1518</ele>
        <time>2010-09-11T10:26:31Z</time>
      </trkpt>
      <trkpt lat="46.20549" lon="6.54015">
        <ele>1516</ele>
        <time>2010-09-11T10:26:36Z</time>
      </trkpt>
      <trkpt lat="46.20552" lon="6.54023">
        <ele>1516</ele>
        <time>2010-09-11T10:26:42Z</time>
      </trkpt>
      <trkpt lat="46.20558" lon="6.54033">
        <ele>1516</ele>
        <time>2010-09-11T10:26:49Z</time>
      </trkpt>
      <trkpt lat="46.20562" lon="6.54041">
        <ele>1517</ele>
        <time>2010-09-11T10:26:55Z</time>
      </trkpt>
      <trkpt lat="46.20563" lon="6.54046">
        <ele>1518</ele>
        <time>2010-09-11T10:26:58Z</time>
      </trkpt>
      <trkpt lat="46.20567" lon="6.54055">
        <ele>1519</ele>
        <time>2010-09-11T10:27:03Z</time>
      </trkpt>
      <trkpt lat="46.20569" lon="6.54065">
        <ele>1520</ele>
        <time>2010-09-11T10:27:09Z</time>
      </trkpt>
      <trkpt lat="46.20573" lon="6.54076">
        <ele>1519</ele>
        <time>2010-09-11T10:27:15Z</time>
      </trkpt>
      <trkpt lat="46.20575" lon="6.54081">
        <ele>1518</ele>
        <time>2010-09-11T10:27:18Z</time>
      </trkpt>
      <trkpt lat="46.2058" lon="6.54089">
        <ele>1523</ele>
        <time>2010-09-11T10:27:23Z</time>
      </trkpt>
      <trkpt lat="46.20584" lon="6.54104">
        <ele>1518</ele>
        <time>2010-09-11T10:27:31Z</time>
      </trkpt>
      <trkpt lat="46.20587" lon="6.54114">
        <ele>1520</ele>
        <time>2010-09-11T10:27:37Z</time>
      </trkpt>
      <trkpt lat="46.20588" lon="6.54124">
        <ele>1522</ele>
        <time>2010-09-11T10:27:43Z</time>
      </trkpt>
      <trkpt lat="46.20591" lon="6.54132">
        <ele>1524</ele>
        <time>2010-09-11T10:27:48Z</time>
      </trkpt>
      <trkpt lat="46.20596" lon="6.5414">
        <ele>1526</ele>
        <time>2010-09-11T10:27:54Z</time>
      </trkpt>
      <trkpt lat="46.20603" lon="6.54147">
        <ele>1527</ele>
        <time>2010-09-11T10:28:00Z</time>
      </trkpt>
      <trkpt lat="46.20609" lon="6.54156">
        <ele>1528</ele>
        <time>2010-09-11T10:28:08Z</time>
      </trkpt>
      <trkpt lat="46.20611" lon="6.54166">
        <ele>1529</ele>
        <time>2010-09-11T10:28:13Z</time>
      </trkpt>
      <trkpt lat="46.20607" lon="6.54177">
        <ele>1544</ele>
        <time>2010-09-11T10:28:18Z</time>
      </trkpt>
      <trkpt lat="46.20604" lon="6.5418">
        <ele>1544</ele>
        <time>2010-09-11T10:28:20Z</time>
      </trkpt>
      <trkpt lat="46.20597" lon="6.54181">
        <ele>1544</ele>
        <time>2010-09-11T10:28:24Z</time>
      </trkpt>
      <trkpt lat="46.20585" lon="6.5418">
        <ele>1544</ele>
        <time>2010-09-11T10:28:31Z</time>
      </trkpt>
      <trkpt lat="46.20577" lon="6.54179">
        <ele>1547</ele>
        <time>2010-09-11T10:28:37Z</time>
      </trkpt>
      <trkpt lat="46.20571" lon="6.5418">
        <ele>1548</ele>
        <time>2010-09-11T10:28:42Z</time>
      </trkpt>
      <trkpt lat="46.20564" lon="6.54184">
        <ele>1550</ele>
        <time>2010-09-11T10:28:49Z</time>
      </trkpt>
      <trkpt lat="46.20562" lon="6.54185">
        <ele>1550</ele>
        <time>2010-09-11T10:28:51Z</time>
      </trkpt>
      <trkpt lat="46.20559" lon="6.54189">
        <ele>1551</ele>
        <time>2010-09-11T10:28:59Z</time>
      </trkpt>
      <trkpt lat="46.20557" lon="6.54192">
        <ele>1551</ele>
        <time>2010-09-11T10:29:04Z</time>
      </trkpt>
      <trkpt lat="46.20554" lon="6.54191">
        <ele>1551</ele>
        <time>2010-09-11T10:29:07Z</time>
      </trkpt>
      <trkpt lat="46.20552" lon="6.54188">
        <ele>1552</ele>
        <time>2010-09-11T10:29:12Z</time>
      </trkpt>
      <trkpt lat="46.20549" lon="6.54185">
        <ele>1552</ele>
        <time>2010-09-11T10:29:17Z</time>
      </trkpt>
      <trkpt lat="46.20548" lon="6.54185">
        <ele>1552</ele>
        <time>2010-09-11T10:29:19Z</time>
      </trkpt>
      <trkpt lat="46.20541" lon="6.54187">
        <ele>1553</ele>
        <time>2010-09-11T10:29:25Z</time>
      </trkpt>
      <trkpt lat="46.20538" lon="6.54188">
        <ele>1553</ele>
        <time>2010-09-11T10:29:35Z</time>
      </trkpt>
      <trkpt lat="46.20535" lon="6.54191">
        <ele>1554</ele>
        <time>2010-09-11T10:29:40Z</time>
      </trkpt>
      <trkpt lat="46.20534" lon="6.54189">
        <ele>1554</ele>
        <time>2010-09-11T10:29:44Z</time>
      </trkpt>
      <trkpt lat="46.20529" lon="6.54192">
        <ele>1554</ele>
        <time>2010-09-11T10:29:52Z</time>
      </trkpt>
      <trkpt lat="46.20528" lon="6.54194">
        <ele>1554</ele>
        <time>2010-09-11T10:29:58Z</time>
      </trkpt>
      <trkpt lat="46.20523" lon="6.54191">
        <ele>1555</ele>
        <time>2010-09-11T10:30:10Z</time>
      </trkpt>
      <trkpt lat="46.20515" lon="6.54194">
        <ele>1556</ele>
        <time>2010-09-11T10:30:32Z</time>
      </trkpt>
      <trkpt lat="46.20516" lon="6.54196">
        <ele>1555</ele>
        <time>2010-09-11T10:30:39Z</time>
      </trkpt>
      <trkpt lat="46.20513" lon="6.54199">
        <ele>1555</ele>
        <time>2010-09-11T10:30:45Z</time>
      </trkpt>
      <trkpt lat="46.20511" lon="6.54207">
        <ele>1555</ele>
        <time>2010-09-11T10:30:51Z</time>
      </trkpt>
      <trkpt lat="46.20508" lon="6.54213">
        <ele>1555</ele>
        <time>2010-09-11T10:30:57Z</time>
      </trkpt>
      <trkpt lat="46.20506" lon="6.5421">
        <ele>1555</ele>
        <time>2010-09-11T10:31:02Z</time>
      </trkpt>
      <trkpt lat="46.20503" lon="6.54209">
        <ele>1555</ele>
        <time>2010-09-11T10:31:07Z</time>
      </trkpt>
      <trkpt lat="46.20502" lon="6.5421">
        <ele>1555</ele>
        <time>2010-09-11T10:31:12Z</time>
      </trkpt>
      <trkpt lat="46.205" lon="6.54207">
        <ele>1562</ele>
        <time>2010-09-11T10:31:17Z</time>
      </trkpt>
      <trkpt lat="46.20496" lon="6.54203">
        <ele>1562</ele>
        <time>2010-09-11T10:31:23Z</time>
      </trkpt>
      <trkpt lat="46.20493" lon="6.54202">
        <ele>1563</ele>
        <time>2010-09-11T10:31:28Z</time>
      </trkpt>
      <trkpt lat="46.2049" lon="6.54197">
        <ele>1563</ele>
        <time>2010-09-11T10:31:35Z</time>
      </trkpt>
      <trkpt lat="46.20487" lon="6.54195">
        <ele>1563</ele>
        <time>2010-09-11T10:31:41Z</time>
      </trkpt>
      <trkpt lat="46.20487" lon="6.54191">
        <ele>1563</ele>
        <time>2010-09-11T10:31:47Z</time>
      </trkpt>
      <trkpt lat="46.20485" lon="6.54187">
        <ele>1564</ele>
        <time>2010-09-11T10:31:54Z</time>
      </trkpt>
      <trkpt lat="46.20486" lon="6.54184">
        <ele>1564</ele>
        <time>2010-09-11T10:31:59Z</time>
      </trkpt>
      <trkpt lat="46.20486" lon="6.54179">
        <ele>1564</ele>
        <time>2010-09-11T10:32:03Z</time>
      </trkpt>
      <trkpt lat="46.20485" lon="6.54175">
        <ele>1564</ele>
        <time>2010-09-11T10:32:08Z</time>
      </trkpt>
      <trkpt lat="46.20482" lon="6.54172">
        <ele>1564</ele>
        <time>2010-09-11T10:32:13Z</time>
      </trkpt>
      <trkpt lat="46.20479" lon="6.54168">
        <ele>1564</ele>
        <time>2010-09-11T10:32:18Z</time>
      </trkpt>
      <trkpt lat="46.20475" lon="6.54166">
        <ele>1572</ele>
        <time>2010-09-11T10:32:24Z</time>
      </trkpt>
      <trkpt lat="46.20473" lon="6.54163">
        <ele>1573</ele>
        <time>2010-09-11T10:32:30Z</time>
      </trkpt>
      <trkpt lat="46.20472" lon="6.5416">
        <ele>1573</ele>
        <time>2010-09-11T10:32:36Z</time>
      </trkpt>
      <trkpt lat="46.2047" lon="6.54157">
        <ele>1574</ele>
        <time>2010-09-11T10:32:41Z</time>
      </trkpt>
      <trkpt lat="46.2047" lon="6.54154">
        <ele>1574</ele>
        <time>2010-09-11T10:32:46Z</time>
      </trkpt>
      <trkpt lat="46.20468" lon="6.5415">
        <ele>1574</ele>
        <time>2010-09-11T10:32:52Z</time>
      </trkpt>
      <trkpt lat="46.20468" lon="6.54147">
        <ele>1574</ele>
        <time>2010-09-11T10:32:58Z</time>
      </trkpt>
      <trkpt lat="46.20468" lon="6.54144">
        <ele>1575</ele>
        <time>2010-09-11T10:33:03Z</time>
      </trkpt>
      <trkpt lat="46.20469" lon="6.54142">
        <ele>1575</ele>
        <time>2010-09-11T10:33:08Z</time>
      </trkpt>
      <trkpt lat="46.20468" lon="6.54139">
        <ele>1575</ele>
        <time>2010-09-11T10:33:13Z</time>
      </trkpt>
      <trkpt lat="46.20469" lon="6.54136">
        <ele>1575</ele>
        <time>2010-09-11T10:33:20Z</time>
      </trkpt>
      <trkpt lat="46.20468" lon="6.54132">
        <ele>1576</ele>
        <time>2010-09-11T10:33:26Z</time>
      </trkpt>
      <trkpt lat="46.20466" lon="6.54128">
        <ele>1576</ele>
        <time>2010-09-11T10:33:31Z</time>
      </trkpt>
      <trkpt lat="46.20465" lon="6.54127">
        <ele>1576</ele>
        <time>2010-09-11T10:33:36Z</time>
      </trkpt>
      <trkpt lat="46.20465" lon="6.54123">
        <ele>1577</ele>
        <time>2010-09-11T10:33:41Z</time>
      </trkpt>
      <trkpt lat="46.20463" lon="6.54119">
        <ele>1577</ele>
        <time>2010-09-11T10:33:47Z</time>
      </trkpt>
      <trkpt lat="46.2046" lon="6.54115">
        <ele>1578</ele>
        <time>2010-09-11T10:33:54Z</time>
      </trkpt>
      <trkpt lat="46.20458" lon="6.54113">
        <ele>1579</ele>
        <time>2010-09-11T10:33:59Z</time>
      </trkpt>
      <trkpt lat="46.20456" lon="6.5411">
        <ele>1579</ele>
        <time>2010-09-11T10:34:05Z</time>
      </trkpt>
      <trkpt lat="46.20455" lon="6.54105">
        <ele>1580</ele>
        <time>2010-09-11T10:34:10Z</time>
      </trkpt>
      <trkpt lat="46.20454" lon="6.54102">
        <ele>1581</ele>
        <time>2010-09-11T10:34:14Z</time>
      </trkpt>
      <trkpt lat="46.2045" lon="6.54098">
        <ele>1582</ele>
        <time>2010-09-11T10:34:20Z</time>
      </trkpt>
      <trkpt lat="46.2045" lon="6.54094">
        <ele>1583</ele>
        <time>2010-09-11T10:34:25Z</time>
      </trkpt>
      <trkpt lat="46.20448" lon="6.54092">
        <ele>1584</ele>
        <time>2010-09-11T10:34:30Z</time>
      </trkpt>
      <trkpt lat="46.20446" lon="6.54087">
        <ele>1585</ele>
        <time>2010-09-11T10:34:36Z</time>
      </trkpt>
      <trkpt lat="46.20444" lon="6.54085">
        <ele>1586</ele>
        <time>2010-09-11T10:34:41Z</time>
      </trkpt>
      <trkpt lat="46.20441" lon="6.5408">
        <ele>1589</ele>
        <time>2010-09-11T10:34:48Z</time>
      </trkpt>
      <trkpt lat="46.20438" lon="6.54073">
        <ele>1590</ele>
        <time>2010-09-11T10:34:54Z</time>
      </trkpt>
      <trkpt lat="46.20436" lon="6.54071">
        <ele>1591</ele>
        <time>2010-09-11T10:34:58Z</time>
      </trkpt>
      <trkpt lat="46.20435" lon="6.5407">
        <ele>1591</ele>
        <time>2010-09-11T10:34:59Z</time>
      </trkpt>
      <trkpt lat="46.20431" lon="6.54065">
        <ele>1591</ele>
        <time>2010-09-11T10:35:05Z</time>
      </trkpt>
      <trkpt lat="46.20432" lon="6.54062">
        <ele>1590</ele>
        <time>2010-09-11T10:35:10Z</time>
      </trkpt>
      <trkpt lat="46.20428" lon="6.54061">
        <ele>1591</ele>
        <time>2010-09-11T10:35:18Z</time>
      </trkpt>
      <trkpt lat="46.20424" lon="6.54058">
        <ele>1591</ele>
        <time>2010-09-11T10:35:23Z</time>
      </trkpt>
      <trkpt lat="46.2042" lon="6.54058">
        <ele>1592</ele>
        <time>2010-09-11T10:35:26Z</time>
      </trkpt>
      <trkpt lat="46.20414" lon="6.54054">
        <ele>1608</ele>
        <time>2010-09-11T10:35:32Z</time>
      </trkpt>
      <trkpt lat="46.20413" lon="6.54054">
        <ele>1608</ele>
        <time>2010-09-11T10:35:33Z</time>
      </trkpt>
      <trkpt lat="46.20404" lon="6.54052">
        <ele>1608</ele>
        <time>2010-09-11T10:35:38Z</time>
      </trkpt>
      <trkpt lat="46.20395" lon="6.5405">
        <ele>1609</ele>
        <time>2010-09-11T10:35:42Z</time>
      </trkpt>
      <trkpt lat="46.20389" lon="6.5405">
        <ele>1609</ele>
        <time>2010-09-11T10:35:48Z</time>
      </trkpt>
      <trkpt lat="46.20387" lon="6.5405">
        <ele>1609</ele>
        <time>2010-09-11T10:35:52Z</time>
      </trkpt>
      <trkpt lat="46.20385" lon="6.54047">
        <ele>1609</ele>
        <time>2010-09-11T10:35:56Z</time>
      </trkpt>
      <trkpt lat="46.20381" lon="6.54037">
        <ele>1609</ele>
        <time>2010-09-11T10:36:02Z</time>
      </trkpt>
      <trkpt lat="46.20376" lon="6.54031">
        <ele>1610</ele>
        <time>2010-09-11T10:36:06Z</time>
      </trkpt>
      <trkpt lat="46.20375" lon="6.54029">
        <ele>1610</ele>
        <time>2010-09-11T10:36:08Z</time>
      </trkpt>
      <trkpt lat="46.20376" lon="6.54022">
        <ele>1610</ele>
        <time>2010-09-11T10:36:13Z</time>
      </trkpt>
      <trkpt lat="46.20373" lon="6.54016">
        <ele>1610</ele>
        <time>2010-09-11T10:36:19Z</time>
      </trkpt>
      <trkpt lat="46.20367" lon="6.54011">
        <ele>1610</ele>
        <time>2010-09-11T10:36:25Z</time>
      </trkpt>
      <trkpt lat="46.20365" lon="6.54013">
        <ele>1611</ele>
        <time>2010-09-11T10:36:27Z</time>
      </trkpt>
      <trkpt lat="46.20356" lon="6.54017">
        <ele>1611</ele>
        <time>2010-09-11T10:36:32Z</time>
      </trkpt>
      <trkpt lat="46.20349" lon="6.54018">
        <ele>1612</ele>
        <time>2010-09-11T10:36:36Z</time>
      </trkpt>
      <trkpt lat="46.20341" lon="6.54018">
        <ele>1612</ele>
        <time>2010-09-11T10:36:40Z</time>
      </trkpt>
      <trkpt lat="46.2033" lon="6.54023">
        <ele>1614</ele>
        <time>2010-09-11T10:36:46Z</time>
      </trkpt>
      <trkpt lat="46.2032" lon="6.54025">
        <ele>1614</ele>
        <time>2010-09-11T10:36:52Z</time>
      </trkpt>
      <trkpt lat="46.20315" lon="6.54025">
        <ele>1614</ele>
        <time>2010-09-11T10:36:56Z</time>
      </trkpt>
      <trkpt lat="46.20308" lon="6.54024">
        <ele>1614</ele>
        <time>2010-09-11T10:37:01Z</time>
      </trkpt>
      <trkpt lat="46.203" lon="6.54022">
        <ele>1614</ele>
        <time>2010-09-11T10:37:07Z</time>
      </trkpt>
      <trkpt lat="46.20294" lon="6.54024">
        <ele>1614</ele>
        <time>2010-09-11T10:37:12Z</time>
      </trkpt>
      <trkpt lat="46.20291" lon="6.54025">
        <ele>1614</ele>
        <time>2010-09-11T10:37:20Z</time>
      </trkpt>
      <trkpt lat="46.20285" lon="6.54024">
        <ele>1614</ele>
        <time>2010-09-11T10:37:25Z</time>
      </trkpt>
      <trkpt lat="46.20283" lon="6.54024">
        <ele>1613</ele>
        <time>2010-09-11T10:37:27Z</time>
      </trkpt>
      <trkpt lat="46.20281" lon="6.54026">
        <ele>1614</ele>
        <time>2010-09-11T10:37:29Z</time>
      </trkpt>
      <trkpt lat="46.20281" lon="6.5403">
        <ele>1614</ele>
        <time>2010-09-11T10:37:34Z</time>
      </trkpt>
      <trkpt lat="46.20273" lon="6.54034">
        <ele>1614</ele>
        <time>2010-09-11T10:37:41Z</time>
      </trkpt>
      <trkpt lat="46.20272" lon="6.54035">
        <ele>1614</ele>
        <time>2010-09-11T10:37:42Z</time>
      </trkpt>
      <trkpt lat="46.2027" lon="6.54036">
        <ele>1614</ele>
        <time>2010-09-11T10:37:45Z</time>
      </trkpt>
      <trkpt lat="46.20265" lon="6.54039">
        <ele>1614</ele>
        <time>2010-09-11T10:37:49Z</time>
      </trkpt>
      <trkpt lat="46.20259" lon="6.54047">
        <ele>1615</ele>
        <time>2010-09-11T10:37:56Z</time>
      </trkpt>
      <trkpt lat="46.20258" lon="6.54048">
        <ele>1615</ele>
        <time>2010-09-11T10:37:57Z</time>
      </trkpt>
      <trkpt lat="46.20256" lon="6.54052">
        <ele>1615</ele>
        <time>2010-09-11T10:38:03Z</time>
      </trkpt>
      <trkpt lat="46.20254" lon="6.54058">
        <ele>1616</ele>
        <time>2010-09-11T10:38:09Z</time>
      </trkpt>
      <trkpt lat="46.20254" lon="6.54062">
        <ele>1616</ele>
        <time>2010-09-11T10:38:14Z</time>
      </trkpt>
      <trkpt lat="46.20255" lon="6.54066">
        <ele>1617</ele>
        <time>2010-09-11T10:38:18Z</time>
      </trkpt>
      <trkpt lat="46.20253" lon="6.54072">
        <ele>1617</ele>
        <time>2010-09-11T10:38:24Z</time>
      </trkpt>
      <trkpt lat="46.20248" lon="6.54078">
        <ele>1618</ele>
        <time>2010-09-11T10:38:30Z</time>
      </trkpt>
      <trkpt lat="46.20246" lon="6.5408">
        <ele>1618</ele>
        <time>2010-09-11T10:38:32Z</time>
      </trkpt>
      <trkpt lat="46.20242" lon="6.54086">
        <ele>1618</ele>
        <time>2010-09-11T10:38:39Z</time>
      </trkpt>
      <trkpt lat="46.20233" lon="6.54089">
        <ele>1617</ele>
        <time>2010-09-11T10:38:46Z</time>
      </trkpt>
      <trkpt lat="46.20232" lon="6.54089">
        <ele>1617</ele>
        <time>2010-09-11T10:38:47Z</time>
      </trkpt>
      <trkpt lat="46.2023" lon="6.54091">
        <ele>1617</ele>
        <time>2010-09-11T10:38:53Z</time>
      </trkpt>
      <trkpt lat="46.20226" lon="6.54093">
        <ele>1616</ele>
        <time>2010-09-11T10:38:56Z</time>
      </trkpt>
      <trkpt lat="46.20222" lon="6.54097">
        <ele>1616</ele>
        <time>2010-09-11T10:39:01Z</time>
      </trkpt>
      <trkpt lat="46.20218" lon="6.54099">
        <ele>1616</ele>
        <time>2010-09-11T10:39:11Z</time>
      </trkpt>
      <trkpt lat="46.20217" lon="6.54099">
        <ele>1616</ele>
        <time>2010-09-11T10:39:20Z</time>
      </trkpt>
      <trkpt lat="46.20216" lon="6.54102">
        <ele>1616</ele>
        <time>2010-09-11T10:39:27Z</time>
      </trkpt>
      <trkpt lat="46.20215" lon="6.54111">
        <ele>1615</ele>
        <time>2010-09-11T10:39:34Z</time>
      </trkpt>
      <trkpt lat="46.20214" lon="6.54117">
        <ele>1615</ele>
        <time>2010-09-11T10:39:40Z</time>
      </trkpt>
      <trkpt lat="46.20213" lon="6.54118">
        <ele>1615</ele>
        <time>2010-09-11T10:39:41Z</time>
      </trkpt>
      <trkpt lat="46.20206" lon="6.54125">
        <ele>1615</ele>
        <time>2010-09-11T10:39:48Z</time>
      </trkpt>
      <trkpt lat="46.20202" lon="6.54131">
        <ele>1615</ele>
        <time>2010-09-11T10:39:52Z</time>
      </trkpt>
      <trkpt lat="46.20201" lon="6.54132">
        <ele>1615</ele>
        <time>2010-09-11T10:39:53Z</time>
      </trkpt>
      <trkpt lat="46.20197" lon="6.54134">
        <ele>1616</ele>
        <time>2010-09-11T10:39:56Z</time>
      </trkpt>
      <trkpt lat="46.20195" lon="6.54139">
        <ele>1616</ele>
        <time>2010-09-11T10:40:02Z</time>
      </trkpt>
      <trkpt lat="46.20193" lon="6.5414">
        <ele>1616</ele>
        <time>2010-09-11T10:40:03Z</time>
      </trkpt>
      <trkpt lat="46.20185" lon="6.54144">
        <ele>1617</ele>
        <time>2010-09-11T10:40:09Z</time>
      </trkpt>
      <trkpt lat="46.2018" lon="6.54149">
        <ele>1619</ele>
        <time>2010-09-11T10:40:14Z</time>
      </trkpt>
      <trkpt lat="46.20179" lon="6.5415">
        <ele>1619</ele>
        <time>2010-09-11T10:40:16Z</time>
      </trkpt>
      <trkpt lat="46.20175" lon="6.54145">
        <ele>1619</ele>
        <time>2010-09-11T10:40:21Z</time>
      </trkpt>
      <trkpt lat="46.20174" lon="6.54151">
        <ele>1620</ele>
        <time>2010-09-11T10:40:25Z</time>
      </trkpt>
      <trkpt lat="46.20173" lon="6.54154">
        <ele>1620</ele>
        <time>2010-09-11T10:40:27Z</time>
      </trkpt>
      <trkpt lat="46.20167" lon="6.54163">
        <ele>1623</ele>
        <time>2010-09-11T10:40:33Z</time>
      </trkpt>
      <trkpt lat="46.20166" lon="6.54163">
        <ele>1625</ele>
        <time>2010-09-11T10:40:34Z</time>
      </trkpt>
      <trkpt lat="46.20161" lon="6.54168">
        <ele>1627</ele>
        <time>2010-09-11T10:40:38Z</time>
      </trkpt>
      <trkpt lat="46.20154" lon="6.5418">
        <ele>1629</ele>
        <time>2010-09-11T10:40:45Z</time>
      </trkpt>
      <trkpt lat="46.20144" lon="6.54183">
        <ele>1631</ele>
        <time>2010-09-11T10:40:49Z</time>
      </trkpt>
      <trkpt lat="46.20139" lon="6.54187">
        <ele>1632</ele>
        <time>2010-09-11T10:40:54Z</time>
      </trkpt>
      <trkpt lat="46.20134" lon="6.54192">
        <ele>1633</ele>
        <time>2010-09-11T10:41:00Z</time>
      </trkpt>
      <trkpt lat="46.20132" lon="6.54195">
        <ele>1633</ele>
        <time>2010-09-11T10:41:06Z</time>
      </trkpt>
      <trkpt lat="46.2013" lon="6.54199">
        <ele>1634</ele>
        <time>2010-09-11T10:41:11Z</time>
      </trkpt>
      <trkpt lat="46.2013" lon="6.54201">
        <ele>1634</ele>
        <time>2010-09-11T10:41:15Z</time>
      </trkpt>
      <trkpt lat="46.20128" lon="6.54204">
        <ele>1635</ele>
        <time>2010-09-11T10:41:21Z</time>
      </trkpt>
      <trkpt lat="46.20127" lon="6.54206">
        <ele>1635</ele>
        <time>2010-09-11T10:41:27Z</time>
      </trkpt>
      <trkpt lat="46.20124" lon="6.54209">
        <ele>1635</ele>
        <time>2010-09-11T10:41:32Z</time>
      </trkpt>
      <trkpt lat="46.20124" lon="6.54214">
        <ele>1636</ele>
        <time>2010-09-11T10:41:36Z</time>
      </trkpt>
      <trkpt lat="46.20122" lon="6.54216">
        <ele>1636</ele>
        <time>2010-09-11T10:41:41Z</time>
      </trkpt>
      <trkpt lat="46.2012" lon="6.54219">
        <ele>1637</ele>
        <time>2010-09-11T10:41:47Z</time>
      </trkpt>
      <trkpt lat="46.20118" lon="6.54223">
        <ele>1638</ele>
        <time>2010-09-11T10:41:54Z</time>
      </trkpt>
      <trkpt lat="46.20112" lon="6.54223">
        <ele>1640</ele>
        <time>2010-09-11T10:42:01Z</time>
      </trkpt>
      <trkpt lat="46.20107" lon="6.54225">
        <ele>1642</ele>
        <time>2010-09-11T10:42:08Z</time>
      </trkpt>
      <trkpt lat="46.20107" lon="6.54228">
        <ele>1643</ele>
        <time>2010-09-11T10:42:13Z</time>
      </trkpt>
      <trkpt lat="46.20108" lon="6.54231">
        <ele>1643</ele>
        <time>2010-09-11T10:42:17Z</time>
      </trkpt>
      <trkpt lat="46.2011" lon="6.54233">
        <ele>1643</ele>
        <time>2010-09-11T10:42:22Z</time>
      </trkpt>
      <trkpt lat="46.20107" lon="6.54237">
        <ele>1645</ele>
        <time>2010-09-11T10:42:29Z</time>
      </trkpt>
      <trkpt lat="46.20101" lon="6.54242">
        <ele>1649</ele>
        <time>2010-09-11T10:42:41Z</time>
      </trkpt>
      <trkpt lat="46.20097" lon="6.54245">
        <ele>1653</ele>
        <time>2010-09-11T10:42:45Z</time>
      </trkpt>
      <trkpt lat="46.20094" lon="6.54247">
        <ele>1655</ele>
        <time>2010-09-11T10:42:50Z</time>
      </trkpt>
      <trkpt lat="46.20093" lon="6.54249">
        <ele>1657</ele>
        <time>2010-09-11T10:42:56Z</time>
      </trkpt>
      <trkpt lat="46.20093" lon="6.54253">
        <ele>1658</ele>
        <time>2010-09-11T10:43:00Z</time>
      </trkpt>
      <trkpt lat="46.20094" lon="6.54257">
        <ele>1656</ele>
        <time>2010-09-11T10:43:05Z</time>
      </trkpt>
      <trkpt lat="46.20094" lon="6.5426">
        <ele>1655</ele>
        <time>2010-09-11T10:43:11Z</time>
      </trkpt>
      <trkpt lat="46.20092" lon="6.54264">
        <ele>1655</ele>
        <time>2010-09-11T10:43:19Z</time>
      </trkpt>
      <trkpt lat="46.20089" lon="6.54268">
        <ele>1654</ele>
        <time>2010-09-11T10:43:27Z</time>
      </trkpt>
      <trkpt lat="46.20088" lon="6.5427">
        <ele>1654</ele>
        <time>2010-09-11T10:43:33Z</time>
      </trkpt>
      <trkpt lat="46.20085" lon="6.54273">
        <ele>1653</ele>
        <time>2010-09-11T10:43:40Z</time>
      </trkpt>
      <trkpt lat="46.20084" lon="6.54276">
        <ele>1652</ele>
        <time>2010-09-11T10:43:45Z</time>
      </trkpt>
      <trkpt lat="46.20083" lon="6.54279">
        <ele>1676</ele>
        <time>2010-09-11T10:43:48Z</time>
      </trkpt>
      <trkpt lat="46.20081" lon="6.54283">
        <ele>1677</ele>
        <time>2010-09-11T10:43:53Z</time>
      </trkpt>
      <trkpt lat="46.20076" lon="6.54288">
        <ele>1678</ele>
        <time>2010-09-11T10:44:00Z</time>
      </trkpt>
      <trkpt lat="46.20072" lon="6.54289">
        <ele>1678</ele>
        <time>2010-09-11T10:44:06Z</time>
      </trkpt>
      <trkpt lat="46.20074" lon="6.54293">
        <ele>1678</ele>
        <time>2010-09-11T10:44:13Z</time>
      </trkpt>
      <trkpt lat="46.20071" lon="6.54296">
        <ele>1679</ele>
        <time>2010-09-11T10:44:20Z</time>
      </trkpt>
      <trkpt lat="46.20067" lon="6.543">
        <ele>1679</ele>
        <time>2010-09-11T10:44:25Z</time>
      </trkpt>
      <trkpt lat="46.20066" lon="6.54302">
        <ele>1679</ele>
        <time>2010-09-11T10:44:29Z</time>
      </trkpt>
      <trkpt lat="46.20062" lon="6.54307">
        <ele>1680</ele>
        <time>2010-09-11T10:44:36Z</time>
      </trkpt>
      <trkpt lat="46.20057" lon="6.54312">
        <ele>1681</ele>
        <time>2010-09-11T10:44:43Z</time>
      </trkpt>
      <trkpt lat="46.20054" lon="6.54316">
        <ele>1681</ele>
        <time>2010-09-11T10:44:50Z</time>
      </trkpt>
      <trkpt lat="46.20052" lon="6.54317">
        <ele>1681</ele>
        <time>2010-09-11T10:44:56Z</time>
      </trkpt>
      <trkpt lat="46.20053" lon="6.54321">
        <ele>1681</ele>
        <time>2010-09-11T10:45:04Z</time>
      </trkpt>
      <trkpt lat="46.20052" lon="6.54324">
        <ele>1682</ele>
        <time>2010-09-11T10:45:09Z</time>
      </trkpt>
      <trkpt lat="46.20049" lon="6.54328">
        <ele>1682</ele>
        <time>2010-09-11T10:45:16Z</time>
      </trkpt>
      <trkpt lat="46.20046" lon="6.54332">
        <ele>1683</ele>
        <time>2010-09-11T10:45:22Z</time>
      </trkpt>
      <trkpt lat="46.20047" lon="6.54336">
        <ele>1683</ele>
        <time>2010-09-11T10:45:27Z</time>
      </trkpt>
      <trkpt lat="46.20046" lon="6.54341">
        <ele>1683</ele>
        <time>2010-09-11T10:45:31Z</time>
      </trkpt>
      <trkpt lat="46.20048" lon="6.54343">
        <ele>1683</ele>
        <time>2010-09-11T10:45:37Z</time>
      </trkpt>
      <trkpt lat="46.20047" lon="6.54345">
        <ele>1683</ele>
        <time>2010-09-11T10:45:42Z</time>
      </trkpt>
      <trkpt lat="46.20047" lon="6.54348">
        <ele>1683</ele>
        <time>2010-09-11T10:45:47Z</time>
      </trkpt>
      <trkpt lat="46.20048" lon="6.5435">
        <ele>1682</ele>
        <time>2010-09-11T10:45:52Z</time>
      </trkpt>
      <trkpt lat="46.20049" lon="6.5435">
        <ele>1682</ele>
        <time>2010-09-11T10:45:58Z</time>
      </trkpt>
      <trkpt lat="46.20046" lon="6.54351">
        <ele>1683</ele>
        <time>2010-09-11T10:46:08Z</time>
      </trkpt>
      <trkpt lat="46.20043" lon="6.54354">
        <ele>1683</ele>
        <time>2010-09-11T10:46:13Z</time>
      </trkpt>
      <trkpt lat="46.20043" lon="6.54353">
        <ele>1683</ele>
        <time>2010-09-11T10:46:20Z</time>
      </trkpt>
      <trkpt lat="46.20039" lon="6.54358">
        <ele>1684</ele>
        <time>2010-09-11T10:46:26Z</time>
      </trkpt>
      <trkpt lat="46.20036" lon="6.54363">
        <ele>1684</ele>
        <time>2010-09-11T10:46:31Z</time>
      </trkpt>
      <trkpt lat="46.20035" lon="6.54363">
        <ele>1684</ele>
        <time>2010-09-11T10:46:32Z</time>
      </trkpt>
      <trkpt lat="46.20026" lon="6.54359">
        <ele>1687</ele>
        <time>2010-09-11T10:46:39Z</time>
      </trkpt>
      <trkpt lat="46.20025" lon="6.54359">
        <ele>1687</ele>
        <time>2010-09-11T10:46:40Z</time>
      </trkpt>
      <trkpt lat="46.20014" lon="6.54355">
        <ele>1690</ele>
        <time>2010-09-11T10:46:48Z</time>
      </trkpt>
      <trkpt lat="46.19999" lon="6.54346">
        <ele>1699</ele>
        <time>2010-09-11T10:46:54Z</time>
      </trkpt>
      <trkpt lat="46.19986" lon="6.5434">
        <ele>1698</ele>
        <time>2010-09-11T10:46:59Z</time>
      </trkpt>
      <trkpt lat="46.19972" lon="6.54336">
        <ele>1696</ele>
        <time>2010-09-11T10:47:04Z</time>
      </trkpt>
      <trkpt lat="46.19961" lon="6.54332">
        <ele>1690</ele>
        <time>2010-09-11T10:47:09Z</time>
      </trkpt>
      <trkpt lat="46.19959" lon="6.54331">
        <ele>1690</ele>
        <time>2010-09-11T10:47:10Z</time>
      </trkpt>
      <trkpt lat="46.19955" lon="6.54327">
        <ele>1689</ele>
        <time>2010-09-11T10:47:13Z</time>
      </trkpt>
      <trkpt lat="46.19957" lon="6.54323">
        <ele>1689</ele>
        <time>2010-09-11T10:47:19Z</time>
      </trkpt>
      <trkpt lat="46.19956" lon="6.54324">
        <ele>1689</ele>
        <time>2010-09-11T10:47:29Z</time>
      </trkpt>
      <trkpt lat="46.19947" lon="6.54331">
        <ele>1689</ele>
        <time>2010-09-11T10:47:35Z</time>
      </trkpt>
      <trkpt lat="46.19934" lon="6.54331">
        <ele>1689</ele>
        <time>2010-09-11T10:47:40Z</time>
      </trkpt>
      <trkpt lat="46.19931" lon="6.5433">
        <ele>1689</ele>
        <time>2010-09-11T10:47:41Z</time>
      </trkpt>
      <trkpt lat="46.19926" lon="6.54323">
        <ele>1689</ele>
        <time>2010-09-11T10:47:45Z</time>
      </trkpt>
      <trkpt lat="46.19925" lon="6.54322">
        <ele>1689</ele>
        <time>2010-09-11T10:47:46Z</time>
      </trkpt>
      <trkpt lat="46.19925" lon="6.54318">
        <ele>1688</ele>
        <time>2010-09-11T10:47:51Z</time>
      </trkpt>
      <trkpt lat="46.19926" lon="6.54313">
        <ele>1688</ele>
        <time>2010-09-11T10:47:56Z</time>
      </trkpt>
      <trkpt lat="46.19925" lon="6.54312">
        <ele>1687</ele>
        <time>2010-09-11T10:47:57Z</time>
      </trkpt>
      <trkpt lat="46.19921" lon="6.54307">
        <ele>1686</ele>
        <time>2010-09-11T10:48:00Z</time>
      </trkpt>
      <trkpt lat="46.19919" lon="6.54306">
        <ele>1686</ele>
        <time>2010-09-11T10:48:04Z</time>
      </trkpt>
      <trkpt lat="46.19917" lon="6.54301">
        <ele>1685</ele>
        <time>2010-09-11T10:48:10Z</time>
      </trkpt>
      <trkpt lat="46.19919" lon="6.54305">
        <ele>1686</ele>
        <time>2010-09-11T10:48:15Z</time>
      </trkpt>
      <trkpt lat="46.19917" lon="6.54305">
        <ele>1686</ele>
        <time>2010-09-11T10:48:19Z</time>
      </trkpt>
      <trkpt lat="46.19913" lon="6.54307">
        <ele>1677</ele>
        <time>2010-09-11T10:48:23Z</time>
      </trkpt>
      <trkpt lat="46.19904" lon="6.54303">
        <ele>1675</ele>
        <time>2010-09-11T10:48:29Z</time>
      </trkpt>
      <trkpt lat="46.199" lon="6.54301">
        <ele>1674</ele>
        <time>2010-09-11T10:48:31Z</time>
      </trkpt>
      <trkpt lat="46.19898" lon="6.543">
        <ele>1673</ele>
        <time>2010-09-11T10:48:33Z</time>
      </trkpt>
      <trkpt lat="46.19892" lon="6.54297">
        <ele>1672</ele>
        <time>2010-09-11T10:48:38Z</time>
      </trkpt>
      <trkpt lat="46.19888" lon="6.54292">
        <ele>1671</ele>
        <time>2010-09-11T10:48:42Z</time>
      </trkpt>
      <trkpt lat="46.19881" lon="6.54283">
        <ele>1668</ele>
        <time>2010-09-11T10:48:48Z</time>
      </trkpt>
      <trkpt lat="46.19877" lon="6.5428">
        <ele>1667</ele>
        <time>2010-09-11T10:48:50Z</time>
      </trkpt>
      <trkpt lat="46.19872" lon="6.54282">
        <ele>1667</ele>
        <time>2010-09-11T10:48:57Z</time>
      </trkpt>
      <trkpt lat="46.19865" lon="6.5428">
        <ele>1666</ele>
        <time>2010-09-11T10:49:02Z</time>
      </trkpt>
      <trkpt lat="46.19862" lon="6.54279">
        <ele>1665</ele>
        <time>2010-09-11T10:49:07Z</time>
      </trkpt>
      <trkpt lat="46.19859" lon="6.54271">
        <ele>1663</ele>
        <time>2010-09-11T10:49:13Z</time>
      </trkpt>
      <trkpt lat="46.19856" lon="6.5427">
        <ele>1662</ele>
        <time>2010-09-11T10:49:15Z</time>
      </trkpt>
      <trkpt lat="46.19849" lon="6.54261">
        <ele>1657</ele>
        <time>2010-09-11T10:49:21Z</time>
      </trkpt>
      <trkpt lat="46.19848" lon="6.54258">
        <ele>1656</ele>
        <time>2010-09-11T10:49:24Z</time>
      </trkpt>
      <trkpt lat="46.19848" lon="6.54258">
        <ele>1656</ele>
        <time>2010-09-11T10:49:31Z</time>
      </trkpt>
      <trkpt lat="46.19845" lon="6.54258">
        <ele>1655</ele>
        <time>2010-09-11T10:49:35Z</time>
      </trkpt>
      <trkpt lat="46.19843" lon="6.54257">
        <ele>1654</ele>
        <time>2010-09-11T10:49:37Z</time>
      </trkpt>
      <trkpt lat="46.19841" lon="6.54256">
        <ele>1652</ele>
        <time>2010-09-11T10:49:39Z</time>
      </trkpt>
      <trkpt lat="46.19837" lon="6.54254">
        <ele>1648</ele>
        <time>2010-09-11T10:49:43Z</time>
      </trkpt>
      <trkpt lat="46.19831" lon="6.54249">
        <ele>1641</ele>
        <time>2010-09-11T10:49:49Z</time>
      </trkpt>
      <trkpt lat="46.19831" lon="6.54249">
        <ele>1641</ele>
        <time>2010-09-11T10:49:51Z</time>
      </trkpt>
      <trkpt lat="46.1982" lon="6.54244">
        <ele>1631</ele>
        <time>2010-09-11T10:49:58Z</time>
      </trkpt>
      <trkpt lat="46.19818" lon="6.5424">
        <ele>1629</ele>
        <time>2010-09-11T10:50:02Z</time>
      </trkpt>
      <trkpt lat="46.19809" lon="6.5424">
        <ele>1625</ele>
        <time>2010-09-11T10:50:09Z</time>
      </trkpt>
      <trkpt lat="46.19799" lon="6.54234">
        <ele>1621</ele>
        <time>2010-09-11T10:50:15Z</time>
      </trkpt>
      <trkpt lat="46.19798" lon="6.54232">
        <ele>1620</ele>
        <time>2010-09-11T10:50:17Z</time>
      </trkpt>
      <trkpt lat="46.19794" lon="6.5423">
        <ele>1619</ele>
        <time>2010-09-11T10:50:21Z</time>
      </trkpt>
      <trkpt lat="46.19789" lon="6.54229">
        <ele>1618</ele>
        <time>2010-09-11T10:50:25Z</time>
      </trkpt>
      <trkpt lat="46.19786" lon="6.54227">
        <ele>1617</ele>
        <time>2010-09-11T10:50:29Z</time>
      </trkpt>
      <trkpt lat="46.1979" lon="6.54218">
        <ele>1616</ele>
        <time>2010-09-11T10:50:35Z</time>
      </trkpt>
      <trkpt lat="46.1979" lon="6.54218">
        <ele>1616</ele>
        <time>2010-09-11T10:50:36Z</time>
      </trkpt>
      <trkpt lat="46.19787" lon="6.54208">
        <ele>1614</ele>
        <time>2010-09-11T10:50:42Z</time>
      </trkpt>
      <trkpt lat="46.19787" lon="6.54207">
        <ele>1613</ele>
        <time>2010-09-11T10:50:43Z</time>
      </trkpt>
      <trkpt lat="46.19781" lon="6.54204">
        <ele>1612</ele>
        <time>2010-09-11T10:50:49Z</time>
      </trkpt>
      <trkpt lat="46.19777" lon="6.54198">
        <ele>1610</ele>
        <time>2010-09-11T10:50:56Z</time>
      </trkpt>
      <trkpt lat="46.19776" lon="6.5419">
        <ele>1608</ele>
        <time>2010-09-11T10:51:02Z</time>
      </trkpt>
      <trkpt lat="46.19775" lon="6.54189">
        <ele>1607</ele>
        <time>2010-09-11T10:51:03Z</time>
      </trkpt>
      <trkpt lat="46.1977" lon="6.54187">
        <ele>1606</ele>
        <time>2010-09-11T10:51:07Z</time>
      </trkpt>
      <trkpt lat="46.19769" lon="6.54185">
        <ele>1605</ele>
        <time>2010-09-11T10:51:09Z</time>
      </trkpt>
      <trkpt lat="46.19761" lon="6.54181">
        <ele>1601</ele>
        <time>2010-09-11T10:51:14Z</time>
      </trkpt>
      <trkpt lat="46.19762" lon="6.54178">
        <ele>1600</ele>
        <time>2010-09-11T10:51:23Z</time>
      </trkpt>
      <trkpt lat="46.19762" lon="6.54177">
        <ele>1600</ele>
        <time>2010-09-11T10:51:24Z</time>
      </trkpt>
      <trkpt lat="46.19759" lon="6.5417">
        <ele>1596</ele>
        <time>2010-09-11T10:51:28Z</time>
      </trkpt>
      <trkpt lat="46.1976" lon="6.54158">
        <ele>1584</ele>
        <time>2010-09-11T10:51:32Z</time>
      </trkpt>
      <trkpt lat="46.19761" lon="6.54156">
        <ele>1584</ele>
        <time>2010-09-11T10:51:36Z</time>
      </trkpt>
      <trkpt lat="46.19758" lon="6.54154">
        <ele>1584</ele>
        <time>2010-09-11T10:51:38Z</time>
      </trkpt>
      <trkpt lat="46.19756" lon="6.5415">
        <ele>1583</ele>
        <time>2010-09-11T10:51:45Z</time>
      </trkpt>
      <trkpt lat="46.19758" lon="6.54144">
        <ele>1582</ele>
        <time>2010-09-11T10:51:51Z</time>
      </trkpt>
      <trkpt lat="46.19759" lon="6.54141">
        <ele>1581</ele>
        <time>2010-09-11T10:51:57Z</time>
      </trkpt>
      <trkpt lat="46.1976" lon="6.54137">
        <ele>1580</ele>
        <time>2010-09-11T10:52:00Z</time>
      </trkpt>
      <trkpt lat="46.19763" lon="6.54128">
        <ele>1578</ele>
        <time>2010-09-11T10:52:04Z</time>
      </trkpt>
      <trkpt lat="46.1977" lon="6.54111">
        <ele>1574</ele>
        <time>2010-09-11T10:52:10Z</time>
      </trkpt>
      <trkpt lat="46.19773" lon="6.54104">
        <ele>1572</ele>
        <time>2010-09-11T10:52:13Z</time>
      </trkpt>
      <trkpt lat="46.19776" lon="6.54095">
        <ele>1571</ele>
        <time>2010-09-11T10:52:18Z</time>
      </trkpt>
      <trkpt lat="46.19774" lon="6.54093">
        <ele>1570</ele>
        <time>2010-09-11T10:52:19Z</time>
      </trkpt>
      <trkpt lat="46.19771" lon="6.54084">
        <ele>1568</ele>
        <time>2010-09-11T10:52:23Z</time>
      </trkpt>
      <trkpt lat="46.19772" lon="6.5407">
        <ele>1555</ele>
        <time>2010-09-11T10:52:29Z</time>
      </trkpt>
      <trkpt lat="46.19775" lon="6.54066">
        <ele>1555</ele>
        <time>2010-09-11T10:52:32Z</time>
      </trkpt>
      <trkpt lat="46.1978" lon="6.54058">
        <ele>1555</ele>
        <time>2010-09-11T10:52:36Z</time>
      </trkpt>
      <trkpt lat="46.19782" lon="6.54053">
        <ele>1555</ele>
        <time>2010-09-11T10:52:40Z</time>
      </trkpt>
      <trkpt lat="46.19782" lon="6.54045">
        <ele>1554</ele>
        <time>2010-09-11T10:52:45Z</time>
      </trkpt>
      <trkpt lat="46.19783" lon="6.5404">
        <ele>1553</ele>
        <time>2010-09-11T10:52:47Z</time>
      </trkpt>
      <trkpt lat="46.19784" lon="6.54028">
        <ele>1552</ele>
        <time>2010-09-11T10:52:52Z</time>
      </trkpt>
      <trkpt lat="46.19784" lon="6.54024">
        <ele>1551</ele>
        <time>2010-09-11T10:52:54Z</time>
      </trkpt>
      <trkpt lat="46.19778" lon="6.54021">
        <ele>1549</ele>
        <time>2010-09-11T10:52:58Z</time>
      </trkpt>
      <trkpt lat="46.19772" lon="6.54018">
        <ele>1547</ele>
        <time>2010-09-11T10:53:04Z</time>
      </trkpt>
      <trkpt lat="46.19771" lon="6.54018">
        <ele>1547</ele>
        <time>2010-09-11T10:53:05Z</time>
      </trkpt>
      <trkpt lat="46.19768" lon="6.54019">
        <ele>1547</ele>
        <time>2010-09-11T10:53:10Z</time>
      </trkpt>
      <trkpt lat="46.19766" lon="6.54019">
        <ele>1546</ele>
        <time>2010-09-11T10:53:15Z</time>
      </trkpt>
      <trkpt lat="46.19762" lon="6.54019">
        <ele>1545</ele>
        <time>2010-09-11T10:53:19Z</time>
      </trkpt>
      <trkpt lat="46.19762" lon="6.54018">
        <ele>1545</ele>
        <time>2010-09-11T10:53:21Z</time>
      </trkpt>
      <trkpt lat="46.19764" lon="6.54013">
        <ele>1544</ele>
        <time>2010-09-11T10:53:24Z</time>
      </trkpt>
      <trkpt lat="46.19759" lon="6.54008">
        <ele>1541</ele>
        <time>2010-09-11T10:53:28Z</time>
      </trkpt>
      <trkpt lat="46.19748" lon="6.54004">
        <ele>1531</ele>
        <time>2010-09-11T10:53:33Z</time>
      </trkpt>
      <trkpt lat="46.19743" lon="6.54003">
        <ele>1530</ele>
        <time>2010-09-11T10:53:35Z</time>
      </trkpt>
      <trkpt lat="46.19738" lon="6.54002">
        <ele>1530</ele>
        <time>2010-09-11T10:53:37Z</time>
      </trkpt>
      <trkpt lat="46.19731" lon="6.53997">
        <ele>1519</ele>
        <time>2010-09-11T10:53:41Z</time>
      </trkpt>
      <trkpt lat="46.19718" lon="6.53996">
        <ele>1515</ele>
        <time>2010-09-11T10:53:46Z</time>
      </trkpt>
      <trkpt lat="46.19711" lon="6.53983">
        <ele>1512</ele>
        <time>2010-09-11T10:53:52Z</time>
      </trkpt>
      <trkpt lat="46.1971" lon="6.53973">
        <ele>1511</ele>
        <time>2010-09-11T10:53:57Z</time>
      </trkpt>
      <trkpt lat="46.19709" lon="6.53972">
        <ele>1511</ele>
        <time>2010-09-11T10:53:59Z</time>
      </trkpt>
      <trkpt lat="46.19708" lon="6.53961">
        <ele>1510</ele>
        <time>2010-09-11T10:54:04Z</time>
      </trkpt>
      <trkpt lat="46.1971" lon="6.53954">
        <ele>1509</ele>
        <time>2010-09-11T10:54:06Z</time>
      </trkpt>
      <trkpt lat="46.19712" lon="6.53924">
        <ele>1508</ele>
        <time>2010-09-11T10:54:13Z</time>
      </trkpt>
      <trkpt lat="46.19715" lon="6.53905">
        <ele>1500</ele>
        <time>2010-09-11T10:54:17Z</time>
      </trkpt>
      <trkpt lat="46.19718" lon="6.53886">
        <ele>1499</ele>
        <time>2010-09-11T10:54:21Z</time>
      </trkpt>
      <trkpt lat="46.19727" lon="6.53861">
        <ele>1497</ele>
        <time>2010-09-11T10:54:27Z</time>
      </trkpt>
      <trkpt lat="46.19737" lon="6.53844">
        <ele>1497</ele>
        <time>2010-09-11T10:54:32Z</time>
      </trkpt>
      <trkpt lat="46.19742" lon="6.5384">
        <ele>1498</ele>
        <time>2010-09-11T10:54:36Z</time>
      </trkpt>
      <trkpt lat="46.19742" lon="6.53838">
        <ele>1497</ele>
        <time>2010-09-11T10:54:43Z</time>
      </trkpt>
      <trkpt lat="46.19746" lon="6.53825">
        <ele>1493</ele>
        <time>2010-09-11T10:54:48Z</time>
      </trkpt>
      <trkpt lat="46.19752" lon="6.53808">
        <ele>1491</ele>
        <time>2010-09-11T10:54:54Z</time>
      </trkpt>
      <trkpt lat="46.19757" lon="6.53798">
        <ele>1489</ele>
        <time>2010-09-11T10:54:59Z</time>
      </trkpt>
      <trkpt lat="46.19757" lon="6.53792">
        <ele>1488</ele>
        <time>2010-09-11T10:55:01Z</time>
      </trkpt>
      <trkpt lat="46.19756" lon="6.53767">
        <ele>1483</ele>
        <time>2010-09-11T10:55:08Z</time>
      </trkpt>
      <trkpt lat="46.19754" lon="6.53754">
        <ele>1479</ele>
        <time>2010-09-11T10:55:11Z</time>
      </trkpt>
      <trkpt lat="46.19762" lon="6.53741">
        <ele>1470</ele>
        <time>2010-09-11T10:55:15Z</time>
      </trkpt>
      <trkpt lat="46.19764" lon="6.5374">
        <ele>1469</ele>
        <time>2010-09-11T10:55:16Z</time>
      </trkpt>
      <trkpt lat="46.19781" lon="6.53734">
        <ele>1466</ele>
        <time>2010-09-11T10:55:22Z</time>
      </trkpt>
      <trkpt lat="46.1979" lon="6.5373">
        <ele>1465</ele>
        <time>2010-09-11T10:55:25Z</time>
      </trkpt>
      <trkpt lat="46.198" lon="6.53731">
        <ele>1465</ele>
        <time>2010-09-11T10:55:28Z</time>
      </trkpt>
      <trkpt lat="46.19815" lon="6.53733">
        <ele>1465</ele>
        <time>2010-09-11T10:55:33Z</time>
      </trkpt>
      <trkpt lat="46.19826" lon="6.53739">
        <ele>1468</ele>
        <time>2010-09-11T10:55:37Z</time>
      </trkpt>
      <trkpt lat="46.19832" lon="6.53741">
        <ele>1470</ele>
        <time>2010-09-11T10:55:39Z</time>
      </trkpt>
      <trkpt lat="46.19847" lon="6.53741">
        <ele>1460</ele>
        <time>2010-09-11T10:55:44Z</time>
      </trkpt>
      <trkpt lat="46.19856" lon="6.53752">
        <ele>1475</ele>
        <time>2010-09-11T10:55:48Z</time>
      </trkpt>
      <trkpt lat="46.19875" lon="6.53772">
        <ele>1475</ele>
        <time>2010-09-11T10:55:55Z</time>
      </trkpt>
      <trkpt lat="46.19891" lon="6.53777">
        <ele>1473</ele>
        <time>2010-09-11T10:56:00Z</time>
      </trkpt>
      <trkpt lat="46.19907" lon="6.53773">
        <ele>1468</ele>
        <time>2010-09-11T10:56:05Z</time>
      </trkpt>
      <trkpt lat="46.19913" lon="6.53767">
        <ele>1464</ele>
        <time>2010-09-11T10:56:07Z</time>
      </trkpt>
      <trkpt lat="46.19927" lon="6.53765">
        <ele>1457</ele>
        <time>2010-09-11T10:56:13Z</time>
      </trkpt>
      <trkpt lat="46.19932" lon="6.53764">
        <ele>1457</ele>
        <time>2010-09-11T10:56:15Z</time>
      </trkpt>
      <trkpt lat="46.19949" lon="6.53766">
        <ele>1459</ele>
        <time>2010-09-11T10:56:20Z</time>
      </trkpt>
      <trkpt lat="46.19962" lon="6.53764">
        <ele>1458</ele>
        <time>2010-09-11T10:56:25Z</time>
      </trkpt>
      <trkpt lat="46.19974" lon="6.53765">
        <ele>1457</ele>
        <time>2010-09-11T10:56:29Z</time>
      </trkpt>
      <trkpt lat="46.19984" lon="6.53765">
        <ele>1455</ele>
        <time>2010-09-11T10:56:32Z</time>
      </trkpt>
      <trkpt lat="46.19994" lon="6.5376">
        <ele>1450</ele>
        <time>2010-09-11T10:56:35Z</time>
      </trkpt>
      <trkpt lat="46.20004" lon="6.53759">
        <ele>1448</ele>
        <time>2010-09-11T10:56:38Z</time>
      </trkpt>
      <trkpt lat="46.20013" lon="6.53759">
        <ele>1451</ele>
        <time>2010-09-11T10:56:42Z</time>
      </trkpt>
      <trkpt lat="46.20016" lon="6.53756">
        <ele>1452</ele>
        <time>2010-09-11T10:56:44Z</time>
      </trkpt>
      <trkpt lat="46.20025" lon="6.53746">
        <ele>1437</ele>
        <time>2010-09-11T10:56:51Z</time>
      </trkpt>
      <trkpt lat="46.20033" lon="6.53735">
        <ele>1436</ele>
        <time>2010-09-11T10:56:56Z</time>
      </trkpt>
      <trkpt lat="46.20048" lon="6.53723">
        <ele>1436</ele>
        <time>2010-09-11T10:57:02Z</time>
      </trkpt>
      <trkpt lat="46.20053" lon="6.53717">
        <ele>1435</ele>
        <time>2010-09-11T10:57:04Z</time>
      </trkpt>
      <trkpt lat="46.20059" lon="6.53709">
        <ele>1435</ele>
        <time>2010-09-11T10:57:06Z</time>
      </trkpt>
      <trkpt lat="46.20071" lon="6.53705">
        <ele>1435</ele>
        <time>2010-09-11T10:57:11Z</time>
      </trkpt>
      <trkpt lat="46.20077" lon="6.537">
        <ele>1434</ele>
        <time>2010-09-11T10:57:14Z</time>
      </trkpt>
      <trkpt lat="46.20079" lon="6.53701">
        <ele>1434</ele>
        <time>2010-09-11T10:57:17Z</time>
      </trkpt>
      <trkpt lat="46.20067" lon="6.53706">
        <ele>1435</ele>
        <time>2010-09-11T10:57:21Z</time>
      </trkpt>
      <trkpt lat="46.20058" lon="6.53707">
        <ele>1434</ele>
        <time>2010-09-11T10:57:25Z</time>
      </trkpt>
      <trkpt lat="46.20052" lon="6.53707">
        <ele>1434</ele>
        <time>2010-09-11T10:57:28Z</time>
      </trkpt>
      <trkpt lat="46.20044" lon="6.53706">
        <ele>1433</ele>
        <time>2010-09-11T10:57:34Z</time>
      </trkpt>
      <trkpt lat="46.20048" lon="6.53709">
        <ele>1434</ele>
        <time>2010-09-11T10:57:40Z</time>
      </trkpt>
      <trkpt lat="46.20056" lon="6.5371">
        <ele>1435</ele>
        <time>2010-09-11T10:57:47Z</time>
      </trkpt>
      <trkpt lat="46.20064" lon="6.53701">
        <ele>1434</ele>
        <time>2010-09-11T10:57:53Z</time>
      </trkpt>
      <trkpt lat="46.20066" lon="6.53694">
        <ele>1433</ele>
        <time>2010-09-11T10:57:56Z</time>
      </trkpt>
      <trkpt lat="46.20068" lon="6.5369">
        <ele>1432</ele>
        <time>2010-09-11T10:57:59Z</time>
      </trkpt>
      <trkpt lat="46.20072" lon="6.5368">
        <ele>1431</ele>
        <time>2010-09-11T10:58:04Z</time>
      </trkpt>
      <trkpt lat="46.20072" lon="6.53675">
        <ele>1431</ele>
        <time>2010-09-11T10:58:10Z</time>
      </trkpt>
      <trkpt lat="46.20072" lon="6.53674">
        <ele>1431</ele>
        <time>2010-09-11T10:58:19Z</time>
      </trkpt>
      <trkpt lat="46.20074" lon="6.53661">
        <ele>1426</ele>
        <time>2010-09-11T10:58:23Z</time>
      </trkpt>
      <trkpt lat="46.20075" lon="6.53636">
        <ele>1423</ele>
        <time>2010-09-11T10:58:29Z</time>
      </trkpt>
      <trkpt lat="46.20074" lon="6.53611">
        <ele>1422</ele>
        <time>2010-09-11T10:58:35Z</time>
      </trkpt>
      <trkpt lat="46.20073" lon="6.5359">
        <ele>1424</ele>
        <time>2010-09-11T10:58:40Z</time>
      </trkpt>
      <trkpt lat="46.2007" lon="6.53566">
        <ele>1422</ele>
        <time>2010-09-11T10:58:46Z</time>
      </trkpt>
      <trkpt lat="46.20064" lon="6.53548">
        <ele>1420</ele>
        <time>2010-09-11T10:58:50Z</time>
      </trkpt>
      <trkpt lat="46.20058" lon="6.53527">
        <ele>1420</ele>
        <time>2010-09-11T10:58:55Z</time>
      </trkpt>
      <trkpt lat="46.20051" lon="6.53505">
        <ele>1420</ele>
        <time>2010-09-11T10:59:00Z</time>
      </trkpt>
      <trkpt lat="46.20043" lon="6.53487">
        <ele>1420</ele>
        <time>2010-09-11T10:59:05Z</time>
      </trkpt>
      <trkpt lat="46.20034" lon="6.53472">
        <ele>1419</ele>
        <time>2010-09-11T10:59:09Z</time>
      </trkpt>
      <trkpt lat="46.20024" lon="6.53457">
        <ele>1418</ele>
        <time>2010-09-11T10:59:13Z</time>
      </trkpt>
      <trkpt lat="46.20015" lon="6.53443">
        <ele>1416</ele>
        <time>2010-09-11T10:59:17Z</time>
      </trkpt>
      <trkpt lat="46.20003" lon="6.53427">
        <ele>1412</ele>
        <time>2010-09-11T10:59:22Z</time>
      </trkpt>
      <trkpt lat="46.19991" lon="6.53413">
        <ele>1404</ele>
        <time>2010-09-11T10:59:27Z</time>
      </trkpt>
      <trkpt lat="46.19987" lon="6.53392">
        <ele>1400</ele>
        <time>2010-09-11T10:59:32Z</time>
      </trkpt>
      <trkpt lat="46.19985" lon="6.53373">
        <ele>1400</ele>
        <time>2010-09-11T10:59:36Z</time>
      </trkpt>
      <trkpt lat="46.19973" lon="6.53358">
        <ele>1399</ele>
        <time>2010-09-11T10:59:41Z</time>
      </trkpt>
      <trkpt lat="46.19955" lon="6.53344">
        <ele>1395</ele>
        <time>2010-09-11T10:59:48Z</time>
      </trkpt>
      <trkpt lat="46.19944" lon="6.53335">
        <ele>1392</ele>
        <time>2010-09-11T10:59:52Z</time>
      </trkpt>
      <trkpt lat="46.19932" lon="6.53323">
        <ele>1392</ele>
        <time>2010-09-11T10:59:57Z</time>
      </trkpt>
      <trkpt lat="46.19926" lon="6.53306">
        <ele>1394</ele>
        <time>2010-09-11T11:00:02Z</time>
      </trkpt>
      <trkpt lat="46.19923" lon="6.53299">
        <ele>1395</ele>
        <time>2010-09-11T11:00:06Z</time>
      </trkpt>
      <trkpt lat="46.19916" lon="6.53289">
        <ele>1378</ele>
        <time>2010-09-11T11:00:12Z</time>
      </trkpt>
      <trkpt lat="46.19904" lon="6.53277">
        <ele>1378</ele>
        <time>2010-09-11T11:00:17Z</time>
      </trkpt>
      <trkpt lat="46.19895" lon="6.53259">
        <ele>1379</ele>
        <time>2010-09-11T11:00:22Z</time>
      </trkpt>
      <trkpt lat="46.19889" lon="6.53247">
        <ele>1379</ele>
        <time>2010-09-11T11:00:25Z</time>
      </trkpt>
      <trkpt lat="46.19886" lon="6.53224">
        <ele>1377</ele>
        <time>2010-09-11T11:00:31Z</time>
      </trkpt>
      <trkpt lat="46.1989" lon="6.53202">
        <ele>1378</ele>
        <time>2010-09-11T11:00:36Z</time>
      </trkpt>
      <trkpt lat="46.19895" lon="6.53187">
        <ele>1380</ele>
        <time>2010-09-11T11:00:40Z</time>
      </trkpt>
      <trkpt lat="46.19897" lon="6.53176">
        <ele>1382</ele>
        <time>2010-09-11T11:00:42Z</time>
      </trkpt>
      <trkpt lat="46.19897" lon="6.53172">
        <ele>1382</ele>
        <time>2010-09-11T11:00:45Z</time>
      </trkpt>
      <trkpt lat="46.19891" lon="6.53158">
        <ele>1381</ele>
        <time>2010-09-11T11:00:50Z</time>
      </trkpt>
      <trkpt lat="46.19883" lon="6.53143">
        <ele>1378</ele>
        <time>2010-09-11T11:00:54Z</time>
      </trkpt>
      <trkpt lat="46.19869" lon="6.53122">
        <ele>1375</ele>
        <time>2010-09-11T11:01:00Z</time>
      </trkpt>
      <trkpt lat="46.19857" lon="6.53105">
        <ele>1373</ele>
        <time>2010-09-11T11:01:05Z</time>
      </trkpt>
      <trkpt lat="46.19846" lon="6.53085">
        <ele>1368</ele>
        <time>2010-09-11T11:01:10Z</time>
      </trkpt>
      <trkpt lat="46.19838" lon="6.53062">
        <ele>1368</ele>
        <time>2010-09-11T11:01:15Z</time>
      </trkpt>
      <trkpt lat="46.19831" lon="6.53043">
        <ele>1348</ele>
        <time>2010-09-11T11:01:19Z</time>
      </trkpt>
      <trkpt lat="46.19831" lon="6.53029">
        <ele>1349</ele>
        <time>2010-09-11T11:01:22Z</time>
      </trkpt>
      <trkpt lat="46.19834" lon="6.53011">
        <ele>1363</ele>
        <time>2010-09-11T11:01:26Z</time>
      </trkpt>
      <trkpt lat="46.19836" lon="6.52997">
        <ele>1359</ele>
        <time>2010-09-11T11:01:29Z</time>
      </trkpt>
      <trkpt lat="46.19838" lon="6.52979">
        <ele>1361</ele>
        <time>2010-09-11T11:01:33Z</time>
      </trkpt>
      <trkpt lat="46.19838" lon="6.52953">
        <ele>1360</ele>
        <time>2010-09-11T11:01:39Z</time>
      </trkpt>
      <trkpt lat="46.19837" lon="6.5293">
        <ele>1355</ele>
        <time>2010-09-11T11:01:44Z</time>
      </trkpt>
      <trkpt lat="46.19834" lon="6.52913">
        <ele>1349</ele>
        <time>2010-09-11T11:01:48Z</time>
      </trkpt>
      <trkpt lat="46.19832" lon="6.52898">
        <ele>1341</ele>
        <time>2010-09-11T11:01:51Z</time>
      </trkpt>
      <trkpt lat="46.1983" lon="6.52881">
        <ele>1337</ele>
        <time>2010-09-11T11:01:54Z</time>
      </trkpt>
      <trkpt lat="46.19827" lon="6.5287">
        <ele>1336</ele>
        <time>2010-09-11T11:01:57Z</time>
      </trkpt>
      <trkpt lat="46.19825" lon="6.52859">
        <ele>1336</ele>
        <time>2010-09-11T11:02:00Z</time>
      </trkpt>
      <trkpt lat="46.1982" lon="6.52844">
        <ele>1336</ele>
        <time>2010-09-11T11:02:04Z</time>
      </trkpt>
      <trkpt lat="46.19812" lon="6.5283">
        <ele>1330</ele>
        <time>2010-09-11T11:02:08Z</time>
      </trkpt>
      <trkpt lat="46.19807" lon="6.52837">
        <ele>1334</ele>
        <time>2010-09-11T11:02:12Z</time>
      </trkpt>
      <trkpt lat="46.19809" lon="6.52859">
        <ele>1333</ele>
        <time>2010-09-11T11:02:17Z</time>
      </trkpt>
      <trkpt lat="46.19812" lon="6.52883">
        <ele>1335</ele>
        <time>2010-09-11T11:02:22Z</time>
      </trkpt>
      <trkpt lat="46.19813" lon="6.52894">
        <ele>1336</ele>
        <time>2010-09-11T11:02:24Z</time>
      </trkpt>
      <trkpt lat="46.19807" lon="6.52918">
        <ele>1340</ele>
        <time>2010-09-11T11:02:29Z</time>
      </trkpt>
      <trkpt lat="46.19801" lon="6.52938">
        <ele>1338</ele>
        <time>2010-09-11T11:02:33Z</time>
      </trkpt>
      <trkpt lat="46.19791" lon="6.5296">
        <ele>1337</ele>
        <time>2010-09-11T11:02:38Z</time>
      </trkpt>
      <trkpt lat="46.19782" lon="6.52983">
        <ele>1335</ele>
        <time>2010-09-11T11:02:43Z</time>
      </trkpt>
      <trkpt lat="46.1977" lon="6.53003">
        <ele>1333</ele>
        <time>2010-09-11T11:02:48Z</time>
      </trkpt>
      <trkpt lat="46.19761" lon="6.53018">
        <ele>1333</ele>
        <time>2010-09-11T11:02:52Z</time>
      </trkpt>
      <trkpt lat="46.19759" lon="6.53035">
        <ele>1335</ele>
        <time>2010-09-11T11:02:56Z</time>
      </trkpt>
      <trkpt lat="46.19759" lon="6.53049">
        <ele>1335</ele>
        <time>2010-09-11T11:03:00Z</time>
      </trkpt>
      <trkpt lat="46.19763" lon="6.53069">
        <ele>1333</ele>
        <time>2010-09-11T11:03:05Z</time>
      </trkpt>
      <trkpt lat="46.19769" lon="6.53085">
        <ele>1334</ele>
        <time>2010-09-11T11:03:09Z</time>
      </trkpt>
      <trkpt lat="46.19774" lon="6.53101">
        <ele>1338</ele>
        <time>2010-09-11T11:03:13Z</time>
      </trkpt>
      <trkpt lat="46.19775" lon="6.53106">
        <ele>1338</ele>
        <time>2010-09-11T11:03:14Z</time>
      </trkpt>
      <trkpt lat="46.19774" lon="6.53107">
        <ele>1338</ele>
        <time>2010-09-11T11:03:18Z</time>
      </trkpt>
      <trkpt lat="46.19774" lon="6.53108">
        <ele>1338</ele>
        <time>2010-09-11T11:03:22Z</time>
      </trkpt>
      <trkpt lat="46.19773" lon="6.53109">
        <ele>1338</ele>
        <time>2010-09-11T11:03:27Z</time>
      </trkpt>
      <trkpt lat="46.1977" lon="6.53106">
        <ele>1337</ele>
        <time>2010-09-11T11:03:53Z</time>
      </trkpt>
      <trkpt lat="46.19768" lon="6.53109">
        <ele>1337</ele>
        <time>2010-09-11T11:03:56Z</time>
      </trkpt>
      <trkpt lat="46.19766" lon="6.53115">
        <ele>1337</ele>
        <time>2010-09-11T11:04:00Z</time>
      </trkpt>
      <trkpt lat="46.19763" lon="6.5312">
        <ele>1337</ele>
        <time>2010-09-11T11:04:02Z</time>
      </trkpt>
      <trkpt lat="46.19751" lon="6.53109">
        <ele>1335</ele>
        <time>2010-09-11T11:04:07Z</time>
      </trkpt>
      <trkpt lat="46.19749" lon="6.5308">
        <ele>1322</ele>
        <time>2010-09-11T11:04:13Z</time>
      </trkpt>
      <trkpt lat="46.19747" lon="6.53059">
        <ele>1314</ele>
        <time>2010-09-11T11:04:18Z</time>
      </trkpt>
      <trkpt lat="46.19741" lon="6.53038">
        <ele>1312</ele>
        <time>2010-09-11T11:04:23Z</time>
      </trkpt>
      <trkpt lat="46.19737" lon="6.5301">
        <ele>1314</ele>
        <time>2010-09-11T11:04:29Z</time>
      </trkpt>
      <trkpt lat="46.1974" lon="6.52992">
        <ele>1314</ele>
        <time>2010-09-11T11:04:33Z</time>
      </trkpt>
      <trkpt lat="46.19746" lon="6.52966">
        <ele>1309</ele>
        <time>2010-09-11T11:04:39Z</time>
      </trkpt>
      <trkpt lat="46.19753" lon="6.52941">
        <ele>1328</ele>
        <time>2010-09-11T11:04:45Z</time>
      </trkpt>
      <trkpt lat="46.19752" lon="6.52916">
        <ele>1318</ele>
        <time>2010-09-11T11:04:50Z</time>
      </trkpt>
      <trkpt lat="46.19749" lon="6.52892">
        <ele>1307</ele>
        <time>2010-09-11T11:04:55Z</time>
      </trkpt>
      <trkpt lat="46.19746" lon="6.52869">
        <ele>1306</ele>
        <time>2010-09-11T11:05:00Z</time>
      </trkpt>
      <trkpt lat="46.19738" lon="6.52844">
        <ele>1308</ele>
        <time>2010-09-11T11:05:06Z</time>
      </trkpt>
      <trkpt lat="46.1973" lon="6.52826">
        <ele>1307</ele>
        <time>2010-09-11T11:05:11Z</time>
      </trkpt>
      <trkpt lat="46.19723" lon="6.52816">
        <ele>1304</ele>
        <time>2010-09-11T11:05:14Z</time>
      </trkpt>
      <trkpt lat="46.19715" lon="6.528">
        <ele>1302</ele>
        <time>2010-09-11T11:05:18Z</time>
      </trkpt>
      <trkpt lat="46.19706" lon="6.52789">
        <ele>1301</ele>
        <time>2010-09-11T11:05:22Z</time>
      </trkpt>
      <trkpt lat="46.19704" lon="6.52786">
        <ele>1300</ele>
        <time>2010-09-11T11:05:23Z</time>
      </trkpt>
      <trkpt lat="46.1969" lon="6.52767">
        <ele>1297</ele>
        <time>2010-09-11T11:05:29Z</time>
      </trkpt>
      <trkpt lat="46.1968" lon="6.52755">
        <ele>1293</ele>
        <time>2010-09-11T11:05:33Z</time>
      </trkpt>
      <trkpt lat="46.19666" lon="6.52742">
        <ele>1282</ele>
        <time>2010-09-11T11:05:38Z</time>
      </trkpt>
      <trkpt lat="46.19661" lon="6.52726">
        <ele>1277</ele>
        <time>2010-09-11T11:05:42Z</time>
      </trkpt>
      <trkpt lat="46.19656" lon="6.52707">
        <ele>1275</ele>
        <time>2010-09-11T11:05:47Z</time>
      </trkpt>
      <trkpt lat="46.19653" lon="6.52699">
        <ele>1275</ele>
        <time>2010-09-11T11:05:50Z</time>
      </trkpt>
      <trkpt lat="46.19643" lon="6.52695">
        <ele>1273</ele>
        <time>2010-09-11T11:05:57Z</time>
      </trkpt>
      <trkpt lat="46.19635" lon="6.52702">
        <ele>1272</ele>
        <time>2010-09-11T11:06:03Z</time>
      </trkpt>
      <trkpt lat="46.19633" lon="6.52708">
        <ele>1272</ele>
        <time>2010-09-11T11:06:14Z</time>
      </trkpt>
      <trkpt lat="46.19633" lon="6.52717">
        <ele>1272</ele>
        <time>2010-09-11T11:06:19Z</time>
      </trkpt>
      <trkpt lat="46.19637" lon="6.52723">
        <ele>1273</ele>
        <time>2010-09-11T11:06:24Z</time>
      </trkpt>
      <trkpt lat="46.19641" lon="6.52734">
        <ele>1275</ele>
        <time>2010-09-11T11:06:27Z</time>
      </trkpt>
      <trkpt lat="46.19644" lon="6.52742">
        <ele>1276</ele>
        <time>2010-09-11T11:06:29Z</time>
      </trkpt>
      <trkpt lat="46.1965" lon="6.52759">
        <ele>1277</ele>
        <time>2010-09-11T11:06:33Z</time>
      </trkpt>
      <trkpt lat="46.19664" lon="6.5278">
        <ele>1275</ele>
        <time>2010-09-11T11:06:38Z</time>
      </trkpt>
      <trkpt lat="46.19676" lon="6.52802">
        <ele>1294</ele>
        <time>2010-09-11T11:06:44Z</time>
      </trkpt>
      <trkpt lat="46.1968" lon="6.52813">
        <ele>1293</ele>
        <time>2010-09-11T11:06:47Z</time>
      </trkpt>
      <trkpt lat="46.19688" lon="6.52831">
        <ele>1293</ele>
        <time>2010-09-11T11:06:51Z</time>
      </trkpt>
      <trkpt lat="46.19694" lon="6.52852">
        <ele>1295</ele>
        <time>2010-09-11T11:06:56Z</time>
      </trkpt>
      <trkpt lat="46.19696" lon="6.52867">
        <ele>1297</ele>
        <time>2010-09-11T11:06:59Z</time>
      </trkpt>
      <trkpt lat="46.19687" lon="6.52887">
        <ele>1295</ele>
        <time>2010-09-11T11:07:04Z</time>
      </trkpt>
      <trkpt lat="46.19678" lon="6.52904">
        <ele>1291</ele>
        <time>2010-09-11T11:07:08Z</time>
      </trkpt>
      <trkpt lat="46.19672" lon="6.52918">
        <ele>1287</ele>
        <time>2010-09-11T11:07:11Z</time>
      </trkpt>
      <trkpt lat="46.19662" lon="6.52936">
        <ele>1276</ele>
        <time>2010-09-11T11:07:15Z</time>
      </trkpt>
      <trkpt lat="46.19656" lon="6.52951">
        <ele>1274</ele>
        <time>2010-09-11T11:07:19Z</time>
      </trkpt>
      <trkpt lat="46.19647" lon="6.52968">
        <ele>1274</ele>
        <time>2010-09-11T11:07:23Z</time>
      </trkpt>
      <trkpt lat="46.19642" lon="6.52974">
        <ele>1273</ele>
        <time>2010-09-11T11:07:25Z</time>
      </trkpt>
      <trkpt lat="46.19636" lon="6.52993">
        <ele>1273</ele>
        <time>2010-09-11T11:07:30Z</time>
      </trkpt>
      <trkpt lat="46.19635" lon="6.52997">
        <ele>1273</ele>
        <time>2010-09-11T11:07:31Z</time>
      </trkpt>
      <trkpt lat="46.19629" lon="6.53023">
        <ele>1273</ele>
        <time>2010-09-11T11:07:37Z</time>
      </trkpt>
      <trkpt lat="46.19623" lon="6.53041">
        <ele>1271</ele>
        <time>2010-09-11T11:07:41Z</time>
      </trkpt>
      <trkpt lat="46.19617" lon="6.53051">
        <ele>1270</ele>
        <time>2010-09-11T11:07:44Z</time>
      </trkpt>
      <trkpt lat="46.19604" lon="6.53072">
        <ele>1266</ele>
        <time>2010-09-11T11:07:50Z</time>
      </trkpt>
      <trkpt lat="46.19605" lon="6.53093">
        <ele>1269</ele>
        <time>2010-09-11T11:07:55Z</time>
      </trkpt>
      <trkpt lat="46.19614" lon="6.53115">
        <ele>1274</ele>
        <time>2010-09-11T11:08:01Z</time>
      </trkpt>
      <trkpt lat="46.19619" lon="6.53128">
        <ele>1276</ele>
        <time>2010-09-11T11:08:04Z</time>
      </trkpt>
      <trkpt lat="46.1962" lon="6.53146">
        <ele>1277</ele>
        <time>2010-09-11T11:08:08Z</time>
      </trkpt>
      <trkpt lat="46.19616" lon="6.53155">
        <ele>1276</ele>
        <time>2010-09-11T11:08:10Z</time>
      </trkpt>
      <trkpt lat="46.19598" lon="6.53163">
        <ele>1272</ele>
        <time>2010-09-11T11:08:15Z</time>
      </trkpt>
      <trkpt lat="46.19579" lon="6.53171">
        <ele>1268</ele>
        <time>2010-09-11T11:08:20Z</time>
      </trkpt>
      <trkpt lat="46.19566" lon="6.53179">
        <ele>1269</ele>
        <time>2010-09-11T11:08:23Z</time>
      </trkpt>
      <trkpt lat="46.19558" lon="6.53183">
        <ele>1269</ele>
        <time>2010-09-11T11:08:25Z</time>
      </trkpt>
      <trkpt lat="46.19542" lon="6.53181">
        <ele>1268</ele>
        <time>2010-09-11T11:08:30Z</time>
      </trkpt>
      <trkpt lat="46.19531" lon="6.53175">
        <ele>1266</ele>
        <time>2010-09-11T11:08:34Z</time>
      </trkpt>
      <trkpt lat="46.19521" lon="6.53163">
        <ele>1253</ele>
        <time>2010-09-11T11:08:38Z</time>
      </trkpt>
      <trkpt lat="46.1951" lon="6.53154">
        <ele>1253</ele>
        <time>2010-09-11T11:08:42Z</time>
      </trkpt>
      <trkpt lat="46.19497" lon="6.53142">
        <ele>1243</ele>
        <time>2010-09-11T11:08:47Z</time>
      </trkpt>
      <trkpt lat="46.19482" lon="6.53137">
        <ele>1241</ele>
        <time>2010-09-11T11:08:52Z</time>
      </trkpt>
      <trkpt lat="46.19467" lon="6.53131">
        <ele>1239</ele>
        <time>2010-09-11T11:08:57Z</time>
      </trkpt>
      <trkpt lat="46.19453" lon="6.53121">
        <ele>1237</ele>
        <time>2010-09-11T11:09:02Z</time>
      </trkpt>
      <trkpt lat="46.19442" lon="6.53121">
        <ele>1236</ele>
        <time>2010-09-11T11:09:06Z</time>
      </trkpt>
      <trkpt lat="46.1943" lon="6.53132">
        <ele>1237</ele>
        <time>2010-09-11T11:09:11Z</time>
      </trkpt>
      <trkpt lat="46.19421" lon="6.53152">
        <ele>1240</ele>
        <time>2010-09-11T11:09:16Z</time>
      </trkpt>
      <trkpt lat="46.19414" lon="6.53176">
        <ele>1243</ele>
        <time>2010-09-11T11:09:21Z</time>
      </trkpt>
      <trkpt lat="46.19402" lon="6.53187">
        <ele>1245</ele>
        <time>2010-09-11T11:09:25Z</time>
      </trkpt>
      <trkpt lat="46.19391" lon="6.53195">
        <ele>1245</ele>
        <time>2010-09-11T11:09:28Z</time>
      </trkpt>
      <trkpt lat="46.19376" lon="6.53208">
        <ele>1246</ele>
        <time>2010-09-11T11:09:33Z</time>
      </trkpt>
      <trkpt lat="46.1937" lon="6.53214">
        <ele>1246</ele>
        <time>2010-09-11T11:09:35Z</time>
      </trkpt>
      <trkpt lat="46.19358" lon="6.5323">
        <ele>1248</ele>
        <time>2010-09-11T11:09:40Z</time>
      </trkpt>
      <trkpt lat="46.19351" lon="6.53222">
        <ele>1246</ele>
        <time>2010-09-11T11:09:44Z</time>
      </trkpt>
      <trkpt lat="46.19351" lon="6.53217">
        <ele>1246</ele>
        <time>2010-09-11T11:09:45Z</time>
      </trkpt>
      <trkpt lat="46.19355" lon="6.53193">
        <ele>1242</ele>
        <time>2010-09-11T11:09:50Z</time>
      </trkpt>
      <trkpt lat="46.19362" lon="6.53174">
        <ele>1240</ele>
        <time>2010-09-11T11:09:55Z</time>
      </trkpt>
      <trkpt lat="46.19372" lon="6.53156">
        <ele>1229</ele>
        <time>2010-09-11T11:10:00Z</time>
      </trkpt>
      <trkpt lat="46.19375" lon="6.53143">
        <ele>1228</ele>
        <time>2010-09-11T11:10:03Z</time>
      </trkpt>
      <trkpt lat="46.19365" lon="6.5313">
        <ele>1226</ele>
        <time>2010-09-11T11:10:08Z</time>
      </trkpt>
      <trkpt lat="46.19359" lon="6.53133">
        <ele>1226</ele>
        <time>2010-09-11T11:10:10Z</time>
      </trkpt>
      <trkpt lat="46.19339" lon="6.53149">
        <ele>1227</ele>
        <time>2010-09-11T11:10:17Z</time>
      </trkpt>
      <trkpt lat="46.19331" lon="6.53162">
        <ele>1225</ele>
        <time>2010-09-11T11:10:21Z</time>
      </trkpt>
      <trkpt lat="46.19322" lon="6.53183">
        <ele>1229</ele>
        <time>2010-09-11T11:10:26Z</time>
      </trkpt>
      <trkpt lat="46.19306" lon="6.53196">
        <ele>1230</ele>
        <time>2010-09-11T11:10:30Z</time>
      </trkpt>
      <trkpt lat="46.193" lon="6.53196">
        <ele>1229</ele>
        <time>2010-09-11T11:10:32Z</time>
      </trkpt>
      <trkpt lat="46.19294" lon="6.53183">
        <ele>1228</ele>
        <time>2010-09-11T11:10:38Z</time>
      </trkpt>
      <trkpt lat="46.19294" lon="6.53178">
        <ele>1227</ele>
        <time>2010-09-11T11:10:42Z</time>
      </trkpt>
      <trkpt lat="46.19297" lon="6.53166">
        <ele>1217</ele>
        <time>2010-09-11T11:10:48Z</time>
      </trkpt>
      <trkpt lat="46.19305" lon="6.53148">
        <ele>1217</ele>
        <time>2010-09-11T11:10:53Z</time>
      </trkpt>
      <trkpt lat="46.19306" lon="6.53141">
        <ele>1217</ele>
        <time>2010-09-11T11:10:55Z</time>
      </trkpt>
      <trkpt lat="46.19308" lon="6.5314">
        <ele>1217</ele>
        <time>2010-09-11T11:10:57Z</time>
      </trkpt>
      <trkpt lat="46.19307" lon="6.53138">
        <ele>1217</ele>
        <time>2010-09-11T11:11:02Z</time>
      </trkpt>
      <trkpt lat="46.19311" lon="6.53136">
        <ele>1217</ele>
        <time>2010-09-11T11:11:07Z</time>
      </trkpt>
      <trkpt lat="46.19312" lon="6.53135">
        <ele>1217</ele>
        <time>2010-09-11T11:11:08Z</time>
      </trkpt>
      <trkpt lat="46.19314" lon="6.53129">
        <ele>1216</ele>
        <time>2010-09-11T11:11:14Z</time>
      </trkpt>
      <trkpt lat="46.19312" lon="6.53123">
        <ele>1216</ele>
        <time>2010-09-11T11:11:25Z</time>
      </trkpt>
      <trkpt lat="46.1931" lon="6.53122">
        <ele>1216</ele>
        <time>2010-09-11T11:11:30Z</time>
      </trkpt>
      <trkpt lat="46.1931" lon="6.5312">
        <ele>1215</ele>
        <time>2010-09-11T11:11:35Z</time>
      </trkpt>
      <trkpt lat="46.19318" lon="6.53109">
        <ele>1215</ele>
        <time>2010-09-11T11:11:43Z</time>
      </trkpt>
      <trkpt lat="46.19323" lon="6.53099">
        <ele>1215</ele>
        <time>2010-09-11T11:11:45Z</time>
      </trkpt>
      <trkpt lat="46.19334" lon="6.53088">
        <ele>1217</ele>
        <time>2010-09-11T11:11:49Z</time>
      </trkpt>
      <trkpt lat="46.1934" lon="6.53081">
        <ele>1214</ele>
        <time>2010-09-11T11:11:52Z</time>
      </trkpt>
      <trkpt lat="46.19346" lon="6.53074">
        <ele>1213</ele>
        <time>2010-09-11T11:11:55Z</time>
      </trkpt>
      <trkpt lat="46.19353" lon="6.53065">
        <ele>1212</ele>
        <time>2010-09-11T11:11:58Z</time>
      </trkpt>
      <trkpt lat="46.19361" lon="6.53042">
        <ele>1209</ele>
        <time>2010-09-11T11:12:03Z</time>
      </trkpt>
      <trkpt lat="46.19372" lon="6.53039">
        <ele>1210</ele>
        <time>2010-09-11T11:12:06Z</time>
      </trkpt>
      <trkpt lat="46.19386" lon="6.53041">
        <ele>1211</ele>
        <time>2010-09-11T11:12:10Z</time>
      </trkpt>
      <trkpt lat="46.19389" lon="6.53041">
        <ele>1211</ele>
        <time>2010-09-11T11:12:11Z</time>
      </trkpt>
      <trkpt lat="46.19405" lon="6.5304">
        <ele>1211</ele>
        <time>2010-09-11T11:12:16Z</time>
      </trkpt>
      <trkpt lat="46.19415" lon="6.53025">
        <ele>1210</ele>
        <time>2010-09-11T11:12:20Z</time>
      </trkpt>
      <trkpt lat="46.1942" lon="6.53021">
        <ele>1215</ele>
        <time>2010-09-11T11:12:22Z</time>
      </trkpt>
      <trkpt lat="46.19429" lon="6.52999">
        <ele>1211</ele>
        <time>2010-09-11T11:12:27Z</time>
      </trkpt>
      <trkpt lat="46.19432" lon="6.5298">
        <ele>1213</ele>
        <time>2010-09-11T11:12:31Z</time>
      </trkpt>
      <trkpt lat="46.19429" lon="6.52959">
        <ele>1213</ele>
        <time>2010-09-11T11:12:35Z</time>
      </trkpt>
      <trkpt lat="46.19428" lon="6.52951">
        <ele>1213</ele>
        <time>2010-09-11T11:12:37Z</time>
      </trkpt>
      <trkpt lat="46.19416" lon="6.52934">
        <ele>1201</ele>
        <time>2010-09-11T11:12:43Z</time>
      </trkpt>
      <trkpt lat="46.19405" lon="6.52926">
        <ele>1201</ele>
        <time>2010-09-11T11:12:47Z</time>
      </trkpt>
      <trkpt lat="46.19402" lon="6.52923">
        <ele>1200</ele>
        <time>2010-09-11T11:12:48Z</time>
      </trkpt>
      <trkpt lat="46.19388" lon="6.52914">
        <ele>1193</ele>
        <time>2010-09-11T11:12:53Z</time>
      </trkpt>
      <trkpt lat="46.19372" lon="6.52901">
        <ele>1189</ele>
        <time>2010-09-11T11:12:59Z</time>
      </trkpt>
      <trkpt lat="46.19364" lon="6.52886">
        <ele>1188</ele>
        <time>2010-09-11T11:13:03Z</time>
      </trkpt>
      <trkpt lat="46.19359" lon="6.52874">
        <ele>1186</ele>
        <time>2010-09-11T11:13:06Z</time>
      </trkpt>
      <trkpt lat="46.19361" lon="6.52851">
        <ele>1185</ele>
        <time>2010-09-11T11:13:11Z</time>
      </trkpt>
      <trkpt lat="46.19366" lon="6.52826">
        <ele>1184</ele>
        <time>2010-09-11T11:13:16Z</time>
      </trkpt>
      <trkpt lat="46.19368" lon="6.52818">
        <ele>1185</ele>
        <time>2010-09-11T11:13:18Z</time>
      </trkpt>
      <trkpt lat="46.19373" lon="6.52803">
        <ele>1186</ele>
        <time>2010-09-11T11:13:22Z</time>
      </trkpt>
      <trkpt lat="46.19373" lon="6.52794">
        <ele>1186</ele>
        <time>2010-09-11T11:13:24Z</time>
      </trkpt>
      <trkpt lat="46.19361" lon="6.52779">
        <ele>1184</ele>
        <time>2010-09-11T11:13:29Z</time>
      </trkpt>
      <trkpt lat="46.19352" lon="6.52776">
        <ele>1183</ele>
        <time>2010-09-11T11:13:32Z</time>
      </trkpt>
      <trkpt lat="46.19342" lon="6.52792">
        <ele>1182</ele>
        <time>2010-09-11T11:13:37Z</time>
      </trkpt>
      <trkpt lat="46.19341" lon="6.52806">
        <ele>1181</ele>
        <time>2010-09-11T11:13:40Z</time>
      </trkpt>
      <trkpt lat="46.19334" lon="6.52827">
        <ele>1176</ele>
        <time>2010-09-11T11:13:45Z</time>
      </trkpt>
      <trkpt lat="46.19327" lon="6.52846">
        <ele>1171</ele>
        <time>2010-09-11T11:13:50Z</time>
      </trkpt>
      <trkpt lat="46.19327" lon="6.52865">
        <ele>1171</ele>
        <time>2010-09-11T11:13:54Z</time>
      </trkpt>
      <trkpt lat="46.19324" lon="6.52879">
        <ele>1171</ele>
        <time>2010-09-11T11:13:57Z</time>
      </trkpt>
      <trkpt lat="46.19312" lon="6.52887">
        <ele>1171</ele>
        <time>2010-09-11T11:14:01Z</time>
      </trkpt>
      <trkpt lat="46.19294" lon="6.52881">
        <ele>1169</ele>
        <time>2010-09-11T11:14:06Z</time>
      </trkpt>
      <trkpt lat="46.19285" lon="6.52869">
        <ele>1168</ele>
        <time>2010-09-11T11:14:10Z</time>
      </trkpt>
      <trkpt lat="46.19273" lon="6.52855">
        <ele>1166</ele>
        <time>2010-09-11T11:14:15Z</time>
      </trkpt>
      <trkpt lat="46.19262" lon="6.52845">
        <ele>1164</ele>
        <time>2010-09-11T11:14:20Z</time>
      </trkpt>
      <trkpt lat="46.19258" lon="6.52833">
        <ele>1161</ele>
        <time>2010-09-11T11:14:23Z</time>
      </trkpt>
      <trkpt lat="46.19259" lon="6.52812">
        <ele>1163</ele>
        <time>2010-09-11T11:14:28Z</time>
      </trkpt>
      <trkpt lat="46.19261" lon="6.52805">
        <ele>1163</ele>
        <time>2010-09-11T11:14:30Z</time>
      </trkpt>
      <trkpt lat="46.1927" lon="6.52795">
        <ele>1164</ele>
        <time>2010-09-11T11:14:34Z</time>
      </trkpt>
      <trkpt lat="46.19276" lon="6.52793">
        <ele>1164</ele>
        <time>2010-09-11T11:14:36Z</time>
      </trkpt>
      <trkpt lat="46.19279" lon="6.5279">
        <ele>1164</ele>
        <time>2010-09-11T11:14:38Z</time>
      </trkpt>
      <trkpt lat="46.19288" lon="6.52782">
        <ele>1165</ele>
        <time>2010-09-11T11:14:42Z</time>
      </trkpt>
      <trkpt lat="46.19291" lon="6.52775">
        <ele>1165</ele>
        <time>2010-09-11T11:14:43Z</time>
      </trkpt>
      <trkpt lat="46.19297" lon="6.52753">
        <ele>1166</ele>
        <time>2010-09-11T11:14:47Z</time>
      </trkpt>
      <trkpt lat="46.1928" lon="6.52741">
        <ele>1163</ele>
        <time>2010-09-11T11:14:52Z</time>
      </trkpt>
      <trkpt lat="46.19268" lon="6.52737">
        <ele>1161</ele>
        <time>2010-09-11T11:14:55Z</time>
      </trkpt>
      <trkpt lat="46.19249" lon="6.52728">
        <ele>1146</ele>
        <time>2010-09-11T11:15:01Z</time>
      </trkpt>
      <trkpt lat="46.19239" lon="6.52721">
        <ele>1144</ele>
        <time>2010-09-11T11:15:05Z</time>
      </trkpt>
      <trkpt lat="46.19226" lon="6.52708">
        <ele>1141</ele>
        <time>2010-09-11T11:15:10Z</time>
      </trkpt>
      <trkpt lat="46.19221" lon="6.52688">
        <ele>1140</ele>
        <time>2010-09-11T11:15:15Z</time>
      </trkpt>
      <trkpt lat="46.19221" lon="6.52671">
        <ele>1140</ele>
        <time>2010-09-11T11:15:19Z</time>
      </trkpt>
      <trkpt lat="46.19215" lon="6.52655">
        <ele>1132</ele>
        <time>2010-09-11T11:15:23Z</time>
      </trkpt>
      <trkpt lat="46.19209" lon="6.52634">
        <ele>1130</ele>
        <time>2010-09-11T11:15:28Z</time>
      </trkpt>
      <trkpt lat="46.19208" lon="6.52621">
        <ele>1129</ele>
        <time>2010-09-11T11:15:31Z</time>
      </trkpt>
      <trkpt lat="46.19213" lon="6.52606">
        <ele>1129</ele>
        <time>2010-09-11T11:15:34Z</time>
      </trkpt>
      <trkpt lat="46.19219" lon="6.52591">
        <ele>1131</ele>
        <time>2010-09-11T11:15:39Z</time>
      </trkpt>
      <trkpt lat="46.1923" lon="6.52572">
        <ele>1125</ele>
        <time>2010-09-11T11:15:44Z</time>
      </trkpt>
      <trkpt lat="46.1924" lon="6.52555">
        <ele>1122</ele>
        <time>2010-09-11T11:15:48Z</time>
      </trkpt>
      <trkpt lat="46.19249" lon="6.52543">
        <ele>1120</ele>
        <time>2010-09-11T11:15:52Z</time>
      </trkpt>
      <trkpt lat="46.19264" lon="6.52535">
        <ele>1139</ele>
        <time>2010-09-11T11:15:57Z</time>
      </trkpt>
      <trkpt lat="46.19269" lon="6.52529">
        <ele>1138</ele>
        <time>2010-09-11T11:15:59Z</time>
      </trkpt>
      <trkpt lat="46.19282" lon="6.52523">
        <ele>1140</ele>
        <time>2010-09-11T11:16:05Z</time>
      </trkpt>
      <trkpt lat="46.19286" lon="6.52505">
        <ele>1138</ele>
        <time>2010-09-11T11:16:09Z</time>
      </trkpt>
      <trkpt lat="46.19289" lon="6.52491">
        <ele>1124</ele>
        <time>2010-09-11T11:16:12Z</time>
      </trkpt>
      <trkpt lat="46.19296" lon="6.52464">
        <ele>1123</ele>
        <time>2010-09-11T11:16:17Z</time>
      </trkpt>
      <trkpt lat="46.19298" lon="6.52455">
        <ele>1122</ele>
        <time>2010-09-11T11:16:19Z</time>
      </trkpt>
      <trkpt lat="46.19302" lon="6.52437">
        <ele>1121</ele>
        <time>2010-09-11T11:16:23Z</time>
      </trkpt>
      <trkpt lat="46.19311" lon="6.52416">
        <ele>1115</ele>
        <time>2010-09-11T11:16:28Z</time>
      </trkpt>
      <trkpt lat="46.19321" lon="6.52403">
        <ele>1116</ele>
        <time>2010-09-11T11:16:32Z</time>
      </trkpt>
      <trkpt lat="46.19328" lon="6.52383">
        <ele>1113</ele>
        <time>2010-09-11T11:16:37Z</time>
      </trkpt>
      <trkpt lat="46.19329" lon="6.52373">
        <ele>1112</ele>
        <time>2010-09-11T11:16:39Z</time>
      </trkpt>
      <trkpt lat="46.19327" lon="6.52354">
        <ele>1112</ele>
        <time>2010-09-11T11:16:44Z</time>
      </trkpt>
      <trkpt lat="46.19321" lon="6.5234">
        <ele>1112</ele>
        <time>2010-09-11T11:16:48Z</time>
      </trkpt>
      <trkpt lat="46.19316" lon="6.52329">
        <ele>1106</ele>
        <time>2010-09-11T11:16:51Z</time>
      </trkpt>
      <trkpt lat="46.19314" lon="6.52325">
        <ele>1106</ele>
        <time>2010-09-11T11:16:52Z</time>
      </trkpt>
      <trkpt lat="46.19313" lon="6.52305">
        <ele>1103</ele>
        <time>2010-09-11T11:16:57Z</time>
      </trkpt>
      <trkpt lat="46.19318" lon="6.5229">
        <ele>1102</ele>
        <time>2010-09-11T11:17:01Z</time>
      </trkpt>
      <trkpt lat="46.19328" lon="6.52276">
        <ele>1103</ele>
        <time>2010-09-11T11:17:05Z</time>
      </trkpt>
      <trkpt lat="46.19333" lon="6.52268">
        <ele>1105</ele>
        <time>2010-09-11T11:17:08Z</time>
      </trkpt>
      <trkpt lat="46.19334" lon="6.52264">
        <ele>1119</ele>
        <time>2010-09-11T11:17:09Z</time>
      </trkpt>
      <trkpt lat="46.19339" lon="6.52252">
        <ele>1115</ele>
        <time>2010-09-11T11:17:12Z</time>
      </trkpt>
      <trkpt lat="46.19342" lon="6.52237">
        <ele>1115</ele>
        <time>2010-09-11T11:17:16Z</time>
      </trkpt>
      <trkpt lat="46.19342" lon="6.52234">
        <ele>1116</ele>
        <time>2010-09-11T11:17:17Z</time>
      </trkpt>
      <trkpt lat="46.19345" lon="6.52211">
        <ele>1117</ele>
        <time>2010-09-11T11:17:22Z</time>
      </trkpt>
      <trkpt lat="46.19349" lon="6.52192">
        <ele>1115</ele>
        <time>2010-09-11T11:17:26Z</time>
      </trkpt>
      <trkpt lat="46.19354" lon="6.52176">
        <ele>1114</ele>
        <time>2010-09-11T11:17:30Z</time>
      </trkpt>
      <trkpt lat="46.19359" lon="6.52165">
        <ele>1107</ele>
        <time>2010-09-11T11:17:33Z</time>
      </trkpt>
      <trkpt lat="46.19366" lon="6.52157">
        <ele>1108</ele>
        <time>2010-09-11T11:17:37Z</time>
      </trkpt>
      <trkpt lat="46.19374" lon="6.52148">
        <ele>1110</ele>
        <time>2010-09-11T11:17:40Z</time>
      </trkpt>
      <trkpt lat="46.19384" lon="6.52131">
        <ele>1110</ele>
        <time>2010-09-11T11:17:45Z</time>
      </trkpt>
      <trkpt lat="46.19392" lon="6.52111">
        <ele>1110</ele>
        <time>2010-09-11T11:17:50Z</time>
      </trkpt>
      <trkpt lat="46.19398" lon="6.52097">
        <ele>1110</ele>
        <time>2010-09-11T11:17:54Z</time>
      </trkpt>
      <trkpt lat="46.19401" lon="6.52082">
        <ele>1105</ele>
        <time>2010-09-11T11:17:57Z</time>
      </trkpt>
      <trkpt lat="46.19406" lon="6.52067">
        <ele>1103</ele>
        <time>2010-09-11T11:18:01Z</time>
      </trkpt>
      <trkpt lat="46.19409" lon="6.52061">
        <ele>1102</ele>
        <time>2010-09-11T11:18:03Z</time>
      </trkpt>
      <trkpt lat="46.19415" lon="6.52043">
        <ele>1098</ele>
        <time>2010-09-11T11:18:08Z</time>
      </trkpt>
      <trkpt lat="46.19421" lon="6.52036">
        <ele>1115</ele>
        <time>2010-09-11T11:18:11Z</time>
      </trkpt>
      <trkpt lat="46.19427" lon="6.52023">
        <ele>1113</ele>
        <time>2010-09-11T11:18:15Z</time>
      </trkpt>
      <trkpt lat="46.19428" lon="6.5202">
        <ele>1112</ele>
        <time>2010-09-11T11:18:16Z</time>
      </trkpt>
      <trkpt lat="46.19441" lon="6.52009">
        <ele>1114</ele>
        <time>2010-09-11T11:18:21Z</time>
      </trkpt>
      <trkpt lat="46.1945" lon="6.51996">
        <ele>1106</ele>
        <time>2010-09-11T11:18:26Z</time>
      </trkpt>
      <trkpt lat="46.19461" lon="6.51984">
        <ele>1108</ele>
        <time>2010-09-11T11:18:30Z</time>
      </trkpt>
      <trkpt lat="46.19471" lon="6.51974">
        <ele>1109</ele>
        <time>2010-09-11T11:18:34Z</time>
      </trkpt>
      <trkpt lat="46.19477" lon="6.51951">
        <ele>1107</ele>
        <time>2010-09-11T11:18:38Z</time>
      </trkpt>
      <trkpt lat="46.1948" lon="6.51934">
        <ele>1106</ele>
        <time>2010-09-11T11:18:42Z</time>
      </trkpt>
      <trkpt lat="46.19483" lon="6.51917">
        <ele>1107</ele>
        <time>2010-09-11T11:18:46Z</time>
      </trkpt>
      <trkpt lat="46.19488" lon="6.51896">
        <ele>1097</ele>
        <time>2010-09-11T11:18:51Z</time>
      </trkpt>
      <trkpt lat="46.19489" lon="6.51882">
        <ele>1093</ele>
        <time>2010-09-11T11:18:54Z</time>
      </trkpt>
      <trkpt lat="46.19496" lon="6.51871">
        <ele>1092</ele>
        <time>2010-09-11T11:18:58Z</time>
      </trkpt>
      <trkpt lat="46.19509" lon="6.51856">
        <ele>1104</ele>
        <time>2010-09-11T11:19:04Z</time>
      </trkpt>
      <trkpt lat="46.19514" lon="6.51851">
        <ele>1103</ele>
        <time>2010-09-11T11:19:06Z</time>
      </trkpt>
      <trkpt lat="46.19534" lon="6.51841">
        <ele>1105</ele>
        <time>2010-09-11T11:19:13Z</time>
      </trkpt>
      <trkpt lat="46.19547" lon="6.51839">
        <ele>1106</ele>
        <time>2010-09-11T11:19:18Z</time>
      </trkpt>
      <trkpt lat="46.1955" lon="6.5184">
        <ele>1106</ele>
        <time>2010-09-11T11:19:19Z</time>
      </trkpt>
      <trkpt lat="46.1956" lon="6.51842">
        <ele>1107</ele>
        <time>2010-09-11T11:19:23Z</time>
      </trkpt>
      <trkpt lat="46.19569" lon="6.51832">
        <ele>1096</ele>
        <time>2010-09-11T11:19:27Z</time>
      </trkpt>
      <trkpt lat="46.19579" lon="6.51817">
        <ele>1094</ele>
        <time>2010-09-11T11:19:31Z</time>
      </trkpt>
      <trkpt lat="46.19594" lon="6.51796">
        <ele>1089</ele>
        <time>2010-09-11T11:19:37Z</time>
      </trkpt>
      <trkpt lat="46.19607" lon="6.51785">
        <ele>1087</ele>
        <time>2010-09-11T11:19:41Z</time>
      </trkpt>
      <trkpt lat="46.19614" lon="6.51777">
        <ele>1086</ele>
        <time>2010-09-11T11:19:44Z</time>
      </trkpt>
      <trkpt lat="46.19619" lon="6.5177">
        <ele>1085</ele>
        <time>2010-09-11T11:19:47Z</time>
      </trkpt>
      <trkpt lat="46.19627" lon="6.5177">
        <ele>1085</ele>
        <time>2010-09-11T11:19:50Z</time>
      </trkpt>
      <trkpt lat="46.19637" lon="6.51765">
        <ele>1085</ele>
        <time>2010-09-11T11:19:54Z</time>
      </trkpt>
      <trkpt lat="46.1964" lon="6.51764">
        <ele>1085</ele>
        <time>2010-09-11T11:19:55Z</time>
      </trkpt>
      <trkpt lat="46.19652" lon="6.51752">
        <ele>1083</ele>
        <time>2010-09-11T11:20:00Z</time>
      </trkpt>
      <trkpt lat="46.19662" lon="6.5174">
        <ele>1075</ele>
        <time>2010-09-11T11:20:07Z</time>
      </trkpt>
      <trkpt lat="46.19675" lon="6.5173">
        <ele>1074</ele>
        <time>2010-09-11T11:20:15Z</time>
      </trkpt>
      <trkpt lat="46.19685" lon="6.51728">
        <ele>1073</ele>
        <time>2010-09-11T11:20:21Z</time>
      </trkpt>
      <trkpt lat="46.19693" lon="6.51727">
        <ele>1073</ele>
        <time>2010-09-11T11:20:25Z</time>
      </trkpt>
      <trkpt lat="46.197" lon="6.51722">
        <ele>1072</ele>
        <time>2010-09-11T11:20:29Z</time>
      </trkpt>
      <trkpt lat="46.19697" lon="6.51714">
        <ele>1071</ele>
        <time>2010-09-11T11:20:32Z</time>
      </trkpt>
      <trkpt lat="46.19689" lon="6.51708">
        <ele>1070</ele>
        <time>2010-09-11T11:20:35Z</time>
      </trkpt>
      <trkpt lat="46.19684" lon="6.51708">
        <ele>1070</ele>
        <time>2010-09-11T11:20:37Z</time>
      </trkpt>
      <trkpt lat="46.19668" lon="6.51713">
        <ele>1071</ele>
        <time>2010-09-11T11:20:42Z</time>
      </trkpt>
      <trkpt lat="46.1965" lon="6.51713">
        <ele>1068</ele>
        <time>2010-09-11T11:20:48Z</time>
      </trkpt>
      <trkpt lat="46.19637" lon="6.51711">
        <ele>1067</ele>
        <time>2010-09-11T11:20:52Z</time>
      </trkpt>
      <trkpt lat="46.19625" lon="6.51711">
        <ele>1066</ele>
        <time>2010-09-11T11:20:56Z</time>
      </trkpt>
      <trkpt lat="46.19613" lon="6.51711">
        <ele>1066</ele>
        <time>2010-09-11T11:21:00Z</time>
      </trkpt>
      <trkpt lat="46.19597" lon="6.5171">
        <ele>1065</ele>
        <time>2010-09-11T11:21:05Z</time>
      </trkpt>
      <trkpt lat="46.19578" lon="6.51713">
        <ele>1063</ele>
        <time>2010-09-11T11:21:10Z</time>
      </trkpt>
      <trkpt lat="46.19561" lon="6.51715">
        <ele>1064</ele>
        <time>2010-09-11T11:21:15Z</time>
      </trkpt>
      <trkpt lat="46.19548" lon="6.51713">
        <ele>1063</ele>
        <time>2010-09-11T11:21:19Z</time>
      </trkpt>
      <trkpt lat="46.19538" lon="6.5171">
        <ele>1063</ele>
        <time>2010-09-11T11:21:23Z</time>
      </trkpt>
      <trkpt lat="46.19535" lon="6.5171">
        <ele>1063</ele>
        <time>2010-09-11T11:21:24Z</time>
      </trkpt>
      <trkpt lat="46.19521" lon="6.51713">
        <ele>1064</ele>
        <time>2010-09-11T11:21:29Z</time>
      </trkpt>
      <trkpt lat="46.19518" lon="6.51706">
        <ele>1062</ele>
        <time>2010-09-11T11:21:32Z</time>
      </trkpt>
      <trkpt lat="46.1952" lon="6.5169">
        <ele>1059</ele>
        <time>2010-09-11T11:21:36Z</time>
      </trkpt>
      <trkpt lat="46.1953" lon="6.51679">
        <ele>1059</ele>
        <time>2010-09-11T11:21:40Z</time>
      </trkpt>
      <trkpt lat="46.19537" lon="6.51678">
        <ele>1059</ele>
        <time>2010-09-11T11:21:42Z</time>
      </trkpt>
      <trkpt lat="46.19544" lon="6.51677">
        <ele>1059</ele>
        <time>2010-09-11T11:21:44Z</time>
      </trkpt>
      <trkpt lat="46.19558" lon="6.51668">
        <ele>1058</ele>
        <time>2010-09-11T11:21:49Z</time>
      </trkpt>
      <trkpt lat="46.19573" lon="6.51657">
        <ele>1049</ele>
        <time>2010-09-11T11:21:54Z</time>
      </trkpt>
      <trkpt lat="46.19586" lon="6.51643">
        <ele>1049</ele>
        <time>2010-09-11T11:21:59Z</time>
      </trkpt>
      <trkpt lat="46.19597" lon="6.51638">
        <ele>1048</ele>
        <time>2010-09-11T11:22:03Z</time>
      </trkpt>
      <trkpt lat="46.19609" lon="6.5163">
        <ele>1047</ele>
        <time>2010-09-11T11:22:08Z</time>
      </trkpt>
      <trkpt lat="46.19625" lon="6.51625">
        <ele>1046</ele>
        <time>2010-09-11T11:22:13Z</time>
      </trkpt>
      <trkpt lat="46.1964" lon="6.51622">
        <ele>1046</ele>
        <time>2010-09-11T11:22:18Z</time>
      </trkpt>
      <trkpt lat="46.19652" lon="6.51619">
        <ele>1045</ele>
        <time>2010-09-11T11:22:22Z</time>
      </trkpt>
      <trkpt lat="46.19655" lon="6.51616">
        <ele>1045</ele>
        <time>2010-09-11T11:22:23Z</time>
      </trkpt>
      <trkpt lat="46.19668" lon="6.51614">
        <ele>1046</ele>
        <time>2010-09-11T11:22:27Z</time>
      </trkpt>
      <trkpt lat="46.19675" lon="6.51611">
        <ele>1045</ele>
        <time>2010-09-11T11:22:29Z</time>
      </trkpt>
      <trkpt lat="46.19692" lon="6.51605">
        <ele>1045</ele>
        <time>2010-09-11T11:22:35Z</time>
      </trkpt>
      <trkpt lat="46.19704" lon="6.51597">
        <ele>1045</ele>
        <time>2010-09-11T11:22:39Z</time>
      </trkpt>
      <trkpt lat="46.19714" lon="6.51593">
        <ele>1045</ele>
        <time>2010-09-11T11:22:42Z</time>
      </trkpt>
      <trkpt lat="46.19731" lon="6.51582">
        <ele>1033</ele>
        <time>2010-09-11T11:22:47Z</time>
      </trkpt>
      <trkpt lat="46.19744" lon="6.51582">
        <ele>1036</ele>
        <time>2010-09-11T11:22:51Z</time>
      </trkpt>
      <trkpt lat="46.19753" lon="6.51579">
        <ele>1036</ele>
        <time>2010-09-11T11:22:54Z</time>
      </trkpt>
      <trkpt lat="46.19767" lon="6.51579">
        <ele>1032</ele>
        <time>2010-09-11T11:22:58Z</time>
      </trkpt>
      <trkpt lat="46.1977" lon="6.51578">
        <ele>1031</ele>
        <time>2010-09-11T11:22:59Z</time>
      </trkpt>
      <trkpt lat="46.19775" lon="6.51579">
        <ele>1030</ele>
        <time>2010-09-11T11:23:01Z</time>
      </trkpt>
      <trkpt lat="46.19788" lon="6.51575">
        <ele>1029</ele>
        <time>2010-09-11T11:23:06Z</time>
      </trkpt>
      <trkpt lat="46.19791" lon="6.51575">
        <ele>1028</ele>
        <time>2010-09-11T11:23:07Z</time>
      </trkpt>
      <trkpt lat="46.19812" lon="6.51577">
        <ele>1028</ele>
        <time>2010-09-11T11:23:13Z</time>
      </trkpt>
      <trkpt lat="46.19827" lon="6.51582">
        <ele>1029</ele>
        <time>2010-09-11T11:23:17Z</time>
      </trkpt>
      <trkpt lat="46.1984" lon="6.51586">
        <ele>1031</ele>
        <time>2010-09-11T11:23:21Z</time>
      </trkpt>
      <trkpt lat="46.19853" lon="6.51603">
        <ele>1032</ele>
        <time>2010-09-11T11:23:27Z</time>
      </trkpt>
      <trkpt lat="46.19855" lon="6.51605">
        <ele>1032</ele>
        <time>2010-09-11T11:23:28Z</time>
      </trkpt>
      <trkpt lat="46.19862" lon="6.51609">
        <ele>1032</ele>
        <time>2010-09-11T11:23:33Z</time>
      </trkpt>
      <trkpt lat="46.19866" lon="6.51608">
        <ele>1032</ele>
        <time>2010-09-11T11:23:41Z</time>
      </trkpt>
      <trkpt lat="46.19868" lon="6.51602">
        <ele>1031</ele>
        <time>2010-09-11T11:23:46Z</time>
      </trkpt>
      <trkpt lat="46.19869" lon="6.51599">
        <ele>1031</ele>
        <time>2010-09-11T11:23:48Z</time>
      </trkpt>
      <trkpt lat="46.19873" lon="6.51601">
        <ele>1030</ele>
        <time>2010-09-11T11:23:52Z</time>
      </trkpt>
      <trkpt lat="46.19876" lon="6.51603">
        <ele>1030</ele>
        <time>2010-09-11T11:23:58Z</time>
      </trkpt>
      <trkpt lat="46.19877" lon="6.51603">
        <ele>1030</ele>
        <time>2010-09-11T11:24:03Z</time>
      </trkpt>
      <trkpt lat="46.1988" lon="6.51604">
        <ele>1030</ele>
        <time>2010-09-11T11:24:07Z</time>
      </trkpt>
      <trkpt lat="46.1988" lon="6.51612">
        <ele>1031</ele>
        <time>2010-09-11T11:24:12Z</time>
      </trkpt>
      <trkpt lat="46.19881" lon="6.51617">
        <ele>1031</ele>
        <time>2010-09-11T11:24:18Z</time>
      </trkpt>
      <trkpt lat="46.19881" lon="6.51616">
        <ele>1031</ele>
        <time>2010-09-11T11:24:21Z</time>
      </trkpt>
      <trkpt lat="46.19879" lon="6.51608">
        <ele>1030</ele>
        <time>2010-09-11T11:24:25Z</time>
      </trkpt>
      <trkpt lat="46.19877" lon="6.51607">
        <ele>1030</ele>
        <time>2010-09-11T11:24:27Z</time>
      </trkpt>
      <trkpt lat="46.19876" lon="6.51606">
        <ele>1031</ele>
        <time>2010-09-11T11:24:33Z</time>
      </trkpt>
      <trkpt lat="46.1988" lon="6.51607">
        <ele>1030</ele>
        <time>2010-09-11T11:24:38Z</time>
      </trkpt>
      <trkpt lat="46.19886" lon="6.51599">
        <ele>1029</ele>
        <time>2010-09-11T11:24:41Z</time>
      </trkpt>
      <trkpt lat="46.19886" lon="6.51582">
        <ele>1019</ele>
        <time>2010-09-11T11:24:44Z</time>
      </trkpt>
      <trkpt lat="46.19887" lon="6.51571">
        <ele>1018</ele>
        <time>2010-09-11T11:24:47Z</time>
      </trkpt>
      <trkpt lat="46.19887" lon="6.51561">
        <ele>1018</ele>
        <time>2010-09-11T11:24:53Z</time>
      </trkpt>
      <trkpt lat="46.19886" lon="6.51558">
        <ele>1017</ele>
        <time>2010-09-11T11:24:55Z</time>
      </trkpt>
      <trkpt lat="46.19885" lon="6.51556">
        <ele>1017</ele>
        <time>2010-09-11T11:24:57Z</time>
      </trkpt>
      <trkpt lat="46.19886" lon="6.51544">
        <ele>1016</ele>
        <time>2010-09-11T11:25:01Z</time>
      </trkpt>
      <trkpt lat="46.19887" lon="6.51541">
        <ele>1016</ele>
        <time>2010-09-11T11:25:02Z</time>
      </trkpt>
      <trkpt lat="46.19893" lon="6.51522">
        <ele>1014</ele>
        <time>2010-09-11T11:25:08Z</time>
      </trkpt>
      <trkpt lat="46.19898" lon="6.515">
        <ele>1011</ele>
        <time>2010-09-11T11:25:14Z</time>
      </trkpt>
      <trkpt lat="46.199" lon="6.51482">
        <ele>1004</ele>
        <time>2010-09-11T11:25:19Z</time>
      </trkpt>
      <trkpt lat="46.19903" lon="6.51463">
        <ele>1002</ele>
        <time>2010-09-11T11:25:24Z</time>
      </trkpt>
      <trkpt lat="46.1991" lon="6.51453">
        <ele>1001</ele>
        <time>2010-09-11T11:25:28Z</time>
      </trkpt>
      <trkpt lat="46.19918" lon="6.51431">
        <ele>996</ele>
        <time>2010-09-11T11:25:34Z</time>
      </trkpt>
      <trkpt lat="46.19922" lon="6.51413">
        <ele>992</ele>
        <time>2010-09-11T11:25:39Z</time>
      </trkpt>
      <trkpt lat="46.19925" lon="6.51395">
        <ele>990</ele>
        <time>2010-09-11T11:25:45Z</time>
      </trkpt>
      <trkpt lat="46.1992" lon="6.51378">
        <ele>988</ele>
        <time>2010-09-11T11:25:52Z</time>
      </trkpt>
      <trkpt lat="46.19921" lon="6.51367">
        <ele>987</ele>
        <time>2010-09-11T11:25:56Z</time>
      </trkpt>
      <trkpt lat="46.19925" lon="6.51364">
        <ele>987</ele>
        <time>2010-09-11T11:26:00Z</time>
      </trkpt>
      <trkpt lat="46.19926" lon="6.51363">
        <ele>987</ele>
        <time>2010-09-11T11:26:02Z</time>
      </trkpt>
      <trkpt lat="46.19929" lon="6.5136">
        <ele>986</ele>
        <time>2010-09-11T11:26:06Z</time>
      </trkpt>
      <trkpt lat="46.19938" lon="6.51366">
        <ele>987</ele>
        <time>2010-09-11T11:26:12Z</time>
      </trkpt>
      <trkpt lat="46.19939" lon="6.51367">
        <ele>987</ele>
        <time>2010-09-11T11:26:13Z</time>
      </trkpt>
      <trkpt lat="46.19951" lon="6.51371">
        <ele>988</ele>
        <time>2010-09-11T11:26:21Z</time>
      </trkpt>
      <trkpt lat="46.19959" lon="6.51376">
        <ele>988</ele>
        <time>2010-09-11T11:26:27Z</time>
      </trkpt>
      <trkpt lat="46.19962" lon="6.51379">
        <ele>988</ele>
        <time>2010-09-11T11:26:30Z</time>
      </trkpt>
      <trkpt lat="46.19975" lon="6.51388">
        <ele>989</ele>
        <time>2010-09-11T11:26:35Z</time>
      </trkpt>
      <trkpt lat="46.19988" lon="6.5139">
        <ele>990</ele>
        <time>2010-09-11T11:26:39Z</time>
      </trkpt>
      <trkpt lat="46.19995" lon="6.51388">
        <ele>990</ele>
        <time>2010-09-11T11:26:42Z</time>
      </trkpt>
      <trkpt lat="46.19999" lon="6.51383">
        <ele>989</ele>
        <time>2010-09-11T11:26:45Z</time>
      </trkpt>
      <trkpt lat="46.2" lon="6.51371">
        <ele>995</ele>
        <time>2010-09-11T11:26:51Z</time>
      </trkpt>
      <trkpt lat="46.20003" lon="6.51358">
        <ele>993</ele>
        <time>2010-09-11T11:26:56Z</time>
      </trkpt>
      <trkpt lat="46.20007" lon="6.51357">
        <ele>993</ele>
        <time>2010-09-11T11:27:00Z</time>
      </trkpt>
      <trkpt lat="46.20004" lon="6.51352">
        <ele>992</ele>
        <time>2010-09-11T11:27:04Z</time>
      </trkpt>
      <trkpt lat="46.20005" lon="6.51343">
        <ele>989</ele>
        <time>2010-09-11T11:27:09Z</time>
      </trkpt>
      <trkpt lat="46.20007" lon="6.51333">
        <ele>987</ele>
        <time>2010-09-11T11:27:14Z</time>
      </trkpt>
      <trkpt lat="46.20008" lon="6.5132">
        <ele>990</ele>
        <time>2010-09-11T11:27:20Z</time>
      </trkpt>
      <trkpt lat="46.20008" lon="6.51317">
        <ele>991</ele>
        <time>2010-09-11T11:27:22Z</time>
      </trkpt>
      <trkpt lat="46.20011" lon="6.51305">
        <ele>993</ele>
        <time>2010-09-11T11:27:28Z</time>
      </trkpt>
      <trkpt lat="46.20011" lon="6.51299">
        <ele>994</ele>
        <time>2010-09-11T11:27:31Z</time>
      </trkpt>
      <trkpt lat="46.20012" lon="6.51288">
        <ele>995</ele>
        <time>2010-09-11T11:27:37Z</time>
      </trkpt>
      <trkpt lat="46.20013" lon="6.51281">
        <ele>995</ele>
        <time>2010-09-11T11:27:40Z</time>
      </trkpt>
      <trkpt lat="46.20014" lon="6.51262">
        <ele>994</ele>
        <time>2010-09-11T11:27:49Z</time>
      </trkpt>
      <trkpt lat="46.20014" lon="6.51252">
        <ele>993</ele>
        <time>2010-09-11T11:27:54Z</time>
      </trkpt>
      <trkpt lat="46.20013" lon="6.51244">
        <ele>995</ele>
        <time>2010-09-11T11:27:58Z</time>
      </trkpt>
      <trkpt lat="46.20011" lon="6.51231">
        <ele>997</ele>
        <time>2010-09-11T11:28:04Z</time>
      </trkpt>
      <trkpt lat="46.20007" lon="6.5122">
        <ele>998</ele>
        <time>2010-09-11T11:28:10Z</time>
      </trkpt>
      <trkpt lat="46.20004" lon="6.51213">
        <ele>999</ele>
        <time>2010-09-11T11:28:14Z</time>
      </trkpt>
      <trkpt lat="46.20002" lon="6.51209">
        <ele>999</ele>
        <time>2010-09-11T11:28:16Z</time>
      </trkpt>
      <trkpt lat="46.19996" lon="6.51198">
        <ele>988</ele>
        <time>2010-09-11T11:28:23Z</time>
      </trkpt>
      <trkpt lat="46.19994" lon="6.51191">
        <ele>989</ele>
        <time>2010-09-11T11:28:27Z</time>
      </trkpt>
      <trkpt lat="46.19993" lon="6.51186">
        <ele>989</ele>
        <time>2010-09-11T11:28:35Z</time>
      </trkpt>
      <trkpt lat="46.19993" lon="6.51185">
        <ele>989</ele>
        <time>2010-09-11T11:28:36Z</time>
      </trkpt>
      <trkpt lat="46.19984" lon="6.51172">
        <ele>990</ele>
        <time>2010-09-11T11:28:45Z</time>
      </trkpt>
      <trkpt lat="46.19986" lon="6.51174">
        <ele>990</ele>
        <time>2010-09-11T11:28:50Z</time>
      </trkpt>
      <trkpt lat="46.19991" lon="6.51182">
        <ele>989</ele>
        <time>2010-09-11T11:28:56Z</time>
      </trkpt>
      <trkpt lat="46.19995" lon="6.5118">
        <ele>990</ele>
        <time>2010-09-11T11:28:59Z</time>
      </trkpt>
      <trkpt lat="46.19997" lon="6.51177">
        <ele>991</ele>
        <time>2010-09-11T11:29:01Z</time>
      </trkpt>
      <trkpt lat="46.20001" lon="6.51169">
        <ele>995</ele>
        <time>2010-09-11T11:29:06Z</time>
      </trkpt>
      <trkpt lat="46.20002" lon="6.51166">
        <ele>995</ele>
        <time>2010-09-11T11:29:08Z</time>
      </trkpt>
      <trkpt lat="46.19998" lon="6.51156">
        <ele>992</ele>
        <time>2010-09-11T11:29:14Z</time>
      </trkpt>
      <trkpt lat="46.19996" lon="6.51153">
        <ele>992</ele>
        <time>2010-09-11T11:29:16Z</time>
      </trkpt>
      <trkpt lat="46.19989" lon="6.51142">
        <ele>990</ele>
        <time>2010-09-11T11:29:23Z</time>
      </trkpt>
      <trkpt lat="46.19981" lon="6.51131">
        <ele>990</ele>
        <time>2010-09-11T11:29:30Z</time>
      </trkpt>
      <trkpt lat="46.19978" lon="6.51119">
        <ele>990</ele>
        <time>2010-09-11T11:29:36Z</time>
      </trkpt>
      <trkpt lat="46.19975" lon="6.51109">
        <ele>990</ele>
        <time>2010-09-11T11:29:42Z</time>
      </trkpt>
      <trkpt lat="46.19979" lon="6.511">
        <ele>992</ele>
        <time>2010-09-11T11:29:48Z</time>
      </trkpt>
      <trkpt lat="46.1998" lon="6.51098">
        <ele>992</ele>
        <time>2010-09-11T11:29:49Z</time>
      </trkpt>
      <trkpt lat="46.19985" lon="6.51089">
        <ele>994</ele>
        <time>2010-09-11T11:29:53Z</time>
      </trkpt>
      <trkpt lat="46.1999" lon="6.51076">
        <ele>995</ele>
        <time>2010-09-11T11:29:59Z</time>
      </trkpt>
      <trkpt lat="46.19995" lon="6.51066">
        <ele>994</ele>
        <time>2010-09-11T11:30:04Z</time>
      </trkpt>
      <trkpt lat="46.19996" lon="6.51064">
        <ele>994</ele>
        <time>2010-09-11T11:30:05Z</time>
      </trkpt>
      <trkpt lat="46.20006" lon="6.51047">
        <ele>1004</ele>
        <time>2010-09-11T11:30:13Z</time>
      </trkpt>
      <trkpt lat="46.20015" lon="6.51033">
        <ele>1004</ele>
        <time>2010-09-11T11:30:18Z</time>
      </trkpt>
      <trkpt lat="46.20024" lon="6.5102">
        <ele>1004</ele>
        <time>2010-09-11T11:30:23Z</time>
      </trkpt>
      <trkpt lat="46.20031" lon="6.51012">
        <ele>1005</ele>
        <time>2010-09-11T11:30:26Z</time>
      </trkpt>
      <trkpt lat="46.20041" lon="6.51001">
        <ele>1006</ele>
        <time>2010-09-11T11:30:31Z</time>
      </trkpt>
      <trkpt lat="46.20045" lon="6.50997">
        <ele>999</ele>
        <time>2010-09-11T11:30:33Z</time>
      </trkpt>
      <trkpt lat="46.2006" lon="6.50981">
        <ele>1001</ele>
        <time>2010-09-11T11:30:40Z</time>
      </trkpt>
      <trkpt lat="46.20073" lon="6.50967">
        <ele>1000</ele>
        <time>2010-09-11T11:30:46Z</time>
      </trkpt>
      <trkpt lat="46.20077" lon="6.50961">
        <ele>1000</ele>
        <time>2010-09-11T11:30:48Z</time>
      </trkpt>
      <trkpt lat="46.20086" lon="6.50949">
        <ele>1009</ele>
        <time>2010-09-11T11:30:53Z</time>
      </trkpt>
      <trkpt lat="46.20098" lon="6.50932">
        <ele>1007</ele>
        <time>2010-09-11T11:31:00Z</time>
      </trkpt>
      <trkpt lat="46.20105" lon="6.50923">
        <ele>1007</ele>
        <time>2010-09-11T11:31:04Z</time>
      </trkpt>
      <trkpt lat="46.20108" lon="6.50918">
        <ele>1008</ele>
        <time>2010-09-11T11:31:06Z</time>
      </trkpt>
      <trkpt lat="46.20113" lon="6.50914">
        <ele>1001</ele>
        <time>2010-09-11T11:31:12Z</time>
      </trkpt>
      <trkpt lat="46.20116" lon="6.50912">
        <ele>1001</ele>
        <time>2010-09-11T11:31:17Z</time>
      </trkpt>
      <trkpt lat="46.20124" lon="6.5091">
        <ele>1002</ele>
        <time>2010-09-11T11:31:23Z</time>
      </trkpt>
      <trkpt lat="46.20131" lon="6.50907">
        <ele>1003</ele>
        <time>2010-09-11T11:31:29Z</time>
      </trkpt>
      <trkpt lat="46.20139" lon="6.50909">
        <ele>1004</ele>
        <time>2010-09-11T11:31:35Z</time>
      </trkpt>
      <trkpt lat="46.20145" lon="6.50917">
        <ele>1013</ele>
        <time>2010-09-11T11:31:41Z</time>
      </trkpt>
      <trkpt lat="46.20145" lon="6.50933">
        <ele>1013</ele>
        <time>2010-09-11T11:31:49Z</time>
      </trkpt>
      <trkpt lat="46.20145" lon="6.50946">
        <ele>1014</ele>
        <time>2010-09-11T11:31:55Z</time>
      </trkpt>
      <trkpt lat="46.20143" lon="6.50957">
        <ele>1015</ele>
        <time>2010-09-11T11:32:01Z</time>
      </trkpt>
      <trkpt lat="46.20142" lon="6.50961">
        <ele>1015</ele>
        <time>2010-09-11T11:32:03Z</time>
      </trkpt>
      <trkpt lat="46.2014" lon="6.50972">
        <ele>1016</ele>
        <time>2010-09-11T11:32:09Z</time>
      </trkpt>
      <trkpt lat="46.20136" lon="6.50982">
        <ele>1017</ele>
        <time>2010-09-11T11:32:15Z</time>
      </trkpt>
      <trkpt lat="46.20138" lon="6.50985">
        <ele>1018</ele>
        <time>2010-09-11T11:32:18Z</time>
      </trkpt>
      <trkpt lat="46.20146" lon="6.50981">
        <ele>1018</ele>
        <time>2010-09-11T11:32:24Z</time>
      </trkpt>
      <trkpt lat="46.20147" lon="6.5098">
        <ele>1018</ele>
        <time>2010-09-11T11:32:25Z</time>
      </trkpt>
      <trkpt lat="46.20155" lon="6.50973">
        <ele>1018</ele>
        <time>2010-09-11T11:32:32Z</time>
      </trkpt>
      <trkpt lat="46.20164" lon="6.50969">
        <ele>1018</ele>
        <time>2010-09-11T11:32:39Z</time>
      </trkpt>
      <trkpt lat="46.20172" lon="6.50967">
        <ele>1029</ele>
        <time>2010-09-11T11:32:45Z</time>
      </trkpt>
      <trkpt lat="46.20175" lon="6.50966">
        <ele>1029</ele>
        <time>2010-09-11T11:32:47Z</time>
      </trkpt>
      <trkpt lat="46.20181" lon="6.50966">
        <ele>1029</ele>
        <time>2010-09-11T11:32:51Z</time>
      </trkpt>
      <trkpt lat="46.20194" lon="6.50964">
        <ele>1030</ele>
        <time>2010-09-11T11:33:00Z</time>
      </trkpt>
      <trkpt lat="46.20203" lon="6.50963">
        <ele>1031</ele>
        <time>2010-09-11T11:33:06Z</time>
      </trkpt>
      <trkpt lat="46.20211" lon="6.50962">
        <ele>1032</ele>
        <time>2010-09-11T11:33:12Z</time>
      </trkpt>
      <trkpt lat="46.20217" lon="6.50962">
        <ele>1032</ele>
        <time>2010-09-11T11:33:16Z</time>
      </trkpt>
      <trkpt lat="46.20223" lon="6.50959">
        <ele>1033</ele>
        <time>2010-09-11T11:33:21Z</time>
      </trkpt>
      <trkpt lat="46.20226" lon="6.50958">
        <ele>1033</ele>
        <time>2010-09-11T11:33:23Z</time>
      </trkpt>
      <trkpt lat="46.20235" lon="6.5096">
        <ele>1034</ele>
        <time>2010-09-11T11:33:30Z</time>
      </trkpt>
      <trkpt lat="46.20244" lon="6.50959">
        <ele>1034</ele>
        <time>2010-09-11T11:33:37Z</time>
      </trkpt>
      <trkpt lat="46.20246" lon="6.50957">
        <ele>1034</ele>
        <time>2010-09-11T11:33:43Z</time>
      </trkpt>
      <trkpt lat="46.20247" lon="6.50956">
        <ele>1034</ele>
        <time>2010-09-11T11:33:49Z</time>
      </trkpt>
      <trkpt lat="46.20251" lon="6.50957">
        <ele>1044</ele>
        <time>2010-09-11T11:33:55Z</time>
      </trkpt>
      <trkpt lat="46.20258" lon="6.50955">
        <ele>1044</ele>
        <time>2010-09-11T11:34:02Z</time>
      </trkpt>
      <trkpt lat="46.20264" lon="6.50954">
        <ele>1044</ele>
        <time>2010-09-11T11:34:07Z</time>
      </trkpt>
      <trkpt lat="46.20267" lon="6.50954">
        <ele>1044</ele>
        <time>2010-09-11T11:34:09Z</time>
      </trkpt>
      <trkpt lat="46.20279" lon="6.50953">
        <ele>1045</ele>
        <time>2010-09-11T11:34:18Z</time>
      </trkpt>
      <trkpt lat="46.20287" lon="6.50951">
        <ele>1046</ele>
        <time>2010-09-11T11:34:24Z</time>
      </trkpt>
      <trkpt lat="46.20296" lon="6.50947">
        <ele>1046</ele>
        <time>2010-09-11T11:34:31Z</time>
      </trkpt>
      <trkpt lat="46.20306" lon="6.50942">
        <ele>1046</ele>
        <time>2010-09-11T11:34:39Z</time>
      </trkpt>
      <trkpt lat="46.20311" lon="6.50939">
        <ele>1046</ele>
        <time>2010-09-11T11:34:43Z</time>
      </trkpt>
      <trkpt lat="46.2032" lon="6.50936">
        <ele>1046</ele>
        <time>2010-09-11T11:34:50Z</time>
      </trkpt>
      <trkpt lat="46.20329" lon="6.50932">
        <ele>1045</ele>
        <time>2010-09-11T11:34:57Z</time>
      </trkpt>
      <trkpt lat="46.20339" lon="6.50928">
        <ele>1050</ele>
        <time>2010-09-11T11:35:04Z</time>
      </trkpt>
      <trkpt lat="46.2035" lon="6.50925">
        <ele>1051</ele>
        <time>2010-09-11T11:35:12Z</time>
      </trkpt>
      <trkpt lat="46.20358" lon="6.50924">
        <ele>1053</ele>
        <time>2010-09-11T11:35:18Z</time>
      </trkpt>
      <trkpt lat="46.20368" lon="6.50923">
        <ele>1055</ele>
        <time>2010-09-11T11:35:25Z</time>
      </trkpt>
      <trkpt lat="46.20379" lon="6.50924">
        <ele>1056</ele>
        <time>2010-09-11T11:35:33Z</time>
      </trkpt>
      <trkpt lat="46.20385" lon="6.50925">
        <ele>1056</ele>
        <time>2010-09-11T11:35:38Z</time>
      </trkpt>
      <trkpt lat="46.20394" lon="6.5092">
        <ele>1056</ele>
        <time>2010-09-11T11:35:45Z</time>
      </trkpt>
      <trkpt lat="46.20399" lon="6.50911">
        <ele>1047</ele>
        <time>2010-09-11T11:35:51Z</time>
      </trkpt>
      <trkpt lat="46.20405" lon="6.50899">
        <ele>1046</ele>
        <time>2010-09-11T11:35:58Z</time>
      </trkpt>
      <trkpt lat="46.20413" lon="6.5089">
        <ele>1045</ele>
        <time>2010-09-11T11:36:06Z</time>
      </trkpt>
      <trkpt lat="46.20421" lon="6.50884">
        <ele>1052</ele>
        <time>2010-09-11T11:36:13Z</time>
      </trkpt>
      <trkpt lat="46.20427" lon="6.50881">
        <ele>1051</ele>
        <time>2010-09-11T11:36:17Z</time>
      </trkpt>
      <trkpt lat="46.20443" lon="6.50876">
        <ele>1052</ele>
        <time>2010-09-11T11:36:24Z</time>
      </trkpt>
      <trkpt lat="46.20456" lon="6.50871">
        <ele>1052</ele>
        <time>2010-09-11T11:36:29Z</time>
      </trkpt>
      <trkpt lat="46.20469" lon="6.50865">
        <ele>1053</ele>
        <time>2010-09-11T11:36:34Z</time>
      </trkpt>
      <trkpt lat="46.20482" lon="6.50861">
        <ele>1053</ele>
        <time>2010-09-11T11:36:39Z</time>
      </trkpt>
      <trkpt lat="46.20496" lon="6.50857">
        <ele>1052</ele>
        <time>2010-09-11T11:36:44Z</time>
      </trkpt>
      <trkpt lat="46.20508" lon="6.50853">
        <ele>1056</ele>
        <time>2010-09-11T11:36:49Z</time>
      </trkpt>
      <trkpt lat="46.20519" lon="6.50852">
        <ele>1057</ele>
        <time>2010-09-11T11:36:53Z</time>
      </trkpt>
      <trkpt lat="46.2053" lon="6.50854">
        <ele>1058</ele>
        <time>2010-09-11T11:36:57Z</time>
      </trkpt>
      <trkpt lat="46.20541" lon="6.50856">
        <ele>1059</ele>
        <time>2010-09-11T11:37:01Z</time>
      </trkpt>
      <trkpt lat="46.20549" lon="6.50861">
        <ele>1060</ele>
        <time>2010-09-11T11:37:05Z</time>
      </trkpt>
      <trkpt lat="46.2056" lon="6.50863">
        <ele>1060</ele>
        <time>2010-09-11T11:37:09Z</time>
      </trkpt>
      <trkpt lat="46.20577" lon="6.50861">
        <ele>1060</ele>
        <time>2010-09-11T11:37:15Z</time>
      </trkpt>
      <trkpt lat="46.20587" lon="6.50865">
        <ele>1063</ele>
        <time>2010-09-11T11:37:19Z</time>
      </trkpt>
      <trkpt lat="46.20599" lon="6.50881">
        <ele>1066</ele>
        <time>2010-09-11T11:37:25Z</time>
      </trkpt>
      <trkpt lat="46.20607" lon="6.50892">
        <ele>1068</ele>
        <time>2010-09-11T11:37:29Z</time>
      </trkpt>
      <trkpt lat="46.20616" lon="6.50896">
        <ele>1068</ele>
        <time>2010-09-11T11:37:33Z</time>
      </trkpt>
      <trkpt lat="46.20619" lon="6.50894">
        <ele>1068</ele>
        <time>2010-09-11T11:37:36Z</time>
      </trkpt>
      <trkpt lat="46.20621" lon="6.5089">
        <ele>1067</ele>
        <time>2010-09-11T11:37:41Z</time>
      </trkpt>
      <trkpt lat="46.20621" lon="6.5089">
        <ele>1067</ele>
        <time>2010-09-11T11:37:42Z</time>
      </trkpt>
      <trkpt lat="46.20623" lon="6.50882">
        <ele>1066</ele>
        <time>2010-09-11T11:37:48Z</time>
      </trkpt>
      <trkpt lat="46.20625" lon="6.50871">
        <ele>1064</ele>
        <time>2010-09-11T11:37:53Z</time>
      </trkpt>
      <trkpt lat="46.20629" lon="6.50855">
        <ele>1062</ele>
        <time>2010-09-11T11:37:58Z</time>
      </trkpt>
      <trkpt lat="46.20631" lon="6.50848">
        <ele>1062</ele>
        <time>2010-09-11T11:38:02Z</time>
      </trkpt>
      <trkpt lat="46.20631" lon="6.50847">
        <ele>1061</ele>
        <time>2010-09-11T11:38:03Z</time>
      </trkpt>
      <trkpt lat="46.20631" lon="6.50838">
        <ele>1061</ele>
        <time>2010-09-11T11:38:08Z</time>
      </trkpt>
      <trkpt lat="46.2063" lon="6.50818">
        <ele>1049</ele>
        <time>2010-09-11T11:38:18Z</time>
      </trkpt>
      <trkpt lat="46.20628" lon="6.50805">
        <ele>1048</ele>
        <time>2010-09-11T11:38:24Z</time>
      </trkpt>
      <trkpt lat="46.2063" lon="6.50795">
        <ele>1048</ele>
        <time>2010-09-11T11:38:29Z</time>
      </trkpt>
      <trkpt lat="46.20637" lon="6.50781">
        <ele>1047</ele>
        <time>2010-09-11T11:38:37Z</time>
      </trkpt>
      <trkpt lat="46.20647" lon="6.50775">
        <ele>1047</ele>
        <time>2010-09-11T11:38:44Z</time>
      </trkpt>
      <trkpt lat="46.20655" lon="6.50774">
        <ele>1048</ele>
        <time>2010-09-11T11:38:49Z</time>
      </trkpt>
      <trkpt lat="46.20674" lon="6.50776">
        <ele>1052</ele>
        <time>2010-09-11T11:39:01Z</time>
      </trkpt>
      <trkpt lat="46.20688" lon="6.50777">
        <ele>1053</ele>
        <time>2010-09-11T11:39:10Z</time>
      </trkpt>
      <trkpt lat="46.20704" lon="6.50777">
        <ele>1054</ele>
        <time>2010-09-11T11:39:20Z</time>
      </trkpt>
      <trkpt lat="46.20715" lon="6.50777">
        <ele>1055</ele>
        <time>2010-09-11T11:39:27Z</time>
      </trkpt>
      <trkpt lat="46.20726" lon="6.50781">
        <ele>1055</ele>
        <time>2010-09-11T11:39:35Z</time>
      </trkpt>
      <trkpt lat="46.20733" lon="6.50786">
        <ele>1056</ele>
        <time>2010-09-11T11:39:40Z</time>
      </trkpt>
      <trkpt lat="46.20743" lon="6.50795">
        <ele>1056</ele>
        <time>2010-09-11T11:39:47Z</time>
      </trkpt>
      <trkpt lat="46.20753" lon="6.50803">
        <ele>1059</ele>
        <time>2010-09-11T11:39:54Z</time>
      </trkpt>
      <trkpt lat="46.20763" lon="6.5081">
        <ele>1059</ele>
        <time>2010-09-11T11:40:01Z</time>
      </trkpt>
      <trkpt lat="46.20774" lon="6.50816">
        <ele>1059</ele>
        <time>2010-09-11T11:40:08Z</time>
      </trkpt>
      <trkpt lat="46.20783" lon="6.50819">
        <ele>1059</ele>
        <time>2010-09-11T11:40:14Z</time>
      </trkpt>
      <trkpt lat="46.20792" lon="6.50821">
        <ele>1060</ele>
        <time>2010-09-11T11:40:22Z</time>
      </trkpt>
      <trkpt lat="46.20793" lon="6.50821">
        <ele>1060</ele>
        <time>2010-09-11T11:40:23Z</time>
      </trkpt>
      <trkpt lat="46.20799" lon="6.5082">
        <ele>1060</ele>
        <time>2010-09-11T11:40:29Z</time>
      </trkpt>
      <trkpt lat="46.20802" lon="6.50821">
        <ele>1060</ele>
        <time>2010-09-11T11:40:31Z</time>
      </trkpt>
      <trkpt lat="46.20812" lon="6.50819">
        <ele>1060</ele>
        <time>2010-09-11T11:40:39Z</time>
      </trkpt>
      <trkpt lat="46.20823" lon="6.50818">
        <ele>1061</ele>
        <time>2010-09-11T11:40:47Z</time>
      </trkpt>
      <trkpt lat="46.20833" lon="6.50818">
        <ele>1061</ele>
        <time>2010-09-11T11:40:55Z</time>
      </trkpt>
      <trkpt lat="46.20837" lon="6.50818">
        <ele>1060</ele>
        <time>2010-09-11T11:41:01Z</time>
      </trkpt>
      <trkpt lat="46.20849" lon="6.50817">
        <ele>1059</ele>
        <time>2010-09-11T11:41:09Z</time>
      </trkpt>
      <trkpt lat="46.20859" lon="6.50818">
        <ele>1058</ele>
        <time>2010-09-11T11:41:16Z</time>
      </trkpt>
      <trkpt lat="46.2086" lon="6.50819">
        <ele>1058</ele>
        <time>2010-09-11T11:41:23Z</time>
      </trkpt>
      <trkpt lat="46.20859" lon="6.50818">
        <ele>1058</ele>
        <time>2010-09-11T11:41:35Z</time>
      </trkpt>
      <trkpt lat="46.20863" lon="6.50819">
        <ele>1058</ele>
        <time>2010-09-11T11:41:43Z</time>
      </trkpt>
      <trkpt lat="46.20879" lon="6.50828">
        <ele>1058</ele>
        <time>2010-09-11T11:41:50Z</time>
      </trkpt>
      <trkpt lat="46.20888" lon="6.50835">
        <ele>1068</ele>
        <time>2010-09-11T11:41:54Z</time>
      </trkpt>
      <trkpt lat="46.20895" lon="6.50832">
        <ele>1057</ele>
        <time>2010-09-11T11:41:57Z</time>
      </trkpt>
      <trkpt lat="46.20909" lon="6.50821">
        <ele>1057</ele>
        <time>2010-09-11T11:42:02Z</time>
      </trkpt>
      <trkpt lat="46.20916" lon="6.50813">
        <ele>1057</ele>
        <time>2010-09-11T11:42:05Z</time>
      </trkpt>
      <trkpt lat="46.2092" lon="6.50805">
        <ele>1054</ele>
        <time>2010-09-11T11:42:07Z</time>
      </trkpt>
      <trkpt lat="46.20924" lon="6.50798">
        <ele>1053</ele>
        <time>2010-09-11T11:42:09Z</time>
      </trkpt>
      <trkpt lat="46.20936" lon="6.50788">
        <ele>1052</ele>
        <time>2010-09-11T11:42:14Z</time>
      </trkpt>
      <trkpt lat="46.20946" lon="6.50783">
        <ele>1051</ele>
        <time>2010-09-11T11:42:18Z</time>
      </trkpt>
      <trkpt lat="46.2096" lon="6.50777">
        <ele>1051</ele>
        <time>2010-09-11T11:42:23Z</time>
      </trkpt>
      <trkpt lat="46.20975" lon="6.50774">
        <ele>1050</ele>
        <time>2010-09-11T11:42:28Z</time>
      </trkpt>
      <trkpt lat="46.20982" lon="6.50771">
        <ele>1049</ele>
        <time>2010-09-11T11:42:30Z</time>
      </trkpt>
      <trkpt lat="46.20994" lon="6.50766">
        <ele>1047</ele>
        <time>2010-09-11T11:42:34Z</time>
      </trkpt>
      <trkpt lat="46.21006" lon="6.50768">
        <ele>1045</ele>
        <time>2010-09-11T11:42:38Z</time>
      </trkpt>
      <trkpt lat="46.21023" lon="6.50767">
        <ele>1046</ele>
        <time>2010-09-11T11:42:43Z</time>
      </trkpt>
      <trkpt lat="46.21039" lon="6.50766">
        <ele>1046</ele>
        <time>2010-09-11T11:42:48Z</time>
      </trkpt>
      <trkpt lat="46.21052" lon="6.50768">
        <ele>1045</ele>
        <time>2010-09-11T11:42:52Z</time>
      </trkpt>
      <trkpt lat="46.2106" lon="6.50769">
        <ele>1044</ele>
        <time>2010-09-11T11:42:55Z</time>
      </trkpt>
      <trkpt lat="46.21063" lon="6.50768">
        <ele>1044</ele>
        <time>2010-09-11T11:42:56Z</time>
      </trkpt>
      <trkpt lat="46.21067" lon="6.50766">
        <ele>1043</ele>
        <time>2010-09-11T11:42:58Z</time>
      </trkpt>
      <trkpt lat="46.21079" lon="6.50764">
        <ele>1041</ele>
        <time>2010-09-11T11:43:02Z</time>
      </trkpt>
      <trkpt lat="46.211" lon="6.50763">
        <ele>1040</ele>
        <time>2010-09-11T11:43:09Z</time>
      </trkpt>
      <trkpt lat="46.21117" lon="6.5076">
        <ele>1041</ele>
        <time>2010-09-11T11:43:14Z</time>
      </trkpt>
      <trkpt lat="46.21123" lon="6.5076">
        <ele>1041</ele>
        <time>2010-09-11T11:43:16Z</time>
      </trkpt>
      <trkpt lat="46.21129" lon="6.50762">
        <ele>1041</ele>
        <time>2010-09-11T11:43:18Z</time>
      </trkpt>
      <trkpt lat="46.21148" lon="6.50756">
        <ele>1039</ele>
        <time>2010-09-11T11:43:24Z</time>
      </trkpt>
      <trkpt lat="46.21163" lon="6.50753">
        <ele>1036</ele>
        <time>2010-09-11T11:43:29Z</time>
      </trkpt>
      <trkpt lat="46.21179" lon="6.50752">
        <ele>1036</ele>
        <time>2010-09-11T11:43:34Z</time>
      </trkpt>
      <trkpt lat="46.21193" lon="6.5075">
        <ele>1029</ele>
        <time>2010-09-11T11:43:39Z</time>
      </trkpt>
      <trkpt lat="46.21205" lon="6.50748">
        <ele>1029</ele>
        <time>2010-09-11T11:43:43Z</time>
      </trkpt>
      <trkpt lat="46.2121" lon="6.50749">
        <ele>1028</ele>
        <time>2010-09-11T11:43:45Z</time>
      </trkpt>
      <trkpt lat="46.21214" lon="6.50746">
        <ele>1028</ele>
        <time>2010-09-11T11:43:49Z</time>
      </trkpt>
      <trkpt lat="46.2122" lon="6.50741">
        <ele>1028</ele>
        <time>2010-09-11T11:43:56Z</time>
      </trkpt>
      <trkpt lat="46.21225" lon="6.50739">
        <ele>1028</ele>
        <time>2010-09-11T11:44:00Z</time>
      </trkpt>
      <trkpt lat="46.21233" lon="6.50731">
        <ele>1028</ele>
        <time>2010-09-11T11:44:04Z</time>
      </trkpt>
      <trkpt lat="46.21244" lon="6.50723">
        <ele>1027</ele>
        <time>2010-09-11T11:44:09Z</time>
      </trkpt>
      <trkpt lat="46.2126" lon="6.50713">
        <ele>1022</ele>
        <time>2010-09-11T11:44:16Z</time>
      </trkpt>
      <trkpt lat="46.21273" lon="6.50709">
        <ele>1021</ele>
        <time>2010-09-11T11:44:21Z</time>
      </trkpt>
      <trkpt lat="46.21283" lon="6.50707">
        <ele>1020</ele>
        <time>2010-09-11T11:44:27Z</time>
      </trkpt>
      <trkpt lat="46.21292" lon="6.50704">
        <ele>1020</ele>
        <time>2010-09-11T11:44:31Z</time>
      </trkpt>
      <trkpt lat="46.21306" lon="6.50701">
        <ele>1019</ele>
        <time>2010-09-11T11:44:36Z</time>
      </trkpt>
      <trkpt lat="46.21319" lon="6.50701">
        <ele>1018</ele>
        <time>2010-09-11T11:44:41Z</time>
      </trkpt>
      <trkpt lat="46.21332" lon="6.50701">
        <ele>1018</ele>
        <time>2010-09-11T11:44:46Z</time>
      </trkpt>
      <trkpt lat="46.21342" lon="6.50696">
        <ele>1011</ele>
        <time>2010-09-11T11:44:51Z</time>
      </trkpt>
      <trkpt lat="46.21354" lon="6.50689">
        <ele>1010</ele>
        <time>2010-09-11T11:44:56Z</time>
      </trkpt>
      <trkpt lat="46.21358" lon="6.50684">
        <ele>1010</ele>
        <time>2010-09-11T11:44:59Z</time>
      </trkpt>
      <trkpt lat="46.21363" lon="6.50678">
        <ele>1010</ele>
        <time>2010-09-11T11:45:04Z</time>
      </trkpt>
      <trkpt lat="46.21366" lon="6.50668">
        <ele>1009</ele>
        <time>2010-09-11T11:45:08Z</time>
      </trkpt>
      <trkpt lat="46.21374" lon="6.50659">
        <ele>1002</ele>
        <time>2010-09-11T11:45:13Z</time>
      </trkpt>
      <trkpt lat="46.21381" lon="6.50645">
        <ele>1001</ele>
        <time>2010-09-11T11:45:18Z</time>
      </trkpt>
      <trkpt lat="46.21385" lon="6.50636">
        <ele>1000</ele>
        <time>2010-09-11T11:45:21Z</time>
      </trkpt>
      <trkpt lat="46.21393" lon="6.50621">
        <ele>999</ele>
        <time>2010-09-11T11:45:26Z</time>
      </trkpt>
      <trkpt lat="46.21398" lon="6.50613">
        <ele>998</ele>
        <time>2010-09-11T11:45:28Z</time>
      </trkpt>
      <trkpt lat="46.2141" lon="6.50606">
        <ele>996</ele>
        <time>2010-09-11T11:45:35Z</time>
      </trkpt>
      <trkpt lat="46.21411" lon="6.50605">
        <ele>996</ele>
        <time>2010-09-11T11:45:40Z</time>
      </trkpt>
      <trkpt lat="46.21414" lon="6.50601">
        <ele>995</ele>
        <time>2010-09-11T11:45:45Z</time>
      </trkpt>
      <trkpt lat="46.21414" lon="6.50591">
        <ele>993</ele>
        <time>2010-09-11T11:45:49Z</time>
      </trkpt>
      <trkpt lat="46.21406" lon="6.50573">
        <ele>986</ele>
        <time>2010-09-11T11:45:55Z</time>
      </trkpt>
      <trkpt lat="46.21404" lon="6.5057">
        <ele>985</ele>
        <time>2010-09-11T11:45:57Z</time>
      </trkpt>
      <trkpt lat="46.21412" lon="6.50559">
        <ele>983</ele>
        <time>2010-09-11T11:46:03Z</time>
      </trkpt>
      <trkpt lat="46.21427" lon="6.50561">
        <ele>973</ele>
        <time>2010-09-11T11:46:08Z</time>
      </trkpt>
      <trkpt lat="46.2143" lon="6.50563">
        <ele>973</ele>
        <time>2010-09-11T11:46:09Z</time>
      </trkpt>
      <trkpt lat="46.21443" lon="6.50567">
        <ele>971</ele>
        <time>2010-09-11T11:46:14Z</time>
      </trkpt>
      <trkpt lat="46.21456" lon="6.50569">
        <ele>968</ele>
        <time>2010-09-11T11:46:19Z</time>
      </trkpt>
      <trkpt lat="46.21465" lon="6.50568">
        <ele>966</ele>
        <time>2010-09-11T11:46:24Z</time>
      </trkpt>
      <trkpt lat="46.21473" lon="6.50571">
        <ele>965</ele>
        <time>2010-09-11T11:46:28Z</time>
      </trkpt>
      <trkpt lat="46.21475" lon="6.50564">
        <ele>964</ele>
        <time>2010-09-11T11:46:32Z</time>
      </trkpt>
      <trkpt lat="46.21474" lon="6.50562">
        <ele>964</ele>
        <time>2010-09-11T11:46:33Z</time>
      </trkpt>
      <trkpt lat="46.21472" lon="6.50555">
        <ele>963</ele>
        <time>2010-09-11T11:46:36Z</time>
      </trkpt>
      <trkpt lat="46.21464" lon="6.50548">
        <ele>963</ele>
        <time>2010-09-11T11:46:41Z</time>
      </trkpt>
      <trkpt lat="46.21458" lon="6.50538">
        <ele>962</ele>
        <time>2010-09-11T11:46:46Z</time>
      </trkpt>
      <trkpt lat="46.21461" lon="6.50525">
        <ele>959</ele>
        <time>2010-09-11T11:46:50Z</time>
      </trkpt>
      <trkpt lat="46.21467" lon="6.5052">
        <ele>958</ele>
        <time>2010-09-11T11:46:53Z</time>
      </trkpt>
      <trkpt lat="46.21476" lon="6.50517">
        <ele>955</ele>
        <time>2010-09-11T11:46:58Z</time>
      </trkpt>
      <trkpt lat="46.21487" lon="6.50518">
        <ele>952</ele>
        <time>2010-09-11T11:47:04Z</time>
      </trkpt>
      <trkpt lat="46.21495" lon="6.50521">
        <ele>951</ele>
        <time>2010-09-11T11:47:09Z</time>
      </trkpt>
      <trkpt lat="46.215" lon="6.50517">
        <ele>949</ele>
        <time>2010-09-11T11:47:13Z</time>
      </trkpt>
      <trkpt lat="46.21506" lon="6.50524">
        <ele>944</ele>
        <time>2010-09-11T11:47:18Z</time>
      </trkpt>
      <trkpt lat="46.21508" lon="6.50535">
        <ele>947</ele>
        <time>2010-09-11T11:47:23Z</time>
      </trkpt>
      <trkpt lat="46.21508" lon="6.50537">
        <ele>947</ele>
        <time>2010-09-11T11:47:24Z</time>
      </trkpt>
      <trkpt lat="46.2151" lon="6.50538">
        <ele>948</ele>
        <time>2010-09-11T11:47:26Z</time>
      </trkpt>
      <trkpt lat="46.21526" lon="6.50528">
        <ele>945</ele>
        <time>2010-09-11T11:47:33Z</time>
      </trkpt>
      <trkpt lat="46.21534" lon="6.50517">
        <ele>943</ele>
        <time>2010-09-11T11:47:37Z</time>
      </trkpt>
      <trkpt lat="46.21534" lon="6.50491">
        <ele>927</ele>
        <time>2010-09-11T11:47:44Z</time>
      </trkpt>
      <trkpt lat="46.21532" lon="6.50474">
        <ele>925</ele>
        <time>2010-09-11T11:47:48Z</time>
      </trkpt>
      <trkpt lat="46.21531" lon="6.50455">
        <ele>923</ele>
        <time>2010-09-11T11:47:53Z</time>
      </trkpt>
      <trkpt lat="46.21531" lon="6.50435">
        <ele>922</ele>
        <time>2010-09-11T11:47:58Z</time>
      </trkpt>
      <trkpt lat="46.21533" lon="6.50422">
        <ele>921</ele>
        <time>2010-09-11T11:48:01Z</time>
      </trkpt>
      <trkpt lat="46.21535" lon="6.50405">
        <ele>914</ele>
        <time>2010-09-11T11:48:06Z</time>
      </trkpt>
      <trkpt lat="46.21538" lon="6.504">
        <ele>914</ele>
        <time>2010-09-11T11:48:12Z</time>
      </trkpt>
      <trkpt lat="46.21538" lon="6.50401">
        <ele>914</ele>
        <time>2010-09-11T11:48:20Z</time>
      </trkpt>
      <trkpt lat="46.21537" lon="6.504">
        <ele>914</ele>
        <time>2010-09-11T11:48:27Z</time>
      </trkpt>
      <trkpt lat="46.21536" lon="6.50398">
        <ele>914</ele>
        <time>2010-09-11T11:48:33Z</time>
      </trkpt>
      <trkpt lat="46.21537" lon="6.50398">
        <ele>914</ele>
        <time>2010-09-11T11:48:45Z</time>
      </trkpt>
      <trkpt lat="46.21537" lon="6.50397">
        <ele>914</ele>
        <time>2010-09-11T11:48:54Z</time>
      </trkpt>
      <trkpt lat="46.21537" lon="6.50397">
        <ele>914</ele>
        <time>2010-09-11T11:49:07Z</time>
      </trkpt>
      <trkpt lat="46.21539" lon="6.50397">
        <ele>914</ele>
        <time>2010-09-11T11:49:20Z</time>
      </trkpt>
      <trkpt lat="46.21537" lon="6.50397">
        <ele>914</ele>
        <time>2010-09-11T11:50:00Z</time>
      </trkpt>
      <trkpt lat="46.2154" lon="6.50395">
        <ele>914</ele>
        <time>2010-09-11T11:50:10Z</time>
      </trkpt>
      <trkpt lat="46.21539" lon="6.50394">
        <ele>914</ele>
        <time>2010-09-11T11:50:20Z</time>
      </trkpt>
      <trkpt lat="46.21538" lon="6.50395">
        <ele>914</ele>
        <time>2010-09-11T11:50:33Z</time>
      </trkpt>
      <trkpt lat="46.21538" lon="6.50396">
        <ele>914</ele>
        <time>2010-09-11T11:50:51Z</time>
      </trkpt>
      <trkpt lat="46.21537" lon="6.50396">
        <ele>914</ele>
        <time>2010-09-11T11:51:03Z</time>
      </trkpt>
      <trkpt lat="46.21535" lon="6.50397">
        <ele>914</ele>
        <time>2010-09-11T11:51:08Z</time>
      </trkpt>
      <trkpt lat="46.21536" lon="6.50397">
        <ele>914</ele>
        <time>2010-09-11T11:51:14Z</time>
      </trkpt>
      <trkpt lat="46.21536" lon="6.50397">
        <ele>914</ele>
        <time>2010-09-11T11:51:20Z</time>
      </trkpt>
      <trkpt lat="46.21536" lon="6.50398">
        <ele>914</ele>
        <time>2010-09-11T11:51:29Z</time>
      </trkpt>
      <trkpt lat="46.21538" lon="6.50398">
        <ele>914</ele>
        <time>2010-09-11T11:51:34Z</time>
      </trkpt>
      <trkpt lat="46.21538" lon="6.50397">
        <ele>914</ele>
        <time>2010-09-11T11:51:39Z</time>
      </trkpt>
      <trkpt lat="46.21537" lon="6.50397">
        <ele>914</ele>
        <time>2010-09-11T11:51:46Z</time>
      </trkpt>
      <trkpt lat="46.21538" lon="6.50397">
        <ele>914</ele>
        <time>2010-09-11T11:52:04Z</time>
      </trkpt>
      <trkpt lat="46.21539" lon="6.50393">
        <ele>914</ele>
        <time>2010-09-11T11:52:55Z</time>
      </trkpt>
      <trkpt lat="46.21538" lon="6.50395">
        <ele>914</ele>
        <time>2010-09-11T11:53:50Z</time>
      </trkpt>
      <trkpt lat="46.21538" lon="6.50395">
        <ele>914</ele>
        <time>2010-09-11T11:54:08Z</time>
      </trkpt>
      <trkpt lat="46.21538" lon="6.50395">
        <ele>914</ele>
        <time>2010-09-11T11:54:15Z</time>
      </trkpt>
      <trkpt lat="46.21536" lon="6.50399">
        <ele>914</ele>
        <time>2010-09-11T11:54:51Z</time>
      </trkpt>
      <trkpt lat="46.21536" lon="6.50399">
        <ele>914</ele>
        <time>2010-09-11T11:55:03Z</time>
      </trkpt>
      <trkpt lat="46.21536" lon="6.504">
        <ele>914</ele>
        <time>2010-09-11T11:55:42Z</time>
      </trkpt>
      <trkpt lat="46.21536" lon="6.504">
        <ele>914</ele>
        <time>2010-09-11T11:55:51Z</time>
      </trkpt>
      <trkpt lat="46.21536" lon="6.504">
        <ele>914</ele>
        <time>2010-09-11T11:56:00Z</time>
      </trkpt>
      <trkpt lat="46.21535" lon="6.50398">
        <ele>914</ele>
        <time>2010-09-11T11:56:07Z</time>
      </trkpt>
      <trkpt lat="46.21534" lon="6.50397">
        <ele>914</ele>
        <time>2010-09-11T11:56:13Z</time>
      </trkpt>
      <trkpt lat="46.21535" lon="6.50396">
        <ele>914</ele>
        <time>2010-09-11T11:56:20Z</time>
      </trkpt>
      <trkpt lat="46.21535" lon="6.50396">
        <ele>914</ele>
        <time>2010-09-11T11:56:29Z</time>
      </trkpt>
      <trkpt lat="46.21534" lon="6.50393">
        <ele>914</ele>
        <time>2010-09-11T11:56:42Z</time>
      </trkpt>
      <trkpt lat="46.21534" lon="6.50385">
        <ele>914</ele>
        <time>2010-09-11T11:56:48Z</time>
      </trkpt>
      <trkpt lat="46.21533" lon="6.50381">
        <ele>914</ele>
        <time>2010-09-11T11:56:50Z</time>
      </trkpt>
      <trkpt lat="46.21533" lon="6.50372">
        <ele>914</ele>
        <time>2010-09-11T11:56:58Z</time>
      </trkpt>
      <trkpt lat="46.21534" lon="6.50366">
        <ele>913</ele>
        <time>2010-09-11T11:57:07Z</time>
      </trkpt>
      <trkpt lat="46.21534" lon="6.50356">
        <ele>913</ele>
        <time>2010-09-11T11:57:13Z</time>
      </trkpt>
      <trkpt lat="46.21532" lon="6.50369">
        <ele>913</ele>
        <time>2010-09-11T11:57:17Z</time>
      </trkpt>
      <trkpt lat="46.21534" lon="6.50387">
        <ele>914</ele>
        <time>2010-09-11T11:57:21Z</time>
      </trkpt>
      <trkpt lat="46.21533" lon="6.50397">
        <ele>914</ele>
        <time>2010-09-11T11:57:24Z</time>
      </trkpt>
      <trkpt lat="46.21531" lon="6.50395">
        <ele>914</ele>
        <time>2010-09-11T11:57:27Z</time>
      </trkpt>
      <trkpt lat="46.21531" lon="6.50383">
        <ele>914</ele>
        <time>2010-09-11T11:57:30Z</time>
      </trkpt>
      <trkpt lat="46.21531" lon="6.50368">
        <ele>913</ele>
        <time>2010-09-11T11:57:34Z</time>
      </trkpt>
      <trkpt lat="46.21531" lon="6.50364">
        <ele>913</ele>
        <time>2010-09-11T11:57:35Z</time>
      </trkpt>
      <trkpt lat="46.2153" lon="6.50359">
        <ele>913</ele>
        <time>2010-09-11T11:57:37Z</time>
      </trkpt>
      <trkpt lat="46.21529" lon="6.5036">
        <ele>913</ele>
        <time>2010-09-11T11:57:39Z</time>
      </trkpt>
      <trkpt lat="46.21531" lon="6.50361">
        <ele>913</ele>
        <time>2010-09-11T11:57:47Z</time>
      </trkpt>
      <trkpt lat="46.21532" lon="6.50358">
        <ele>913</ele>
        <time>2010-09-11T11:57:51Z</time>
      </trkpt>
      <trkpt lat="46.21533" lon="6.50348">
        <ele>913</ele>
        <time>2010-09-11T11:57:54Z</time>
      </trkpt>
      <trkpt lat="46.21538" lon="6.50334">
        <ele>913</ele>
        <time>2010-09-11T11:57:58Z</time>
      </trkpt>
      <trkpt lat="46.21548" lon="6.50332">
        <ele>909</ele>
        <time>2010-09-11T11:58:01Z</time>
      </trkpt>
      <trkpt lat="46.21559" lon="6.50333">
        <ele>912</ele>
        <time>2010-09-11T11:58:05Z</time>
      </trkpt>
      <trkpt lat="46.2157" lon="6.50337">
        <ele>911</ele>
        <time>2010-09-11T11:58:11Z</time>
      </trkpt>
      <trkpt lat="46.2158" lon="6.50343">
        <ele>911</ele>
        <time>2010-09-11T11:58:17Z</time>
      </trkpt>
      <trkpt lat="46.21589" lon="6.50348">
        <ele>911</ele>
        <time>2010-09-11T11:58:21Z</time>
      </trkpt>
      <trkpt lat="46.21596" lon="6.50358">
        <ele>911</ele>
        <time>2010-09-11T11:58:25Z</time>
      </trkpt>
      <trkpt lat="46.2161" lon="6.50368">
        <ele>911</ele>
        <time>2010-09-11T11:58:30Z</time>
      </trkpt>
      <trkpt lat="46.21617" lon="6.50371">
        <ele>911</ele>
        <time>2010-09-11T11:58:32Z</time>
      </trkpt>
      <trkpt lat="46.21629" lon="6.50383">
        <ele>911</ele>
        <time>2010-09-11T11:58:37Z</time>
      </trkpt>
      <trkpt lat="46.21636" lon="6.50389">
        <ele>911</ele>
        <time>2010-09-11T11:58:40Z</time>
      </trkpt>
      <trkpt lat="46.21648" lon="6.50402">
        <ele>910</ele>
        <time>2010-09-11T11:58:46Z</time>
      </trkpt>
      <trkpt lat="46.2165" lon="6.50404">
        <ele>910</ele>
        <time>2010-09-11T11:58:47Z</time>
      </trkpt>
      <trkpt lat="46.21659" lon="6.50406">
        <ele>910</ele>
        <time>2010-09-11T11:58:51Z</time>
      </trkpt>
      <trkpt lat="46.21675" lon="6.50393">
        <ele>908</ele>
        <time>2010-09-11T11:58:57Z</time>
      </trkpt>
      <trkpt lat="46.21685" lon="6.50382">
        <ele>908</ele>
        <time>2010-09-11T11:59:01Z</time>
      </trkpt>
      <trkpt lat="46.21695" lon="6.50372">
        <ele>908</ele>
        <time>2010-09-11T11:59:05Z</time>
      </trkpt>
      <trkpt lat="46.21705" lon="6.5036">
        <ele>907</ele>
        <time>2010-09-11T11:59:10Z</time>
      </trkpt>
      <trkpt lat="46.21705" lon="6.5036">
        <ele>907</ele>
        <time>2010-09-11T11:59:12Z</time>
      </trkpt>
      <trkpt lat="46.21701" lon="6.50365">
        <ele>907</ele>
        <time>2010-09-11T11:59:15Z</time>
      </trkpt>
      <trkpt lat="46.2171" lon="6.5035">
        <ele>907</ele>
        <time>2010-09-11T11:59:21Z</time>
      </trkpt>
      <trkpt lat="46.21721" lon="6.5034">
        <ele>907</ele>
        <time>2010-09-11T11:59:26Z</time>
      </trkpt>
      <trkpt lat="46.21732" lon="6.50328">
        <ele>905</ele>
        <time>2010-09-11T11:59:31Z</time>
      </trkpt>
      <trkpt lat="46.21741" lon="6.50316">
        <ele>905</ele>
        <time>2010-09-11T11:59:36Z</time>
      </trkpt>
      <trkpt lat="46.21748" lon="6.50308">
        <ele>905</ele>
        <time>2010-09-11T11:59:40Z</time>
      </trkpt>
      <trkpt lat="46.2176" lon="6.50305">
        <ele>906</ele>
        <time>2010-09-11T11:59:44Z</time>
      </trkpt>
      <trkpt lat="46.21774" lon="6.50306">
        <ele>906</ele>
        <time>2010-09-11T11:59:49Z</time>
      </trkpt>
      <trkpt lat="46.21783" lon="6.50306">
        <ele>906</ele>
        <time>2010-09-11T11:59:54Z</time>
      </trkpt>
      <trkpt lat="46.21793" lon="6.50306">
        <ele>907</ele>
        <time>2010-09-11T12:00:01Z</time>
      </trkpt>
      <trkpt lat="46.21801" lon="6.50307">
        <ele>907</ele>
        <time>2010-09-11T12:00:06Z</time>
      </trkpt>
      <trkpt lat="46.21809" lon="6.50306">
        <ele>907</ele>
        <time>2010-09-11T12:00:12Z</time>
      </trkpt>
      <trkpt lat="46.2182" lon="6.50306">
        <ele>907</ele>
        <time>2010-09-11T12:00:20Z</time>
      </trkpt>
      <trkpt lat="46.21829" lon="6.50306">
        <ele>907</ele>
        <time>2010-09-11T12:00:26Z</time>
      </trkpt>
      <trkpt lat="46.21836" lon="6.50301">
        <ele>914</ele>
        <time>2010-09-11T12:00:33Z</time>
      </trkpt>
      <trkpt lat="46.2184" lon="6.50298">
        <ele>914</ele>
        <time>2010-09-11T12:00:36Z</time>
      </trkpt>
      <trkpt lat="46.21851" lon="6.50291">
        <ele>915</ele>
        <time>2010-09-11T12:00:44Z</time>
      </trkpt>
      <trkpt lat="46.2186" lon="6.50285">
        <ele>916</ele>
        <time>2010-09-11T12:00:51Z</time>
      </trkpt>
      <trkpt lat="46.21865" lon="6.50283">
        <ele>916</ele>
        <time>2010-09-11T12:00:55Z</time>
      </trkpt>
      <trkpt lat="46.21874" lon="6.50278">
        <ele>917</ele>
        <time>2010-09-11T12:01:02Z</time>
      </trkpt>
      <trkpt lat="46.21875" lon="6.50277">
        <ele>917</ele>
        <time>2010-09-11T12:01:03Z</time>
      </trkpt>
      <trkpt lat="46.21882" lon="6.50276">
        <ele>918</ele>
        <time>2010-09-11T12:01:09Z</time>
      </trkpt>
      <trkpt lat="46.2189" lon="6.50272">
        <ele>919</ele>
        <time>2010-09-11T12:01:16Z</time>
      </trkpt>
      <trkpt lat="46.21896" lon="6.50269">
        <ele>920</ele>
        <time>2010-09-11T12:01:20Z</time>
      </trkpt>
      <trkpt lat="46.21899" lon="6.50268">
        <ele>920</ele>
        <time>2010-09-11T12:01:22Z</time>
      </trkpt>
      <trkpt lat="46.21906" lon="6.50265">
        <ele>922</ele>
        <time>2010-09-11T12:01:27Z</time>
      </trkpt>
      <trkpt lat="46.21913" lon="6.5026">
        <ele>924</ele>
        <time>2010-09-11T12:01:34Z</time>
      </trkpt>
      <trkpt lat="46.2192" lon="6.50255">
        <ele>930</ele>
        <time>2010-09-11T12:01:43Z</time>
      </trkpt>
      <trkpt lat="46.21925" lon="6.50252">
        <ele>931</ele>
        <time>2010-09-11T12:01:47Z</time>
      </trkpt>
      <trkpt lat="46.2193" lon="6.5025">
        <ele>937</ele>
        <time>2010-09-11T12:01:51Z</time>
      </trkpt>
      <trkpt lat="46.21934" lon="6.50247">
        <ele>940</ele>
        <time>2010-09-11T12:01:57Z</time>
      </trkpt>
      <trkpt lat="46.21939" lon="6.50242">
        <ele>943</ele>
        <time>2010-09-11T12:02:03Z</time>
      </trkpt>
      <trkpt lat="46.21943" lon="6.50237">
        <ele>945</ele>
        <time>2010-09-11T12:02:08Z</time>
      </trkpt>
      <trkpt lat="46.21944" lon="6.50237">
        <ele>946</ele>
        <time>2010-09-11T12:02:09Z</time>
      </trkpt>
      <trkpt lat="46.21946" lon="6.50235">
        <ele>947</ele>
        <time>2010-09-11T12:02:12Z</time>
      </trkpt>
      <trkpt lat="46.21953" lon="6.50235">
        <ele>949</ele>
        <time>2010-09-11T12:02:18Z</time>
      </trkpt>
      <trkpt lat="46.21953" lon="6.50237">
        <ele>949</ele>
        <time>2010-09-11T12:02:24Z</time>
      </trkpt>
      <trkpt lat="46.21954" lon="6.50238">
        <ele>949</ele>
        <time>2010-09-11T12:02:30Z</time>
      </trkpt>
      <trkpt lat="46.21954" lon="6.50239">
        <ele>949</ele>
        <time>2010-09-11T12:02:35Z</time>
      </trkpt>
      <trkpt lat="46.21948" lon="6.50237">
        <ele>947</ele>
        <time>2010-09-11T12:02:40Z</time>
      </trkpt>
      <trkpt lat="46.21945" lon="6.50232">
        <ele>947</ele>
        <time>2010-09-11T12:02:45Z</time>
      </trkpt>
      <trkpt lat="46.21944" lon="6.50233">
        <ele>946</ele>
        <time>2010-09-11T12:02:47Z</time>
      </trkpt>
      <trkpt lat="46.21939" lon="6.50241">
        <ele>943</ele>
        <time>2010-09-11T12:02:53Z</time>
      </trkpt>
      <trkpt lat="46.21937" lon="6.50247">
        <ele>941</ele>
        <time>2010-09-11T12:02:59Z</time>
      </trkpt>
      <trkpt lat="46.21934" lon="6.50254">
        <ele>934</ele>
        <time>2010-09-11T12:03:07Z</time>
      </trkpt>
      <trkpt lat="46.21923" lon="6.50258">
        <ele>931</ele>
        <time>2010-09-11T12:03:11Z</time>
      </trkpt>
      <trkpt lat="46.21913" lon="6.50263">
        <ele>923</ele>
        <time>2010-09-11T12:03:15Z</time>
      </trkpt>
      <trkpt lat="46.21904" lon="6.50269">
        <ele>921</ele>
        <time>2010-09-11T12:03:19Z</time>
      </trkpt>
      <trkpt lat="46.21892" lon="6.50271">
        <ele>919</ele>
        <time>2010-09-11T12:03:24Z</time>
      </trkpt>
      <trkpt lat="46.21878" lon="6.50278">
        <ele>917</ele>
        <time>2010-09-11T12:03:29Z</time>
      </trkpt>
      <trkpt lat="46.21873" lon="6.50279">
        <ele>917</ele>
        <time>2010-09-11T12:03:31Z</time>
      </trkpt>
      <trkpt lat="46.21865" lon="6.50267">
        <ele>916</ele>
        <time>2010-09-11T12:03:36Z</time>
      </trkpt>
      <trkpt lat="46.21864" lon="6.50264">
        <ele>916</ele>
        <time>2010-09-11T12:03:37Z</time>
      </trkpt>
      <trkpt lat="46.21857" lon="6.5025">
        <ele>919</ele>
        <time>2010-09-11T12:03:41Z</time>
      </trkpt>
      <trkpt lat="46.21854" lon="6.50238">
        <ele>919</ele>
        <time>2010-09-11T12:03:44Z</time>
      </trkpt>
      <trkpt lat="46.21847" lon="6.50219">
        <ele>920</ele>
        <time>2010-09-11T12:03:49Z</time>
      </trkpt>
      <trkpt lat="46.21843" lon="6.50201">
        <ele>920</ele>
        <time>2010-09-11T12:03:54Z</time>
      </trkpt>
      <trkpt lat="46.21838" lon="6.50187">
        <ele>920</ele>
        <time>2010-09-11T12:03:58Z</time>
      </trkpt>
      <trkpt lat="46.21831" lon="6.50174">
        <ele>913</ele>
        <time>2010-09-11T12:04:02Z</time>
      </trkpt>
      <trkpt lat="46.21829" lon="6.50163">
        <ele>917</ele>
        <time>2010-09-11T12:04:05Z</time>
      </trkpt>
      <trkpt lat="46.21828" lon="6.5016">
        <ele>918</ele>
        <time>2010-09-11T12:04:06Z</time>
      </trkpt>
      <trkpt lat="46.21825" lon="6.50149">
        <ele>921</ele>
        <time>2010-09-11T12:04:12Z</time>
      </trkpt>
      <trkpt lat="46.21821" lon="6.50142">
        <ele>923</ele>
        <time>2010-09-11T12:04:17Z</time>
      </trkpt>
      <trkpt lat="46.21813" lon="6.50138">
        <ele>924</ele>
        <time>2010-09-11T12:04:24Z</time>
      </trkpt>
      <trkpt lat="46.21808" lon="6.50136">
        <ele>924</ele>
        <time>2010-09-11T12:04:28Z</time>
      </trkpt>
      <trkpt lat="46.218" lon="6.50133">
        <ele>924</ele>
        <time>2010-09-11T12:04:34Z</time>
      </trkpt>
      <trkpt lat="46.21792" lon="6.50135">
        <ele>923</ele>
        <time>2010-09-11T12:04:40Z</time>
      </trkpt>
      <trkpt lat="46.21778" lon="6.50136">
        <ele>922</ele>
        <time>2010-09-11T12:04:47Z</time>
      </trkpt>
      <trkpt lat="46.2177" lon="6.50136">
        <ele>921</ele>
        <time>2010-09-11T12:04:51Z</time>
      </trkpt>
      <trkpt lat="46.21757" lon="6.50131">
        <ele>921</ele>
        <time>2010-09-11T12:04:59Z</time>
      </trkpt>
      <trkpt lat="46.21744" lon="6.50126">
        <ele>916</ele>
        <time>2010-09-11T12:05:04Z</time>
      </trkpt>
      <trkpt lat="46.21739" lon="6.50122">
        <ele>917</ele>
        <time>2010-09-11T12:05:06Z</time>
      </trkpt>
      <trkpt lat="46.21731" lon="6.50112">
        <ele>918</ele>
        <time>2010-09-11T12:05:10Z</time>
      </trkpt>
      <trkpt lat="46.21715" lon="6.50105">
        <ele>917</ele>
        <time>2010-09-11T12:05:16Z</time>
      </trkpt>
      <trkpt lat="46.21706" lon="6.50102">
        <ele>917</ele>
        <time>2010-09-11T12:05:19Z</time>
      </trkpt>
      <trkpt lat="46.2169" lon="6.50091">
        <ele>916</ele>
        <time>2010-09-11T12:05:26Z</time>
      </trkpt>
      <trkpt lat="46.2168" lon="6.50077">
        <ele>922</ele>
        <time>2010-09-11T12:05:31Z</time>
      </trkpt>
      <trkpt lat="46.21679" lon="6.50075">
        <ele>922</ele>
        <time>2010-09-11T12:05:32Z</time>
      </trkpt>
      <trkpt lat="46.21675" lon="6.50063">
        <ele>924</ele>
        <time>2010-09-11T12:05:39Z</time>
      </trkpt>
      <trkpt lat="46.21674" lon="6.50061">
        <ele>924</ele>
        <time>2010-09-11T12:05:40Z</time>
      </trkpt>
      <trkpt lat="46.21669" lon="6.5005">
        <ele>925</ele>
        <time>2010-09-11T12:05:46Z</time>
      </trkpt>
      <trkpt lat="46.21668" lon="6.50043">
        <ele>926</ele>
        <time>2010-09-11T12:05:51Z</time>
      </trkpt>
      <trkpt lat="46.21668" lon="6.50041">
        <ele>927</ele>
        <time>2010-09-11T12:05:52Z</time>
      </trkpt>
      <trkpt lat="46.21664" lon="6.50031">
        <ele>918</ele>
        <time>2010-09-11T12:05:59Z</time>
      </trkpt>
      <trkpt lat="46.21662" lon="6.50028">
        <ele>919</ele>
        <time>2010-09-11T12:06:01Z</time>
      </trkpt>
      <trkpt lat="46.21659" lon="6.5002">
        <ele>920</ele>
        <time>2010-09-11T12:06:05Z</time>
      </trkpt>
      <trkpt lat="46.21658" lon="6.50007">
        <ele>923</ele>
        <time>2010-09-11T12:06:12Z</time>
      </trkpt>
      <trkpt lat="46.21659" lon="6.5">
        <ele>925</ele>
        <time>2010-09-11T12:06:19Z</time>
      </trkpt>
      <trkpt lat="46.21659" lon="6.49997">
        <ele>925</ele>
        <time>2010-09-11T12:06:24Z</time>
      </trkpt>
      <trkpt lat="46.2166" lon="6.49979">
        <ele>924</ele>
        <time>2010-09-11T12:06:32Z</time>
      </trkpt>
      <trkpt lat="46.21663" lon="6.49966">
        <ele>923</ele>
        <time>2010-09-11T12:06:39Z</time>
      </trkpt>
      <trkpt lat="46.21664" lon="6.49954">
        <ele>924</ele>
        <time>2010-09-11T12:06:45Z</time>
      </trkpt>
      <trkpt lat="46.2166" lon="6.49942">
        <ele>924</ele>
        <time>2010-09-11T12:06:51Z</time>
      </trkpt>
      <trkpt lat="46.21663" lon="6.49931">
        <ele>926</ele>
        <time>2010-09-11T12:06:55Z</time>
      </trkpt>
      <trkpt lat="46.21669" lon="6.49921">
        <ele>931</ele>
        <time>2010-09-11T12:06:59Z</time>
      </trkpt>
      <trkpt lat="46.21672" lon="6.49906">
        <ele>937</ele>
        <time>2010-09-11T12:07:05Z</time>
      </trkpt>
      <trkpt lat="46.21671" lon="6.49897">
        <ele>941</ele>
        <time>2010-09-11T12:07:08Z</time>
      </trkpt>
      <trkpt lat="46.2166" lon="6.49881">
        <ele>931</ele>
        <time>2010-09-11T12:07:13Z</time>
      </trkpt>
      <trkpt lat="46.21641" lon="6.49871">
        <ele>930</ele>
        <time>2010-09-11T12:07:19Z</time>
      </trkpt>
      <trkpt lat="46.2163" lon="6.49867">
        <ele>930</ele>
        <time>2010-09-11T12:07:23Z</time>
      </trkpt>
      <trkpt lat="46.21613" lon="6.49863">
        <ele>928</ele>
        <time>2010-09-11T12:07:28Z</time>
      </trkpt>
      <trkpt lat="46.21604" lon="6.49856">
        <ele>928</ele>
        <time>2010-09-11T12:07:33Z</time>
      </trkpt>
      <trkpt lat="46.21596" lon="6.4985">
        <ele>928</ele>
        <time>2010-09-11T12:07:39Z</time>
      </trkpt>
      <trkpt lat="46.21591" lon="6.49846">
        <ele>927</ele>
        <time>2010-09-11T12:07:43Z</time>
      </trkpt>
      <trkpt lat="46.21579" lon="6.49837">
        <ele>924</ele>
        <time>2010-09-11T12:07:49Z</time>
      </trkpt>
      <trkpt lat="46.2157" lon="6.49828">
        <ele>928</ele>
        <time>2010-09-11T12:07:53Z</time>
      </trkpt>
      <trkpt lat="46.21565" lon="6.49824">
        <ele>928</ele>
        <time>2010-09-11T12:07:55Z</time>
      </trkpt>
      <trkpt lat="46.21552" lon="6.49816">
        <ele>929</ele>
        <time>2010-09-11T12:08:00Z</time>
      </trkpt>
      <trkpt lat="46.21541" lon="6.49809">
        <ele>929</ele>
        <time>2010-09-11T12:08:04Z</time>
      </trkpt>
      <trkpt lat="46.21531" lon="6.49803">
        <ele>929</ele>
        <time>2010-09-11T12:08:09Z</time>
      </trkpt>
      <trkpt lat="46.21521" lon="6.49796">
        <ele>929</ele>
        <time>2010-09-11T12:08:14Z</time>
      </trkpt>
      <trkpt lat="46.21512" lon="6.49793">
        <ele>929</ele>
        <time>2010-09-11T12:08:20Z</time>
      </trkpt>
      <trkpt lat="46.21501" lon="6.49789">
        <ele>929</ele>
        <time>2010-09-11T12:08:28Z</time>
      </trkpt>
      <trkpt lat="46.21498" lon="6.49791">
        <ele>925</ele>
        <time>2010-09-11T12:08:36Z</time>
      </trkpt>
      <trkpt lat="46.21496" lon="6.49789">
        <ele>925</ele>
        <time>2010-09-11T12:08:41Z</time>
      </trkpt>
      <trkpt lat="46.21493" lon="6.49788">
        <ele>925</ele>
        <time>2010-09-11T12:08:46Z</time>
      </trkpt>
      <trkpt lat="46.21483" lon="6.49783">
        <ele>926</ele>
        <time>2010-09-11T12:08:53Z</time>
      </trkpt>
      <trkpt lat="46.21473" lon="6.49777">
        <ele>926</ele>
        <time>2010-09-11T12:09:00Z</time>
      </trkpt>
      <trkpt lat="46.21469" lon="6.49773">
        <ele>926</ele>
        <time>2010-09-11T12:09:03Z</time>
      </trkpt>
      <trkpt lat="46.21462" lon="6.49765">
        <ele>926</ele>
        <time>2010-09-11T12:09:09Z</time>
      </trkpt>
      <trkpt lat="46.2146" lon="6.49762">
        <ele>927</ele>
        <time>2010-09-11T12:09:11Z</time>
      </trkpt>
      <trkpt lat="46.21449" lon="6.49755">
        <ele>927</ele>
        <time>2010-09-11T12:09:18Z</time>
      </trkpt>
      <trkpt lat="46.21442" lon="6.49752">
        <ele>927</ele>
        <time>2010-09-11T12:09:22Z</time>
      </trkpt>
      <trkpt lat="46.21437" lon="6.4975">
        <ele>927</ele>
        <time>2010-09-11T12:09:25Z</time>
      </trkpt>
      <trkpt lat="46.21434" lon="6.49749">
        <ele>936</ele>
        <time>2010-09-11T12:09:27Z</time>
      </trkpt>
      <trkpt lat="46.21423" lon="6.49748">
        <ele>933</ele>
        <time>2010-09-11T12:09:33Z</time>
      </trkpt>
      <trkpt lat="46.21415" lon="6.49746">
        <ele>931</ele>
        <time>2010-09-11T12:09:38Z</time>
      </trkpt>
      <trkpt lat="46.21408" lon="6.49742">
        <ele>933</ele>
        <time>2010-09-11T12:09:43Z</time>
      </trkpt>
      <trkpt lat="46.21401" lon="6.49738">
        <ele>934</ele>
        <time>2010-09-11T12:09:49Z</time>
      </trkpt>
      <trkpt lat="46.21395" lon="6.49734">
        <ele>935</ele>
        <time>2010-09-11T12:09:54Z</time>
      </trkpt>
      <trkpt lat="46.21388" lon="6.49731">
        <ele>935</ele>
        <time>2010-09-11T12:09:59Z</time>
      </trkpt>
      <trkpt lat="46.2138" lon="6.49726">
        <ele>936</ele>
        <time>2010-09-11T12:10:05Z</time>
      </trkpt>
      <trkpt lat="46.21373" lon="6.49721">
        <ele>936</ele>
        <time>2010-09-11T12:10:10Z</time>
      </trkpt>
      <trkpt lat="46.21368" lon="6.49716">
        <ele>936</ele>
        <time>2010-09-11T12:10:14Z</time>
      </trkpt>
      <trkpt lat="46.21362" lon="6.49708">
        <ele>937</ele>
        <time>2010-09-11T12:10:19Z</time>
      </trkpt>
      <trkpt lat="46.21355" lon="6.49701">
        <ele>938</ele>
        <time>2010-09-11T12:10:25Z</time>
      </trkpt>
      <trkpt lat="46.21346" lon="6.49691">
        <ele>939</ele>
        <time>2010-09-11T12:10:32Z</time>
      </trkpt>
      <trkpt lat="46.2134" lon="6.49682">
        <ele>940</ele>
        <time>2010-09-11T12:10:38Z</time>
      </trkpt>
      <trkpt lat="46.21331" lon="6.49672">
        <ele>939</ele>
        <time>2010-09-11T12:10:45Z</time>
      </trkpt>
      <trkpt lat="46.21329" lon="6.49669">
        <ele>940</ele>
        <time>2010-09-11T12:10:47Z</time>
      </trkpt>
      <trkpt lat="46.21322" lon="6.49662">
        <ele>945</ele>
        <time>2010-09-11T12:10:53Z</time>
      </trkpt>
      <trkpt lat="46.21317" lon="6.49654">
        <ele>946</ele>
        <time>2010-09-11T12:10:58Z</time>
      </trkpt>
      <trkpt lat="46.21316" lon="6.49652">
        <ele>946</ele>
        <time>2010-09-11T12:10:59Z</time>
      </trkpt>
      <trkpt lat="46.21312" lon="6.49644">
        <ele>947</ele>
        <time>2010-09-11T12:11:04Z</time>
      </trkpt>
      <trkpt lat="46.21307" lon="6.49633">
        <ele>949</ele>
        <time>2010-09-11T12:11:10Z</time>
      </trkpt>
      <trkpt lat="46.21301" lon="6.49625">
        <ele>950</ele>
        <time>2010-09-11T12:11:16Z</time>
      </trkpt>
      <trkpt lat="46.21295" lon="6.49616">
        <ele>951</ele>
        <time>2010-09-11T12:11:22Z</time>
      </trkpt>
      <trkpt lat="46.21289" lon="6.49609">
        <ele>951</ele>
        <time>2010-09-11T12:11:27Z</time>
      </trkpt>
      <trkpt lat="46.21289" lon="6.49607">
        <ele>951</ele>
        <time>2010-09-11T12:11:28Z</time>
      </trkpt>
      <trkpt lat="46.21281" lon="6.49604">
        <ele>951</ele>
        <time>2010-09-11T12:11:33Z</time>
      </trkpt>
      <trkpt lat="46.21274" lon="6.49597">
        <ele>952</ele>
        <time>2010-09-11T12:11:39Z</time>
      </trkpt>
      <trkpt lat="46.21272" lon="6.49594">
        <ele>952</ele>
        <time>2010-09-11T12:11:41Z</time>
      </trkpt>
      <trkpt lat="46.21264" lon="6.49586">
        <ele>953</ele>
        <time>2010-09-11T12:11:48Z</time>
      </trkpt>
      <trkpt lat="46.21261" lon="6.49584">
        <ele>953</ele>
        <time>2010-09-11T12:11:50Z</time>
      </trkpt>
      <trkpt lat="46.21256" lon="6.49575">
        <ele>963</ele>
        <time>2010-09-11T12:11:56Z</time>
      </trkpt>
      <trkpt lat="46.21248" lon="6.49567">
        <ele>965</ele>
        <time>2010-09-11T12:12:03Z</time>
      </trkpt>
      <trkpt lat="46.2124" lon="6.49563">
        <ele>968</ele>
        <time>2010-09-11T12:12:09Z</time>
      </trkpt>
      <trkpt lat="46.21233" lon="6.49563">
        <ele>969</ele>
        <time>2010-09-11T12:12:13Z</time>
      </trkpt>
      <trkpt lat="46.21225" lon="6.49564">
        <ele>970</ele>
        <time>2010-09-11T12:12:19Z</time>
      </trkpt>
      <trkpt lat="46.21223" lon="6.49566">
        <ele>970</ele>
        <time>2010-09-11T12:12:23Z</time>
      </trkpt>
      <trkpt lat="46.21215" lon="6.49566">
        <ele>972</ele>
        <time>2010-09-11T12:12:28Z</time>
      </trkpt>
      <trkpt lat="46.21208" lon="6.49563">
        <ele>973</ele>
        <time>2010-09-11T12:12:33Z</time>
      </trkpt>
      <trkpt lat="46.21202" lon="6.49556">
        <ele>974</ele>
        <time>2010-09-11T12:12:37Z</time>
      </trkpt>
      <trkpt lat="46.212" lon="6.49546">
        <ele>976</ele>
        <time>2010-09-11T12:12:41Z</time>
      </trkpt>
      <trkpt lat="46.21205" lon="6.49537">
        <ele>978</ele>
        <time>2010-09-11T12:12:45Z</time>
      </trkpt>
      <trkpt lat="46.21223" lon="6.49525">
        <ele>979</ele>
        <time>2010-09-11T12:12:53Z</time>
      </trkpt>
      <trkpt lat="46.2123" lon="6.49521">
        <ele>979</ele>
        <time>2010-09-11T12:12:57Z</time>
      </trkpt>
      <trkpt lat="46.21237" lon="6.49523">
        <ele>979</ele>
        <time>2010-09-11T12:13:03Z</time>
      </trkpt>
      <trkpt lat="46.21241" lon="6.49525">
        <ele>979</ele>
        <time>2010-09-11T12:13:09Z</time>
      </trkpt>
      <trkpt lat="46.21247" lon="6.49525">
        <ele>979</ele>
        <time>2010-09-11T12:13:16Z</time>
      </trkpt>
      <trkpt lat="46.21252" lon="6.49526">
        <ele>980</ele>
        <time>2010-09-11T12:13:27Z</time>
      </trkpt>
      <trkpt lat="46.21249" lon="6.49519">
        <ele>980</ele>
        <time>2010-09-11T12:13:44Z</time>
      </trkpt>
      <trkpt lat="46.21251" lon="6.49514">
        <ele>982</ele>
        <time>2010-09-11T12:13:50Z</time>
      </trkpt>
      <trkpt lat="46.21248" lon="6.49477">
        <ele>997</ele>
        <time>2010-09-11T12:14:44Z</time>
      </trkpt>
      <trkpt lat="46.21249" lon="6.49472">
        <ele>999</ele>
        <time>2010-09-11T12:14:51Z</time>
      </trkpt>
      <trkpt lat="46.21251" lon="6.49459">
        <ele>1002</ele>
        <time>2010-09-11T12:15:06Z</time>
      </trkpt>
      <trkpt lat="46.21248" lon="6.49457">
        <ele>1003</ele>
        <time>2010-09-11T12:15:11Z</time>
      </trkpt>
      <trkpt lat="46.21244" lon="6.49454">
        <ele>1003</ele>
        <time>2010-09-11T12:15:18Z</time>
      </trkpt>
      <trkpt lat="46.21239" lon="6.49453">
        <ele>1004</ele>
        <time>2010-09-11T12:15:26Z</time>
      </trkpt>
      <trkpt lat="46.21235" lon="6.49455">
        <ele>1004</ele>
        <time>2010-09-11T12:15:32Z</time>
      </trkpt>
      <trkpt lat="46.21231" lon="6.49455">
        <ele>1004</ele>
        <time>2010-09-11T12:15:34Z</time>
      </trkpt>
      <trkpt lat="46.21229" lon="6.49454">
        <ele>1004</ele>
        <time>2010-09-11T12:15:37Z</time>
      </trkpt>
      <trkpt lat="46.21229" lon="6.49448">
        <ele>1005</ele>
        <time>2010-09-11T12:15:42Z</time>
      </trkpt>
      <trkpt lat="46.21231" lon="6.49439">
        <ele>1006</ele>
        <time>2010-09-11T12:15:52Z</time>
      </trkpt>
      <trkpt lat="46.21235" lon="6.49433">
        <ele>1007</ele>
        <time>2010-09-11T12:15:58Z</time>
      </trkpt>
      <trkpt lat="46.21239" lon="6.49422">
        <ele>1008</ele>
        <time>2010-09-11T12:16:19Z</time>
      </trkpt>
      <trkpt lat="46.21239" lon="6.49418">
        <ele>1009</ele>
        <time>2010-09-11T12:16:25Z</time>
      </trkpt>
      <trkpt lat="46.21242" lon="6.49416">
        <ele>1015</ele>
        <time>2010-09-11T12:16:31Z</time>
      </trkpt>
      <trkpt lat="46.21241" lon="6.49411">
        <ele>1016</ele>
        <time>2010-09-11T12:16:36Z</time>
      </trkpt>
      <trkpt lat="46.21239" lon="6.49404">
        <ele>1018</ele>
        <time>2010-09-11T12:16:43Z</time>
      </trkpt>
      <trkpt lat="46.21235" lon="6.49396">
        <ele>1021</ele>
        <time>2010-09-11T12:16:48Z</time>
      </trkpt>
      <trkpt lat="46.21235" lon="6.49392">
        <ele>1022</ele>
        <time>2010-09-11T12:16:51Z</time>
      </trkpt>
      <trkpt lat="46.21235" lon="6.49383">
        <ele>1023</ele>
        <time>2010-09-11T12:16:57Z</time>
      </trkpt>
      <trkpt lat="46.21242" lon="6.49378">
        <ele>1024</ele>
        <time>2010-09-11T12:17:02Z</time>
      </trkpt>
      <trkpt lat="46.21246" lon="6.49375">
        <ele>1024</ele>
        <time>2010-09-11T12:17:08Z</time>
      </trkpt>
      <trkpt lat="46.21247" lon="6.49376">
        <ele>1024</ele>
        <time>2010-09-11T12:17:20Z</time>
      </trkpt>
      <trkpt lat="46.21249" lon="6.49368">
        <ele>1025</ele>
        <time>2010-09-11T12:17:34Z</time>
      </trkpt>
      <trkpt lat="46.2125" lon="6.49363">
        <ele>1024</ele>
        <time>2010-09-11T12:17:37Z</time>
      </trkpt>
      <trkpt lat="46.2125" lon="6.4936">
        <ele>1027</ele>
        <time>2010-09-11T12:17:41Z</time>
      </trkpt>
      <trkpt lat="46.21246" lon="6.49355">
        <ele>1027</ele>
        <time>2010-09-11T12:17:52Z</time>
      </trkpt>
      <trkpt lat="46.21244" lon="6.49354">
        <ele>1027</ele>
        <time>2010-09-11T12:17:58Z</time>
      </trkpt>
      <trkpt lat="46.21243" lon="6.49351">
        <ele>1028</ele>
        <time>2010-09-11T12:18:03Z</time>
      </trkpt>
      <trkpt lat="46.2124" lon="6.49347">
        <ele>1028</ele>
        <time>2010-09-11T12:18:11Z</time>
      </trkpt>
      <trkpt lat="46.21242" lon="6.49336">
        <ele>1029</ele>
        <time>2010-09-11T12:18:18Z</time>
      </trkpt>
      <trkpt lat="46.21244" lon="6.49323">
        <ele>1035</ele>
        <time>2010-09-11T12:18:31Z</time>
      </trkpt>
      <trkpt lat="46.21245" lon="6.4932">
        <ele>1036</ele>
        <time>2010-09-11T12:18:36Z</time>
      </trkpt>
      <trkpt lat="46.21244" lon="6.49317">
        <ele>1037</ele>
        <time>2010-09-11T12:18:40Z</time>
      </trkpt>
      <trkpt lat="46.21244" lon="6.49312">
        <ele>1038</ele>
        <time>2010-09-11T12:18:46Z</time>
      </trkpt>
      <trkpt lat="46.21245" lon="6.49308">
        <ele>1039</ele>
        <time>2010-09-11T12:18:52Z</time>
      </trkpt>
      <trkpt lat="46.21245" lon="6.49304">
        <ele>1040</ele>
        <time>2010-09-11T12:18:57Z</time>
      </trkpt>
      <trkpt lat="46.21243" lon="6.49298">
        <ele>1041</ele>
        <time>2010-09-11T12:19:02Z</time>
      </trkpt>
      <trkpt lat="46.21242" lon="6.49295">
        <ele>1042</ele>
        <time>2010-09-11T12:19:07Z</time>
      </trkpt>
      <trkpt lat="46.21241" lon="6.49294">
        <ele>1042</ele>
        <time>2010-09-11T12:19:13Z</time>
      </trkpt>
      <trkpt lat="46.21242" lon="6.49291">
        <ele>1043</ele>
        <time>2010-09-11T12:19:21Z</time>
      </trkpt>
      <trkpt lat="46.21241" lon="6.49287">
        <ele>1043</ele>
        <time>2010-09-11T12:19:28Z</time>
      </trkpt>
      <trkpt lat="46.21239" lon="6.49288">
        <ele>1043</ele>
        <time>2010-09-11T12:19:34Z</time>
      </trkpt>
      <trkpt lat="46.21236" lon="6.49286">
        <ele>1043</ele>
        <time>2010-09-11T12:19:42Z</time>
      </trkpt>
      <trkpt lat="46.21238" lon="6.49285">
        <ele>1044</ele>
        <time>2010-09-11T12:19:45Z</time>
      </trkpt>
      <trkpt lat="46.21241" lon="6.49284">
        <ele>1044</ele>
        <time>2010-09-11T12:19:47Z</time>
      </trkpt>
      <trkpt lat="46.21254" lon="6.49282">
        <ele>1043</ele>
        <time>2010-09-11T12:19:55Z</time>
      </trkpt>
      <trkpt lat="46.21261" lon="6.49282">
        <ele>1043</ele>
        <time>2010-09-11T12:20:00Z</time>
      </trkpt>
      <trkpt lat="46.21264" lon="6.49283">
        <ele>1043</ele>
        <time>2010-09-11T12:20:04Z</time>
      </trkpt>
      <trkpt lat="46.21268" lon="6.4928">
        <ele>1043</ele>
        <time>2010-09-11T12:20:10Z</time>
      </trkpt>
      <trkpt lat="46.2127" lon="6.49281">
        <ele>1043</ele>
        <time>2010-09-11T12:20:12Z</time>
      </trkpt>
      <trkpt lat="46.21273" lon="6.4928">
        <ele>1043</ele>
        <time>2010-09-11T12:20:14Z</time>
      </trkpt>
      <trkpt lat="46.21268" lon="6.4928">
        <ele>1044</ele>
        <time>2010-09-11T12:20:19Z</time>
      </trkpt>
      <trkpt lat="46.21265" lon="6.49281">
        <ele>1043</ele>
        <time>2010-09-11T12:20:25Z</time>
      </trkpt>
      <trkpt lat="46.21264" lon="6.4928">
        <ele>1043</ele>
        <time>2010-09-11T12:20:37Z</time>
      </trkpt>
      <trkpt lat="46.21264" lon="6.49273">
        <ele>1045</ele>
        <time>2010-09-11T12:20:45Z</time>
      </trkpt>
      <trkpt lat="46.21268" lon="6.49266">
        <ele>1046</ele>
        <time>2010-09-11T12:20:49Z</time>
      </trkpt>
      <trkpt lat="46.2127" lon="6.4926">
        <ele>1046</ele>
        <time>2010-09-11T12:20:57Z</time>
      </trkpt>
      <trkpt lat="46.21274" lon="6.49258">
        <ele>1046</ele>
        <time>2010-09-11T12:21:08Z</time>
      </trkpt>
      <trkpt lat="46.21276" lon="6.49256">
        <ele>1046</ele>
        <time>2010-09-11T12:21:14Z</time>
      </trkpt>
      <trkpt lat="46.2128" lon="6.49254">
        <ele>1046</ele>
        <time>2010-09-11T12:21:18Z</time>
      </trkpt>
      <trkpt lat="46.21283" lon="6.49251">
        <ele>1046</ele>
        <time>2010-09-11T12:21:24Z</time>
      </trkpt>
      <trkpt lat="46.21285" lon="6.4925">
        <ele>1046</ele>
        <time>2010-09-11T12:21:29Z</time>
      </trkpt>
      <trkpt lat="46.21288" lon="6.49248">
        <ele>1063</ele>
        <time>2010-09-11T12:21:34Z</time>
      </trkpt>
      <trkpt lat="46.21289" lon="6.49241">
        <ele>1064</ele>
        <time>2010-09-11T12:21:43Z</time>
      </trkpt>
      <trkpt lat="46.21294" lon="6.4924">
        <ele>1064</ele>
        <time>2010-09-11T12:21:49Z</time>
      </trkpt>
      <trkpt lat="46.21298" lon="6.49241">
        <ele>1064</ele>
        <time>2010-09-11T12:21:53Z</time>
      </trkpt>
      <trkpt lat="46.21303" lon="6.4924">
        <ele>1064</ele>
        <time>2010-09-11T12:21:58Z</time>
      </trkpt>
      <trkpt lat="46.21307" lon="6.49236">
        <ele>1064</ele>
        <time>2010-09-11T12:22:08Z</time>
      </trkpt>
      <trkpt lat="46.2131" lon="6.49236">
        <ele>1064</ele>
        <time>2010-09-11T12:22:12Z</time>
      </trkpt>
      <trkpt lat="46.21312" lon="6.49232">
        <ele>1065</ele>
        <time>2010-09-11T12:22:18Z</time>
      </trkpt>
      <trkpt lat="46.21313" lon="6.49231">
        <ele>1065</ele>
        <time>2010-09-11T12:22:19Z</time>
      </trkpt>
      <trkpt lat="46.21318" lon="6.49232">
        <ele>1064</ele>
        <time>2010-09-11T12:22:24Z</time>
      </trkpt>
      <trkpt lat="46.21325" lon="6.49233">
        <ele>1063</ele>
        <time>2010-09-11T12:22:34Z</time>
      </trkpt>
      <trkpt lat="46.21336" lon="6.49234">
        <ele>1064</ele>
        <time>2010-09-11T12:22:41Z</time>
      </trkpt>
      <trkpt lat="46.21344" lon="6.49242">
        <ele>1063</ele>
        <time>2010-09-11T12:22:47Z</time>
      </trkpt>
      <trkpt lat="46.21354" lon="6.49244">
        <ele>1065</ele>
        <time>2010-09-11T12:22:53Z</time>
      </trkpt>
      <trkpt lat="46.21368" lon="6.49245">
        <ele>1067</ele>
        <time>2010-09-11T12:22:59Z</time>
      </trkpt>
      <trkpt lat="46.21378" lon="6.49258">
        <ele>1052</ele>
        <time>2010-09-11T12:23:04Z</time>
      </trkpt>
      <trkpt lat="46.21392" lon="6.4927">
        <ele>1052</ele>
        <time>2010-09-11T12:23:10Z</time>
      </trkpt>
      <trkpt lat="46.21402" lon="6.49275">
        <ele>1053</ele>
        <time>2010-09-11T12:23:16Z</time>
      </trkpt>
      <trkpt lat="46.21409" lon="6.49277">
        <ele>1053</ele>
        <time>2010-09-11T12:23:22Z</time>
      </trkpt>
      <trkpt lat="46.21413" lon="6.49277">
        <ele>1053</ele>
        <time>2010-09-11T12:23:26Z</time>
      </trkpt>
      <trkpt lat="46.21421" lon="6.4928">
        <ele>1058</ele>
        <time>2010-09-11T12:23:33Z</time>
      </trkpt>
      <trkpt lat="46.2143" lon="6.49283">
        <ele>1058</ele>
        <time>2010-09-11T12:23:40Z</time>
      </trkpt>
      <trkpt lat="46.21438" lon="6.49284">
        <ele>1058</ele>
        <time>2010-09-11T12:23:46Z</time>
      </trkpt>
      <trkpt lat="46.21444" lon="6.49282">
        <ele>1059</ele>
        <time>2010-09-11T12:23:52Z</time>
      </trkpt>
      <trkpt lat="46.21448" lon="6.49281">
        <ele>1059</ele>
        <time>2010-09-11T12:23:57Z</time>
      </trkpt>
      <trkpt lat="46.21453" lon="6.4928">
        <ele>1059</ele>
        <time>2010-09-11T12:24:02Z</time>
      </trkpt>
      <trkpt lat="46.2146" lon="6.49278">
        <ele>1060</ele>
        <time>2010-09-11T12:24:08Z</time>
      </trkpt>
      <trkpt lat="46.21463" lon="6.49274">
        <ele>1060</ele>
        <time>2010-09-11T12:24:12Z</time>
      </trkpt>
      <trkpt lat="46.21471" lon="6.49283">
        <ele>1060</ele>
        <time>2010-09-11T12:24:17Z</time>
      </trkpt>
      <trkpt lat="46.21482" lon="6.49296">
        <ele>1059</ele>
        <time>2010-09-11T12:24:22Z</time>
      </trkpt>
      <trkpt lat="46.2149" lon="6.49301">
        <ele>1059</ele>
        <time>2010-09-11T12:24:26Z</time>
      </trkpt>
      <trkpt lat="46.21492" lon="6.49302">
        <ele>1059</ele>
        <time>2010-09-11T12:24:28Z</time>
      </trkpt>
      <trkpt lat="46.21499" lon="6.49302">
        <ele>1059</ele>
        <time>2010-09-11T12:24:33Z</time>
      </trkpt>
      <trkpt lat="46.21504" lon="6.49299">
        <ele>1064</ele>
        <time>2010-09-11T12:24:37Z</time>
      </trkpt>
      <trkpt lat="46.21507" lon="6.49294">
        <ele>1065</ele>
        <time>2010-09-11T12:24:43Z</time>
      </trkpt>
      <trkpt lat="46.21505" lon="6.49292">
        <ele>1065</ele>
        <time>2010-09-11T12:24:50Z</time>
      </trkpt>
      <trkpt lat="46.21499" lon="6.49292">
        <ele>1060</ele>
        <time>2010-09-11T12:24:54Z</time>
      </trkpt>
      <trkpt lat="46.21494" lon="6.4929">
        <ele>1060</ele>
        <time>2010-09-11T12:24:58Z</time>
      </trkpt>
      <trkpt lat="46.21493" lon="6.49289">
        <ele>1061</ele>
        <time>2010-09-11T12:25:00Z</time>
      </trkpt>
      <trkpt lat="46.21491" lon="6.4928">
        <ele>1062</ele>
        <time>2010-09-11T12:25:05Z</time>
      </trkpt>
      <trkpt lat="46.21491" lon="6.49273">
        <ele>1063</ele>
        <time>2010-09-11T12:25:08Z</time>
      </trkpt>
      <trkpt lat="46.21494" lon="6.49266">
        <ele>1065</ele>
        <time>2010-09-11T12:25:12Z</time>
      </trkpt>
      <trkpt lat="46.21497" lon="6.49259">
        <ele>1067</ele>
        <time>2010-09-11T12:25:16Z</time>
      </trkpt>
      <trkpt lat="46.215" lon="6.49252">
        <ele>1070</ele>
        <time>2010-09-11T12:25:18Z</time>
      </trkpt>
      <trkpt lat="46.21508" lon="6.49239">
        <ele>1080</ele>
        <time>2010-09-11T12:25:22Z</time>
      </trkpt>
      <trkpt lat="46.2151" lon="6.49231">
        <ele>1083</ele>
        <time>2010-09-11T12:25:26Z</time>
      </trkpt>
      <trkpt lat="46.21506" lon="6.49228">
        <ele>1083</ele>
        <time>2010-09-11T12:25:32Z</time>
      </trkpt>
      <trkpt lat="46.21512" lon="6.49231">
        <ele>1083</ele>
        <time>2010-09-11T12:25:45Z</time>
      </trkpt>
      <trkpt lat="46.21512" lon="6.49232">
        <ele>1083</ele>
        <time>2010-09-11T12:25:46Z</time>
      </trkpt>
      <trkpt lat="46.21514" lon="6.49238">
        <ele>1082</ele>
        <time>2010-09-11T12:25:52Z</time>
      </trkpt>
      <trkpt lat="46.21514" lon="6.49239">
        <ele>1081</ele>
        <time>2010-09-11T12:25:53Z</time>
      </trkpt>
      <trkpt lat="46.2151" lon="6.49247">
        <ele>1078</ele>
        <time>2010-09-11T12:25:59Z</time>
      </trkpt>
      <trkpt lat="46.21502" lon="6.4926">
        <ele>1069</ele>
        <time>2010-09-11T12:26:05Z</time>
      </trkpt>
      <trkpt lat="46.21498" lon="6.49263">
        <ele>1066</ele>
        <time>2010-09-11T12:26:09Z</time>
      </trkpt>
      <trkpt lat="46.21494" lon="6.4926">
        <ele>1066</ele>
        <time>2010-09-11T12:26:12Z</time>
      </trkpt>
      <trkpt lat="46.2149" lon="6.49251">
        <ele>1067</ele>
        <time>2010-09-11T12:26:18Z</time>
      </trkpt>
      <trkpt lat="46.21487" lon="6.49246">
        <ele>1073</ele>
        <time>2010-09-11T12:26:22Z</time>
      </trkpt>
      <trkpt lat="46.21488" lon="6.4924">
        <ele>1074</ele>
        <time>2010-09-11T12:26:25Z</time>
      </trkpt>
      <trkpt lat="46.2149" lon="6.49231">
        <ele>1075</ele>
        <time>2010-09-11T12:26:30Z</time>
      </trkpt>
      <trkpt lat="46.21492" lon="6.49224">
        <ele>1077</ele>
        <time>2010-09-11T12:26:35Z</time>
      </trkpt>
      <trkpt lat="46.2149" lon="6.4922">
        <ele>1077</ele>
        <time>2010-09-11T12:26:39Z</time>
      </trkpt>
      <trkpt lat="46.21488" lon="6.49218">
        <ele>1077</ele>
        <time>2010-09-11T12:26:42Z</time>
      </trkpt>
      <trkpt lat="46.21484" lon="6.49213">
        <ele>1078</ele>
        <time>2010-09-11T12:26:48Z</time>
      </trkpt>
      <trkpt lat="46.21482" lon="6.49206">
        <ele>1079</ele>
        <time>2010-09-11T12:26:52Z</time>
      </trkpt>
      <trkpt lat="46.21481" lon="6.49203">
        <ele>1080</ele>
        <time>2010-09-11T12:26:54Z</time>
      </trkpt>
      <trkpt lat="46.21479" lon="6.49192">
        <ele>1082</ele>
        <time>2010-09-11T12:26:59Z</time>
      </trkpt>
      <trkpt lat="46.21479" lon="6.49187">
        <ele>1083</ele>
        <time>2010-09-11T12:27:03Z</time>
      </trkpt>
      <trkpt lat="46.21478" lon="6.4918">
        <ele>1084</ele>
        <time>2010-09-11T12:27:07Z</time>
      </trkpt>
      <trkpt lat="46.21477" lon="6.49175">
        <ele>1084</ele>
        <time>2010-09-11T12:27:11Z</time>
      </trkpt>
      <trkpt lat="46.21477" lon="6.49171">
        <ele>1085</ele>
        <time>2010-09-11T12:27:15Z</time>
      </trkpt>
      <trkpt lat="46.21475" lon="6.49168">
        <ele>1084</ele>
        <time>2010-09-11T12:27:19Z</time>
      </trkpt>
      <trkpt lat="46.21473" lon="6.49164">
        <ele>1100</ele>
        <time>2010-09-11T12:27:25Z</time>
      </trkpt>
      <trkpt lat="46.21471" lon="6.4916">
        <ele>1101</ele>
        <time>2010-09-11T12:27:29Z</time>
      </trkpt>
      <trkpt lat="46.21469" lon="6.49154">
        <ele>1102</ele>
        <time>2010-09-11T12:27:35Z</time>
      </trkpt>
      <trkpt lat="46.21469" lon="6.49142">
        <ele>1103</ele>
        <time>2010-09-11T12:27:45Z</time>
      </trkpt>
      <trkpt lat="46.21467" lon="6.49136">
        <ele>1105</ele>
        <time>2010-09-11T12:27:49Z</time>
      </trkpt>
      <trkpt lat="46.21467" lon="6.49129">
        <ele>1106</ele>
        <time>2010-09-11T12:27:54Z</time>
      </trkpt>
      <trkpt lat="46.21467" lon="6.49124">
        <ele>1107</ele>
        <time>2010-09-11T12:27:58Z</time>
      </trkpt>
      <trkpt lat="46.21467" lon="6.49114">
        <ele>1109</ele>
        <time>2010-09-11T12:28:07Z</time>
      </trkpt>
      <trkpt lat="46.21468" lon="6.49106">
        <ele>1110</ele>
        <time>2010-09-11T12:28:13Z</time>
      </trkpt>
      <trkpt lat="46.21468" lon="6.49105">
        <ele>1111</ele>
        <time>2010-09-11T12:28:24Z</time>
      </trkpt>
      <trkpt lat="46.21466" lon="6.49099">
        <ele>1111</ele>
        <time>2010-09-11T12:28:30Z</time>
      </trkpt>
      <trkpt lat="46.21466" lon="6.49094">
        <ele>1112</ele>
        <time>2010-09-11T12:28:35Z</time>
      </trkpt>
      <trkpt lat="46.21464" lon="6.49088">
        <ele>1113</ele>
        <time>2010-09-11T12:28:41Z</time>
      </trkpt>
      <trkpt lat="46.21462" lon="6.49083">
        <ele>1131</ele>
        <time>2010-09-11T12:28:45Z</time>
      </trkpt>
      <trkpt lat="46.21465" lon="6.4907">
        <ele>1131</ele>
        <time>2010-09-11T12:29:00Z</time>
      </trkpt>
      <trkpt lat="46.21464" lon="6.49068">
        <ele>1132</ele>
        <time>2010-09-11T12:29:05Z</time>
      </trkpt>
      <trkpt lat="46.21462" lon="6.49067">
        <ele>1132</ele>
        <time>2010-09-11T12:29:10Z</time>
      </trkpt>
      <trkpt lat="46.2146" lon="6.49071">
        <ele>1132</ele>
        <time>2010-09-11T12:29:15Z</time>
      </trkpt>
      <trkpt lat="46.21459" lon="6.49071">
        <ele>1132</ele>
        <time>2010-09-11T12:29:16Z</time>
      </trkpt>
      <trkpt lat="46.21453" lon="6.49075">
        <ele>1131</ele>
        <time>2010-09-11T12:29:23Z</time>
      </trkpt>
      <trkpt lat="46.21449" lon="6.49072">
        <ele>1131</ele>
        <time>2010-09-11T12:29:28Z</time>
      </trkpt>
      <trkpt lat="46.21446" lon="6.49064">
        <ele>1132</ele>
        <time>2010-09-11T12:29:38Z</time>
      </trkpt>
      <trkpt lat="46.21445" lon="6.4906">
        <ele>1133</ele>
        <time>2010-09-11T12:29:47Z</time>
      </trkpt>
      <trkpt lat="46.21443" lon="6.49052">
        <ele>1134</ele>
        <time>2010-09-11T12:29:52Z</time>
      </trkpt>
      <trkpt lat="46.2145" lon="6.49039">
        <ele>1136</ele>
        <time>2010-09-11T12:30:05Z</time>
      </trkpt>
      <trkpt lat="46.21454" lon="6.49034">
        <ele>1137</ele>
        <time>2010-09-11T12:30:11Z</time>
      </trkpt>
      <trkpt lat="46.21456" lon="6.49032">
        <ele>1137</ele>
        <time>2010-09-11T12:30:13Z</time>
      </trkpt>
      <trkpt lat="46.21453" lon="6.49028">
        <ele>1137</ele>
        <time>2010-09-11T12:30:22Z</time>
      </trkpt>
      <trkpt lat="46.2145" lon="6.49022">
        <ele>1138</ele>
        <time>2010-09-11T12:30:32Z</time>
      </trkpt>
      <trkpt lat="46.21449" lon="6.49012">
        <ele>1140</ele>
        <time>2010-09-11T12:30:41Z</time>
      </trkpt>
      <trkpt lat="46.21451" lon="6.49011">
        <ele>1140</ele>
        <time>2010-09-11T12:30:48Z</time>
      </trkpt>
      <trkpt lat="46.21451" lon="6.49008">
        <ele>1140</ele>
        <time>2010-09-11T12:30:56Z</time>
      </trkpt>
      <trkpt lat="46.2145" lon="6.49005">
        <ele>1140</ele>
        <time>2010-09-11T12:31:00Z</time>
      </trkpt>
      <trkpt lat="46.2145" lon="6.49001">
        <ele>1141</ele>
        <time>2010-09-11T12:31:08Z</time>
      </trkpt>
      <trkpt lat="46.21447" lon="6.48997">
        <ele>1155</ele>
        <time>2010-09-11T12:31:13Z</time>
      </trkpt>
      <trkpt lat="46.21446" lon="6.48995">
        <ele>1155</ele>
        <time>2010-09-11T12:31:18Z</time>
      </trkpt>
      <trkpt lat="46.21443" lon="6.48993">
        <ele>1155</ele>
        <time>2010-09-11T12:31:21Z</time>
      </trkpt>
      <trkpt lat="46.21443" lon="6.48986">
        <ele>1156</ele>
        <time>2010-09-11T12:31:27Z</time>
      </trkpt>
      <trkpt lat="46.21447" lon="6.48975">
        <ele>1157</ele>
        <time>2010-09-11T12:31:38Z</time>
      </trkpt>
      <trkpt lat="46.21446" lon="6.48972">
        <ele>1157</ele>
        <time>2010-09-11T12:31:45Z</time>
      </trkpt>
      <trkpt lat="46.21446" lon="6.48959">
        <ele>1159</ele>
        <time>2010-09-11T12:31:58Z</time>
      </trkpt>
      <trkpt lat="46.21443" lon="6.48957">
        <ele>1160</ele>
        <time>2010-09-11T12:32:04Z</time>
      </trkpt>
      <trkpt lat="46.21441" lon="6.48956">
        <ele>1160</ele>
        <time>2010-09-11T12:32:08Z</time>
      </trkpt>
      <trkpt lat="46.2144" lon="6.48954">
        <ele>1161</ele>
        <time>2010-09-11T12:32:12Z</time>
      </trkpt>
      <trkpt lat="46.21443" lon="6.48944">
        <ele>1162</ele>
        <time>2010-09-11T12:32:21Z</time>
      </trkpt>
      <trkpt lat="46.21446" lon="6.48938">
        <ele>1163</ele>
        <time>2010-09-11T12:32:25Z</time>
      </trkpt>
      <trkpt lat="46.21442" lon="6.48931">
        <ele>1165</ele>
        <time>2010-09-11T12:32:33Z</time>
      </trkpt>
      <trkpt lat="46.21438" lon="6.48922">
        <ele>1168</ele>
        <time>2010-09-11T12:32:47Z</time>
      </trkpt>
      <trkpt lat="46.21435" lon="6.48921">
        <ele>1169</ele>
        <time>2010-09-11T12:32:52Z</time>
      </trkpt>
      <trkpt lat="46.21432" lon="6.48917">
        <ele>1171</ele>
        <time>2010-09-11T12:32:58Z</time>
      </trkpt>
      <trkpt lat="46.21429" lon="6.48914">
        <ele>1178</ele>
        <time>2010-09-11T12:33:03Z</time>
      </trkpt>
      <trkpt lat="46.21428" lon="6.48909">
        <ele>1178</ele>
        <time>2010-09-11T12:33:08Z</time>
      </trkpt>
      <trkpt lat="46.21426" lon="6.48905">
        <ele>1178</ele>
        <time>2010-09-11T12:33:12Z</time>
      </trkpt>
      <trkpt lat="46.21426" lon="6.489">
        <ele>1178</ele>
        <time>2010-09-11T12:33:16Z</time>
      </trkpt>
      <trkpt lat="46.21428" lon="6.48895">
        <ele>1177</ele>
        <time>2010-09-11T12:33:21Z</time>
      </trkpt>
      <trkpt lat="46.21427" lon="6.48891">
        <ele>1177</ele>
        <time>2010-09-11T12:33:26Z</time>
      </trkpt>
      <trkpt lat="46.21426" lon="6.48887">
        <ele>1177</ele>
        <time>2010-09-11T12:33:31Z</time>
      </trkpt>
      <trkpt lat="46.21423" lon="6.48882">
        <ele>1177</ele>
        <time>2010-09-11T12:33:38Z</time>
      </trkpt>
      <trkpt lat="46.2142" lon="6.48878">
        <ele>1177</ele>
        <time>2010-09-11T12:33:43Z</time>
      </trkpt>
      <trkpt lat="46.21419" lon="6.48874">
        <ele>1177</ele>
        <time>2010-09-11T12:33:47Z</time>
      </trkpt>
      <trkpt lat="46.21418" lon="6.48871">
        <ele>1178</ele>
        <time>2010-09-11T12:33:51Z</time>
      </trkpt>
      <trkpt lat="46.21417" lon="6.48865">
        <ele>1178</ele>
        <time>2010-09-11T12:33:56Z</time>
      </trkpt>
      <trkpt lat="46.21418" lon="6.48861">
        <ele>1179</ele>
        <time>2010-09-11T12:34:00Z</time>
      </trkpt>
      <trkpt lat="46.21416" lon="6.48854">
        <ele>1193</ele>
        <time>2010-09-11T12:34:06Z</time>
      </trkpt>
      <trkpt lat="46.21414" lon="6.48849">
        <ele>1192</ele>
        <time>2010-09-11T12:34:11Z</time>
      </trkpt>
      <trkpt lat="46.2141" lon="6.48841">
        <ele>1190</ele>
        <time>2010-09-11T12:34:19Z</time>
      </trkpt>
      <trkpt lat="46.21408" lon="6.48836">
        <ele>1190</ele>
        <time>2010-09-11T12:34:23Z</time>
      </trkpt>
      <trkpt lat="46.21406" lon="6.48832">
        <ele>1193</ele>
        <time>2010-09-11T12:34:27Z</time>
      </trkpt>
      <trkpt lat="46.21404" lon="6.48826">
        <ele>1195</ele>
        <time>2010-09-11T12:34:31Z</time>
      </trkpt>
      <trkpt lat="46.21403" lon="6.48824">
        <ele>1195</ele>
        <time>2010-09-11T12:34:33Z</time>
      </trkpt>
      <trkpt lat="46.214" lon="6.48824">
        <ele>1197</ele>
        <time>2010-09-11T12:34:39Z</time>
      </trkpt>
      <trkpt lat="46.21398" lon="6.48825">
        <ele>1197</ele>
        <time>2010-09-11T12:34:44Z</time>
      </trkpt>
      <trkpt lat="46.21395" lon="6.48825">
        <ele>1198</ele>
        <time>2010-09-11T12:34:49Z</time>
      </trkpt>
      <trkpt lat="46.21394" lon="6.48824">
        <ele>1199</ele>
        <time>2010-09-11T12:34:55Z</time>
      </trkpt>
      <trkpt lat="46.21399" lon="6.48822">
        <ele>1197</ele>
        <time>2010-09-11T12:35:01Z</time>
      </trkpt>
      <trkpt lat="46.21405" lon="6.48822">
        <ele>1195</ele>
        <time>2010-09-11T12:35:11Z</time>
      </trkpt>
      <trkpt lat="46.21398" lon="6.48817">
        <ele>1198</ele>
        <time>2010-09-11T12:35:20Z</time>
      </trkpt>
      <trkpt lat="46.21394" lon="6.48824">
        <ele>1199</ele>
        <time>2010-09-11T12:35:42Z</time>
      </trkpt>
      <trkpt lat="46.21394" lon="6.48813">
        <ele>1200</ele>
        <time>2010-09-11T12:35:47Z</time>
      </trkpt>
      <trkpt lat="46.21396" lon="6.48805">
        <ele>1200</ele>
        <time>2010-09-11T12:35:51Z</time>
      </trkpt>
      <trkpt lat="46.21395" lon="6.48798">
        <ele>1201</ele>
        <time>2010-09-11T12:35:56Z</time>
      </trkpt>
      <trkpt lat="46.21394" lon="6.48789">
        <ele>1202</ele>
        <time>2010-09-11T12:36:03Z</time>
      </trkpt>
      <trkpt lat="46.21394" lon="6.48787">
        <ele>1202</ele>
        <time>2010-09-11T12:36:04Z</time>
      </trkpt>
      <trkpt lat="46.21393" lon="6.48778">
        <ele>1202</ele>
        <time>2010-09-11T12:36:10Z</time>
      </trkpt>
      <trkpt lat="46.21389" lon="6.48774">
        <ele>1202</ele>
        <time>2010-09-11T12:36:16Z</time>
      </trkpt>
      <trkpt lat="46.21383" lon="6.48772">
        <ele>1204</ele>
        <time>2010-09-11T12:36:20Z</time>
      </trkpt>
      <trkpt lat="46.21379" lon="6.48771">
        <ele>1205</ele>
        <time>2010-09-11T12:36:26Z</time>
      </trkpt>
      <trkpt lat="46.21374" lon="6.48764">
        <ele>1206</ele>
        <time>2010-09-11T12:36:33Z</time>
      </trkpt>
      <trkpt lat="46.21373" lon="6.48757">
        <ele>1206</ele>
        <time>2010-09-11T12:36:40Z</time>
      </trkpt>
      <trkpt lat="46.2137" lon="6.48754">
        <ele>1207</ele>
        <time>2010-09-11T12:36:42Z</time>
      </trkpt>
      <trkpt lat="46.2136" lon="6.48747">
        <ele>1212</ele>
        <time>2010-09-11T12:36:49Z</time>
      </trkpt>
      <trkpt lat="46.21357" lon="6.48741">
        <ele>1212</ele>
        <time>2010-09-11T12:36:56Z</time>
      </trkpt>
      <trkpt lat="46.21356" lon="6.48734">
        <ele>1212</ele>
        <time>2010-09-11T12:37:06Z</time>
      </trkpt>
      <trkpt lat="46.2135" lon="6.48733">
        <ele>1213</ele>
        <time>2010-09-11T12:37:12Z</time>
      </trkpt>
      <trkpt lat="46.21347" lon="6.48731">
        <ele>1214</ele>
        <time>2010-09-11T12:37:17Z</time>
      </trkpt>
      <trkpt lat="46.21341" lon="6.48723">
        <ele>1213</ele>
        <time>2010-09-11T12:37:24Z</time>
      </trkpt>
      <trkpt lat="46.21342" lon="6.4872">
        <ele>1213</ele>
        <time>2010-09-11T12:37:28Z</time>
      </trkpt>
      <trkpt lat="46.21341" lon="6.48716">
        <ele>1213</ele>
        <time>2010-09-11T12:37:31Z</time>
      </trkpt>
      <trkpt lat="46.21333" lon="6.48712">
        <ele>1230</ele>
        <time>2010-09-11T12:37:49Z</time>
      </trkpt>
      <trkpt lat="46.21332" lon="6.48711">
        <ele>1230</ele>
        <time>2010-09-11T12:37:55Z</time>
      </trkpt>
      <trkpt lat="46.21329" lon="6.48711">
        <ele>1230</ele>
        <time>2010-09-11T12:38:03Z</time>
      </trkpt>
      <trkpt lat="46.21331" lon="6.48704">
        <ele>1230</ele>
        <time>2010-09-11T12:38:10Z</time>
      </trkpt>
      <trkpt lat="46.21331" lon="6.487">
        <ele>1230</ele>
        <time>2010-09-11T12:38:17Z</time>
      </trkpt>
      <trkpt lat="46.21328" lon="6.48696">
        <ele>1230</ele>
        <time>2010-09-11T12:38:22Z</time>
      </trkpt>
      <trkpt lat="46.21326" lon="6.48694">
        <ele>1230</ele>
        <time>2010-09-11T12:38:26Z</time>
      </trkpt>
      <trkpt lat="46.2132" lon="6.48691">
        <ele>1230</ele>
        <time>2010-09-11T12:38:32Z</time>
      </trkpt>
      <trkpt lat="46.21315" lon="6.48687">
        <ele>1230</ele>
        <time>2010-09-11T12:38:38Z</time>
      </trkpt>
      <trkpt lat="46.21311" lon="6.48685">
        <ele>1231</ele>
        <time>2010-09-11T12:38:42Z</time>
      </trkpt>
      <trkpt lat="46.21308" lon="6.48683">
        <ele>1231</ele>
        <time>2010-09-11T12:38:46Z</time>
      </trkpt>
      <trkpt lat="46.2131" lon="6.48679">
        <ele>1231</ele>
        <time>2010-09-11T12:38:50Z</time>
      </trkpt>
      <trkpt lat="46.21298" lon="6.48661">
        <ele>1231</ele>
        <time>2010-09-11T12:39:09Z</time>
      </trkpt>
      <trkpt lat="46.21291" lon="6.48651">
        <ele>1233</ele>
        <time>2010-09-11T12:39:22Z</time>
      </trkpt>
      <trkpt lat="46.21291" lon="6.4865">
        <ele>1233</ele>
        <time>2010-09-11T12:39:23Z</time>
      </trkpt>
      <trkpt lat="46.2129" lon="6.48646">
        <ele>1233</ele>
        <time>2010-09-11T12:39:27Z</time>
      </trkpt>
      <trkpt lat="46.21285" lon="6.48643">
        <ele>1234</ele>
        <time>2010-09-11T12:39:31Z</time>
      </trkpt>
      <trkpt lat="46.21285" lon="6.48642">
        <ele>1234</ele>
        <time>2010-09-11T12:39:32Z</time>
      </trkpt>
      <trkpt lat="46.2128" lon="6.48634">
        <ele>1234</ele>
        <time>2010-09-11T12:39:38Z</time>
      </trkpt>
      <trkpt lat="46.21273" lon="6.48629">
        <ele>1235</ele>
        <time>2010-09-11T12:39:43Z</time>
      </trkpt>
      <trkpt lat="46.21273" lon="6.48628">
        <ele>1235</ele>
        <time>2010-09-11T12:39:44Z</time>
      </trkpt>
      <trkpt lat="46.2127" lon="6.48624">
        <ele>1236</ele>
        <time>2010-09-11T12:39:49Z</time>
      </trkpt>
      <trkpt lat="46.21269" lon="6.48624">
        <ele>1236</ele>
        <time>2010-09-11T12:39:50Z</time>
      </trkpt>
      <trkpt lat="46.21264" lon="6.48622">
        <ele>1236</ele>
        <time>2010-09-11T12:39:55Z</time>
      </trkpt>
      <trkpt lat="46.21263" lon="6.48621">
        <ele>1236</ele>
        <time>2010-09-11T12:40:00Z</time>
      </trkpt>
      <trkpt lat="46.21259" lon="6.48609">
        <ele>1238</ele>
        <time>2010-09-11T12:40:21Z</time>
      </trkpt>
      <trkpt lat="46.21252" lon="6.48607">
        <ele>1239</ele>
        <time>2010-09-11T12:40:27Z</time>
      </trkpt>
      <trkpt lat="46.21245" lon="6.48604">
        <ele>1248</ele>
        <time>2010-09-11T12:40:33Z</time>
      </trkpt>
      <trkpt lat="46.21241" lon="6.48602">
        <ele>1248</ele>
        <time>2010-09-11T12:40:40Z</time>
      </trkpt>
      <trkpt lat="46.21237" lon="6.486">
        <ele>1249</ele>
        <time>2010-09-11T12:40:45Z</time>
      </trkpt>
      <trkpt lat="46.21232" lon="6.486">
        <ele>1249</ele>
        <time>2010-09-11T12:40:51Z</time>
      </trkpt>
      <trkpt lat="46.21225" lon="6.48598">
        <ele>1249</ele>
        <time>2010-09-11T12:40:59Z</time>
      </trkpt>
      <trkpt lat="46.2122" lon="6.48594">
        <ele>1250</ele>
        <time>2010-09-11T12:41:05Z</time>
      </trkpt>
      <trkpt lat="46.21213" lon="6.48584">
        <ele>1250</ele>
        <time>2010-09-11T12:41:15Z</time>
      </trkpt>
      <trkpt lat="46.2121" lon="6.48582">
        <ele>1253</ele>
        <time>2010-09-11T12:41:19Z</time>
      </trkpt>
      <trkpt lat="46.21209" lon="6.48579">
        <ele>1254</ele>
        <time>2010-09-11T12:41:21Z</time>
      </trkpt>
      <trkpt lat="46.21202" lon="6.48574">
        <ele>1254</ele>
        <time>2010-09-11T12:41:28Z</time>
      </trkpt>
      <trkpt lat="46.212" lon="6.4857">
        <ele>1254</ele>
        <time>2010-09-11T12:41:32Z</time>
      </trkpt>
      <trkpt lat="46.21199" lon="6.48567">
        <ele>1254</ele>
        <time>2010-09-11T12:41:37Z</time>
      </trkpt>
      <trkpt lat="46.21197" lon="6.48566">
        <ele>1255</ele>
        <time>2010-09-11T12:41:43Z</time>
      </trkpt>
      <trkpt lat="46.21193" lon="6.48568">
        <ele>1255</ele>
        <time>2010-09-11T12:41:48Z</time>
      </trkpt>
      <trkpt lat="46.2119" lon="6.4857">
        <ele>1255</ele>
        <time>2010-09-11T12:41:53Z</time>
      </trkpt>
      <trkpt lat="46.21186" lon="6.48571">
        <ele>1255</ele>
        <time>2010-09-11T12:41:57Z</time>
      </trkpt>
      <trkpt lat="46.21182" lon="6.48568">
        <ele>1255</ele>
        <time>2010-09-11T12:42:04Z</time>
      </trkpt>
      <trkpt lat="46.21182" lon="6.48564">
        <ele>1255</ele>
        <time>2010-09-11T12:42:09Z</time>
      </trkpt>
      <trkpt lat="46.21183" lon="6.48559">
        <ele>1255</ele>
        <time>2010-09-11T12:42:14Z</time>
      </trkpt>
      <trkpt lat="46.21183" lon="6.48553">
        <ele>1256</ele>
        <time>2010-09-11T12:42:19Z</time>
      </trkpt>
      <trkpt lat="46.21182" lon="6.48547">
        <ele>1256</ele>
        <time>2010-09-11T12:42:27Z</time>
      </trkpt>
      <trkpt lat="46.21181" lon="6.48543">
        <ele>1256</ele>
        <time>2010-09-11T12:42:32Z</time>
      </trkpt>
      <trkpt lat="46.21181" lon="6.48538">
        <ele>1256</ele>
        <time>2010-09-11T12:42:37Z</time>
      </trkpt>
      <trkpt lat="46.21181" lon="6.4853">
        <ele>1257</ele>
        <time>2010-09-11T12:42:43Z</time>
      </trkpt>
      <trkpt lat="46.21178" lon="6.48523">
        <ele>1258</ele>
        <time>2010-09-11T12:42:48Z</time>
      </trkpt>
      <trkpt lat="46.21173" lon="6.48512">
        <ele>1260</ele>
        <time>2010-09-11T12:42:55Z</time>
      </trkpt>
      <trkpt lat="46.2117" lon="6.48503">
        <ele>1262</ele>
        <time>2010-09-11T12:43:01Z</time>
      </trkpt>
      <trkpt lat="46.21168" lon="6.48498">
        <ele>1263</ele>
        <time>2010-09-11T12:43:05Z</time>
      </trkpt>
      <trkpt lat="46.21165" lon="6.48494">
        <ele>1264</ele>
        <time>2010-09-11T12:43:09Z</time>
      </trkpt>
      <trkpt lat="46.21165" lon="6.48491">
        <ele>1264</ele>
        <time>2010-09-11T12:43:11Z</time>
      </trkpt>
      <trkpt lat="46.21158" lon="6.48485">
        <ele>1264</ele>
        <time>2010-09-11T12:43:18Z</time>
      </trkpt>
      <trkpt lat="46.21153" lon="6.48479">
        <ele>1265</ele>
        <time>2010-09-11T12:43:25Z</time>
      </trkpt>
      <trkpt lat="46.21148" lon="6.48472">
        <ele>1265</ele>
        <time>2010-09-11T12:43:31Z</time>
      </trkpt>
      <trkpt lat="46.21144" lon="6.48467">
        <ele>1265</ele>
        <time>2010-09-11T12:43:36Z</time>
      </trkpt>
      <trkpt lat="46.21139" lon="6.48463">
        <ele>1265</ele>
        <time>2010-09-11T12:43:42Z</time>
      </trkpt>
      <trkpt lat="46.21136" lon="6.4846">
        <ele>1265</ele>
        <time>2010-09-11T12:43:46Z</time>
      </trkpt>
      <trkpt lat="46.21135" lon="6.48459">
        <ele>1265</ele>
        <time>2010-09-11T12:43:47Z</time>
      </trkpt>
      <trkpt lat="46.21126" lon="6.48449">
        <ele>1266</ele>
        <time>2010-09-11T12:43:55Z</time>
      </trkpt>
      <trkpt lat="46.21119" lon="6.48441">
        <ele>1266</ele>
        <time>2010-09-11T12:44:02Z</time>
      </trkpt>
      <trkpt lat="46.21116" lon="6.48436">
        <ele>1266</ele>
        <time>2010-09-11T12:44:06Z</time>
      </trkpt>
      <trkpt lat="46.21115" lon="6.48433">
        <ele>1266</ele>
        <time>2010-09-11T12:44:08Z</time>
      </trkpt>
      <trkpt lat="46.21115" lon="6.48427">
        <ele>1266</ele>
        <time>2010-09-11T12:44:15Z</time>
      </trkpt>
      <trkpt lat="46.21113" lon="6.48429">
        <ele>1266</ele>
        <time>2010-09-11T12:44:17Z</time>
      </trkpt>
      <trkpt lat="46.21108" lon="6.48433">
        <ele>1266</ele>
        <time>2010-09-11T12:44:21Z</time>
      </trkpt>
      <trkpt lat="46.21097" lon="6.48439">
        <ele>1266</ele>
        <time>2010-09-11T12:44:29Z</time>
      </trkpt>
      <trkpt lat="46.2109" lon="6.48447">
        <ele>1266</ele>
        <time>2010-09-11T12:44:37Z</time>
      </trkpt>
      <trkpt lat="46.21089" lon="6.48449">
        <ele>1266</ele>
        <time>2010-09-11T12:44:43Z</time>
      </trkpt>
      <trkpt lat="46.21089" lon="6.48451">
        <ele>1265</ele>
        <time>2010-09-11T12:44:58Z</time>
      </trkpt>
      <trkpt lat="46.21092" lon="6.48458">
        <ele>1265</ele>
        <time>2010-09-11T12:45:38Z</time>
      </trkpt>
      <trkpt lat="46.21092" lon="6.48455">
        <ele>1265</ele>
        <time>2010-09-11T12:45:52Z</time>
      </trkpt>
      <trkpt lat="46.2109" lon="6.48452">
        <ele>1265</ele>
        <time>2010-09-11T12:46:03Z</time>
      </trkpt>
      <trkpt lat="46.2109" lon="6.4845">
        <ele>1265</ele>
        <time>2010-09-11T12:46:10Z</time>
      </trkpt>
      <trkpt lat="46.21088" lon="6.48451">
        <ele>1265</ele>
        <time>2010-09-11T12:46:19Z</time>
      </trkpt>
      <trkpt lat="46.21084" lon="6.48454">
        <ele>1265</ele>
        <time>2010-09-11T12:46:26Z</time>
      </trkpt>
      <trkpt lat="46.2108" lon="6.48458">
        <ele>1268</ele>
        <time>2010-09-11T12:46:49Z</time>
      </trkpt>
      <trkpt lat="46.21078" lon="6.48455">
        <ele>1268</ele>
        <time>2010-09-11T12:46:56Z</time>
      </trkpt>
      <trkpt lat="46.21077" lon="6.48452">
        <ele>1268</ele>
        <time>2010-09-11T12:47:02Z</time>
      </trkpt>
      <trkpt lat="46.21079" lon="6.48456">
        <ele>1268</ele>
        <time>2010-09-11T12:47:36Z</time>
      </trkpt>
      <trkpt lat="46.21082" lon="6.48455">
        <ele>1268</ele>
        <time>2010-09-11T12:47:42Z</time>
      </trkpt>
      <trkpt lat="46.21082" lon="6.48453">
        <ele>1268</ele>
        <time>2010-09-11T12:47:51Z</time>
      </trkpt>
      <trkpt lat="46.21085" lon="6.48453">
        <ele>1265</ele>
        <time>2010-09-11T12:47:55Z</time>
      </trkpt>
      <trkpt lat="46.21088" lon="6.48449">
        <ele>1266</ele>
        <time>2010-09-11T12:48:13Z</time>
      </trkpt>
      <trkpt lat="46.21094" lon="6.48447">
        <ele>1266</ele>
        <time>2010-09-11T12:48:19Z</time>
      </trkpt>
      <trkpt lat="46.21096" lon="6.48446">
        <ele>1266</ele>
        <time>2010-09-11T12:48:25Z</time>
      </trkpt>
      <trkpt lat="46.21094" lon="6.48443">
        <ele>1266</ele>
        <time>2010-09-11T12:48:37Z</time>
      </trkpt>
      <trkpt lat="46.21098" lon="6.4844">
        <ele>1266</ele>
        <time>2010-09-11T12:48:51Z</time>
      </trkpt>
      <trkpt lat="46.21104" lon="6.48435">
        <ele>1266</ele>
        <time>2010-09-11T12:48:56Z</time>
      </trkpt>
      <trkpt lat="46.21115" lon="6.48429">
        <ele>1266</ele>
        <time>2010-09-11T12:49:05Z</time>
      </trkpt>
      <trkpt lat="46.21116" lon="6.48428">
        <ele>1266</ele>
        <time>2010-09-11T12:49:06Z</time>
      </trkpt>
      <trkpt lat="46.21123" lon="6.48423">
        <ele>1266</ele>
        <time>2010-09-11T12:49:12Z</time>
      </trkpt>
      <trkpt lat="46.21132" lon="6.48418">
        <ele>1267</ele>
        <time>2010-09-11T12:49:19Z</time>
      </trkpt>
      <trkpt lat="46.21135" lon="6.48416">
        <ele>1272</ele>
        <time>2010-09-11T12:49:25Z</time>
      </trkpt>
      <trkpt lat="46.21135" lon="6.48416">
        <ele>1272</ele>
        <time>2010-09-11T12:49:35Z</time>
      </trkpt>
      <trkpt lat="46.21139" lon="6.48415">
        <ele>1272</ele>
        <time>2010-09-11T12:49:41Z</time>
      </trkpt>
      <trkpt lat="46.21141" lon="6.48415">
        <ele>1272</ele>
        <time>2010-09-11T12:49:49Z</time>
      </trkpt>
      <trkpt lat="46.21142" lon="6.48415">
        <ele>1272</ele>
        <time>2010-09-11T12:49:55Z</time>
      </trkpt>
      <trkpt lat="46.21143" lon="6.48415">
        <ele>1272</ele>
        <time>2010-09-11T12:49:58Z</time>
      </trkpt>
      <trkpt lat="46.21143" lon="6.48414">
        <ele>1272</ele>
        <time>2010-09-11T12:50:07Z</time>
      </trkpt>
      <trkpt lat="46.21145" lon="6.48413">
        <ele>1272</ele>
        <time>2010-09-11T12:50:13Z</time>
      </trkpt>
      <trkpt lat="46.21155" lon="6.48411">
        <ele>1271</ele>
        <time>2010-09-11T12:50:18Z</time>
      </trkpt>
      <trkpt lat="46.21158" lon="6.4841">
        <ele>1271</ele>
        <time>2010-09-11T12:50:19Z</time>
      </trkpt>
      <trkpt lat="46.21173" lon="6.48413">
        <ele>1270</ele>
        <time>2010-09-11T12:50:25Z</time>
      </trkpt>
      <trkpt lat="46.21183" lon="6.48413">
        <ele>1271</ele>
        <time>2010-09-11T12:50:29Z</time>
      </trkpt>
      <trkpt lat="46.21193" lon="6.48414">
        <ele>1271</ele>
        <time>2010-09-11T12:50:33Z</time>
      </trkpt>
      <trkpt lat="46.21198" lon="6.48414">
        <ele>1271</ele>
        <time>2010-09-11T12:50:35Z</time>
      </trkpt>
      <trkpt lat="46.21212" lon="6.48413">
        <ele>1270</ele>
        <time>2010-09-11T12:50:40Z</time>
      </trkpt>
      <trkpt lat="46.21228" lon="6.48415">
        <ele>1269</ele>
        <time>2010-09-11T12:50:46Z</time>
      </trkpt>
      <trkpt lat="46.21237" lon="6.48416">
        <ele>1267</ele>
        <time>2010-09-11T12:50:50Z</time>
      </trkpt>
      <trkpt lat="46.21255" lon="6.48412">
        <ele>1265</ele>
        <time>2010-09-11T12:50:56Z</time>
      </trkpt>
      <trkpt lat="46.2126" lon="6.48411">
        <ele>1266</ele>
        <time>2010-09-11T12:50:58Z</time>
      </trkpt>
      <trkpt lat="46.21273" lon="6.48402">
        <ele>1268</ele>
        <time>2010-09-11T12:51:03Z</time>
      </trkpt>
      <trkpt lat="46.21276" lon="6.484">
        <ele>1268</ele>
        <time>2010-09-11T12:51:04Z</time>
      </trkpt>
      <trkpt lat="46.2129" lon="6.4839">
        <ele>1270</ele>
        <time>2010-09-11T12:51:10Z</time>
      </trkpt>
      <trkpt lat="46.21301" lon="6.48387">
        <ele>1270</ele>
        <time>2010-09-11T12:51:14Z</time>
      </trkpt>
      <trkpt lat="46.21303" lon="6.48387">
        <ele>1270</ele>
        <time>2010-09-11T12:51:15Z</time>
      </trkpt>
      <trkpt lat="46.21315" lon="6.4838">
        <ele>1270</ele>
        <time>2010-09-11T12:51:20Z</time>
      </trkpt>
      <trkpt lat="46.21324" lon="6.48373">
        <ele>1272</ele>
        <time>2010-09-11T12:51:24Z</time>
      </trkpt>
      <trkpt lat="46.21332" lon="6.48367">
        <ele>1274</ele>
        <time>2010-09-11T12:51:28Z</time>
      </trkpt>
      <trkpt lat="46.21343" lon="6.48358">
        <ele>1272</ele>
        <time>2010-09-11T12:51:33Z</time>
      </trkpt>
      <trkpt lat="46.21346" lon="6.48356">
        <ele>1272</ele>
        <time>2010-09-11T12:51:34Z</time>
      </trkpt>
      <trkpt lat="46.21355" lon="6.48351">
        <ele>1272</ele>
        <time>2010-09-11T12:51:38Z</time>
      </trkpt>
      <trkpt lat="46.21366" lon="6.48348">
        <ele>1270</ele>
        <time>2010-09-11T12:51:42Z</time>
      </trkpt>
      <trkpt lat="46.2138" lon="6.48349">
        <ele>1268</ele>
        <time>2010-09-11T12:51:47Z</time>
      </trkpt>
      <trkpt lat="46.21389" lon="6.48348">
        <ele>1268</ele>
        <time>2010-09-11T12:51:51Z</time>
      </trkpt>
      <trkpt lat="46.21402" lon="6.48342">
        <ele>1269</ele>
        <time>2010-09-11T12:51:56Z</time>
      </trkpt>
      <trkpt lat="46.21412" lon="6.48342">
        <ele>1270</ele>
        <time>2010-09-11T12:52:00Z</time>
      </trkpt>
      <trkpt lat="46.21414" lon="6.4834">
        <ele>1271</ele>
        <time>2010-09-11T12:52:02Z</time>
      </trkpt>
      <trkpt lat="46.21418" lon="6.48337">
        <ele>1271</ele>
        <time>2010-09-11T12:52:04Z</time>
      </trkpt>
      <trkpt lat="46.21421" lon="6.48335">
        <ele>1271</ele>
        <time>2010-09-11T12:52:06Z</time>
      </trkpt>
      <trkpt lat="46.21429" lon="6.4833">
        <ele>1282</ele>
        <time>2010-09-11T12:52:10Z</time>
      </trkpt>
      <trkpt lat="46.21441" lon="6.48325">
        <ele>1286</ele>
        <time>2010-09-11T12:52:18Z</time>
      </trkpt>
      <trkpt lat="46.21447" lon="6.48326">
        <ele>1287</ele>
        <time>2010-09-11T12:52:25Z</time>
      </trkpt>
      <trkpt lat="46.2145" lon="6.48326">
        <ele>1287</ele>
        <time>2010-09-11T12:52:27Z</time>
      </trkpt>
      <trkpt lat="46.21455" lon="6.48327">
        <ele>1288</ele>
        <time>2010-09-11T12:52:31Z</time>
      </trkpt>
      <trkpt lat="46.21466" lon="6.48327">
        <ele>1288</ele>
        <time>2010-09-11T12:52:39Z</time>
      </trkpt>
      <trkpt lat="46.21475" lon="6.48328">
        <ele>1287</ele>
        <time>2010-09-11T12:52:45Z</time>
      </trkpt>
      <trkpt lat="46.21485" lon="6.48327">
        <ele>1285</ele>
        <time>2010-09-11T12:52:53Z</time>
      </trkpt>
      <trkpt lat="46.21495" lon="6.48327">
        <ele>1282</ele>
        <time>2010-09-11T12:53:00Z</time>
      </trkpt>
      <trkpt lat="46.21504" lon="6.48328">
        <ele>1281</ele>
        <time>2010-09-11T12:53:06Z</time>
      </trkpt>
      <trkpt lat="46.21511" lon="6.48327">
        <ele>1284</ele>
        <time>2010-09-11T12:53:11Z</time>
      </trkpt>
      <trkpt lat="46.21523" lon="6.48324">
        <ele>1288</ele>
        <time>2010-09-11T12:53:20Z</time>
      </trkpt>
      <trkpt lat="46.21533" lon="6.48319">
        <ele>1289</ele>
        <time>2010-09-11T12:53:28Z</time>
      </trkpt>
      <trkpt lat="46.21543" lon="6.48312">
        <ele>1291</ele>
        <time>2010-09-11T12:53:36Z</time>
      </trkpt>
      <trkpt lat="46.21551" lon="6.48307">
        <ele>1292</ele>
        <time>2010-09-11T12:53:44Z</time>
      </trkpt>
      <trkpt lat="46.21555" lon="6.48302">
        <ele>1293</ele>
        <time>2010-09-11T12:53:50Z</time>
      </trkpt>
      <trkpt lat="46.21563" lon="6.48295">
        <ele>1294</ele>
        <time>2010-09-11T12:53:58Z</time>
      </trkpt>
      <trkpt lat="46.21567" lon="6.48291">
        <ele>1295</ele>
        <time>2010-09-11T12:54:03Z</time>
      </trkpt>
      <trkpt lat="46.21571" lon="6.48289">
        <ele>1296</ele>
        <time>2010-09-11T12:54:07Z</time>
      </trkpt>
      <trkpt lat="46.21574" lon="6.48286">
        <ele>1296</ele>
        <time>2010-09-11T12:54:10Z</time>
      </trkpt>
      <trkpt lat="46.21582" lon="6.48278">
        <ele>1299</ele>
        <time>2010-09-11T12:54:16Z</time>
      </trkpt>
      <trkpt lat="46.21593" lon="6.48273">
        <ele>1295</ele>
        <time>2010-09-11T12:54:22Z</time>
      </trkpt>
      <trkpt lat="46.21595" lon="6.48271">
        <ele>1296</ele>
        <time>2010-09-11T12:54:24Z</time>
      </trkpt>
      <trkpt lat="46.21598" lon="6.48268">
        <ele>1296</ele>
        <time>2010-09-11T12:54:27Z</time>
      </trkpt>
      <trkpt lat="46.21605" lon="6.48262">
        <ele>1296</ele>
        <time>2010-09-11T12:54:34Z</time>
      </trkpt>
      <trkpt lat="46.21609" lon="6.4826">
        <ele>1295</ele>
        <time>2010-09-11T12:54:38Z</time>
      </trkpt>
      <trkpt lat="46.21611" lon="6.48259">
        <ele>1295</ele>
        <time>2010-09-11T12:54:41Z</time>
      </trkpt>
      <trkpt lat="46.21615" lon="6.48254">
        <ele>1295</ele>
        <time>2010-09-11T12:54:45Z</time>
      </trkpt>
      <trkpt lat="46.2162" lon="6.4825">
        <ele>1294</ele>
        <time>2010-09-11T12:54:49Z</time>
      </trkpt>
      <trkpt lat="46.21624" lon="6.48244">
        <ele>1314</ele>
        <time>2010-09-11T12:54:55Z</time>
      </trkpt>
      <trkpt lat="46.2163" lon="6.48235">
        <ele>1314</ele>
        <time>2010-09-11T12:55:03Z</time>
      </trkpt>
      <trkpt lat="46.21636" lon="6.48228">
        <ele>1314</ele>
        <time>2010-09-11T12:55:09Z</time>
      </trkpt>
      <trkpt lat="46.21638" lon="6.48226">
        <ele>1314</ele>
        <time>2010-09-11T12:55:11Z</time>
      </trkpt>
      <trkpt lat="46.21644" lon="6.4822">
        <ele>1315</ele>
        <time>2010-09-11T12:55:16Z</time>
      </trkpt>
      <trkpt lat="46.21651" lon="6.48212">
        <ele>1316</ele>
        <time>2010-09-11T12:55:25Z</time>
      </trkpt>
      <trkpt lat="46.21654" lon="6.48208">
        <ele>1317</ele>
        <time>2010-09-11T12:55:29Z</time>
      </trkpt>
      <trkpt lat="46.21655" lon="6.48206">
        <ele>1317</ele>
        <time>2010-09-11T12:55:31Z</time>
      </trkpt>
      <trkpt lat="46.21662" lon="6.48203">
        <ele>1317</ele>
        <time>2010-09-11T12:55:36Z</time>
      </trkpt>
      <trkpt lat="46.21669" lon="6.48204">
        <ele>1305</ele>
        <time>2010-09-11T12:55:39Z</time>
      </trkpt>
      <trkpt lat="46.21676" lon="6.482">
        <ele>1306</ele>
        <time>2010-09-11T12:55:42Z</time>
      </trkpt>
      <trkpt lat="46.21688" lon="6.48186">
        <ele>1308</ele>
        <time>2010-09-11T12:55:49Z</time>
      </trkpt>
      <trkpt lat="46.21695" lon="6.48177">
        <ele>1308</ele>
        <time>2010-09-11T12:55:54Z</time>
      </trkpt>
      <trkpt lat="46.21706" lon="6.48172">
        <ele>1306</ele>
        <time>2010-09-11T12:56:01Z</time>
      </trkpt>
      <trkpt lat="46.21712" lon="6.48173">
        <ele>1305</ele>
        <time>2010-09-11T12:56:05Z</time>
      </trkpt>
      <trkpt lat="46.21719" lon="6.48176">
        <ele>1304</ele>
        <time>2010-09-11T12:56:09Z</time>
      </trkpt>
      <trkpt lat="46.21728" lon="6.48187">
        <ele>1302</ele>
        <time>2010-09-11T12:56:15Z</time>
      </trkpt>
      <trkpt lat="46.21735" lon="6.48197">
        <ele>1300</ele>
        <time>2010-09-11T12:56:19Z</time>
      </trkpt>
      <trkpt lat="46.21747" lon="6.48203">
        <ele>1299</ele>
        <time>2010-09-11T12:56:23Z</time>
      </trkpt>
      <trkpt lat="46.2176" lon="6.48211">
        <ele>1292</ele>
        <time>2010-09-11T12:56:28Z</time>
      </trkpt>
      <trkpt lat="46.21762" lon="6.48212">
        <ele>1292</ele>
        <time>2010-09-11T12:56:29Z</time>
      </trkpt>
      <trkpt lat="46.21775" lon="6.48216">
        <ele>1292</ele>
        <time>2010-09-11T12:56:34Z</time>
      </trkpt>
      <trkpt lat="46.21781" lon="6.48219">
        <ele>1292</ele>
        <time>2010-09-11T12:56:37Z</time>
      </trkpt>
      <trkpt lat="46.21795" lon="6.48207">
        <ele>1293</ele>
        <time>2010-09-11T12:56:43Z</time>
      </trkpt>
      <trkpt lat="46.21803" lon="6.48199">
        <ele>1294</ele>
        <time>2010-09-11T12:56:49Z</time>
      </trkpt>
      <trkpt lat="46.2181" lon="6.48189">
        <ele>1294</ele>
        <time>2010-09-11T12:56:56Z</time>
      </trkpt>
      <trkpt lat="46.21813" lon="6.48187">
        <ele>1295</ele>
        <time>2010-09-11T12:56:58Z</time>
      </trkpt>
      <trkpt lat="46.21817" lon="6.48183">
        <ele>1295</ele>
        <time>2010-09-11T12:57:01Z</time>
      </trkpt>
      <trkpt lat="46.21829" lon="6.48178">
        <ele>1296</ele>
        <time>2010-09-11T12:57:06Z</time>
      </trkpt>
      <trkpt lat="46.21837" lon="6.48174">
        <ele>1297</ele>
        <time>2010-09-11T12:57:11Z</time>
      </trkpt>
      <trkpt lat="46.21841" lon="6.48173">
        <ele>1297</ele>
        <time>2010-09-11T12:57:17Z</time>
      </trkpt>
      <trkpt lat="46.21846" lon="6.48173">
        <ele>1297</ele>
        <time>2010-09-11T12:57:25Z</time>
      </trkpt>
      <trkpt lat="46.21854" lon="6.48177">
        <ele>1297</ele>
        <time>2010-09-11T12:57:32Z</time>
      </trkpt>
      <trkpt lat="46.21859" lon="6.48182">
        <ele>1297</ele>
        <time>2010-09-11T12:57:37Z</time>
      </trkpt>
      <trkpt lat="46.21866" lon="6.48188">
        <ele>1297</ele>
        <time>2010-09-11T12:57:43Z</time>
      </trkpt>
      <trkpt lat="46.21873" lon="6.48191">
        <ele>1297</ele>
        <time>2010-09-11T12:57:49Z</time>
      </trkpt>
      <trkpt lat="46.21878" lon="6.48194">
        <ele>1297</ele>
        <time>2010-09-11T12:57:55Z</time>
      </trkpt>
      <trkpt lat="46.21884" lon="6.48198">
        <ele>1297</ele>
        <time>2010-09-11T12:58:01Z</time>
      </trkpt>
      <trkpt lat="46.21887" lon="6.48203">
        <ele>1297</ele>
        <time>2010-09-11T12:58:07Z</time>
      </trkpt>
      <trkpt lat="46.21891" lon="6.48206">
        <ele>1297</ele>
        <time>2010-09-11T12:58:13Z</time>
      </trkpt>
      <trkpt lat="46.21893" lon="6.48213">
        <ele>1297</ele>
        <time>2010-09-11T12:58:20Z</time>
      </trkpt>
      <trkpt lat="46.219" lon="6.48217">
        <ele>1297</ele>
        <time>2010-09-11T12:58:27Z</time>
      </trkpt>
      <trkpt lat="46.219" lon="6.48217">
        <ele>1297</ele>
        <time>2010-09-11T12:58:39Z</time>
      </trkpt>
      <trkpt lat="46.21905" lon="6.48219">
        <ele>1298</ele>
        <time>2010-09-11T12:58:54Z</time>
      </trkpt>
      <trkpt lat="46.21913" lon="6.48222">
        <ele>1298</ele>
        <time>2010-09-11T12:59:01Z</time>
      </trkpt>
      <trkpt lat="46.21914" lon="6.48224">
        <ele>1298</ele>
        <time>2010-09-11T12:59:07Z</time>
      </trkpt>
      <trkpt lat="46.21916" lon="6.48227">
        <ele>1298</ele>
        <time>2010-09-11T12:59:13Z</time>
      </trkpt>
      <trkpt lat="46.21916" lon="6.48227">
        <ele>1298</ele>
        <time>2010-09-11T12:59:20Z</time>
      </trkpt>
      <trkpt lat="46.21919" lon="6.48225">
        <ele>1305</ele>
        <time>2010-09-11T12:59:25Z</time>
      </trkpt>
      <trkpt lat="46.21913" lon="6.4822">
        <ele>1298</ele>
        <time>2010-09-11T12:59:30Z</time>
      </trkpt>
      <trkpt lat="46.21919" lon="6.4822">
        <ele>1306</ele>
        <time>2010-09-11T12:59:36Z</time>
      </trkpt>
      <trkpt lat="46.21927" lon="6.48221">
        <ele>1306</ele>
        <time>2010-09-11T12:59:43Z</time>
      </trkpt>
      <trkpt lat="46.21933" lon="6.48222">
        <ele>1307</ele>
        <time>2010-09-11T12:59:47Z</time>
      </trkpt>
      <trkpt lat="46.2194" lon="6.48223">
        <ele>1307</ele>
        <time>2010-09-11T12:59:52Z</time>
      </trkpt>
      <trkpt lat="46.21949" lon="6.48225">
        <ele>1308</ele>
        <time>2010-09-11T12:59:58Z</time>
      </trkpt>
      <trkpt lat="46.2196" lon="6.4823">
        <ele>1310</ele>
        <time>2010-09-11T13:00:07Z</time>
      </trkpt>
      <trkpt lat="46.21966" lon="6.48233">
        <ele>1311</ele>
        <time>2010-09-11T13:00:12Z</time>
      </trkpt>
      <trkpt lat="46.21974" lon="6.48237">
        <ele>1312</ele>
        <time>2010-09-11T13:00:18Z</time>
      </trkpt>
      <trkpt lat="46.2198" lon="6.48244">
        <ele>1314</ele>
        <time>2010-09-11T13:00:25Z</time>
      </trkpt>
      <trkpt lat="46.21988" lon="6.48254">
        <ele>1316</ele>
        <time>2010-09-11T13:00:33Z</time>
      </trkpt>
      <trkpt lat="46.21993" lon="6.48264">
        <ele>1315</ele>
        <time>2010-09-11T13:00:41Z</time>
      </trkpt>
      <trkpt lat="46.21998" lon="6.48271">
        <ele>1315</ele>
        <time>2010-09-11T13:00:47Z</time>
      </trkpt>
      <trkpt lat="46.22002" lon="6.48278">
        <ele>1324</ele>
        <time>2010-09-11T13:00:54Z</time>
      </trkpt>
      <trkpt lat="46.22004" lon="6.48281">
        <ele>1325</ele>
        <time>2010-09-11T13:00:58Z</time>
      </trkpt>
      <trkpt lat="46.22009" lon="6.48287">
        <ele>1325</ele>
        <time>2010-09-11T13:01:04Z</time>
      </trkpt>
      <trkpt lat="46.22013" lon="6.48294">
        <ele>1325</ele>
        <time>2010-09-11T13:01:11Z</time>
      </trkpt>
      <trkpt lat="46.22015" lon="6.48298">
        <ele>1325</ele>
        <time>2010-09-11T13:01:16Z</time>
      </trkpt>
      <trkpt lat="46.2202" lon="6.48308">
        <ele>1326</ele>
        <time>2010-09-11T13:01:25Z</time>
      </trkpt>
      <trkpt lat="46.22022" lon="6.48315">
        <ele>1326</ele>
        <time>2010-09-11T13:01:30Z</time>
      </trkpt>
      <trkpt lat="46.22025" lon="6.48319">
        <ele>1326</ele>
        <time>2010-09-11T13:01:36Z</time>
      </trkpt>
      <trkpt lat="46.22027" lon="6.48322">
        <ele>1326</ele>
        <time>2010-09-11T13:01:48Z</time>
      </trkpt>
      <trkpt lat="46.22028" lon="6.48322">
        <ele>1326</ele>
        <time>2010-09-11T13:01:54Z</time>
      </trkpt>
      <trkpt lat="46.2203" lon="6.48319">
        <ele>1326</ele>
        <time>2010-09-11T13:02:03Z</time>
      </trkpt>
      <trkpt lat="46.22038" lon="6.48323">
        <ele>1327</ele>
        <time>2010-09-11T13:02:11Z</time>
      </trkpt>
      <trkpt lat="46.22039" lon="6.48323">
        <ele>1327</ele>
        <time>2010-09-11T13:02:12Z</time>
      </trkpt>
      <trkpt lat="46.22047" lon="6.4832">
        <ele>1328</ele>
        <time>2010-09-11T13:02:21Z</time>
      </trkpt>
      <trkpt lat="46.22053" lon="6.48326">
        <ele>1329</ele>
        <time>2010-09-11T13:02:28Z</time>
      </trkpt>
      <trkpt lat="46.22059" lon="6.48328">
        <ele>1330</ele>
        <time>2010-09-11T13:02:35Z</time>
      </trkpt>
      <trkpt lat="46.22065" lon="6.48332">
        <ele>1330</ele>
        <time>2010-09-11T13:02:41Z</time>
      </trkpt>
      <trkpt lat="46.22068" lon="6.48336">
        <ele>1334</ele>
        <time>2010-09-11T13:02:45Z</time>
      </trkpt>
      <trkpt lat="46.22071" lon="6.48346">
        <ele>1335</ele>
        <time>2010-09-11T13:02:53Z</time>
      </trkpt>
      <trkpt lat="46.22072" lon="6.4835">
        <ele>1335</ele>
        <time>2010-09-11T13:02:58Z</time>
      </trkpt>
      <trkpt lat="46.22073" lon="6.48353">
        <ele>1335</ele>
        <time>2010-09-11T13:03:00Z</time>
      </trkpt>
      <trkpt lat="46.22075" lon="6.48367">
        <ele>1337</ele>
        <time>2010-09-11T13:03:09Z</time>
      </trkpt>
      <trkpt lat="46.22077" lon="6.48376">
        <ele>1338</ele>
        <time>2010-09-11T13:03:17Z</time>
      </trkpt>
      <trkpt lat="46.22078" lon="6.48384">
        <ele>1340</ele>
        <time>2010-09-11T13:03:23Z</time>
      </trkpt>
      <trkpt lat="46.22079" lon="6.48389">
        <ele>1341</ele>
        <time>2010-09-11T13:03:28Z</time>
      </trkpt>
      <trkpt lat="46.22081" lon="6.48395">
        <ele>1342</ele>
        <time>2010-09-11T13:03:33Z</time>
      </trkpt>
      <trkpt lat="46.22081" lon="6.48409">
        <ele>1347</ele>
        <time>2010-09-11T13:03:42Z</time>
      </trkpt>
      <trkpt lat="46.22082" lon="6.48417">
        <ele>1352</ele>
        <time>2010-09-11T13:03:48Z</time>
      </trkpt>
      <trkpt lat="46.22082" lon="6.48422">
        <ele>1352</ele>
        <time>2010-09-11T13:03:53Z</time>
      </trkpt>
      <trkpt lat="46.22083" lon="6.48427">
        <ele>1358</ele>
        <time>2010-09-11T13:03:59Z</time>
      </trkpt>
      <trkpt lat="46.22084" lon="6.48427">
        <ele>1358</ele>
        <time>2010-09-11T13:04:05Z</time>
      </trkpt>
      <trkpt lat="46.22086" lon="6.48435">
        <ele>1361</ele>
        <time>2010-09-11T13:04:12Z</time>
      </trkpt>
      <trkpt lat="46.22086" lon="6.48441">
        <ele>1363</ele>
        <time>2010-09-11T13:04:18Z</time>
      </trkpt>
      <trkpt lat="46.22085" lon="6.48446">
        <ele>1364</ele>
        <time>2010-09-11T13:04:25Z</time>
      </trkpt>
      <trkpt lat="46.22086" lon="6.48452">
        <ele>1366</ele>
        <time>2010-09-11T13:04:31Z</time>
      </trkpt>
      <trkpt lat="46.22086" lon="6.48459">
        <ele>1367</ele>
        <time>2010-09-11T13:04:39Z</time>
      </trkpt>
      <trkpt lat="46.22085" lon="6.48464">
        <ele>1368</ele>
        <time>2010-09-11T13:04:44Z</time>
      </trkpt>
      <trkpt lat="46.22085" lon="6.48471">
        <ele>1369</ele>
        <time>2010-09-11T13:04:50Z</time>
      </trkpt>
      <trkpt lat="46.22084" lon="6.48476">
        <ele>1369</ele>
        <time>2010-09-11T13:04:57Z</time>
      </trkpt>
      <trkpt lat="46.22082" lon="6.4848">
        <ele>1361</ele>
        <time>2010-09-11T13:05:03Z</time>
      </trkpt>
      <trkpt lat="46.2208" lon="6.48483">
        <ele>1362</ele>
        <time>2010-09-11T13:05:08Z</time>
      </trkpt>
      <trkpt lat="46.22077" lon="6.48491">
        <ele>1364</ele>
        <time>2010-09-11T13:05:15Z</time>
      </trkpt>
      <trkpt lat="46.22076" lon="6.48497">
        <ele>1366</ele>
        <time>2010-09-11T13:05:22Z</time>
      </trkpt>
      <trkpt lat="46.22075" lon="6.485">
        <ele>1366</ele>
        <time>2010-09-11T13:05:27Z</time>
      </trkpt>
      <trkpt lat="46.22075" lon="6.48501">
        <ele>1371</ele>
        <time>2010-09-11T13:05:35Z</time>
      </trkpt>
      <trkpt lat="46.22076" lon="6.48503">
        <ele>1371</ele>
        <time>2010-09-11T13:05:46Z</time>
      </trkpt>
      <trkpt lat="46.22077" lon="6.48506">
        <ele>1371</ele>
        <time>2010-09-11T13:05:50Z</time>
      </trkpt>
      <trkpt lat="46.22076" lon="6.4851">
        <ele>1371</ele>
        <time>2010-09-11T13:06:03Z</time>
      </trkpt>
      <trkpt lat="46.22075" lon="6.4852">
        <ele>1371</ele>
        <time>2010-09-11T13:06:11Z</time>
      </trkpt>
      <trkpt lat="46.22073" lon="6.4853">
        <ele>1372</ele>
        <time>2010-09-11T13:06:18Z</time>
      </trkpt>
      <trkpt lat="46.22072" lon="6.48537">
        <ele>1373</ele>
        <time>2010-09-11T13:06:23Z</time>
      </trkpt>
      <trkpt lat="46.22068" lon="6.4855">
        <ele>1375</ele>
        <time>2010-09-11T13:06:31Z</time>
      </trkpt>
      <trkpt lat="46.22064" lon="6.4856">
        <ele>1377</ele>
        <time>2010-09-11T13:06:38Z</time>
      </trkpt>
      <trkpt lat="46.22063" lon="6.48564">
        <ele>1377</ele>
        <time>2010-09-11T13:06:43Z</time>
      </trkpt>
      <trkpt lat="46.22063" lon="6.48565">
        <ele>1377</ele>
        <time>2010-09-11T13:06:51Z</time>
      </trkpt>
      <trkpt lat="46.22063" lon="6.4857">
        <ele>1378</ele>
        <time>2010-09-11T13:06:56Z</time>
      </trkpt>
      <trkpt lat="46.22063" lon="6.48575">
        <ele>1379</ele>
        <time>2010-09-11T13:07:00Z</time>
      </trkpt>
      <trkpt lat="46.22058" lon="6.48576">
        <ele>1378</ele>
        <time>2010-09-11T13:07:09Z</time>
      </trkpt>
      <trkpt lat="46.22053" lon="6.48584">
        <ele>1389</ele>
        <time>2010-09-11T13:07:15Z</time>
      </trkpt>
      <trkpt lat="46.22047" lon="6.48591">
        <ele>1388</ele>
        <time>2010-09-11T13:07:22Z</time>
      </trkpt>
      <trkpt lat="46.22043" lon="6.48599">
        <ele>1388</ele>
        <time>2010-09-11T13:07:28Z</time>
      </trkpt>
      <trkpt lat="46.22039" lon="6.48608">
        <ele>1388</ele>
        <time>2010-09-11T13:07:34Z</time>
      </trkpt>
      <trkpt lat="46.22037" lon="6.48617">
        <ele>1389</ele>
        <time>2010-09-11T13:07:39Z</time>
      </trkpt>
      <trkpt lat="46.22032" lon="6.4863">
        <ele>1389</ele>
        <time>2010-09-11T13:07:47Z</time>
      </trkpt>
      <trkpt lat="46.22027" lon="6.48643">
        <ele>1390</ele>
        <time>2010-09-11T13:07:52Z</time>
      </trkpt>
      <trkpt lat="46.22024" lon="6.48654">
        <ele>1390</ele>
        <time>2010-09-11T13:07:57Z</time>
      </trkpt>
      <trkpt lat="46.22023" lon="6.48656">
        <ele>1390</ele>
        <time>2010-09-11T13:07:58Z</time>
      </trkpt>
      <trkpt lat="46.2202" lon="6.48667">
        <ele>1399</ele>
        <time>2010-09-11T13:08:03Z</time>
      </trkpt>
      <trkpt lat="46.22019" lon="6.48673">
        <ele>1399</ele>
        <time>2010-09-11T13:08:06Z</time>
      </trkpt>
      <trkpt lat="46.22015" lon="6.4868">
        <ele>1399</ele>
        <time>2010-09-11T13:08:09Z</time>
      </trkpt>
      <trkpt lat="46.22011" lon="6.4869">
        <ele>1401</ele>
        <time>2010-09-11T13:08:15Z</time>
      </trkpt>
      <trkpt lat="46.22004" lon="6.48704">
        <ele>1403</ele>
        <time>2010-09-11T13:08:21Z</time>
      </trkpt>
      <trkpt lat="46.22002" lon="6.48706">
        <ele>1403</ele>
        <time>2010-09-11T13:08:23Z</time>
      </trkpt>
      <trkpt lat="46.22001" lon="6.48705">
        <ele>1403</ele>
        <time>2010-09-11T13:08:31Z</time>
      </trkpt>
      <trkpt lat="46.22001" lon="6.48709">
        <ele>1403</ele>
        <time>2010-09-11T13:08:35Z</time>
      </trkpt>
      <trkpt lat="46.21999" lon="6.48718">
        <ele>1379</ele>
        <time>2010-09-11T13:08:41Z</time>
      </trkpt>
      <trkpt lat="46.21995" lon="6.48725">
        <ele>1381</ele>
        <time>2010-09-11T13:08:47Z</time>
      </trkpt>
      <trkpt lat="46.21994" lon="6.48731">
        <ele>1383</ele>
        <time>2010-09-11T13:08:51Z</time>
      </trkpt>
      <trkpt lat="46.21993" lon="6.48734">
        <ele>1384</ele>
        <time>2010-09-11T13:08:53Z</time>
      </trkpt>
      <trkpt lat="46.2199" lon="6.4874">
        <ele>1385</ele>
        <time>2010-09-11T13:08:58Z</time>
      </trkpt>
      <trkpt lat="46.21988" lon="6.48745">
        <ele>1386</ele>
        <time>2010-09-11T13:09:02Z</time>
      </trkpt>
      <trkpt lat="46.21988" lon="6.4875">
        <ele>1387</ele>
        <time>2010-09-11T13:09:05Z</time>
      </trkpt>
      <trkpt lat="46.21986" lon="6.48757">
        <ele>1386</ele>
        <time>2010-09-11T13:09:11Z</time>
      </trkpt>
      <trkpt lat="46.21986" lon="6.48763">
        <ele>1385</ele>
        <time>2010-09-11T13:09:16Z</time>
      </trkpt>
      <trkpt lat="46.21987" lon="6.48769">
        <ele>1383</ele>
        <time>2010-09-11T13:09:21Z</time>
      </trkpt>
      <trkpt lat="46.21987" lon="6.48776">
        <ele>1382</ele>
        <time>2010-09-11T13:09:26Z</time>
      </trkpt>
      <trkpt lat="46.21987" lon="6.48777">
        <ele>1381</ele>
        <time>2010-09-11T13:09:31Z</time>
      </trkpt>
      <trkpt lat="46.21988" lon="6.48778">
        <ele>1381</ele>
        <time>2010-09-11T13:09:41Z</time>
      </trkpt>
      <trkpt lat="46.21989" lon="6.48783">
        <ele>1381</ele>
        <time>2010-09-11T13:09:45Z</time>
      </trkpt>
      <trkpt lat="46.21992" lon="6.48787">
        <ele>1381</ele>
        <time>2010-09-11T13:09:50Z</time>
      </trkpt>
      <trkpt lat="46.21993" lon="6.48788">
        <ele>1381</ele>
        <time>2010-09-11T13:09:54Z</time>
      </trkpt>
      <trkpt lat="46.21996" lon="6.4879">
        <ele>1381</ele>
        <time>2010-09-11T13:09:58Z</time>
      </trkpt>
      <trkpt lat="46.21999" lon="6.48795">
        <ele>1382</ele>
        <time>2010-09-11T13:10:04Z</time>
      </trkpt>
      <trkpt lat="46.22002" lon="6.48804">
        <ele>1409</ele>
        <time>2010-09-11T13:10:11Z</time>
      </trkpt>
      <trkpt lat="46.22004" lon="6.48809">
        <ele>1408</ele>
        <time>2010-09-11T13:10:16Z</time>
      </trkpt>
      <trkpt lat="46.22004" lon="6.48811">
        <ele>1408</ele>
        <time>2010-09-11T13:10:19Z</time>
      </trkpt>
      <trkpt lat="46.22007" lon="6.48817">
        <ele>1406</ele>
        <time>2010-09-11T13:10:23Z</time>
      </trkpt>
      <trkpt lat="46.22008" lon="6.4882">
        <ele>1405</ele>
        <time>2010-09-11T13:10:29Z</time>
      </trkpt>
      <trkpt lat="46.2201" lon="6.48827">
        <ele>1404</ele>
        <time>2010-09-11T13:10:35Z</time>
      </trkpt>
      <trkpt lat="46.22014" lon="6.48835">
        <ele>1400</ele>
        <time>2010-09-11T13:10:43Z</time>
      </trkpt>
      <trkpt lat="46.22015" lon="6.48837">
        <ele>1400</ele>
        <time>2010-09-11T13:10:49Z</time>
      </trkpt>
      <trkpt lat="46.2202" lon="6.48842">
        <ele>1402</ele>
        <time>2010-09-11T13:10:55Z</time>
      </trkpt>
      <trkpt lat="46.22024" lon="6.48849">
        <ele>1403</ele>
        <time>2010-09-11T13:11:01Z</time>
      </trkpt>
      <trkpt lat="46.22027" lon="6.48857">
        <ele>1404</ele>
        <time>2010-09-11T13:11:05Z</time>
      </trkpt>
      <trkpt lat="46.22033" lon="6.48868">
        <ele>1404</ele>
        <time>2010-09-11T13:11:11Z</time>
      </trkpt>
      <trkpt lat="46.22036" lon="6.48872">
        <ele>1404</ele>
        <time>2010-09-11T13:11:13Z</time>
      </trkpt>
      <trkpt lat="46.22042" lon="6.48878">
        <ele>1405</ele>
        <time>2010-09-11T13:11:17Z</time>
      </trkpt>
      <trkpt lat="46.22047" lon="6.48886">
        <ele>1405</ele>
        <time>2010-09-11T13:11:21Z</time>
      </trkpt>
      <trkpt lat="46.22048" lon="6.48888">
        <ele>1405</ele>
        <time>2010-09-11T13:11:22Z</time>
      </trkpt>
      <trkpt lat="46.22052" lon="6.48899">
        <ele>1405</ele>
        <time>2010-09-11T13:11:28Z</time>
      </trkpt>
      <trkpt lat="46.22057" lon="6.48905">
        <ele>1406</ele>
        <time>2010-09-11T13:11:32Z</time>
      </trkpt>
      <trkpt lat="46.22064" lon="6.4891">
        <ele>1408</ele>
        <time>2010-09-11T13:11:38Z</time>
      </trkpt>
      <trkpt lat="46.22069" lon="6.48914">
        <ele>1409</ele>
        <time>2010-09-11T13:11:44Z</time>
      </trkpt>
      <trkpt lat="46.2207" lon="6.48914">
        <ele>1409</ele>
        <time>2010-09-11T13:11:45Z</time>
      </trkpt>
      <trkpt lat="46.22074" lon="6.48917">
        <ele>1402</ele>
        <time>2010-09-11T13:11:49Z</time>
      </trkpt>
      <trkpt lat="46.22082" lon="6.48924">
        <ele>1405</ele>
        <time>2010-09-11T13:11:58Z</time>
      </trkpt>
      <trkpt lat="46.22086" lon="6.48926">
        <ele>1415</ele>
        <time>2010-09-11T13:12:02Z</time>
      </trkpt>
      <trkpt lat="46.22092" lon="6.4893">
        <ele>1415</ele>
        <time>2010-09-11T13:12:09Z</time>
      </trkpt>
      <trkpt lat="46.22096" lon="6.48932">
        <ele>1416</ele>
        <time>2010-09-11T13:12:14Z</time>
      </trkpt>
      <trkpt lat="46.22102" lon="6.48941">
        <ele>1416</ele>
        <time>2010-09-11T13:12:20Z</time>
      </trkpt>
      <trkpt lat="46.22109" lon="6.48945">
        <ele>1417</ele>
        <time>2010-09-11T13:12:24Z</time>
      </trkpt>
      <trkpt lat="46.22112" lon="6.48945">
        <ele>1418</ele>
        <time>2010-09-11T13:12:27Z</time>
      </trkpt>
      <trkpt lat="46.22124" lon="6.48951">
        <ele>1420</ele>
        <time>2010-09-11T13:12:35Z</time>
      </trkpt>
      <trkpt lat="46.22133" lon="6.48954">
        <ele>1421</ele>
        <time>2010-09-11T13:12:41Z</time>
      </trkpt>
      <trkpt lat="46.22136" lon="6.48956">
        <ele>1422</ele>
        <time>2010-09-11T13:12:43Z</time>
      </trkpt>
      <trkpt lat="46.22143" lon="6.48961">
        <ele>1422</ele>
        <time>2010-09-11T13:12:47Z</time>
      </trkpt>
      <trkpt lat="46.22155" lon="6.48968">
        <ele>1423</ele>
        <time>2010-09-11T13:12:54Z</time>
      </trkpt>
      <trkpt lat="46.22157" lon="6.48968">
        <ele>1423</ele>
        <time>2010-09-11T13:12:56Z</time>
      </trkpt>
      <trkpt lat="46.22162" lon="6.48974">
        <ele>1422</ele>
        <time>2010-09-11T13:13:01Z</time>
      </trkpt>
      <trkpt lat="46.2217" lon="6.48978">
        <ele>1441</ele>
        <time>2010-09-11T13:13:08Z</time>
      </trkpt>
      <trkpt lat="46.22173" lon="6.48983">
        <ele>1439</ele>
        <time>2010-09-11T13:13:14Z</time>
      </trkpt>
      <trkpt lat="46.22179" lon="6.48988">
        <ele>1439</ele>
        <time>2010-09-11T13:13:20Z</time>
      </trkpt>
      <trkpt lat="46.22183" lon="6.48993">
        <ele>1439</ele>
        <time>2010-09-11T13:13:25Z</time>
      </trkpt>
      <trkpt lat="46.22189" lon="6.49">
        <ele>1441</ele>
        <time>2010-09-11T13:13:31Z</time>
      </trkpt>
      <trkpt lat="46.22197" lon="6.49009">
        <ele>1426</ele>
        <time>2010-09-11T13:13:39Z</time>
      </trkpt>
      <trkpt lat="46.22199" lon="6.4901">
        <ele>1426</ele>
        <time>2010-09-11T13:13:40Z</time>
      </trkpt>
      <trkpt lat="46.22204" lon="6.49016">
        <ele>1427</ele>
        <time>2010-09-11T13:13:47Z</time>
      </trkpt>
      <trkpt lat="46.2221" lon="6.49024">
        <ele>1428</ele>
        <time>2010-09-11T13:13:52Z</time>
      </trkpt>
      <trkpt lat="46.22211" lon="6.49025">
        <ele>1428</ele>
        <time>2010-09-11T13:13:53Z</time>
      </trkpt>
      <trkpt lat="46.22216" lon="6.49031">
        <ele>1428</ele>
        <time>2010-09-11T13:13:58Z</time>
      </trkpt>
      <trkpt lat="46.22224" lon="6.49038">
        <ele>1428</ele>
        <time>2010-09-11T13:14:03Z</time>
      </trkpt>
      <trkpt lat="46.22231" lon="6.49045">
        <ele>1428</ele>
        <time>2010-09-11T13:14:07Z</time>
      </trkpt>
      <trkpt lat="46.22236" lon="6.49054">
        <ele>1426</ele>
        <time>2010-09-11T13:14:11Z</time>
      </trkpt>
      <trkpt lat="46.22247" lon="6.49061">
        <ele>1426</ele>
        <time>2010-09-11T13:14:17Z</time>
      </trkpt>
      <trkpt lat="46.22248" lon="6.49062">
        <ele>1426</ele>
        <time>2010-09-11T13:14:18Z</time>
      </trkpt>
      <trkpt lat="46.22258" lon="6.49066">
        <ele>1442</ele>
        <time>2010-09-11T13:14:26Z</time>
      </trkpt>
      <trkpt lat="46.22263" lon="6.49075">
        <ele>1440</ele>
        <time>2010-09-11T13:14:32Z</time>
      </trkpt>
      <trkpt lat="46.22265" lon="6.49079">
        <ele>1440</ele>
        <time>2010-09-11T13:14:35Z</time>
      </trkpt>
      <trkpt lat="46.22272" lon="6.49091">
        <ele>1430</ele>
        <time>2010-09-11T13:14:42Z</time>
      </trkpt>
      <trkpt lat="46.22276" lon="6.49099">
        <ele>1431</ele>
        <time>2010-09-11T13:14:46Z</time>
      </trkpt>
      <trkpt lat="46.22277" lon="6.491">
        <ele>1431</ele>
        <time>2010-09-11T13:14:47Z</time>
      </trkpt>
      <trkpt lat="46.22289" lon="6.49111">
        <ele>1433</ele>
        <time>2010-09-11T13:14:54Z</time>
      </trkpt>
      <trkpt lat="46.22296" lon="6.49118">
        <ele>1434</ele>
        <time>2010-09-11T13:14:58Z</time>
      </trkpt>
      <trkpt lat="46.22297" lon="6.4912">
        <ele>1434</ele>
        <time>2010-09-11T13:14:59Z</time>
      </trkpt>
      <trkpt lat="46.22305" lon="6.4913">
        <ele>1434</ele>
        <time>2010-09-11T13:15:04Z</time>
      </trkpt>
      <trkpt lat="46.22308" lon="6.49134">
        <ele>1434</ele>
        <time>2010-09-11T13:15:06Z</time>
      </trkpt>
      <trkpt lat="46.22314" lon="6.49139">
        <ele>1435</ele>
        <time>2010-09-11T13:15:10Z</time>
      </trkpt>
      <trkpt lat="46.22318" lon="6.49145">
        <ele>1435</ele>
        <time>2010-09-11T13:15:17Z</time>
      </trkpt>
      <trkpt lat="46.22318" lon="6.49145">
        <ele>1435</ele>
        <time>2010-09-11T13:15:26Z</time>
      </trkpt>
      <trkpt lat="46.22322" lon="6.49149">
        <ele>1436</ele>
        <time>2010-09-11T13:15:34Z</time>
      </trkpt>
      <trkpt lat="46.22322" lon="6.4915">
        <ele>1436</ele>
        <time>2010-09-11T13:15:41Z</time>
      </trkpt>
      <trkpt lat="46.22326" lon="6.49151">
        <ele>1436</ele>
        <time>2010-09-11T13:16:04Z</time>
      </trkpt>
      <trkpt lat="46.2233" lon="6.49156">
        <ele>1437</ele>
        <time>2010-09-11T13:16:09Z</time>
      </trkpt>
      <trkpt lat="46.22332" lon="6.4916">
        <ele>1438</ele>
        <time>2010-09-11T13:16:15Z</time>
      </trkpt>
      <trkpt lat="46.22334" lon="6.49164">
        <ele>1442</ele>
        <time>2010-09-11T13:16:20Z</time>
      </trkpt>
      <trkpt lat="46.22338" lon="6.49168">
        <ele>1440</ele>
        <time>2010-09-11T13:16:24Z</time>
      </trkpt>
      <trkpt lat="46.22342" lon="6.49178">
        <ele>1440</ele>
        <time>2010-09-11T13:16:31Z</time>
      </trkpt>
      <trkpt lat="46.22348" lon="6.49185">
        <ele>1440</ele>
        <time>2010-09-11T13:16:38Z</time>
      </trkpt>
      <trkpt lat="46.22352" lon="6.49193">
        <ele>1440</ele>
        <time>2010-09-11T13:16:44Z</time>
      </trkpt>
      <trkpt lat="46.22355" lon="6.49196">
        <ele>1440</ele>
        <time>2010-09-11T13:16:47Z</time>
      </trkpt>
      <trkpt lat="46.2236" lon="6.49201">
        <ele>1440</ele>
        <time>2010-09-11T13:16:53Z</time>
      </trkpt>
      <trkpt lat="46.22362" lon="6.49204">
        <ele>1440</ele>
        <time>2010-09-11T13:16:57Z</time>
      </trkpt>
      <trkpt lat="46.22365" lon="6.49206">
        <ele>1440</ele>
        <time>2010-09-11T13:17:02Z</time>
      </trkpt>
      <trkpt lat="46.2237" lon="6.49209">
        <ele>1440</ele>
        <time>2010-09-11T13:17:19Z</time>
      </trkpt>
      <trkpt lat="46.22373" lon="6.49212">
        <ele>1440</ele>
        <time>2010-09-11T13:17:23Z</time>
      </trkpt>
      <trkpt lat="46.22376" lon="6.49213">
        <ele>1441</ele>
        <time>2010-09-11T13:17:28Z</time>
      </trkpt>
      <trkpt lat="46.22382" lon="6.49215">
        <ele>1441</ele>
        <time>2010-09-11T13:18:02Z</time>
      </trkpt>
      <trkpt lat="46.22392" lon="6.4922">
        <ele>1442</ele>
        <time>2010-09-11T13:18:11Z</time>
      </trkpt>
      <trkpt lat="46.22399" lon="6.49224">
        <ele>1442</ele>
        <time>2010-09-11T13:18:19Z</time>
      </trkpt>
      <trkpt lat="46.22404" lon="6.49225">
        <ele>1442</ele>
        <time>2010-09-11T13:18:48Z</time>
      </trkpt>
      <trkpt lat="46.22413" lon="6.49225">
        <ele>1443</ele>
        <time>2010-09-11T13:18:56Z</time>
      </trkpt>
      <trkpt lat="46.22421" lon="6.49221">
        <ele>1454</ele>
        <time>2010-09-11T13:19:02Z</time>
      </trkpt>
      <trkpt lat="46.22426" lon="6.49219">
        <ele>1454</ele>
        <time>2010-09-11T13:19:06Z</time>
      </trkpt>
      <trkpt lat="46.22431" lon="6.49221">
        <ele>1455</ele>
        <time>2010-09-11T13:19:10Z</time>
      </trkpt>
      <trkpt lat="46.2244" lon="6.49223">
        <ele>1456</ele>
        <time>2010-09-11T13:19:17Z</time>
      </trkpt>
      <trkpt lat="46.2245" lon="6.49225">
        <ele>1457</ele>
        <time>2010-09-11T13:19:26Z</time>
      </trkpt>
      <trkpt lat="46.22457" lon="6.49222">
        <ele>1458</ele>
        <time>2010-09-11T13:19:33Z</time>
      </trkpt>
      <trkpt lat="46.22471" lon="6.49215">
        <ele>1460</ele>
        <time>2010-09-11T13:19:43Z</time>
      </trkpt>
      <trkpt lat="46.22481" lon="6.49209">
        <ele>1461</ele>
        <time>2010-09-11T13:19:51Z</time>
      </trkpt>
      <trkpt lat="46.22488" lon="6.49204">
        <ele>1461</ele>
        <time>2010-09-11T13:19:58Z</time>
      </trkpt>
      <trkpt lat="46.22494" lon="6.492">
        <ele>1461</ele>
        <time>2010-09-11T13:20:03Z</time>
      </trkpt>
      <trkpt lat="46.22499" lon="6.49194">
        <ele>1460</ele>
        <time>2010-09-11T13:20:09Z</time>
      </trkpt>
      <trkpt lat="46.22502" lon="6.49185">
        <ele>1471</ele>
        <time>2010-09-11T13:20:17Z</time>
      </trkpt>
      <trkpt lat="46.22509" lon="6.49176">
        <ele>1469</ele>
        <time>2010-09-11T13:20:26Z</time>
      </trkpt>
      <trkpt lat="46.22512" lon="6.49172">
        <ele>1469</ele>
        <time>2010-09-11T13:20:31Z</time>
      </trkpt>
      <trkpt lat="46.22515" lon="6.49169">
        <ele>1470</ele>
        <time>2010-09-11T13:20:35Z</time>
      </trkpt>
      <trkpt lat="46.22519" lon="6.49164">
        <ele>1469</ele>
        <time>2010-09-11T13:20:40Z</time>
      </trkpt>
      <trkpt lat="46.22521" lon="6.4916">
        <ele>1470</ele>
        <time>2010-09-11T13:20:43Z</time>
      </trkpt>
      <trkpt lat="46.22528" lon="6.49151">
        <ele>1473</ele>
        <time>2010-09-11T13:20:51Z</time>
      </trkpt>
      <trkpt lat="46.22534" lon="6.49146">
        <ele>1475</ele>
        <time>2010-09-11T13:20:57Z</time>
      </trkpt>
      <trkpt lat="46.2254" lon="6.49146">
        <ele>1476</ele>
        <time>2010-09-11T13:21:03Z</time>
      </trkpt>
      <trkpt lat="46.22545" lon="6.49146">
        <ele>1477</ele>
        <time>2010-09-11T13:21:08Z</time>
      </trkpt>
      <trkpt lat="46.2255" lon="6.49144">
        <ele>1478</ele>
        <time>2010-09-11T13:21:14Z</time>
      </trkpt>
      <trkpt lat="46.22554" lon="6.49143">
        <ele>1479</ele>
        <time>2010-09-11T13:21:18Z</time>
      </trkpt>
      <trkpt lat="46.22559" lon="6.49142">
        <ele>1480</ele>
        <time>2010-09-11T13:21:24Z</time>
      </trkpt>
      <trkpt lat="46.22562" lon="6.4914">
        <ele>1481</ele>
        <time>2010-09-11T13:21:29Z</time>
      </trkpt>
      <trkpt lat="46.22566" lon="6.49137">
        <ele>1481</ele>
        <time>2010-09-11T13:21:34Z</time>
      </trkpt>
      <trkpt lat="46.2257" lon="6.49136">
        <ele>1481</ele>
        <time>2010-09-11T13:21:38Z</time>
      </trkpt>
      <trkpt lat="46.22572" lon="6.49134">
        <ele>1482</ele>
        <time>2010-09-11T13:21:41Z</time>
      </trkpt>
      <trkpt lat="46.22574" lon="6.49133">
        <ele>1482</ele>
        <time>2010-09-11T13:21:44Z</time>
      </trkpt>
      <trkpt lat="46.22578" lon="6.49131">
        <ele>1482</ele>
        <time>2010-09-11T13:21:50Z</time>
      </trkpt>
      <trkpt lat="46.22581" lon="6.4913">
        <ele>1482</ele>
        <time>2010-09-11T13:21:54Z</time>
      </trkpt>
      <trkpt lat="46.22583" lon="6.49129">
        <ele>1500</ele>
        <time>2010-09-11T13:21:57Z</time>
      </trkpt>
      <trkpt lat="46.22587" lon="6.49128">
        <ele>1500</ele>
        <time>2010-09-11T13:22:01Z</time>
      </trkpt>
      <trkpt lat="46.22593" lon="6.49127">
        <ele>1500</ele>
        <time>2010-09-11T13:22:07Z</time>
      </trkpt>
      <trkpt lat="46.22596" lon="6.49126">
        <ele>1501</ele>
        <time>2010-09-11T13:22:11Z</time>
      </trkpt>
      <trkpt lat="46.22599" lon="6.49126">
        <ele>1501</ele>
        <time>2010-09-11T13:22:15Z</time>
      </trkpt>
      <trkpt lat="46.22602" lon="6.49125">
        <ele>1502</ele>
        <time>2010-09-11T13:22:19Z</time>
      </trkpt>
      <trkpt lat="46.22604" lon="6.49125">
        <ele>1502</ele>
        <time>2010-09-11T13:22:23Z</time>
      </trkpt>
      <trkpt lat="46.22607" lon="6.49125">
        <ele>1502</ele>
        <time>2010-09-11T13:22:27Z</time>
      </trkpt>
      <trkpt lat="46.2261" lon="6.49124">
        <ele>1503</ele>
        <time>2010-09-11T13:22:31Z</time>
      </trkpt>
      <trkpt lat="46.22613" lon="6.49123">
        <ele>1503</ele>
        <time>2010-09-11T13:22:36Z</time>
      </trkpt>
      <trkpt lat="46.22615" lon="6.49122">
        <ele>1503</ele>
        <time>2010-09-11T13:22:40Z</time>
      </trkpt>
      <trkpt lat="46.22618" lon="6.49122">
        <ele>1504</ele>
        <time>2010-09-11T13:22:44Z</time>
      </trkpt>
      <trkpt lat="46.2262" lon="6.49121">
        <ele>1504</ele>
        <time>2010-09-11T13:22:47Z</time>
      </trkpt>
      <trkpt lat="46.22623" lon="6.49121">
        <ele>1505</ele>
        <time>2010-09-11T13:22:52Z</time>
      </trkpt>
      <trkpt lat="46.22625" lon="6.49121">
        <ele>1505</ele>
        <time>2010-09-11T13:22:56Z</time>
      </trkpt>
      <trkpt lat="46.22628" lon="6.49119">
        <ele>1506</ele>
        <time>2010-09-11T13:23:00Z</time>
      </trkpt>
      <trkpt lat="46.22631" lon="6.49119">
        <ele>1506</ele>
        <time>2010-09-11T13:23:06Z</time>
      </trkpt>
      <trkpt lat="46.22633" lon="6.49118">
        <ele>1507</ele>
        <time>2010-09-11T13:23:10Z</time>
      </trkpt>
      <trkpt lat="46.22638" lon="6.49118">
        <ele>1507</ele>
        <time>2010-09-11T13:23:17Z</time>
      </trkpt>
      <trkpt lat="46.2264" lon="6.49118">
        <ele>1508</ele>
        <time>2010-09-11T13:23:20Z</time>
      </trkpt>
      <trkpt lat="46.22643" lon="6.49119">
        <ele>1508</ele>
        <time>2010-09-11T13:23:23Z</time>
      </trkpt>
      <trkpt lat="46.22646" lon="6.49118">
        <ele>1509</ele>
        <time>2010-09-11T13:23:28Z</time>
      </trkpt>
      <trkpt lat="46.2265" lon="6.49118">
        <ele>1509</ele>
        <time>2010-09-11T13:23:33Z</time>
      </trkpt>
      <trkpt lat="46.22652" lon="6.49117">
        <ele>1510</ele>
        <time>2010-09-11T13:23:36Z</time>
      </trkpt>
      <trkpt lat="46.22653" lon="6.49117">
        <ele>1510</ele>
        <time>2010-09-11T13:23:42Z</time>
      </trkpt>
      <trkpt lat="46.22656" lon="6.49115">
        <ele>1510</ele>
        <time>2010-09-11T13:23:48Z</time>
      </trkpt>
      <trkpt lat="46.22658" lon="6.49113">
        <ele>1510</ele>
        <time>2010-09-11T13:23:52Z</time>
      </trkpt>
      <trkpt lat="46.22661" lon="6.4911">
        <ele>1511</ele>
        <time>2010-09-11T13:23:56Z</time>
      </trkpt>
      <trkpt lat="46.22661" lon="6.4911">
        <ele>1511</ele>
        <time>2010-09-11T13:24:01Z</time>
      </trkpt>
      <trkpt lat="46.22663" lon="6.4911">
        <ele>1511</ele>
        <time>2010-09-11T13:24:07Z</time>
      </trkpt>
      <trkpt lat="46.22667" lon="6.49106">
        <ele>1526</ele>
        <time>2010-09-11T13:24:23Z</time>
      </trkpt>
      <trkpt lat="46.22675" lon="6.49102">
        <ele>1526</ele>
        <time>2010-09-11T13:24:30Z</time>
      </trkpt>
      <trkpt lat="46.22679" lon="6.491">
        <ele>1526</ele>
        <time>2010-09-11T13:24:35Z</time>
      </trkpt>
      <trkpt lat="46.22686" lon="6.49097">
        <ele>1527</ele>
        <time>2010-09-11T13:24:42Z</time>
      </trkpt>
      <trkpt lat="46.22689" lon="6.49096">
        <ele>1528</ele>
        <time>2010-09-11T13:24:45Z</time>
      </trkpt>
      <trkpt lat="46.22693" lon="6.49094">
        <ele>1529</ele>
        <time>2010-09-11T13:24:49Z</time>
      </trkpt>
      <trkpt lat="46.22695" lon="6.49093">
        <ele>1529</ele>
        <time>2010-09-11T13:24:53Z</time>
      </trkpt>
      <trkpt lat="46.22697" lon="6.49092">
        <ele>1530</ele>
        <time>2010-09-11T13:24:56Z</time>
      </trkpt>
      <trkpt lat="46.22701" lon="6.49091">
        <ele>1531</ele>
        <time>2010-09-11T13:25:00Z</time>
      </trkpt>
      <trkpt lat="46.22704" lon="6.49091">
        <ele>1531</ele>
        <time>2010-09-11T13:25:04Z</time>
      </trkpt>
      <trkpt lat="46.2271" lon="6.49091">
        <ele>1533</ele>
        <time>2010-09-11T13:25:10Z</time>
      </trkpt>
      <trkpt lat="46.22713" lon="6.49091">
        <ele>1533</ele>
        <time>2010-09-11T13:25:15Z</time>
      </trkpt>
      <trkpt lat="46.22716" lon="6.49091">
        <ele>1534</ele>
        <time>2010-09-11T13:25:18Z</time>
      </trkpt>
      <trkpt lat="46.2272" lon="6.49091">
        <ele>1535</ele>
        <time>2010-09-11T13:25:24Z</time>
      </trkpt>
      <trkpt lat="46.22723" lon="6.49091">
        <ele>1536</ele>
        <time>2010-09-11T13:25:28Z</time>
      </trkpt>
      <trkpt lat="46.22725" lon="6.49092">
        <ele>1536</ele>
        <time>2010-09-11T13:25:34Z</time>
      </trkpt>
      <trkpt lat="46.22729" lon="6.49091">
        <ele>1537</ele>
        <time>2010-09-11T13:25:45Z</time>
      </trkpt>
      <trkpt lat="46.22731" lon="6.49091">
        <ele>1537</ele>
        <time>2010-09-11T13:25:49Z</time>
      </trkpt>
      <trkpt lat="46.22735" lon="6.49092">
        <ele>1538</ele>
        <time>2010-09-11T13:25:54Z</time>
      </trkpt>
      <trkpt lat="46.22738" lon="6.49093">
        <ele>1539</ele>
        <time>2010-09-11T13:25:58Z</time>
      </trkpt>
      <trkpt lat="46.22742" lon="6.49092">
        <ele>1540</ele>
        <time>2010-09-11T13:26:04Z</time>
      </trkpt>
      <trkpt lat="46.22747" lon="6.49093">
        <ele>1540</ele>
        <time>2010-09-11T13:26:10Z</time>
      </trkpt>
      <trkpt lat="46.22751" lon="6.49093">
        <ele>1546</ele>
        <time>2010-09-11T13:26:16Z</time>
      </trkpt>
      <trkpt lat="46.22754" lon="6.49093">
        <ele>1546</ele>
        <time>2010-09-11T13:26:21Z</time>
      </trkpt>
      <trkpt lat="46.22758" lon="6.49093">
        <ele>1547</ele>
        <time>2010-09-11T13:26:26Z</time>
      </trkpt>
      <trkpt lat="46.22763" lon="6.49093">
        <ele>1547</ele>
        <time>2010-09-11T13:26:32Z</time>
      </trkpt>
      <trkpt lat="46.22768" lon="6.49094">
        <ele>1548</ele>
        <time>2010-09-11T13:26:38Z</time>
      </trkpt>
      <trkpt lat="46.22772" lon="6.49094">
        <ele>1549</ele>
        <time>2010-09-11T13:26:43Z</time>
      </trkpt>
      <trkpt lat="46.22776" lon="6.49094">
        <ele>1549</ele>
        <time>2010-09-11T13:26:48Z</time>
      </trkpt>
      <trkpt lat="46.22782" lon="6.49092">
        <ele>1550</ele>
        <time>2010-09-11T13:26:55Z</time>
      </trkpt>
      <trkpt lat="46.2279" lon="6.49087">
        <ele>1550</ele>
        <time>2010-09-11T13:27:03Z</time>
      </trkpt>
      <trkpt lat="46.22793" lon="6.49083">
        <ele>1553</ele>
        <time>2010-09-11T13:27:08Z</time>
      </trkpt>
      <trkpt lat="46.22796" lon="6.49078">
        <ele>1553</ele>
        <time>2010-09-11T13:27:13Z</time>
      </trkpt>
      <trkpt lat="46.22798" lon="6.49071">
        <ele>1553</ele>
        <time>2010-09-11T13:27:18Z</time>
      </trkpt>
      <trkpt lat="46.22801" lon="6.49064">
        <ele>1554</ele>
        <time>2010-09-11T13:27:24Z</time>
      </trkpt>
      <trkpt lat="46.22804" lon="6.49059">
        <ele>1554</ele>
        <time>2010-09-11T13:27:29Z</time>
      </trkpt>
      <trkpt lat="46.22807" lon="6.49056">
        <ele>1555</ele>
        <time>2010-09-11T13:27:33Z</time>
      </trkpt>
      <trkpt lat="46.2281" lon="6.49052">
        <ele>1555</ele>
        <time>2010-09-11T13:27:38Z</time>
      </trkpt>
      <trkpt lat="46.22813" lon="6.49049">
        <ele>1555</ele>
        <time>2010-09-11T13:27:44Z</time>
      </trkpt>
      <trkpt lat="46.22817" lon="6.49045">
        <ele>1556</ele>
        <time>2010-09-11T13:27:50Z</time>
      </trkpt>
      <trkpt lat="46.2282" lon="6.4904">
        <ele>1556</ele>
        <time>2010-09-11T13:27:57Z</time>
      </trkpt>
      <trkpt lat="46.22824" lon="6.49037">
        <ele>1557</ele>
        <time>2010-09-11T13:28:03Z</time>
      </trkpt>
      <trkpt lat="46.22826" lon="6.49032">
        <ele>1557</ele>
        <time>2010-09-11T13:28:07Z</time>
      </trkpt>
      <trkpt lat="46.22829" lon="6.49026">
        <ele>1558</ele>
        <time>2010-09-11T13:28:13Z</time>
      </trkpt>
      <trkpt lat="46.22831" lon="6.49021">
        <ele>1559</ele>
        <time>2010-09-11T13:28:17Z</time>
      </trkpt>
      <trkpt lat="46.22833" lon="6.49017">
        <ele>1563</ele>
        <time>2010-09-11T13:28:22Z</time>
      </trkpt>
      <trkpt lat="46.22836" lon="6.49013">
        <ele>1563</ele>
        <time>2010-09-11T13:28:26Z</time>
      </trkpt>
      <trkpt lat="46.22839" lon="6.49007">
        <ele>1564</ele>
        <time>2010-09-11T13:28:32Z</time>
      </trkpt>
      <trkpt lat="46.2284" lon="6.49002">
        <ele>1564</ele>
        <time>2010-09-11T13:28:37Z</time>
      </trkpt>
      <trkpt lat="46.22843" lon="6.48997">
        <ele>1567</ele>
        <time>2010-09-11T13:28:43Z</time>
      </trkpt>
      <trkpt lat="46.22848" lon="6.4899">
        <ele>1568</ele>
        <time>2010-09-11T13:28:50Z</time>
      </trkpt>
      <trkpt lat="46.22852" lon="6.48986">
        <ele>1569</ele>
        <time>2010-09-11T13:28:57Z</time>
      </trkpt>
      <trkpt lat="46.22854" lon="6.48983">
        <ele>1569</ele>
        <time>2010-09-11T13:29:03Z</time>
      </trkpt>
      <trkpt lat="46.22856" lon="6.48982">
        <ele>1570</ele>
        <time>2010-09-11T13:29:08Z</time>
      </trkpt>
      <trkpt lat="46.22858" lon="6.48978">
        <ele>1570</ele>
        <time>2010-09-11T13:29:13Z</time>
      </trkpt>
      <trkpt lat="46.22858" lon="6.48973">
        <ele>1570</ele>
        <time>2010-09-11T13:29:20Z</time>
      </trkpt>
      <trkpt lat="46.22859" lon="6.48972">
        <ele>1570</ele>
        <time>2010-09-11T13:29:28Z</time>
      </trkpt>
      <trkpt lat="46.22858" lon="6.48967">
        <ele>1571</ele>
        <time>2010-09-11T13:29:34Z</time>
      </trkpt>
      <trkpt lat="46.22858" lon="6.48963">
        <ele>1571</ele>
        <time>2010-09-11T13:29:38Z</time>
      </trkpt>
      <trkpt lat="46.22861" lon="6.4896">
        <ele>1571</ele>
        <time>2010-09-11T13:29:44Z</time>
      </trkpt>
      <trkpt lat="46.22861" lon="6.48957">
        <ele>1572</ele>
        <time>2010-09-11T13:29:49Z</time>
      </trkpt>
      <trkpt lat="46.22859" lon="6.48959">
        <ele>1571</ele>
        <time>2010-09-11T13:29:53Z</time>
      </trkpt>
      <trkpt lat="46.22861" lon="6.4896">
        <ele>1571</ele>
        <time>2010-09-11T13:29:59Z</time>
      </trkpt>
      <trkpt lat="46.22863" lon="6.4896">
        <ele>1571</ele>
        <time>2010-09-11T13:30:07Z</time>
      </trkpt>
      <trkpt lat="46.22862" lon="6.4896">
        <ele>1571</ele>
        <time>2010-09-11T13:30:13Z</time>
      </trkpt>
      <trkpt lat="46.22863" lon="6.48961">
        <ele>1571</ele>
        <time>2010-09-11T13:30:20Z</time>
      </trkpt>
      <trkpt lat="46.22867" lon="6.48963">
        <ele>1571</ele>
        <time>2010-09-11T13:30:25Z</time>
      </trkpt>
      <trkpt lat="46.22875" lon="6.48962">
        <ele>1571</ele>
        <time>2010-09-11T13:30:31Z</time>
      </trkpt>
      <trkpt lat="46.22886" lon="6.48961">
        <ele>1571</ele>
        <time>2010-09-11T13:30:39Z</time>
      </trkpt>
      <trkpt lat="46.2289" lon="6.48959">
        <ele>1571</ele>
        <time>2010-09-11T13:30:43Z</time>
      </trkpt>
      <trkpt lat="46.22895" lon="6.48955">
        <ele>1572</ele>
        <time>2010-09-11T13:30:49Z</time>
      </trkpt>
      <trkpt lat="46.22898" lon="6.48951">
        <ele>1572</ele>
        <time>2010-09-11T13:30:55Z</time>
      </trkpt>
      <trkpt lat="46.22901" lon="6.48947">
        <ele>1572</ele>
        <time>2010-09-11T13:31:00Z</time>
      </trkpt>
      <trkpt lat="46.22903" lon="6.48942">
        <ele>1573</ele>
        <time>2010-09-11T13:31:06Z</time>
      </trkpt>
      <trkpt lat="46.22905" lon="6.48939">
        <ele>1573</ele>
        <time>2010-09-11T13:31:10Z</time>
      </trkpt>
      <trkpt lat="46.22907" lon="6.48935">
        <ele>1573</ele>
        <time>2010-09-11T13:31:16Z</time>
      </trkpt>
      <trkpt lat="46.22908" lon="6.48933">
        <ele>1574</ele>
        <time>2010-09-11T13:31:22Z</time>
      </trkpt>
      <trkpt lat="46.22909" lon="6.48929">
        <ele>1574</ele>
        <time>2010-09-11T13:31:26Z</time>
      </trkpt>
      <trkpt lat="46.22911" lon="6.48926">
        <ele>1574</ele>
        <time>2010-09-11T13:31:31Z</time>
      </trkpt>
      <trkpt lat="46.22912" lon="6.48924">
        <ele>1575</ele>
        <time>2010-09-11T13:31:36Z</time>
      </trkpt>
      <trkpt lat="46.22915" lon="6.48926">
        <ele>1575</ele>
        <time>2010-09-11T13:31:43Z</time>
      </trkpt>
      <trkpt lat="46.2292" lon="6.48928">
        <ele>1573</ele>
        <time>2010-09-11T13:31:49Z</time>
      </trkpt>
      <trkpt lat="46.2292" lon="6.48929">
        <ele>1573</ele>
        <time>2010-09-11T13:31:58Z</time>
      </trkpt>
      <trkpt lat="46.22921" lon="6.48928">
        <ele>1573</ele>
        <time>2010-09-11T13:32:04Z</time>
      </trkpt>
      <trkpt lat="46.22926" lon="6.48923">
        <ele>1573</ele>
        <time>2010-09-11T13:32:09Z</time>
      </trkpt>
      <trkpt lat="46.22935" lon="6.48925">
        <ele>1572</ele>
        <time>2010-09-11T13:32:15Z</time>
      </trkpt>
      <trkpt lat="46.22941" lon="6.48926">
        <ele>1571</ele>
        <time>2010-09-11T13:32:19Z</time>
      </trkpt>
      <trkpt lat="46.22947" lon="6.48924">
        <ele>1570</ele>
        <time>2010-09-11T13:32:23Z</time>
      </trkpt>
      <trkpt lat="46.22957" lon="6.48924">
        <ele>1570</ele>
        <time>2010-09-11T13:32:28Z</time>
      </trkpt>
      <trkpt lat="46.22963" lon="6.48928">
        <ele>1569</ele>
        <time>2010-09-11T13:32:31Z</time>
      </trkpt>
      <trkpt lat="46.22976" lon="6.48931">
        <ele>1569</ele>
        <time>2010-09-11T13:32:36Z</time>
      </trkpt>
      <trkpt lat="46.22978" lon="6.48931">
        <ele>1569</ele>
        <time>2010-09-11T13:32:37Z</time>
      </trkpt>
      <trkpt lat="46.22991" lon="6.48932">
        <ele>1568</ele>
        <time>2010-09-11T13:32:42Z</time>
      </trkpt>
      <trkpt lat="46.22997" lon="6.4893">
        <ele>1568</ele>
        <time>2010-09-11T13:32:47Z</time>
      </trkpt>
      <trkpt lat="46.23003" lon="6.48928">
        <ele>1568</ele>
        <time>2010-09-11T13:32:53Z</time>
      </trkpt>
      <trkpt lat="46.23008" lon="6.48922">
        <ele>1568</ele>
        <time>2010-09-11T13:32:59Z</time>
      </trkpt>
      <trkpt lat="46.23014" lon="6.48922">
        <ele>1568</ele>
        <time>2010-09-11T13:33:06Z</time>
      </trkpt>
      <trkpt lat="46.23024" lon="6.48921">
        <ele>1568</ele>
        <time>2010-09-11T13:33:14Z</time>
      </trkpt>
      <trkpt lat="46.23031" lon="6.4892">
        <ele>1568</ele>
        <time>2010-09-11T13:33:20Z</time>
      </trkpt>
      <trkpt lat="46.23035" lon="6.48918">
        <ele>1569</ele>
        <time>2010-09-11T13:33:25Z</time>
      </trkpt>
      <trkpt lat="46.23037" lon="6.48918">
        <ele>1569</ele>
        <time>2010-09-11T13:33:27Z</time>
      </trkpt>
      <trkpt lat="46.23044" lon="6.48915">
        <ele>1566</ele>
        <time>2010-09-11T13:33:34Z</time>
      </trkpt>
      <trkpt lat="46.23047" lon="6.48911">
        <ele>1567</ele>
        <time>2010-09-11T13:33:39Z</time>
      </trkpt>
      <trkpt lat="46.23047" lon="6.4891">
        <ele>1567</ele>
        <time>2010-09-11T13:33:40Z</time>
      </trkpt>
      <trkpt lat="46.23052" lon="6.48907">
        <ele>1567</ele>
        <time>2010-09-11T13:33:46Z</time>
      </trkpt>
      <trkpt lat="46.23053" lon="6.48907">
        <ele>1567</ele>
        <time>2010-09-11T13:33:52Z</time>
      </trkpt>
      <trkpt lat="46.23055" lon="6.48906">
        <ele>1567</ele>
        <time>2010-09-11T13:33:59Z</time>
      </trkpt>
      <trkpt lat="46.23057" lon="6.48904">
        <ele>1567</ele>
        <time>2010-09-11T13:34:01Z</time>
      </trkpt>
      <trkpt lat="46.23067" lon="6.48901">
        <ele>1569</ele>
        <time>2010-09-11T13:34:07Z</time>
      </trkpt>
      <trkpt lat="46.23072" lon="6.48898">
        <ele>1569</ele>
        <time>2010-09-11T13:34:11Z</time>
      </trkpt>
      <trkpt lat="46.23079" lon="6.48897">
        <ele>1569</ele>
        <time>2010-09-11T13:34:16Z</time>
      </trkpt>
      <trkpt lat="46.23087" lon="6.48898">
        <ele>1568</ele>
        <time>2010-09-11T13:34:23Z</time>
      </trkpt>
      <trkpt lat="46.23091" lon="6.48896">
        <ele>1567</ele>
        <time>2010-09-11T13:34:27Z</time>
      </trkpt>
      <trkpt lat="46.23094" lon="6.48895">
        <ele>1566</ele>
        <time>2010-09-11T13:34:33Z</time>
      </trkpt>
      <trkpt lat="46.23094" lon="6.48895">
        <ele>1566</ele>
        <time>2010-09-11T13:34:41Z</time>
      </trkpt>
      <trkpt lat="46.23099" lon="6.48892">
        <ele>1565</ele>
        <time>2010-09-11T13:34:47Z</time>
      </trkpt>
      <trkpt lat="46.23102" lon="6.48894">
        <ele>1565</ele>
        <time>2010-09-11T13:34:53Z</time>
      </trkpt>
      <trkpt lat="46.23105" lon="6.48895">
        <ele>1565</ele>
        <time>2010-09-11T13:35:04Z</time>
      </trkpt>
      <trkpt lat="46.23105" lon="6.48894">
        <ele>1564</ele>
        <time>2010-09-11T13:35:09Z</time>
      </trkpt>
      <trkpt lat="46.23106" lon="6.48894">
        <ele>1564</ele>
        <time>2010-09-11T13:35:31Z</time>
      </trkpt>
      <trkpt lat="46.23103" lon="6.48894">
        <ele>1565</ele>
        <time>2010-09-11T13:35:47Z</time>
      </trkpt>
      <trkpt lat="46.23098" lon="6.48893">
        <ele>1565</ele>
        <time>2010-09-11T13:35:51Z</time>
      </trkpt>
      <trkpt lat="46.23096" lon="6.48894">
        <ele>1566</ele>
        <time>2010-09-11T13:35:53Z</time>
      </trkpt>
      <trkpt lat="46.23094" lon="6.48897">
        <ele>1567</ele>
        <time>2010-09-11T13:35:59Z</time>
      </trkpt>
      <trkpt lat="46.23092" lon="6.48897">
        <ele>1567</ele>
        <time>2010-09-11T13:36:01Z</time>
      </trkpt>
      <trkpt lat="46.23085" lon="6.489">
        <ele>1569</ele>
        <time>2010-09-11T13:36:07Z</time>
      </trkpt>
      <trkpt lat="46.23081" lon="6.48905">
        <ele>1572</ele>
        <time>2010-09-11T13:36:13Z</time>
      </trkpt>
      <trkpt lat="46.23076" lon="6.48909">
        <ele>1572</ele>
        <time>2010-09-11T13:36:18Z</time>
      </trkpt>
      <trkpt lat="46.23074" lon="6.48916">
        <ele>1573</ele>
        <time>2010-09-11T13:36:24Z</time>
      </trkpt>
      <trkpt lat="46.23069" lon="6.48921">
        <ele>1573</ele>
        <time>2010-09-11T13:36:30Z</time>
      </trkpt>
      <trkpt lat="46.23067" lon="6.48925">
        <ele>1572</ele>
        <time>2010-09-11T13:36:35Z</time>
      </trkpt>
      <trkpt lat="46.23066" lon="6.48926">
        <ele>1571</ele>
        <time>2010-09-11T13:36:36Z</time>
      </trkpt>
      <trkpt lat="46.23056" lon="6.48932">
        <ele>1570</ele>
        <time>2010-09-11T13:36:41Z</time>
      </trkpt>
      <trkpt lat="46.23049" lon="6.48935">
        <ele>1569</ele>
        <time>2010-09-11T13:36:44Z</time>
      </trkpt>
      <trkpt lat="46.23038" lon="6.4894">
        <ele>1568</ele>
        <time>2010-09-11T13:36:50Z</time>
      </trkpt>
      <trkpt lat="46.23027" lon="6.48946">
        <ele>1567</ele>
        <time>2010-09-11T13:36:55Z</time>
      </trkpt>
      <trkpt lat="46.23015" lon="6.48953">
        <ele>1566</ele>
        <time>2010-09-11T13:37:01Z</time>
      </trkpt>
      <trkpt lat="46.23003" lon="6.48957">
        <ele>1566</ele>
        <time>2010-09-11T13:37:06Z</time>
      </trkpt>
      <trkpt lat="46.22993" lon="6.4896">
        <ele>1567</ele>
        <time>2010-09-11T13:37:11Z</time>
      </trkpt>
      <trkpt lat="46.22984" lon="6.48965">
        <ele>1567</ele>
        <time>2010-09-11T13:37:17Z</time>
      </trkpt>
      <trkpt lat="46.22979" lon="6.48971">
        <ele>1566</ele>
        <time>2010-09-11T13:37:22Z</time>
      </trkpt>
      <trkpt lat="46.22971" lon="6.48977">
        <ele>1566</ele>
        <time>2010-09-11T13:37:28Z</time>
      </trkpt>
      <trkpt lat="46.22965" lon="6.4898">
        <ele>1567</ele>
        <time>2010-09-11T13:37:33Z</time>
      </trkpt>
      <trkpt lat="46.22958" lon="6.48984">
        <ele>1567</ele>
        <time>2010-09-11T13:37:37Z</time>
      </trkpt>
      <trkpt lat="46.22951" lon="6.48991">
        <ele>1567</ele>
        <time>2010-09-11T13:37:41Z</time>
      </trkpt>
      <trkpt lat="46.22943" lon="6.48996">
        <ele>1567</ele>
        <time>2010-09-11T13:37:46Z</time>
      </trkpt>
      <trkpt lat="46.22938" lon="6.49002">
        <ele>1561</ele>
        <time>2010-09-11T13:37:51Z</time>
      </trkpt>
      <trkpt lat="46.22926" lon="6.49014">
        <ele>1562</ele>
        <time>2010-09-11T13:37:57Z</time>
      </trkpt>
      <trkpt lat="46.22913" lon="6.49028">
        <ele>1562</ele>
        <time>2010-09-11T13:38:03Z</time>
      </trkpt>
      <trkpt lat="46.22901" lon="6.49041">
        <ele>1560</ele>
        <time>2010-09-11T13:38:09Z</time>
      </trkpt>
      <trkpt lat="46.22894" lon="6.49057">
        <ele>1559</ele>
        <time>2010-09-11T13:38:14Z</time>
      </trkpt>
      <trkpt lat="46.2289" lon="6.49076">
        <ele>1558</ele>
        <time>2010-09-11T13:38:20Z</time>
      </trkpt>
      <trkpt lat="46.22885" lon="6.49092">
        <ele>1555</ele>
        <time>2010-09-11T13:38:25Z</time>
      </trkpt>
      <trkpt lat="46.22884" lon="6.491">
        <ele>1555</ele>
        <time>2010-09-11T13:38:29Z</time>
      </trkpt>
      <trkpt lat="46.22884" lon="6.49109">
        <ele>1555</ele>
        <time>2010-09-11T13:38:34Z</time>
      </trkpt>
      <trkpt lat="46.22884" lon="6.49111">
        <ele>1555</ele>
        <time>2010-09-11T13:38:39Z</time>
      </trkpt>
      <trkpt lat="46.22884" lon="6.49119">
        <ele>1556</ele>
        <time>2010-09-11T13:38:44Z</time>
      </trkpt>
      <trkpt lat="46.22882" lon="6.49131">
        <ele>1556</ele>
        <time>2010-09-11T13:38:51Z</time>
      </trkpt>
      <trkpt lat="46.22882" lon="6.49141">
        <ele>1556</ele>
        <time>2010-09-11T13:38:57Z</time>
      </trkpt>
      <trkpt lat="46.22881" lon="6.49143">
        <ele>1556</ele>
        <time>2010-09-11T13:38:59Z</time>
      </trkpt>
      <trkpt lat="46.22882" lon="6.49152">
        <ele>1556</ele>
        <time>2010-09-11T13:39:05Z</time>
      </trkpt>
      <trkpt lat="46.22882" lon="6.49155">
        <ele>1556</ele>
        <time>2010-09-11T13:39:07Z</time>
      </trkpt>
      <trkpt lat="46.22879" lon="6.49167">
        <ele>1561</ele>
        <time>2010-09-11T13:39:15Z</time>
      </trkpt>
      <trkpt lat="46.22878" lon="6.4917">
        <ele>1561</ele>
        <time>2010-09-11T13:39:17Z</time>
      </trkpt>
      <trkpt lat="46.22876" lon="6.49181">
        <ele>1562</ele>
        <time>2010-09-11T13:39:24Z</time>
      </trkpt>
      <trkpt lat="46.22873" lon="6.49189">
        <ele>1562</ele>
        <time>2010-09-11T13:39:29Z</time>
      </trkpt>
      <trkpt lat="46.22872" lon="6.49196">
        <ele>1563</ele>
        <time>2010-09-11T13:39:34Z</time>
      </trkpt>
      <trkpt lat="46.22869" lon="6.49202">
        <ele>1563</ele>
        <time>2010-09-11T13:39:39Z</time>
      </trkpt>
      <trkpt lat="46.22865" lon="6.49211">
        <ele>1564</ele>
        <time>2010-09-11T13:39:47Z</time>
      </trkpt>
      <trkpt lat="46.22865" lon="6.49218">
        <ele>1564</ele>
        <time>2010-09-11T13:39:52Z</time>
      </trkpt>
      <trkpt lat="46.22863" lon="6.49223">
        <ele>1565</ele>
        <time>2010-09-11T13:39:57Z</time>
      </trkpt>
      <trkpt lat="46.22859" lon="6.49229">
        <ele>1566</ele>
        <time>2010-09-11T13:40:03Z</time>
      </trkpt>
      <trkpt lat="46.22857" lon="6.49232">
        <ele>1566</ele>
        <time>2010-09-11T13:40:06Z</time>
      </trkpt>
      <trkpt lat="46.22859" lon="6.49243">
        <ele>1566</ele>
        <time>2010-09-11T13:40:14Z</time>
      </trkpt>
      <trkpt lat="46.22863" lon="6.49254">
        <ele>1575</ele>
        <time>2010-09-11T13:40:22Z</time>
      </trkpt>
      <trkpt lat="46.22864" lon="6.49258">
        <ele>1576</ele>
        <time>2010-09-11T13:40:25Z</time>
      </trkpt>
      <trkpt lat="46.22865" lon="6.49264">
        <ele>1576</ele>
        <time>2010-09-11T13:40:31Z</time>
      </trkpt>
      <trkpt lat="46.22865" lon="6.49271">
        <ele>1577</ele>
        <time>2010-09-11T13:40:36Z</time>
      </trkpt>
      <trkpt lat="46.22865" lon="6.49279">
        <ele>1577</ele>
        <time>2010-09-11T13:40:43Z</time>
      </trkpt>
      <trkpt lat="46.22865" lon="6.49284">
        <ele>1578</ele>
        <time>2010-09-11T13:40:47Z</time>
      </trkpt>
      <trkpt lat="46.22866" lon="6.4929">
        <ele>1579</ele>
        <time>2010-09-11T13:40:52Z</time>
      </trkpt>
      <trkpt lat="46.22865" lon="6.49298">
        <ele>1579</ele>
        <time>2010-09-11T13:40:59Z</time>
      </trkpt>
      <trkpt lat="46.22867" lon="6.49302">
        <ele>1580</ele>
        <time>2010-09-11T13:41:04Z</time>
      </trkpt>
      <trkpt lat="46.2287" lon="6.49305">
        <ele>1580</ele>
        <time>2010-09-11T13:41:08Z</time>
      </trkpt>
      <trkpt lat="46.22873" lon="6.49314">
        <ele>1581</ele>
        <time>2010-09-11T13:41:15Z</time>
      </trkpt>
      <trkpt lat="46.22872" lon="6.49316">
        <ele>1581</ele>
        <time>2010-09-11T13:41:17Z</time>
      </trkpt>
      <trkpt lat="46.2287" lon="6.49324">
        <ele>1582</ele>
        <time>2010-09-11T13:41:24Z</time>
      </trkpt>
      <trkpt lat="46.2287" lon="6.4933">
        <ele>1582</ele>
        <time>2010-09-11T13:41:28Z</time>
      </trkpt>
      <trkpt lat="46.22868" lon="6.49338">
        <ele>1591</ele>
        <time>2010-09-11T13:41:35Z</time>
      </trkpt>
      <trkpt lat="46.22866" lon="6.49345">
        <ele>1591</ele>
        <time>2010-09-11T13:41:41Z</time>
      </trkpt>
      <trkpt lat="46.22865" lon="6.49351">
        <ele>1591</ele>
        <time>2010-09-11T13:41:46Z</time>
      </trkpt>
      <trkpt lat="46.22865" lon="6.49356">
        <ele>1592</ele>
        <time>2010-09-11T13:41:51Z</time>
      </trkpt>
      <trkpt lat="46.22864" lon="6.49363">
        <ele>1592</ele>
        <time>2010-09-11T13:41:57Z</time>
      </trkpt>
      <trkpt lat="46.22865" lon="6.49369">
        <ele>1592</ele>
        <time>2010-09-11T13:42:02Z</time>
      </trkpt>
      <trkpt lat="46.22866" lon="6.49375">
        <ele>1593</ele>
        <time>2010-09-11T13:42:07Z</time>
      </trkpt>
      <trkpt lat="46.22867" lon="6.49381">
        <ele>1593</ele>
        <time>2010-09-11T13:42:13Z</time>
      </trkpt>
      <trkpt lat="46.22866" lon="6.49387">
        <ele>1594</ele>
        <time>2010-09-11T13:42:18Z</time>
      </trkpt>
      <trkpt lat="46.22867" lon="6.49394">
        <ele>1594</ele>
        <time>2010-09-11T13:42:25Z</time>
      </trkpt>
      <trkpt lat="46.22863" lon="6.494">
        <ele>1595</ele>
        <time>2010-09-11T13:42:31Z</time>
      </trkpt>
      <trkpt lat="46.22856" lon="6.49404">
        <ele>1595</ele>
        <time>2010-09-11T13:42:38Z</time>
      </trkpt>
      <trkpt lat="46.22852" lon="6.49407">
        <ele>1596</ele>
        <time>2010-09-11T13:42:43Z</time>
      </trkpt>
      <trkpt lat="46.22847" lon="6.49408">
        <ele>1596</ele>
        <time>2010-09-11T13:42:49Z</time>
      </trkpt>
      <trkpt lat="46.22842" lon="6.49409">
        <ele>1597</ele>
        <time>2010-09-11T13:42:55Z</time>
      </trkpt>
      <trkpt lat="46.22837" lon="6.49408">
        <ele>1597</ele>
        <time>2010-09-11T13:43:01Z</time>
      </trkpt>
      <trkpt lat="46.22833" lon="6.49405">
        <ele>1595</ele>
        <time>2010-09-11T13:43:07Z</time>
      </trkpt>
      <trkpt lat="46.22831" lon="6.49403">
        <ele>1595</ele>
        <time>2010-09-11T13:43:12Z</time>
      </trkpt>
      <trkpt lat="46.22832" lon="6.49406">
        <ele>1595</ele>
        <time>2010-09-11T13:43:36Z</time>
      </trkpt>
      <trkpt lat="46.22833" lon="6.4941">
        <ele>1598</ele>
        <time>2010-09-11T13:43:43Z</time>
      </trkpt>
      <trkpt lat="46.22836" lon="6.49416">
        <ele>1598</ele>
        <time>2010-09-11T13:43:51Z</time>
      </trkpt>
      <trkpt lat="46.22836" lon="6.49417">
        <ele>1598</ele>
        <time>2010-09-11T13:43:52Z</time>
      </trkpt>
      <trkpt lat="46.2284" lon="6.49423">
        <ele>1597</ele>
        <time>2010-09-11T13:43:57Z</time>
      </trkpt>
      <trkpt lat="46.2284" lon="6.49423">
        <ele>1597</ele>
        <time>2010-09-11T13:44:12Z</time>
      </trkpt>
      <trkpt lat="46.22843" lon="6.49427">
        <ele>1597</ele>
        <time>2010-09-11T13:44:18Z</time>
      </trkpt>
      <trkpt lat="46.22848" lon="6.49437">
        <ele>1596</ele>
        <time>2010-09-11T13:44:24Z</time>
      </trkpt>
      <trkpt lat="46.22849" lon="6.49438">
        <ele>1595</ele>
        <time>2010-09-11T13:44:25Z</time>
      </trkpt>
      <trkpt lat="46.22858" lon="6.4945">
        <ele>1594</ele>
        <time>2010-09-11T13:44:34Z</time>
      </trkpt>
      <trkpt lat="46.22866" lon="6.49457">
        <ele>1594</ele>
        <time>2010-09-11T13:44:41Z</time>
      </trkpt>
      <trkpt lat="46.22876" lon="6.49462">
        <ele>1594</ele>
        <time>2010-09-11T13:44:49Z</time>
      </trkpt>
      <trkpt lat="46.22885" lon="6.49468">
        <ele>1594</ele>
        <time>2010-09-11T13:44:55Z</time>
      </trkpt>
      <trkpt lat="46.22896" lon="6.49476">
        <ele>1594</ele>
        <time>2010-09-11T13:45:01Z</time>
      </trkpt>
      <trkpt lat="46.2291" lon="6.49487">
        <ele>1593</ele>
        <time>2010-09-11T13:45:08Z</time>
      </trkpt>
      <trkpt lat="46.22918" lon="6.49492">
        <ele>1594</ele>
        <time>2010-09-11T13:45:12Z</time>
      </trkpt>
      <trkpt lat="46.22926" lon="6.49499">
        <ele>1594</ele>
        <time>2010-09-11T13:45:17Z</time>
      </trkpt>
      <trkpt lat="46.22928" lon="6.49502">
        <ele>1593</ele>
        <time>2010-09-11T13:45:18Z</time>
      </trkpt>
      <trkpt lat="46.22933" lon="6.4951">
        <ele>1592</ele>
        <time>2010-09-11T13:45:21Z</time>
      </trkpt>
      <trkpt lat="46.22939" lon="6.49526">
        <ele>1592</ele>
        <time>2010-09-11T13:45:25Z</time>
      </trkpt>
      <trkpt lat="46.22945" lon="6.49542">
        <ele>1591</ele>
        <time>2010-09-11T13:45:29Z</time>
      </trkpt>
      <trkpt lat="46.2295" lon="6.49559">
        <ele>1590</ele>
        <time>2010-09-11T13:45:34Z</time>
      </trkpt>
      <trkpt lat="46.22955" lon="6.49572">
        <ele>1589</ele>
        <time>2010-09-11T13:45:38Z</time>
      </trkpt>
      <trkpt lat="46.2296" lon="6.49584">
        <ele>1582</ele>
        <time>2010-09-11T13:45:42Z</time>
      </trkpt>
      <trkpt lat="46.22965" lon="6.49601">
        <ele>1581</ele>
        <time>2010-09-11T13:45:47Z</time>
      </trkpt>
      <trkpt lat="46.22969" lon="6.4962">
        <ele>1580</ele>
        <time>2010-09-11T13:45:52Z</time>
      </trkpt>
      <trkpt lat="46.22976" lon="6.49637">
        <ele>1578</ele>
        <time>2010-09-11T13:45:57Z</time>
      </trkpt>
      <trkpt lat="46.22981" lon="6.4965">
        <ele>1577</ele>
        <time>2010-09-11T13:46:01Z</time>
      </trkpt>
      <trkpt lat="46.22985" lon="6.4966">
        <ele>1575</ele>
        <time>2010-09-11T13:46:04Z</time>
      </trkpt>
      <trkpt lat="46.22989" lon="6.49672">
        <ele>1568</ele>
        <time>2010-09-11T13:46:08Z</time>
      </trkpt>
      <trkpt lat="46.22993" lon="6.49683">
        <ele>1567</ele>
        <time>2010-09-11T13:46:15Z</time>
      </trkpt>
      <trkpt lat="46.23" lon="6.49694">
        <ele>1565</ele>
        <time>2010-09-11T13:46:23Z</time>
      </trkpt>
      <trkpt lat="46.23003" lon="6.49706">
        <ele>1568</ele>
        <time>2010-09-11T13:46:30Z</time>
      </trkpt>
      <trkpt lat="46.23003" lon="6.49708">
        <ele>1568</ele>
        <time>2010-09-11T13:46:31Z</time>
      </trkpt>
      <trkpt lat="46.23003" lon="6.49713">
        <ele>1567</ele>
        <time>2010-09-11T13:46:36Z</time>
      </trkpt>
      <trkpt lat="46.22993" lon="6.49725">
        <ele>1561</ele>
        <time>2010-09-11T13:46:42Z</time>
      </trkpt>
      <trkpt lat="46.22991" lon="6.49726">
        <ele>1561</ele>
        <time>2010-09-11T13:46:43Z</time>
      </trkpt>
      <trkpt lat="46.22982" lon="6.4973">
        <ele>1560</ele>
        <time>2010-09-11T13:46:47Z</time>
      </trkpt>
      <trkpt lat="46.2297" lon="6.49732">
        <ele>1560</ele>
        <time>2010-09-11T13:46:52Z</time>
      </trkpt>
      <trkpt lat="46.22958" lon="6.49734">
        <ele>1559</ele>
        <time>2010-09-11T13:46:57Z</time>
      </trkpt>
      <trkpt lat="46.22948" lon="6.49735">
        <ele>1557</ele>
        <time>2010-09-11T13:47:02Z</time>
      </trkpt>
      <trkpt lat="46.22951" lon="6.49745">
        <ele>1557</ele>
        <time>2010-09-11T13:47:06Z</time>
      </trkpt>
      <trkpt lat="46.22961" lon="6.4975">
        <ele>1538</ele>
        <time>2010-09-11T13:47:10Z</time>
      </trkpt>
      <trkpt lat="46.22966" lon="6.49761">
        <ele>1538</ele>
        <time>2010-09-11T13:47:14Z</time>
      </trkpt>
      <trkpt lat="46.22972" lon="6.4977">
        <ele>1537</ele>
        <time>2010-09-11T13:47:18Z</time>
      </trkpt>
      <trkpt lat="46.22976" lon="6.49785">
        <ele>1534</ele>
        <time>2010-09-11T13:47:23Z</time>
      </trkpt>
      <trkpt lat="46.22981" lon="6.498">
        <ele>1531</ele>
        <time>2010-09-11T13:47:29Z</time>
      </trkpt>
      <trkpt lat="46.22984" lon="6.49815">
        <ele>1528</ele>
        <time>2010-09-11T13:47:35Z</time>
      </trkpt>
      <trkpt lat="46.2299" lon="6.49826">
        <ele>1526</ele>
        <time>2010-09-11T13:47:40Z</time>
      </trkpt>
      <trkpt lat="46.22992" lon="6.4984">
        <ele>1513</ele>
        <time>2010-09-11T13:47:45Z</time>
      </trkpt>
      <trkpt lat="46.22999" lon="6.49845">
        <ele>1512</ele>
        <time>2010-09-11T13:47:51Z</time>
      </trkpt>
      <trkpt lat="46.23" lon="6.49844">
        <ele>1513</ele>
        <time>2010-09-11T13:47:58Z</time>
      </trkpt>
      <trkpt lat="46.23002" lon="6.49846">
        <ele>1522</ele>
        <time>2010-09-11T13:48:02Z</time>
      </trkpt>
      <trkpt lat="46.23005" lon="6.49847">
        <ele>1522</ele>
        <time>2010-09-11T13:48:08Z</time>
      </trkpt>
      <trkpt lat="46.23013" lon="6.49853">
        <ele>1520</ele>
        <time>2010-09-11T13:48:13Z</time>
      </trkpt>
      <trkpt lat="46.23019" lon="6.4986">
        <ele>1519</ele>
        <time>2010-09-11T13:48:17Z</time>
      </trkpt>
      <trkpt lat="46.2302" lon="6.49862">
        <ele>1519</ele>
        <time>2010-09-11T13:48:18Z</time>
      </trkpt>
      <trkpt lat="46.23026" lon="6.49866">
        <ele>1519</ele>
        <time>2010-09-11T13:48:23Z</time>
      </trkpt>
      <trkpt lat="46.23032" lon="6.49871">
        <ele>1518</ele>
        <time>2010-09-11T13:48:30Z</time>
      </trkpt>
      <trkpt lat="46.23034" lon="6.49875">
        <ele>1518</ele>
        <time>2010-09-11T13:48:34Z</time>
      </trkpt>
      <trkpt lat="46.23034" lon="6.49879">
        <ele>1517</ele>
        <time>2010-09-11T13:48:38Z</time>
      </trkpt>
      <trkpt lat="46.23037" lon="6.49886">
        <ele>1515</ele>
        <time>2010-09-11T13:48:43Z</time>
      </trkpt>
      <trkpt lat="46.23038" lon="6.49892">
        <ele>1514</ele>
        <time>2010-09-11T13:48:47Z</time>
      </trkpt>
      <trkpt lat="46.23041" lon="6.49901">
        <ele>1513</ele>
        <time>2010-09-11T13:48:52Z</time>
      </trkpt>
      <trkpt lat="46.23048" lon="6.49912">
        <ele>1514</ele>
        <time>2010-09-11T13:48:58Z</time>
      </trkpt>
      <trkpt lat="46.23054" lon="6.49924">
        <ele>1490</ele>
        <time>2010-09-11T13:49:03Z</time>
      </trkpt>
      <trkpt lat="46.23057" lon="6.49928">
        <ele>1491</ele>
        <time>2010-09-11T13:49:05Z</time>
      </trkpt>
      <trkpt lat="46.23062" lon="6.49941">
        <ele>1489</ele>
        <time>2010-09-11T13:49:11Z</time>
      </trkpt>
      <trkpt lat="46.23067" lon="6.49948">
        <ele>1487</ele>
        <time>2010-09-11T13:49:15Z</time>
      </trkpt>
      <trkpt lat="46.23069" lon="6.49951">
        <ele>1486</ele>
        <time>2010-09-11T13:49:17Z</time>
      </trkpt>
      <trkpt lat="46.23076" lon="6.49969">
        <ele>1480</ele>
        <time>2010-09-11T13:49:24Z</time>
      </trkpt>
      <trkpt lat="46.23081" lon="6.49979">
        <ele>1477</ele>
        <time>2010-09-11T13:49:29Z</time>
      </trkpt>
      <trkpt lat="46.23084" lon="6.49987">
        <ele>1486</ele>
        <time>2010-09-11T13:49:33Z</time>
      </trkpt>
      <trkpt lat="46.23085" lon="6.49989">
        <ele>1484</ele>
        <time>2010-09-11T13:49:34Z</time>
      </trkpt>
      <trkpt lat="46.23087" lon="6.49992">
        <ele>1482</ele>
        <time>2010-09-11T13:49:36Z</time>
      </trkpt>
      <trkpt lat="46.23089" lon="6.49993">
        <ele>1482</ele>
        <time>2010-09-11T13:49:44Z</time>
      </trkpt>
      <trkpt lat="46.23095" lon="6.50001">
        <ele>1471</ele>
        <time>2010-09-11T13:49:51Z</time>
      </trkpt>
      <trkpt lat="46.231" lon="6.50009">
        <ele>1471</ele>
        <time>2010-09-11T13:49:56Z</time>
      </trkpt>
      <trkpt lat="46.23101" lon="6.50011">
        <ele>1471</ele>
        <time>2010-09-11T13:49:57Z</time>
      </trkpt>
      <trkpt lat="46.23105" lon="6.50017">
        <ele>1471</ele>
        <time>2010-09-11T13:50:00Z</time>
      </trkpt>
      <trkpt lat="46.23108" lon="6.50034">
        <ele>1470</ele>
        <time>2010-09-11T13:50:07Z</time>
      </trkpt>
      <trkpt lat="46.23111" lon="6.50044">
        <ele>1468</ele>
        <time>2010-09-11T13:50:11Z</time>
      </trkpt>
      <trkpt lat="46.2311" lon="6.50059">
        <ele>1465</ele>
        <time>2010-09-11T13:50:16Z</time>
      </trkpt>
      <trkpt lat="46.23109" lon="6.50074">
        <ele>1462</ele>
        <time>2010-09-11T13:50:21Z</time>
      </trkpt>
      <trkpt lat="46.23107" lon="6.50089">
        <ele>1448</ele>
        <time>2010-09-11T13:50:27Z</time>
      </trkpt>
      <trkpt lat="46.23107" lon="6.50091">
        <ele>1448</ele>
        <time>2010-09-11T13:50:28Z</time>
      </trkpt>
      <trkpt lat="46.23107" lon="6.50096">
        <ele>1448</ele>
        <time>2010-09-11T13:50:33Z</time>
      </trkpt>
      <trkpt lat="46.2311" lon="6.50104">
        <ele>1448</ele>
        <time>2010-09-11T13:50:38Z</time>
      </trkpt>
      <trkpt lat="46.23108" lon="6.50116">
        <ele>1447</ele>
        <time>2010-09-11T13:50:42Z</time>
      </trkpt>
      <trkpt lat="46.23105" lon="6.50127">
        <ele>1446</ele>
        <time>2010-09-11T13:50:47Z</time>
      </trkpt>
      <trkpt lat="46.23103" lon="6.50136">
        <ele>1444</ele>
        <time>2010-09-11T13:50:51Z</time>
      </trkpt>
      <trkpt lat="46.23095" lon="6.50139">
        <ele>1443</ele>
        <time>2010-09-11T13:50:57Z</time>
      </trkpt>
      <trkpt lat="46.23089" lon="6.50148">
        <ele>1440</ele>
        <time>2010-09-11T13:51:02Z</time>
      </trkpt>
      <trkpt lat="46.23087" lon="6.50155">
        <ele>1438</ele>
        <time>2010-09-11T13:51:06Z</time>
      </trkpt>
      <trkpt lat="46.23086" lon="6.50157">
        <ele>1436</ele>
        <time>2010-09-11T13:51:10Z</time>
      </trkpt>
      <trkpt lat="46.23084" lon="6.50162">
        <ele>1434</ele>
        <time>2010-09-11T13:51:12Z</time>
      </trkpt>
      <trkpt lat="46.23078" lon="6.50172">
        <ele>1425</ele>
        <time>2010-09-11T13:51:19Z</time>
      </trkpt>
      <trkpt lat="46.23076" lon="6.50175">
        <ele>1424</ele>
        <time>2010-09-11T13:51:21Z</time>
      </trkpt>
      <trkpt lat="46.23075" lon="6.50185">
        <ele>1420</ele>
        <time>2010-09-11T13:51:26Z</time>
      </trkpt>
      <trkpt lat="46.23074" lon="6.50193">
        <ele>1418</ele>
        <time>2010-09-11T13:51:30Z</time>
      </trkpt>
      <trkpt lat="46.2307" lon="6.50198">
        <ele>1416</ele>
        <time>2010-09-11T13:51:34Z</time>
      </trkpt>
      <trkpt lat="46.23064" lon="6.50209">
        <ele>1414</ele>
        <time>2010-09-11T13:51:41Z</time>
      </trkpt>
      <trkpt lat="46.23059" lon="6.5022">
        <ele>1413</ele>
        <time>2010-09-11T13:51:47Z</time>
      </trkpt>
      <trkpt lat="46.23055" lon="6.50224">
        <ele>1412</ele>
        <time>2010-09-11T13:51:51Z</time>
      </trkpt>
      <trkpt lat="46.23052" lon="6.50227">
        <ele>1411</ele>
        <time>2010-09-11T13:51:54Z</time>
      </trkpt>
      <trkpt lat="46.2305" lon="6.50235">
        <ele>1410</ele>
        <time>2010-09-11T13:51:58Z</time>
      </trkpt>
      <trkpt lat="46.23044" lon="6.50244">
        <ele>1409</ele>
        <time>2010-09-11T13:52:05Z</time>
      </trkpt>
      <trkpt lat="46.23045" lon="6.50252">
        <ele>1398</ele>
        <time>2010-09-11T13:52:10Z</time>
      </trkpt>
      <trkpt lat="46.23046" lon="6.50259">
        <ele>1397</ele>
        <time>2010-09-11T13:52:16Z</time>
      </trkpt>
      <trkpt lat="46.23045" lon="6.50262">
        <ele>1397</ele>
        <time>2010-09-11T13:52:26Z</time>
      </trkpt>
      <trkpt lat="46.23048" lon="6.50266">
        <ele>1397</ele>
        <time>2010-09-11T13:52:42Z</time>
      </trkpt>
      <trkpt lat="46.23051" lon="6.50268">
        <ele>1398</ele>
        <time>2010-09-11T13:52:45Z</time>
      </trkpt>
      <trkpt lat="46.23058" lon="6.50272">
        <ele>1399</ele>
        <time>2010-09-11T13:52:52Z</time>
      </trkpt>
      <trkpt lat="46.23061" lon="6.50274">
        <ele>1399</ele>
        <time>2010-09-11T13:52:54Z</time>
      </trkpt>
      <trkpt lat="46.23063" lon="6.5028">
        <ele>1399</ele>
        <time>2010-09-11T13:52:59Z</time>
      </trkpt>
      <trkpt lat="46.23069" lon="6.50296">
        <ele>1397</ele>
        <time>2010-09-11T13:53:07Z</time>
      </trkpt>
      <trkpt lat="46.23074" lon="6.50311">
        <ele>1396</ele>
        <time>2010-09-11T13:53:12Z</time>
      </trkpt>
      <trkpt lat="46.23082" lon="6.5032">
        <ele>1397</ele>
        <time>2010-09-11T13:53:16Z</time>
      </trkpt>
      <trkpt lat="46.23086" lon="6.50325">
        <ele>1407</ele>
        <time>2010-09-11T13:53:18Z</time>
      </trkpt>
      <trkpt lat="46.23093" lon="6.50335">
        <ele>1402</ele>
        <time>2010-09-11T13:53:22Z</time>
      </trkpt>
      <trkpt lat="46.23105" lon="6.50349">
        <ele>1404</ele>
        <time>2010-09-11T13:53:28Z</time>
      </trkpt>
      <trkpt lat="46.23112" lon="6.50363">
        <ele>1404</ele>
        <time>2010-09-11T13:53:33Z</time>
      </trkpt>
      <trkpt lat="46.23114" lon="6.5037">
        <ele>1403</ele>
        <time>2010-09-11T13:53:35Z</time>
      </trkpt>
      <trkpt lat="46.23115" lon="6.50393">
        <ele>1400</ele>
        <time>2010-09-11T13:53:41Z</time>
      </trkpt>
      <trkpt lat="46.23114" lon="6.5041">
        <ele>1398</ele>
        <time>2010-09-11T13:53:45Z</time>
      </trkpt>
      <trkpt lat="46.23114" lon="6.50428">
        <ele>1387</ele>
        <time>2010-09-11T13:53:50Z</time>
      </trkpt>
      <trkpt lat="46.23114" lon="6.50442">
        <ele>1387</ele>
        <time>2010-09-11T13:53:54Z</time>
      </trkpt>
      <trkpt lat="46.23114" lon="6.50465">
        <ele>1386</ele>
        <time>2010-09-11T13:54:00Z</time>
      </trkpt>
      <trkpt lat="46.23111" lon="6.50484">
        <ele>1383</ele>
        <time>2010-09-11T13:54:05Z</time>
      </trkpt>
      <trkpt lat="46.23109" lon="6.5049">
        <ele>1382</ele>
        <time>2010-09-11T13:54:07Z</time>
      </trkpt>
      <trkpt lat="46.2311" lon="6.50505">
        <ele>1373</ele>
        <time>2010-09-11T13:54:12Z</time>
      </trkpt>
      <trkpt lat="46.23116" lon="6.50509">
        <ele>1374</ele>
        <time>2010-09-11T13:54:17Z</time>
      </trkpt>
      <trkpt lat="46.23125" lon="6.50512">
        <ele>1376</ele>
        <time>2010-09-11T13:54:25Z</time>
      </trkpt>
      <trkpt lat="46.23133" lon="6.50515">
        <ele>1377</ele>
        <time>2010-09-11T13:54:31Z</time>
      </trkpt>
      <trkpt lat="46.23139" lon="6.50517">
        <ele>1378</ele>
        <time>2010-09-11T13:54:36Z</time>
      </trkpt>
      <trkpt lat="46.23148" lon="6.5052">
        <ele>1380</ele>
        <time>2010-09-11T13:54:43Z</time>
      </trkpt>
      <trkpt lat="46.23149" lon="6.50519">
        <ele>1380</ele>
        <time>2010-09-11T13:54:44Z</time>
      </trkpt>
      <trkpt lat="46.23157" lon="6.50521">
        <ele>1382</ele>
        <time>2010-09-11T13:54:51Z</time>
      </trkpt>
      <trkpt lat="46.2316" lon="6.5052">
        <ele>1382</ele>
        <time>2010-09-11T13:54:55Z</time>
      </trkpt>
      <trkpt lat="46.23168" lon="6.50519">
        <ele>1391</ele>
        <time>2010-09-11T13:55:03Z</time>
      </trkpt>
      <trkpt lat="46.23175" lon="6.5052">
        <ele>1391</ele>
        <time>2010-09-11T13:55:11Z</time>
      </trkpt>
      <trkpt lat="46.23182" lon="6.50521">
        <ele>1391</ele>
        <time>2010-09-11T13:55:18Z</time>
      </trkpt>
      <trkpt lat="46.23187" lon="6.50519">
        <ele>1391</ele>
        <time>2010-09-11T13:55:23Z</time>
      </trkpt>
      <trkpt lat="46.23193" lon="6.50518">
        <ele>1392</ele>
        <time>2010-09-11T13:55:28Z</time>
      </trkpt>
      <trkpt lat="46.23198" lon="6.50516">
        <ele>1392</ele>
        <time>2010-09-11T13:55:33Z</time>
      </trkpt>
      <trkpt lat="46.23203" lon="6.50515">
        <ele>1393</ele>
        <time>2010-09-11T13:55:38Z</time>
      </trkpt>
      <trkpt lat="46.23204" lon="6.50515">
        <ele>1393</ele>
        <time>2010-09-11T13:55:39Z</time>
      </trkpt>
      <trkpt lat="46.23207" lon="6.50514">
        <ele>1393</ele>
        <time>2010-09-11T13:55:41Z</time>
      </trkpt>
      <trkpt lat="46.23213" lon="6.50515">
        <ele>1394</ele>
        <time>2010-09-11T13:55:46Z</time>
      </trkpt>
      <trkpt lat="46.2322" lon="6.50517">
        <ele>1395</ele>
        <time>2010-09-11T13:55:51Z</time>
      </trkpt>
      <trkpt lat="46.23235" lon="6.50515">
        <ele>1399</ele>
        <time>2010-09-11T13:55:57Z</time>
      </trkpt>
      <trkpt lat="46.23245" lon="6.50519">
        <ele>1400</ele>
        <time>2010-09-11T13:56:02Z</time>
      </trkpt>
      <trkpt lat="46.23252" lon="6.50518">
        <ele>1405</ele>
        <time>2010-09-11T13:56:05Z</time>
      </trkpt>
      <trkpt lat="46.23263" lon="6.50526">
        <ele>1403</ele>
        <time>2010-09-11T13:56:11Z</time>
      </trkpt>
      <trkpt lat="46.23265" lon="6.50528">
        <ele>1402</ele>
        <time>2010-09-11T13:56:12Z</time>
      </trkpt>
      <trkpt lat="46.23274" lon="6.50533">
        <ele>1401</ele>
        <time>2010-09-11T13:56:16Z</time>
      </trkpt>
      <trkpt lat="46.23291" lon="6.50537">
        <ele>1400</ele>
        <time>2010-09-11T13:56:22Z</time>
      </trkpt>
      <trkpt lat="46.23303" lon="6.50539">
        <ele>1400</ele>
        <time>2010-09-11T13:56:27Z</time>
      </trkpt>
      <trkpt lat="46.23306" lon="6.5054">
        <ele>1400</ele>
        <time>2010-09-11T13:56:28Z</time>
      </trkpt>
      <trkpt lat="46.23319" lon="6.50543">
        <ele>1400</ele>
        <time>2010-09-11T13:56:34Z</time>
      </trkpt>
      <trkpt lat="46.23323" lon="6.50544">
        <ele>1400</ele>
        <time>2010-09-11T13:56:36Z</time>
      </trkpt>
      <trkpt lat="46.23336" lon="6.5055">
        <ele>1397</ele>
        <time>2010-09-11T13:56:42Z</time>
      </trkpt>
      <trkpt lat="46.2334" lon="6.5055">
        <ele>1397</ele>
        <time>2010-09-11T13:56:44Z</time>
      </trkpt>
      <trkpt lat="46.23349" lon="6.50551">
        <ele>1397</ele>
        <time>2010-09-11T13:56:50Z</time>
      </trkpt>
      <trkpt lat="46.23357" lon="6.50549">
        <ele>1397</ele>
        <time>2010-09-11T13:56:55Z</time>
      </trkpt>
      <trkpt lat="46.23369" lon="6.50543">
        <ele>1397</ele>
        <time>2010-09-11T13:57:04Z</time>
      </trkpt>
      <trkpt lat="46.23379" lon="6.50539">
        <ele>1397</ele>
        <time>2010-09-11T13:57:11Z</time>
      </trkpt>
      <trkpt lat="46.23387" lon="6.50537">
        <ele>1396</ele>
        <time>2010-09-11T13:57:17Z</time>
      </trkpt>
      <trkpt lat="46.23393" lon="6.50537">
        <ele>1396</ele>
        <time>2010-09-11T13:57:22Z</time>
      </trkpt>
      <trkpt lat="46.23406" lon="6.50535">
        <ele>1395</ele>
        <time>2010-09-11T13:57:29Z</time>
      </trkpt>
      <trkpt lat="46.23416" lon="6.50532">
        <ele>1395</ele>
        <time>2010-09-11T13:57:33Z</time>
      </trkpt>
      <trkpt lat="46.23426" lon="6.50529">
        <ele>1391</ele>
        <time>2010-09-11T13:57:37Z</time>
      </trkpt>
      <trkpt lat="46.23445" lon="6.50525">
        <ele>1391</ele>
        <time>2010-09-11T13:57:44Z</time>
      </trkpt>
      <trkpt lat="46.23459" lon="6.50522">
        <ele>1390</ele>
        <time>2010-09-11T13:57:49Z</time>
      </trkpt>
      <trkpt lat="46.23472" lon="6.50525">
        <ele>1390</ele>
        <time>2010-09-11T13:57:54Z</time>
      </trkpt>
      <trkpt lat="46.23482" lon="6.50522">
        <ele>1389</ele>
        <time>2010-09-11T13:57:59Z</time>
      </trkpt>
      <trkpt lat="46.2349" lon="6.50522">
        <ele>1389</ele>
        <time>2010-09-11T13:58:05Z</time>
      </trkpt>
      <trkpt lat="46.23497" lon="6.50523">
        <ele>1389</ele>
        <time>2010-09-11T13:58:10Z</time>
      </trkpt>
      <trkpt lat="46.23509" lon="6.50524">
        <ele>1391</ele>
        <time>2010-09-11T13:58:18Z</time>
      </trkpt>
      <trkpt lat="46.23517" lon="6.50527">
        <ele>1391</ele>
        <time>2010-09-11T13:58:24Z</time>
      </trkpt>
      <trkpt lat="46.23527" lon="6.50533">
        <ele>1392</ele>
        <time>2010-09-11T13:58:31Z</time>
      </trkpt>
      <trkpt lat="46.23535" lon="6.5054">
        <ele>1392</ele>
        <time>2010-09-11T13:58:35Z</time>
      </trkpt>
      <trkpt lat="46.23548" lon="6.50553">
        <ele>1393</ele>
        <time>2010-09-11T13:58:41Z</time>
      </trkpt>
      <trkpt lat="46.23556" lon="6.50562">
        <ele>1393</ele>
        <time>2010-09-11T13:58:45Z</time>
      </trkpt>
      <trkpt lat="46.23563" lon="6.50573">
        <ele>1394</ele>
        <time>2010-09-11T13:58:50Z</time>
      </trkpt>
      <trkpt lat="46.23566" lon="6.50586">
        <ele>1392</ele>
        <time>2010-09-11T13:58:57Z</time>
      </trkpt>
      <trkpt lat="46.2357" lon="6.50596">
        <ele>1392</ele>
        <time>2010-09-11T13:59:03Z</time>
      </trkpt>
      <trkpt lat="46.23579" lon="6.50604">
        <ele>1392</ele>
        <time>2010-09-11T13:59:11Z</time>
      </trkpt>
      <trkpt lat="46.23591" lon="6.50606">
        <ele>1396</ele>
        <time>2010-09-11T13:59:19Z</time>
      </trkpt>
      <trkpt lat="46.23604" lon="6.5061">
        <ele>1396</ele>
        <time>2010-09-11T13:59:28Z</time>
      </trkpt>
      <trkpt lat="46.23612" lon="6.50619">
        <ele>1396</ele>
        <time>2010-09-11T13:59:35Z</time>
      </trkpt>
      <trkpt lat="46.23616" lon="6.50629">
        <ele>1396</ele>
        <time>2010-09-11T13:59:42Z</time>
      </trkpt>
      <trkpt lat="46.23623" lon="6.50636">
        <ele>1396</ele>
        <time>2010-09-11T13:59:49Z</time>
      </trkpt>
      <trkpt lat="46.23625" lon="6.50638">
        <ele>1396</ele>
        <time>2010-09-11T13:59:51Z</time>
      </trkpt>
      <trkpt lat="46.23628" lon="6.50643">
        <ele>1396</ele>
        <time>2010-09-11T13:59:55Z</time>
      </trkpt>
      <trkpt lat="46.23631" lon="6.50646">
        <ele>1396</ele>
        <time>2010-09-11T13:59:59Z</time>
      </trkpt>
      <trkpt lat="46.23632" lon="6.50653">
        <ele>1396</ele>
        <time>2010-09-11T14:00:05Z</time>
      </trkpt>
      <trkpt lat="46.23628" lon="6.50657">
        <ele>1397</ele>
        <time>2010-09-11T14:00:10Z</time>
      </trkpt>
      <trkpt lat="46.23626" lon="6.50658">
        <ele>1397</ele>
        <time>2010-09-11T14:00:16Z</time>
      </trkpt>
      <trkpt lat="46.23623" lon="6.5066">
        <ele>1397</ele>
        <time>2010-09-11T14:00:23Z</time>
      </trkpt>
      <trkpt lat="46.23618" lon="6.50664">
        <ele>1397</ele>
        <time>2010-09-11T14:00:29Z</time>
      </trkpt>
      <trkpt lat="46.23614" lon="6.50666">
        <ele>1397</ele>
        <time>2010-09-11T14:00:36Z</time>
      </trkpt>
      <trkpt lat="46.23612" lon="6.50668">
        <ele>1401</ele>
        <time>2010-09-11T14:00:44Z</time>
      </trkpt>
      <trkpt lat="46.23608" lon="6.50673">
        <ele>1401</ele>
        <time>2010-09-11T14:00:48Z</time>
      </trkpt>
      <trkpt lat="46.23602" lon="6.5068">
        <ele>1401</ele>
        <time>2010-09-11T14:00:56Z</time>
      </trkpt>
      <trkpt lat="46.23599" lon="6.50686">
        <ele>1401</ele>
        <time>2010-09-11T14:01:01Z</time>
      </trkpt>
      <trkpt lat="46.236" lon="6.50693">
        <ele>1402</ele>
        <time>2010-09-11T14:01:05Z</time>
      </trkpt>
      <trkpt lat="46.23599" lon="6.50699">
        <ele>1402</ele>
        <time>2010-09-11T14:01:10Z</time>
      </trkpt>
      <trkpt lat="46.23599" lon="6.50704">
        <ele>1403</ele>
        <time>2010-09-11T14:01:13Z</time>
      </trkpt>
      <trkpt lat="46.23599" lon="6.50716">
        <ele>1403</ele>
        <time>2010-09-11T14:01:20Z</time>
      </trkpt>
      <trkpt lat="46.23602" lon="6.5072">
        <ele>1404</ele>
        <time>2010-09-11T14:01:24Z</time>
      </trkpt>
      <trkpt lat="46.23611" lon="6.50726">
        <ele>1404</ele>
        <time>2010-09-11T14:01:32Z</time>
      </trkpt>
      <trkpt lat="46.23621" lon="6.50731">
        <ele>1405</ele>
        <time>2010-09-11T14:01:39Z</time>
      </trkpt>
      <trkpt lat="46.23629" lon="6.50737">
        <ele>1406</ele>
        <time>2010-09-11T14:01:45Z</time>
      </trkpt>
      <trkpt lat="46.23634" lon="6.50744">
        <ele>1406</ele>
        <time>2010-09-11T14:01:51Z</time>
      </trkpt>
      <trkpt lat="46.23636" lon="6.50749">
        <ele>1407</ele>
        <time>2010-09-11T14:01:54Z</time>
      </trkpt>
      <trkpt lat="46.23642" lon="6.50753">
        <ele>1411</ele>
        <time>2010-09-11T14:02:01Z</time>
      </trkpt>
      <trkpt lat="46.23646" lon="6.50759">
        <ele>1411</ele>
        <time>2010-09-11T14:02:08Z</time>
      </trkpt>
      <trkpt lat="46.23648" lon="6.50763">
        <ele>1411</ele>
        <time>2010-09-11T14:02:13Z</time>
      </trkpt>
      <trkpt lat="46.23651" lon="6.50765">
        <ele>1411</ele>
        <time>2010-09-11T14:02:18Z</time>
      </trkpt>
      <trkpt lat="46.23653" lon="6.50768">
        <ele>1412</ele>
        <time>2010-09-11T14:02:23Z</time>
      </trkpt>
      <trkpt lat="46.23654" lon="6.5077">
        <ele>1412</ele>
        <time>2010-09-11T14:02:28Z</time>
      </trkpt>
      <trkpt lat="46.23654" lon="6.50773">
        <ele>1412</ele>
        <time>2010-09-11T14:02:33Z</time>
      </trkpt>
      <trkpt lat="46.23655" lon="6.50776">
        <ele>1412</ele>
        <time>2010-09-11T14:02:42Z</time>
      </trkpt>
      <trkpt lat="46.23658" lon="6.50779">
        <ele>1412</ele>
        <time>2010-09-11T14:02:47Z</time>
      </trkpt>
      <trkpt lat="46.2366" lon="6.50779">
        <ele>1412</ele>
        <time>2010-09-11T14:02:52Z</time>
      </trkpt>
      <trkpt lat="46.23662" lon="6.50781">
        <ele>1412</ele>
        <time>2010-09-11T14:02:56Z</time>
      </trkpt>
      <trkpt lat="46.23667" lon="6.5078">
        <ele>1412</ele>
        <time>2010-09-11T14:03:01Z</time>
      </trkpt>
      <trkpt lat="46.23667" lon="6.5078">
        <ele>1412</ele>
        <time>2010-09-11T14:03:06Z</time>
      </trkpt>
      <trkpt lat="46.23672" lon="6.50779">
        <ele>1412</ele>
        <time>2010-09-11T14:03:13Z</time>
      </trkpt>
      <trkpt lat="46.23675" lon="6.50778">
        <ele>1412</ele>
        <time>2010-09-11T14:03:17Z</time>
      </trkpt>
      <trkpt lat="46.23675" lon="6.50777">
        <ele>1412</ele>
        <time>2010-09-11T14:03:23Z</time>
      </trkpt>
      <trkpt lat="46.23676" lon="6.50777">
        <ele>1412</ele>
        <time>2010-09-11T14:03:37Z</time>
      </trkpt>
      <trkpt lat="46.23684" lon="6.50772">
        <ele>1411</ele>
        <time>2010-09-11T14:03:43Z</time>
      </trkpt>
      <trkpt lat="46.23687" lon="6.5077">
        <ele>1411</ele>
        <time>2010-09-11T14:03:45Z</time>
      </trkpt>
      <trkpt lat="46.23695" lon="6.50765">
        <ele>1410</ele>
        <time>2010-09-11T14:03:51Z</time>
      </trkpt>
      <trkpt lat="46.23698" lon="6.50764">
        <ele>1410</ele>
        <time>2010-09-11T14:03:53Z</time>
      </trkpt>
      <trkpt lat="46.23704" lon="6.50755">
        <ele>1409</ele>
        <time>2010-09-11T14:03:59Z</time>
      </trkpt>
      <trkpt lat="46.23702" lon="6.50747">
        <ele>1401</ele>
        <time>2010-09-11T14:04:04Z</time>
      </trkpt>
      <trkpt lat="46.23707" lon="6.50741">
        <ele>1400</ele>
        <time>2010-09-11T14:04:08Z</time>
      </trkpt>
      <trkpt lat="46.23713" lon="6.50742">
        <ele>1399</ele>
        <time>2010-09-11T14:04:13Z</time>
      </trkpt>
      <trkpt lat="46.2372" lon="6.50745">
        <ele>1399</ele>
        <time>2010-09-11T14:04:18Z</time>
      </trkpt>
      <trkpt lat="46.23721" lon="6.50746">
        <ele>1399</ele>
        <time>2010-09-11T14:04:19Z</time>
      </trkpt>
      <trkpt lat="46.23728" lon="6.50747">
        <ele>1398</ele>
        <time>2010-09-11T14:04:22Z</time>
      </trkpt>
      <trkpt lat="46.23739" lon="6.50749">
        <ele>1397</ele>
        <time>2010-09-11T14:04:27Z</time>
      </trkpt>
      <trkpt lat="46.23742" lon="6.5075">
        <ele>1397</ele>
        <time>2010-09-11T14:04:28Z</time>
      </trkpt>
      <trkpt lat="46.23756" lon="6.50748">
        <ele>1392</ele>
        <time>2010-09-11T14:04:33Z</time>
      </trkpt>
      <trkpt lat="46.23772" lon="6.50746">
        <ele>1385</ele>
        <time>2010-09-11T14:04:39Z</time>
      </trkpt>
      <trkpt lat="46.2379" lon="6.50745">
        <ele>1380</ele>
        <time>2010-09-11T14:04:46Z</time>
      </trkpt>
      <trkpt lat="46.23806" lon="6.50746">
        <ele>1376</ele>
        <time>2010-09-11T14:04:52Z</time>
      </trkpt>
      <trkpt lat="46.23821" lon="6.50748">
        <ele>1372</ele>
        <time>2010-09-11T14:04:58Z</time>
      </trkpt>
      <trkpt lat="46.23835" lon="6.50749">
        <ele>1366</ele>
        <time>2010-09-11T14:05:03Z</time>
      </trkpt>
      <trkpt lat="46.23847" lon="6.5075">
        <ele>1364</ele>
        <time>2010-09-11T14:05:08Z</time>
      </trkpt>
      <trkpt lat="46.23855" lon="6.50749">
        <ele>1360</ele>
        <time>2010-09-11T14:05:15Z</time>
      </trkpt>
      <trkpt lat="46.23855" lon="6.50748">
        <ele>1360</ele>
        <time>2010-09-11T14:05:25Z</time>
      </trkpt>
      <trkpt lat="46.23856" lon="6.50751">
        <ele>1363</ele>
        <time>2010-09-11T14:05:31Z</time>
      </trkpt>
      <trkpt lat="46.2386" lon="6.50748">
        <ele>1359</ele>
        <time>2010-09-11T14:05:35Z</time>
      </trkpt>
      <trkpt lat="46.23868" lon="6.50747">
        <ele>1358</ele>
        <time>2010-09-11T14:05:41Z</time>
      </trkpt>
      <trkpt lat="46.2387" lon="6.50747">
        <ele>1357</ele>
        <time>2010-09-11T14:05:42Z</time>
      </trkpt>
      <trkpt lat="46.23879" lon="6.5075">
        <ele>1355</ele>
        <time>2010-09-11T14:05:48Z</time>
      </trkpt>
      <trkpt lat="46.2389" lon="6.50748">
        <ele>1353</ele>
        <time>2010-09-11T14:05:53Z</time>
      </trkpt>
      <trkpt lat="46.23892" lon="6.50748">
        <ele>1353</ele>
        <time>2010-09-11T14:05:54Z</time>
      </trkpt>
      <trkpt lat="46.239" lon="6.5075">
        <ele>1353</ele>
        <time>2010-09-11T14:06:00Z</time>
      </trkpt>
      <trkpt lat="46.23904" lon="6.50752">
        <ele>1351</ele>
        <time>2010-09-11T14:06:06Z</time>
      </trkpt>
      <trkpt lat="46.23915" lon="6.50753">
        <ele>1347</ele>
        <time>2010-09-11T14:06:12Z</time>
      </trkpt>
      <trkpt lat="46.23934" lon="6.5075">
        <ele>1344</ele>
        <time>2010-09-11T14:06:20Z</time>
      </trkpt>
      <trkpt lat="46.23947" lon="6.5075">
        <ele>1343</ele>
        <time>2010-09-11T14:06:25Z</time>
      </trkpt>
      <trkpt lat="46.23962" lon="6.50751">
        <ele>1341</ele>
        <time>2010-09-11T14:06:31Z</time>
      </trkpt>
      <trkpt lat="46.23971" lon="6.50752">
        <ele>1340</ele>
        <time>2010-09-11T14:06:35Z</time>
      </trkpt>
      <trkpt lat="46.23982" lon="6.50753">
        <ele>1338</ele>
        <time>2010-09-11T14:06:40Z</time>
      </trkpt>
      <trkpt lat="46.23996" lon="6.50755">
        <ele>1335</ele>
        <time>2010-09-11T14:06:46Z</time>
      </trkpt>
      <trkpt lat="46.24008" lon="6.50756">
        <ele>1330</ele>
        <time>2010-09-11T14:06:51Z</time>
      </trkpt>
      <trkpt lat="46.24023" lon="6.50758">
        <ele>1328</ele>
        <time>2010-09-11T14:06:57Z</time>
      </trkpt>
      <trkpt lat="46.24037" lon="6.50757">
        <ele>1325</ele>
        <time>2010-09-11T14:07:03Z</time>
      </trkpt>
      <trkpt lat="46.24043" lon="6.50756">
        <ele>1324</ele>
        <time>2010-09-11T14:07:07Z</time>
      </trkpt>
      <trkpt lat="46.24055" lon="6.50759">
        <ele>1323</ele>
        <time>2010-09-11T14:07:14Z</time>
      </trkpt>
      <trkpt lat="46.24067" lon="6.50759">
        <ele>1320</ele>
        <time>2010-09-11T14:07:20Z</time>
      </trkpt>
      <trkpt lat="46.24078" lon="6.50758">
        <ele>1318</ele>
        <time>2010-09-11T14:07:26Z</time>
      </trkpt>
      <trkpt lat="46.2409" lon="6.50757">
        <ele>1311</ele>
        <time>2010-09-11T14:07:32Z</time>
      </trkpt>
      <trkpt lat="46.24094" lon="6.50759">
        <ele>1310</ele>
        <time>2010-09-11T14:07:34Z</time>
      </trkpt>
      <trkpt lat="46.24096" lon="6.50758">
        <ele>1309</ele>
        <time>2010-09-11T14:07:37Z</time>
      </trkpt>
      <trkpt lat="46.241" lon="6.50763">
        <ele>1308</ele>
        <time>2010-09-11T14:07:44Z</time>
      </trkpt>
      <trkpt lat="46.241" lon="6.50764">
        <ele>1308</ele>
        <time>2010-09-11T14:07:45Z</time>
      </trkpt>
      <trkpt lat="46.24105" lon="6.50771">
        <ele>1306</ele>
        <time>2010-09-11T14:07:50Z</time>
      </trkpt>
      <trkpt lat="46.24108" lon="6.50775">
        <ele>1305</ele>
        <time>2010-09-11T14:07:52Z</time>
      </trkpt>
      <trkpt lat="46.2412" lon="6.50782">
        <ele>1303</ele>
        <time>2010-09-11T14:08:00Z</time>
      </trkpt>
      <trkpt lat="46.24122" lon="6.50775">
        <ele>1303</ele>
        <time>2010-09-11T14:08:05Z</time>
      </trkpt>
      <trkpt lat="46.24126" lon="6.50766">
        <ele>1302</ele>
        <time>2010-09-11T14:08:09Z</time>
      </trkpt>
      <trkpt lat="46.24129" lon="6.50768">
        <ele>1302</ele>
        <time>2010-09-11T14:08:14Z</time>
      </trkpt>
      <trkpt lat="46.24136" lon="6.50765">
        <ele>1300</ele>
        <time>2010-09-11T14:08:20Z</time>
      </trkpt>
      <trkpt lat="46.24138" lon="6.50764">
        <ele>1300</ele>
        <time>2010-09-11T14:08:21Z</time>
      </trkpt>
      <trkpt lat="46.24142" lon="6.50764">
        <ele>1299</ele>
        <time>2010-09-11T14:08:24Z</time>
      </trkpt>
      <trkpt lat="46.24151" lon="6.50759">
        <ele>1296</ele>
        <time>2010-09-11T14:08:30Z</time>
      </trkpt>
      <trkpt lat="46.2416" lon="6.50757">
        <ele>1293</ele>
        <time>2010-09-11T14:08:35Z</time>
      </trkpt>
      <trkpt lat="46.24164" lon="6.50756">
        <ele>1292</ele>
        <time>2010-09-11T14:08:37Z</time>
      </trkpt>
      <trkpt lat="46.24168" lon="6.50755">
        <ele>1287</ele>
        <time>2010-09-11T14:08:39Z</time>
      </trkpt>
      <trkpt lat="46.24171" lon="6.50758">
        <ele>1286</ele>
        <time>2010-09-11T14:08:46Z</time>
      </trkpt>
      <trkpt lat="46.24178" lon="6.5076">
        <ele>1286</ele>
        <time>2010-09-11T14:08:51Z</time>
      </trkpt>
      <trkpt lat="46.24183" lon="6.50763">
        <ele>1285</ele>
        <time>2010-09-11T14:08:53Z</time>
      </trkpt>
      <trkpt lat="46.24197" lon="6.50765">
        <ele>1283</ele>
        <time>2010-09-11T14:08:58Z</time>
      </trkpt>
      <trkpt lat="46.24213" lon="6.50765">
        <ele>1281</ele>
        <time>2010-09-11T14:09:04Z</time>
      </trkpt>
      <trkpt lat="46.24227" lon="6.50764">
        <ele>1279</ele>
        <time>2010-09-11T14:09:10Z</time>
      </trkpt>
      <trkpt lat="46.24229" lon="6.50764">
        <ele>1278</ele>
        <time>2010-09-11T14:09:11Z</time>
      </trkpt>
      <trkpt lat="46.24242" lon="6.50766">
        <ele>1276</ele>
        <time>2010-09-11T14:09:17Z</time>
      </trkpt>
      <trkpt lat="46.24244" lon="6.50766">
        <ele>1276</ele>
        <time>2010-09-11T14:09:18Z</time>
      </trkpt>
      <trkpt lat="46.24256" lon="6.50767">
        <ele>1267</ele>
        <time>2010-09-11T14:09:24Z</time>
      </trkpt>
      <trkpt lat="46.24267" lon="6.50769">
        <ele>1266</ele>
        <time>2010-09-11T14:09:29Z</time>
      </trkpt>
      <trkpt lat="46.24279" lon="6.50767">
        <ele>1264</ele>
        <time>2010-09-11T14:09:35Z</time>
      </trkpt>
      <trkpt lat="46.24288" lon="6.50767">
        <ele>1263</ele>
        <time>2010-09-11T14:09:39Z</time>
      </trkpt>
      <trkpt lat="46.24301" lon="6.50768">
        <ele>1261</ele>
        <time>2010-09-11T14:09:45Z</time>
      </trkpt>
      <trkpt lat="46.24313" lon="6.50769">
        <ele>1259</ele>
        <time>2010-09-11T14:09:51Z</time>
      </trkpt>
      <trkpt lat="46.24326" lon="6.50775">
        <ele>1258</ele>
        <time>2010-09-11T14:10:00Z</time>
      </trkpt>
      <trkpt lat="46.24329" lon="6.50778">
        <ele>1258</ele>
        <time>2010-09-11T14:10:04Z</time>
      </trkpt>
      <trkpt lat="46.24331" lon="6.5078">
        <ele>1259</ele>
        <time>2010-09-11T14:10:08Z</time>
      </trkpt>
      <trkpt lat="46.24332" lon="6.50778">
        <ele>1258</ele>
        <time>2010-09-11T14:10:15Z</time>
      </trkpt>
      <trkpt lat="46.24336" lon="6.50783">
        <ele>1249</ele>
        <time>2010-09-11T14:10:19Z</time>
      </trkpt>
      <trkpt lat="46.24342" lon="6.50788">
        <ele>1249</ele>
        <time>2010-09-11T14:10:24Z</time>
      </trkpt>
      <trkpt lat="46.24349" lon="6.50793">
        <ele>1249</ele>
        <time>2010-09-11T14:10:29Z</time>
      </trkpt>
      <trkpt lat="46.24358" lon="6.50799">
        <ele>1248</ele>
        <time>2010-09-11T14:10:36Z</time>
      </trkpt>
      <trkpt lat="46.24365" lon="6.50804">
        <ele>1248</ele>
        <time>2010-09-11T14:10:43Z</time>
      </trkpt>
      <trkpt lat="46.24371" lon="6.50805">
        <ele>1248</ele>
        <time>2010-09-11T14:10:49Z</time>
      </trkpt>
      <trkpt lat="46.24378" lon="6.50805">
        <ele>1247</ele>
        <time>2010-09-11T14:10:57Z</time>
      </trkpt>
      <trkpt lat="46.24382" lon="6.50804">
        <ele>1247</ele>
        <time>2010-09-11T14:11:03Z</time>
      </trkpt>
      <trkpt lat="46.24387" lon="6.50802">
        <ele>1246</ele>
        <time>2010-09-11T14:11:10Z</time>
      </trkpt>
      <trkpt lat="46.24387" lon="6.50801">
        <ele>1246</ele>
        <time>2010-09-11T14:11:16Z</time>
      </trkpt>
      <trkpt lat="46.24386" lon="6.50803">
        <ele>1246</ele>
        <time>2010-09-11T14:11:22Z</time>
      </trkpt>
      <trkpt lat="46.24382" lon="6.50807">
        <ele>1247</ele>
        <time>2010-09-11T14:11:26Z</time>
      </trkpt>
      <trkpt lat="46.24374" lon="6.50805">
        <ele>1247</ele>
        <time>2010-09-11T14:11:32Z</time>
      </trkpt>
      <trkpt lat="46.24363" lon="6.50805">
        <ele>1248</ele>
        <time>2010-09-11T14:11:40Z</time>
      </trkpt>
      <trkpt lat="46.24362" lon="6.50804">
        <ele>1248</ele>
        <time>2010-09-11T14:11:41Z</time>
      </trkpt>
      <trkpt lat="46.2436" lon="6.50795">
        <ele>1248</ele>
        <time>2010-09-11T14:11:45Z</time>
      </trkpt>
      <trkpt lat="46.2436" lon="6.50791">
        <ele>1248</ele>
        <time>2010-09-11T14:11:46Z</time>
      </trkpt>
      <trkpt lat="46.24363" lon="6.50767">
        <ele>1247</ele>
        <time>2010-09-11T14:11:53Z</time>
      </trkpt>
      <trkpt lat="46.24363" lon="6.50755">
        <ele>1247</ele>
        <time>2010-09-11T14:11:56Z</time>
      </trkpt>
      <trkpt lat="46.24371" lon="6.50736">
        <ele>1244</ele>
        <time>2010-09-11T14:12:03Z</time>
      </trkpt>
      <trkpt lat="46.24378" lon="6.50731">
        <ele>1244</ele>
        <time>2010-09-11T14:12:07Z</time>
      </trkpt>
      <trkpt lat="46.24379" lon="6.50729">
        <ele>1243</ele>
        <time>2010-09-11T14:12:08Z</time>
      </trkpt>
      <trkpt lat="46.24388" lon="6.50722">
        <ele>1243</ele>
        <time>2010-09-11T14:12:12Z</time>
      </trkpt>
      <trkpt lat="46.24404" lon="6.50719">
        <ele>1242</ele>
        <time>2010-09-11T14:12:18Z</time>
      </trkpt>
      <trkpt lat="46.2442" lon="6.50719">
        <ele>1234</ele>
        <time>2010-09-11T14:12:24Z</time>
      </trkpt>
      <trkpt lat="46.24434" lon="6.50717">
        <ele>1233</ele>
        <time>2010-09-11T14:12:29Z</time>
      </trkpt>
      <trkpt lat="46.24449" lon="6.50712">
        <ele>1232</ele>
        <time>2010-09-11T14:12:35Z</time>
      </trkpt>
      <trkpt lat="46.24463" lon="6.507">
        <ele>1231</ele>
        <time>2010-09-11T14:12:41Z</time>
      </trkpt>
      <trkpt lat="46.24473" lon="6.50689">
        <ele>1230</ele>
        <time>2010-09-11T14:12:46Z</time>
      </trkpt>
      <trkpt lat="46.24485" lon="6.5068">
        <ele>1229</ele>
        <time>2010-09-11T14:12:52Z</time>
      </trkpt>
      <trkpt lat="46.24496" lon="6.50675">
        <ele>1228</ele>
        <time>2010-09-11T14:12:57Z</time>
      </trkpt>
      <trkpt lat="46.24508" lon="6.50674">
        <ele>1225</ele>
        <time>2010-09-11T14:13:02Z</time>
      </trkpt>
      <trkpt lat="46.24518" lon="6.50674">
        <ele>1225</ele>
        <time>2010-09-11T14:13:07Z</time>
      </trkpt>
      <trkpt lat="46.24532" lon="6.50676">
        <ele>1224</ele>
        <time>2010-09-11T14:13:13Z</time>
      </trkpt>
      <trkpt lat="46.24546" lon="6.50678">
        <ele>1224</ele>
        <time>2010-09-11T14:13:19Z</time>
      </trkpt>
      <trkpt lat="46.24558" lon="6.50679">
        <ele>1224</ele>
        <time>2010-09-11T14:13:26Z</time>
      </trkpt>
      <trkpt lat="46.24572" lon="6.50681">
        <ele>1224</ele>
        <time>2010-09-11T14:13:34Z</time>
      </trkpt>
      <trkpt lat="46.24584" lon="6.50682">
        <ele>1222</ele>
        <time>2010-09-11T14:13:39Z</time>
      </trkpt>
      <trkpt lat="46.24597" lon="6.50682">
        <ele>1222</ele>
        <time>2010-09-11T14:13:44Z</time>
      </trkpt>
      <trkpt lat="46.24612" lon="6.50678">
        <ele>1221</ele>
        <time>2010-09-11T14:13:50Z</time>
      </trkpt>
      <trkpt lat="46.24624" lon="6.50683">
        <ele>1220</ele>
        <time>2010-09-11T14:13:55Z</time>
      </trkpt>
      <trkpt lat="46.24641" lon="6.50694">
        <ele>1219</ele>
        <time>2010-09-11T14:14:02Z</time>
      </trkpt>
      <trkpt lat="46.24656" lon="6.50703">
        <ele>1218</ele>
        <time>2010-09-11T14:14:08Z</time>
      </trkpt>
      <trkpt lat="46.24671" lon="6.50713">
        <ele>1215</ele>
        <time>2010-09-11T14:14:14Z</time>
      </trkpt>
      <trkpt lat="46.24675" lon="6.50716">
        <ele>1214</ele>
        <time>2010-09-11T14:14:16Z</time>
      </trkpt>
      <trkpt lat="46.24693" lon="6.50721">
        <ele>1214</ele>
        <time>2010-09-11T14:14:21Z</time>
      </trkpt>
      <trkpt lat="46.24707" lon="6.50727">
        <ele>1213</ele>
        <time>2010-09-11T14:14:26Z</time>
      </trkpt>
      <trkpt lat="46.24719" lon="6.5073">
        <ele>1213</ele>
        <time>2010-09-11T14:14:30Z</time>
      </trkpt>
      <trkpt lat="46.24734" lon="6.50735">
        <ele>1212</ele>
        <time>2010-09-11T14:14:35Z</time>
      </trkpt>
      <trkpt lat="46.24748" lon="6.50741">
        <ele>1211</ele>
        <time>2010-09-11T14:14:40Z</time>
      </trkpt>
      <trkpt lat="46.24757" lon="6.50745">
        <ele>1209</ele>
        <time>2010-09-11T14:14:44Z</time>
      </trkpt>
      <trkpt lat="46.24775" lon="6.50751">
        <ele>1204</ele>
        <time>2010-09-11T14:14:51Z</time>
      </trkpt>
      <trkpt lat="46.24792" lon="6.50759">
        <ele>1203</ele>
        <time>2010-09-11T14:14:57Z</time>
      </trkpt>
      <trkpt lat="46.24801" lon="6.50762">
        <ele>1202</ele>
        <time>2010-09-11T14:15:00Z</time>
      </trkpt>
      <trkpt lat="46.24811" lon="6.50774">
        <ele>1201</ele>
        <time>2010-09-11T14:15:05Z</time>
      </trkpt>
      <trkpt lat="46.24819" lon="6.50786">
        <ele>1201</ele>
        <time>2010-09-11T14:15:09Z</time>
      </trkpt>
      <trkpt lat="46.24828" lon="6.50797">
        <ele>1200</ele>
        <time>2010-09-11T14:15:13Z</time>
      </trkpt>
      <trkpt lat="46.24835" lon="6.50803">
        <ele>1197</ele>
        <time>2010-09-11T14:15:16Z</time>
      </trkpt>
      <trkpt lat="46.24847" lon="6.50811">
        <ele>1196</ele>
        <time>2010-09-11T14:15:21Z</time>
      </trkpt>
      <trkpt lat="46.2486" lon="6.50814">
        <ele>1196</ele>
        <time>2010-09-11T14:15:26Z</time>
      </trkpt>
      <trkpt lat="46.24877" lon="6.50818">
        <ele>1195</ele>
        <time>2010-09-11T14:15:33Z</time>
      </trkpt>
      <trkpt lat="46.24889" lon="6.5082">
        <ele>1194</ele>
        <time>2010-09-11T14:15:38Z</time>
      </trkpt>
      <trkpt lat="46.24904" lon="6.50821">
        <ele>1193</ele>
        <time>2010-09-11T14:15:44Z</time>
      </trkpt>
      <trkpt lat="46.24917" lon="6.50824">
        <ele>1190</ele>
        <time>2010-09-11T14:15:49Z</time>
      </trkpt>
      <trkpt lat="46.24932" lon="6.50827">
        <ele>1190</ele>
        <time>2010-09-11T14:15:54Z</time>
      </trkpt>
      <trkpt lat="46.24942" lon="6.50831">
        <ele>1190</ele>
        <time>2010-09-11T14:15:58Z</time>
      </trkpt>
      <trkpt lat="46.2495" lon="6.50834">
        <ele>1186</ele>
        <time>2010-09-11T14:16:02Z</time>
      </trkpt>
      <trkpt lat="46.24954" lon="6.50836">
        <ele>1186</ele>
        <time>2010-09-11T14:16:06Z</time>
      </trkpt>
      <trkpt lat="46.24958" lon="6.50845">
        <ele>1186</ele>
        <time>2010-09-11T14:16:11Z</time>
      </trkpt>
      <trkpt lat="46.24958" lon="6.50846">
        <ele>1186</ele>
        <time>2010-09-11T14:16:12Z</time>
      </trkpt>
      <trkpt lat="46.24964" lon="6.50852">
        <ele>1185</ele>
        <time>2010-09-11T14:16:17Z</time>
      </trkpt>
      <trkpt lat="46.24968" lon="6.50861">
        <ele>1185</ele>
        <time>2010-09-11T14:16:22Z</time>
      </trkpt>
      <trkpt lat="46.24966" lon="6.50874">
        <ele>1184</ele>
        <time>2010-09-11T14:16:28Z</time>
      </trkpt>
      <trkpt lat="46.24964" lon="6.50884">
        <ele>1183</ele>
        <time>2010-09-11T14:16:31Z</time>
      </trkpt>
      <trkpt lat="46.24962" lon="6.50907">
        <ele>1182</ele>
        <time>2010-09-11T14:16:37Z</time>
      </trkpt>
      <trkpt lat="46.24961" lon="6.50931">
        <ele>1174</ele>
        <time>2010-09-11T14:16:43Z</time>
      </trkpt>
      <trkpt lat="46.2496" lon="6.50948">
        <ele>1173</ele>
        <time>2010-09-11T14:16:47Z</time>
      </trkpt>
      <trkpt lat="46.24957" lon="6.50967">
        <ele>1172</ele>
        <time>2010-09-11T14:16:52Z</time>
      </trkpt>
      <trkpt lat="46.24956" lon="6.5097">
        <ele>1171</ele>
        <time>2010-09-11T14:16:54Z</time>
      </trkpt>
      <trkpt lat="46.24957" lon="6.50974">
        <ele>1171</ele>
        <time>2010-09-11T14:16:57Z</time>
      </trkpt>
      <trkpt lat="46.24955" lon="6.50985">
        <ele>1170</ele>
        <time>2010-09-11T14:17:03Z</time>
      </trkpt>
      <trkpt lat="46.24957" lon="6.50991">
        <ele>1170</ele>
        <time>2010-09-11T14:17:06Z</time>
      </trkpt>
      <trkpt lat="46.24954" lon="6.50999">
        <ele>1170</ele>
        <time>2010-09-11T14:17:11Z</time>
      </trkpt>
      <trkpt lat="46.24953" lon="6.5101">
        <ele>1158</ele>
        <time>2010-09-11T14:17:16Z</time>
      </trkpt>
      <trkpt lat="46.2495" lon="6.51016">
        <ele>1157</ele>
        <time>2010-09-11T14:17:20Z</time>
      </trkpt>
      <trkpt lat="46.24947" lon="6.51027">
        <ele>1156</ele>
        <time>2010-09-11T14:17:25Z</time>
      </trkpt>
      <trkpt lat="46.24942" lon="6.51037">
        <ele>1154</ele>
        <time>2010-09-11T14:17:30Z</time>
      </trkpt>
      <trkpt lat="46.24946" lon="6.51045">
        <ele>1153</ele>
        <time>2010-09-11T14:17:34Z</time>
      </trkpt>
      <trkpt lat="46.24952" lon="6.51055">
        <ele>1152</ele>
        <time>2010-09-11T14:17:39Z</time>
      </trkpt>
      <trkpt lat="46.2496" lon="6.51061">
        <ele>1151</ele>
        <time>2010-09-11T14:17:44Z</time>
      </trkpt>
      <trkpt lat="46.24955" lon="6.51072">
        <ele>1150</ele>
        <time>2010-09-11T14:17:50Z</time>
      </trkpt>
      <trkpt lat="46.24947" lon="6.51072">
        <ele>1149</ele>
        <time>2010-09-11T14:17:54Z</time>
      </trkpt>
      <trkpt lat="46.24945" lon="6.51074">
        <ele>1149</ele>
        <time>2010-09-11T14:17:56Z</time>
      </trkpt>
      <trkpt lat="46.24942" lon="6.51075">
        <ele>1148</ele>
        <time>2010-09-11T14:17:58Z</time>
      </trkpt>
      <trkpt lat="46.24947" lon="6.51079">
        <ele>1149</ele>
        <time>2010-09-11T14:18:02Z</time>
      </trkpt>
      <trkpt lat="46.24948" lon="6.51079">
        <ele>1149</ele>
        <time>2010-09-11T14:18:03Z</time>
      </trkpt>
      <trkpt lat="46.24955" lon="6.51087">
        <ele>1135</ele>
        <time>2010-09-11T14:18:10Z</time>
      </trkpt>
      <trkpt lat="46.24958" lon="6.51092">
        <ele>1135</ele>
        <time>2010-09-11T14:18:14Z</time>
      </trkpt>
      <trkpt lat="46.24969" lon="6.51104">
        <ele>1134</ele>
        <time>2010-09-11T14:18:20Z</time>
      </trkpt>
      <trkpt lat="46.2497" lon="6.51125">
        <ele>1131</ele>
        <time>2010-09-11T14:18:27Z</time>
      </trkpt>
      <trkpt lat="46.24965" lon="6.5114">
        <ele>1129</ele>
        <time>2010-09-11T14:18:32Z</time>
      </trkpt>
      <trkpt lat="46.24962" lon="6.51144">
        <ele>1129</ele>
        <time>2010-09-11T14:18:34Z</time>
      </trkpt>
      <trkpt lat="46.24949" lon="6.51155">
        <ele>1127</ele>
        <time>2010-09-11T14:18:40Z</time>
      </trkpt>
      <trkpt lat="46.24934" lon="6.51166">
        <ele>1124</ele>
        <time>2010-09-11T14:18:46Z</time>
      </trkpt>
      <trkpt lat="46.2493" lon="6.51179">
        <ele>1117</ele>
        <time>2010-09-11T14:18:50Z</time>
      </trkpt>
      <trkpt lat="46.24929" lon="6.51203">
        <ele>1115</ele>
        <time>2010-09-11T14:18:56Z</time>
      </trkpt>
      <trkpt lat="46.24927" lon="6.51223">
        <ele>1113</ele>
        <time>2010-09-11T14:19:01Z</time>
      </trkpt>
      <trkpt lat="46.24925" lon="6.51236">
        <ele>1112</ele>
        <time>2010-09-11T14:19:05Z</time>
      </trkpt>
      <trkpt lat="46.24924" lon="6.5124">
        <ele>1111</ele>
        <time>2010-09-11T14:19:11Z</time>
      </trkpt>
      <trkpt lat="46.24923" lon="6.5124">
        <ele>1111</ele>
        <time>2010-09-11T14:19:19Z</time>
      </trkpt>
      <trkpt lat="46.2492" lon="6.51242">
        <ele>1110</ele>
        <time>2010-09-11T14:19:27Z</time>
      </trkpt>
      <trkpt lat="46.24921" lon="6.51242">
        <ele>1110</ele>
        <time>2010-09-11T14:19:42Z</time>
      </trkpt>
      <trkpt lat="46.24921" lon="6.51242">
        <ele>1110</ele>
        <time>2010-09-11T14:19:51Z</time>
      </trkpt>
      <trkpt lat="46.2492" lon="6.51242">
        <ele>1110</ele>
        <time>2010-09-11T14:19:55Z</time>
      </trkpt>
      <trkpt lat="46.24922" lon="6.51241">
        <ele>1111</ele>
        <time>2010-09-11T14:19:59Z</time>
      </trkpt>
    </trkseg>
  </trk>
</gpx>